<?xml version="1.0" encoding="UTF-8" standalone="no" ?>
<gpx xmlns="http://www.topografix.com/GPX/1/1" xmlns:xsi="http://www.w3.org/2001/XMLSchema-instance" xsi:schemaLocation="http://www.topografix.com/GPX/1/1 http://www.topografix.com/GPX/1/1/gpx.xsd" version="1.1" creator="VisuGPX - https://www.visugpx.com">
  <metadata>
    <name>13 km Thiernois 2024</name>
  </metadata>
  <trk>
    <name><![CDATA[Thiers Course à pied]]></name>
    <trkseg>
      <trkpt lat="45.84631" lon="3.5212">
        <ele>298.60000610352</ele>
        <time>2024-04-30T16:25:09.000Z</time>
      </trkpt>
      <trkpt lat="45.8463" lon="3.5212">
        <ele>298.79998779297</ele>
        <time>2024-04-30T16:25:10.000Z</time>
      </trkpt>
      <trkpt lat="45.84629" lon="3.52119">
        <ele>298.79998779297</ele>
        <time>2024-04-30T16:25:11.000Z</time>
      </trkpt>
      <trkpt lat="45.84624" lon="3.52121">
        <ele>298.60000610352</ele>
        <time>2024-04-30T16:25:12.000Z</time>
      </trkpt>
      <trkpt lat="45.84622" lon="3.52122">
        <ele>298.60000610352</ele>
        <time>2024-04-30T16:25:13.000Z</time>
      </trkpt>
      <trkpt lat="45.84619" lon="3.52123">
        <ele>297.60000610352</ele>
        <time>2024-04-30T16:25:14.000Z</time>
      </trkpt>
      <trkpt lat="45.84617" lon="3.52124">
        <ele>297.79998779297</ele>
        <time>2024-04-30T16:25:15.000Z</time>
      </trkpt>
      <trkpt lat="45.84614" lon="3.52125">
        <ele>297.79998779297</ele>
        <time>2024-04-30T16:25:16.000Z</time>
      </trkpt>
      <trkpt lat="45.84612" lon="3.52127">
        <ele>298.20001220703</ele>
        <time>2024-04-30T16:25:17.000Z</time>
      </trkpt>
      <trkpt lat="45.8461" lon="3.52128">
        <ele>298.39999389648</ele>
        <time>2024-04-30T16:25:18.000Z</time>
      </trkpt>
      <trkpt lat="45.84607" lon="3.52129">
        <ele>298.20001220703</ele>
        <time>2024-04-30T16:25:19.000Z</time>
      </trkpt>
      <trkpt lat="45.84605" lon="3.52131">
        <ele>298.20001220703</ele>
        <time>2024-04-30T16:25:20.000Z</time>
      </trkpt>
      <trkpt lat="45.84603" lon="3.52131">
        <ele>298.20001220703</ele>
        <time>2024-04-30T16:25:21.000Z</time>
      </trkpt>
      <trkpt lat="45.84601" lon="3.52132">
        <ele>298.39999389648</ele>
        <time>2024-04-30T16:25:22.000Z</time>
      </trkpt>
      <trkpt lat="45.84599" lon="3.52133">
        <ele>298.39999389648</ele>
        <time>2024-04-30T16:25:23.000Z</time>
      </trkpt>
      <trkpt lat="45.84596" lon="3.52135">
        <ele>298.39999389648</ele>
        <time>2024-04-30T16:25:24.000Z</time>
      </trkpt>
      <trkpt lat="45.84594" lon="3.52137">
        <ele>298.39999389648</ele>
        <time>2024-04-30T16:25:25.000Z</time>
      </trkpt>
      <trkpt lat="45.84592" lon="3.52139">
        <ele>298.39999389648</ele>
        <time>2024-04-30T16:25:26.000Z</time>
      </trkpt>
      <trkpt lat="45.8459" lon="3.5214">
        <ele>298.39999389648</ele>
        <time>2024-04-30T16:25:27.000Z</time>
      </trkpt>
      <trkpt lat="45.84588" lon="3.52142">
        <ele>298.39999389648</ele>
        <time>2024-04-30T16:25:28.000Z</time>
      </trkpt>
      <trkpt lat="45.84586" lon="3.52143">
        <ele>298.39999389648</ele>
        <time>2024-04-30T16:25:29.000Z</time>
      </trkpt>
      <trkpt lat="45.84584" lon="3.52145">
        <ele>298.39999389648</ele>
        <time>2024-04-30T16:25:30.000Z</time>
      </trkpt>
      <trkpt lat="45.84582" lon="3.52147">
        <ele>298.39999389648</ele>
        <time>2024-04-30T16:25:31.000Z</time>
      </trkpt>
      <trkpt lat="45.8458" lon="3.52148">
        <ele>298.39999389648</ele>
        <time>2024-04-30T16:25:32.000Z</time>
      </trkpt>
      <trkpt lat="45.84578" lon="3.5215">
        <ele>298.39999389648</ele>
        <time>2024-04-30T16:25:33.000Z</time>
      </trkpt>
      <trkpt lat="45.84576" lon="3.52152">
        <ele>298.39999389648</ele>
        <time>2024-04-30T16:25:34.000Z</time>
      </trkpt>
      <trkpt lat="45.84574" lon="3.52154">
        <ele>298.39999389648</ele>
        <time>2024-04-30T16:25:35.000Z</time>
      </trkpt>
      <trkpt lat="45.84572" lon="3.52154">
        <ele>298.39999389648</ele>
        <time>2024-04-30T16:25:36.000Z</time>
      </trkpt>
      <trkpt lat="45.8457" lon="3.52155">
        <ele>298.20001220703</ele>
        <time>2024-04-30T16:25:37.000Z</time>
      </trkpt>
      <trkpt lat="45.84568" lon="3.52156">
        <ele>298.39999389648</ele>
        <time>2024-04-30T16:25:38.000Z</time>
      </trkpt>
      <trkpt lat="45.84566" lon="3.52156">
        <ele>298.60000610352</ele>
        <time>2024-04-30T16:25:39.000Z</time>
      </trkpt>
      <trkpt lat="45.84566" lon="3.52156">
        <ele>298.60000610352</ele>
        <time>2024-04-30T16:25:40.000Z</time>
      </trkpt>
      <trkpt lat="45.84564" lon="3.52157">
        <ele>298.60000610352</ele>
        <time>2024-04-30T16:25:41.000Z</time>
      </trkpt>
      <trkpt lat="45.84561" lon="3.52159">
        <ele>298.79998779297</ele>
        <time>2024-04-30T16:25:42.000Z</time>
      </trkpt>
      <trkpt lat="45.84559" lon="3.5216">
        <ele>298.79998779297</ele>
        <time>2024-04-30T16:25:43.000Z</time>
      </trkpt>
      <trkpt lat="45.84557" lon="3.52162">
        <ele>298.79998779297</ele>
        <time>2024-04-30T16:25:44.000Z</time>
      </trkpt>
      <trkpt lat="45.84554" lon="3.52164">
        <ele>298.79998779297</ele>
        <time>2024-04-30T16:25:45.000Z</time>
      </trkpt>
      <trkpt lat="45.84552" lon="3.52166">
        <ele>299</ele>
        <time>2024-04-30T16:25:46.000Z</time>
      </trkpt>
      <trkpt lat="45.8455" lon="3.52168">
        <ele>299.20001220703</ele>
        <time>2024-04-30T16:25:47.000Z</time>
      </trkpt>
      <trkpt lat="45.84548" lon="3.5217">
        <ele>299</ele>
        <time>2024-04-30T16:25:48.000Z</time>
      </trkpt>
      <trkpt lat="45.84545" lon="3.52172">
        <ele>299</ele>
        <time>2024-04-30T16:25:49.000Z</time>
      </trkpt>
      <trkpt lat="45.84543" lon="3.52174">
        <ele>299</ele>
        <time>2024-04-30T16:25:50.000Z</time>
      </trkpt>
      <trkpt lat="45.84541" lon="3.52176">
        <ele>299.20001220703</ele>
        <time>2024-04-30T16:25:51.000Z</time>
      </trkpt>
      <trkpt lat="45.84538" lon="3.52177">
        <ele>299.39999389648</ele>
        <time>2024-04-30T16:25:52.000Z</time>
      </trkpt>
      <trkpt lat="45.84536" lon="3.52179">
        <ele>299.39999389648</ele>
        <time>2024-04-30T16:25:53.000Z</time>
      </trkpt>
      <trkpt lat="45.84534" lon="3.52181">
        <ele>299.39999389648</ele>
        <time>2024-04-30T16:25:54.000Z</time>
      </trkpt>
      <trkpt lat="45.84532" lon="3.52183">
        <ele>299.39999389648</ele>
        <time>2024-04-30T16:25:55.000Z</time>
      </trkpt>
      <trkpt lat="45.8453" lon="3.52185">
        <ele>299.39999389648</ele>
        <time>2024-04-30T16:25:56.000Z</time>
      </trkpt>
      <trkpt lat="45.84527" lon="3.52186">
        <ele>299.60000610352</ele>
        <time>2024-04-30T16:25:57.000Z</time>
      </trkpt>
      <trkpt lat="45.84524" lon="3.52188">
        <ele>299.60000610352</ele>
        <time>2024-04-30T16:25:58.000Z</time>
      </trkpt>
      <trkpt lat="45.84522" lon="3.5219">
        <ele>299.60000610352</ele>
        <time>2024-04-30T16:25:59.000Z</time>
      </trkpt>
      <trkpt lat="45.8452" lon="3.52192">
        <ele>299.79998779297</ele>
        <time>2024-04-30T16:26:00.000Z</time>
      </trkpt>
      <trkpt lat="45.84518" lon="3.52195">
        <ele>300</ele>
        <time>2024-04-30T16:26:01.000Z</time>
      </trkpt>
      <trkpt lat="45.84517" lon="3.52197">
        <ele>299.79998779297</ele>
        <time>2024-04-30T16:26:02.000Z</time>
      </trkpt>
      <trkpt lat="45.84516" lon="3.52198">
        <ele>299.60000610352</ele>
        <time>2024-04-30T16:26:03.000Z</time>
      </trkpt>
      <trkpt lat="45.84513" lon="3.52201">
        <ele>299.60000610352</ele>
        <time>2024-04-30T16:26:04.000Z</time>
      </trkpt>
      <trkpt lat="45.84511" lon="3.52204">
        <ele>299.79998779297</ele>
        <time>2024-04-30T16:26:05.000Z</time>
      </trkpt>
      <trkpt lat="45.84511" lon="3.52206">
        <ele>300</ele>
        <time>2024-04-30T16:26:06.000Z</time>
      </trkpt>
      <trkpt lat="45.84511" lon="3.5221">
        <ele>300</ele>
        <time>2024-04-30T16:26:07.000Z</time>
      </trkpt>
      <trkpt lat="45.84511" lon="3.52213">
        <ele>300</ele>
        <time>2024-04-30T16:26:08.000Z</time>
      </trkpt>
      <trkpt lat="45.84512" lon="3.52215">
        <ele>300</ele>
        <time>2024-04-30T16:26:09.000Z</time>
      </trkpt>
      <trkpt lat="45.84513" lon="3.52219">
        <ele>300</ele>
        <time>2024-04-30T16:26:10.000Z</time>
      </trkpt>
      <trkpt lat="45.84514" lon="3.52222">
        <ele>300</ele>
        <time>2024-04-30T16:26:11.000Z</time>
      </trkpt>
      <trkpt lat="45.84515" lon="3.52226">
        <ele>300</ele>
        <time>2024-04-30T16:26:12.000Z</time>
      </trkpt>
      <trkpt lat="45.84516" lon="3.52229">
        <ele>300</ele>
        <time>2024-04-30T16:26:13.000Z</time>
      </trkpt>
      <trkpt lat="45.84517" lon="3.52232">
        <ele>300.20001220703</ele>
        <time>2024-04-30T16:26:14.000Z</time>
      </trkpt>
      <trkpt lat="45.84518" lon="3.52236">
        <ele>300.20001220703</ele>
        <time>2024-04-30T16:26:15.000Z</time>
      </trkpt>
      <trkpt lat="45.84519" lon="3.52239">
        <ele>300.20001220703</ele>
        <time>2024-04-30T16:26:16.000Z</time>
      </trkpt>
      <trkpt lat="45.8452" lon="3.52243">
        <ele>300.20001220703</ele>
        <time>2024-04-30T16:26:17.000Z</time>
      </trkpt>
      <trkpt lat="45.84521" lon="3.52246">
        <ele>300.20001220703</ele>
        <time>2024-04-30T16:26:18.000Z</time>
      </trkpt>
      <trkpt lat="45.84522" lon="3.52249">
        <ele>300.20001220703</ele>
        <time>2024-04-30T16:26:19.000Z</time>
      </trkpt>
      <trkpt lat="45.84524" lon="3.52252">
        <ele>300.39999389648</ele>
        <time>2024-04-30T16:26:20.000Z</time>
      </trkpt>
      <trkpt lat="45.84525" lon="3.52255">
        <ele>300.20001220703</ele>
        <time>2024-04-30T16:26:21.000Z</time>
      </trkpt>
      <trkpt lat="45.84526" lon="3.52258">
        <ele>300.39999389648</ele>
        <time>2024-04-30T16:26:22.000Z</time>
      </trkpt>
      <trkpt lat="45.84527" lon="3.5226">
        <ele>300.39999389648</ele>
        <time>2024-04-30T16:26:23.000Z</time>
      </trkpt>
      <trkpt lat="45.84528" lon="3.52263">
        <ele>300.60000610352</ele>
        <time>2024-04-30T16:26:24.000Z</time>
      </trkpt>
      <trkpt lat="45.84528" lon="3.52267">
        <ele>300.79998779297</ele>
        <time>2024-04-30T16:26:25.000Z</time>
      </trkpt>
      <trkpt lat="45.84529" lon="3.5227">
        <ele>300.39999389648</ele>
        <time>2024-04-30T16:26:26.000Z</time>
      </trkpt>
      <trkpt lat="45.8453" lon="3.52273">
        <ele>300.60000610352</ele>
        <time>2024-04-30T16:26:27.000Z</time>
      </trkpt>
      <trkpt lat="45.84531" lon="3.52276">
        <ele>300.60000610352</ele>
        <time>2024-04-30T16:26:28.000Z</time>
      </trkpt>
      <trkpt lat="45.84532" lon="3.52279">
        <ele>301</ele>
        <time>2024-04-30T16:26:29.000Z</time>
      </trkpt>
      <trkpt lat="45.84533" lon="3.52282">
        <ele>300.60000610352</ele>
        <time>2024-04-30T16:26:30.000Z</time>
      </trkpt>
      <trkpt lat="45.84534" lon="3.52285">
        <ele>300.79998779297</ele>
        <time>2024-04-30T16:26:31.000Z</time>
      </trkpt>
      <trkpt lat="45.84535" lon="3.52287">
        <ele>300.79998779297</ele>
        <time>2024-04-30T16:26:32.000Z</time>
      </trkpt>
      <trkpt lat="45.84537" lon="3.5229">
        <ele>300.79998779297</ele>
        <time>2024-04-30T16:26:33.000Z</time>
      </trkpt>
      <trkpt lat="45.84538" lon="3.52293">
        <ele>300.79998779297</ele>
        <time>2024-04-30T16:26:34.000Z</time>
      </trkpt>
      <trkpt lat="45.84539" lon="3.52296">
        <ele>300.79998779297</ele>
        <time>2024-04-30T16:26:35.000Z</time>
      </trkpt>
      <trkpt lat="45.84541" lon="3.52299">
        <ele>300.79998779297</ele>
        <time>2024-04-30T16:26:36.000Z</time>
      </trkpt>
      <trkpt lat="45.84542" lon="3.52303">
        <ele>301</ele>
        <time>2024-04-30T16:26:37.000Z</time>
      </trkpt>
      <trkpt lat="45.84543" lon="3.52306">
        <ele>301</ele>
        <time>2024-04-30T16:26:38.000Z</time>
      </trkpt>
      <trkpt lat="45.84544" lon="3.52308">
        <ele>301</ele>
        <time>2024-04-30T16:26:39.000Z</time>
      </trkpt>
      <trkpt lat="45.84545" lon="3.52312">
        <ele>301.20001220703</ele>
        <time>2024-04-30T16:26:40.000Z</time>
      </trkpt>
      <trkpt lat="45.84546" lon="3.52314">
        <ele>301.20001220703</ele>
        <time>2024-04-30T16:26:41.000Z</time>
      </trkpt>
      <trkpt lat="45.84547" lon="3.52317">
        <ele>301.20001220703</ele>
        <time>2024-04-30T16:26:42.000Z</time>
      </trkpt>
      <trkpt lat="45.84548" lon="3.5232">
        <ele>301.20001220703</ele>
        <time>2024-04-30T16:26:43.000Z</time>
      </trkpt>
      <trkpt lat="45.84549" lon="3.52324">
        <ele>301</ele>
        <time>2024-04-30T16:26:44.000Z</time>
      </trkpt>
      <trkpt lat="45.8455" lon="3.52328">
        <ele>301</ele>
        <time>2024-04-30T16:26:45.000Z</time>
      </trkpt>
      <trkpt lat="45.84551" lon="3.52331">
        <ele>301.20001220703</ele>
        <time>2024-04-30T16:26:46.000Z</time>
      </trkpt>
      <trkpt lat="45.84552" lon="3.52334">
        <ele>301.39999389648</ele>
        <time>2024-04-30T16:26:47.000Z</time>
      </trkpt>
      <trkpt lat="45.84553" lon="3.52336">
        <ele>301.20001220703</ele>
        <time>2024-04-30T16:26:48.000Z</time>
      </trkpt>
      <trkpt lat="45.84554" lon="3.52339">
        <ele>301</ele>
        <time>2024-04-30T16:26:49.000Z</time>
      </trkpt>
      <trkpt lat="45.84555" lon="3.52341">
        <ele>301</ele>
        <time>2024-04-30T16:26:50.000Z</time>
      </trkpt>
      <trkpt lat="45.84556" lon="3.52344">
        <ele>301.20001220703</ele>
        <time>2024-04-30T16:26:51.000Z</time>
      </trkpt>
      <trkpt lat="45.84557" lon="3.52347">
        <ele>301.39999389648</ele>
        <time>2024-04-30T16:26:52.000Z</time>
      </trkpt>
      <trkpt lat="45.84558" lon="3.52349">
        <ele>301.39999389648</ele>
        <time>2024-04-30T16:26:53.000Z</time>
      </trkpt>
      <trkpt lat="45.84559" lon="3.52353">
        <ele>301.39999389648</ele>
        <time>2024-04-30T16:26:54.000Z</time>
      </trkpt>
      <trkpt lat="45.8456" lon="3.52357">
        <ele>301.39999389648</ele>
        <time>2024-04-30T16:26:55.000Z</time>
      </trkpt>
      <trkpt lat="45.84561" lon="3.5236">
        <ele>301.60000610352</ele>
        <time>2024-04-30T16:26:56.000Z</time>
      </trkpt>
      <trkpt lat="45.84561" lon="3.52365">
        <ele>301.60000610352</ele>
        <time>2024-04-30T16:26:57.000Z</time>
      </trkpt>
      <trkpt lat="45.84562" lon="3.52368">
        <ele>301.60000610352</ele>
        <time>2024-04-30T16:26:58.000Z</time>
      </trkpt>
      <trkpt lat="45.84563" lon="3.52371">
        <ele>301.60000610352</ele>
        <time>2024-04-30T16:26:59.000Z</time>
      </trkpt>
      <trkpt lat="45.84564" lon="3.52375">
        <ele>301.60000610352</ele>
        <time>2024-04-30T16:27:00.000Z</time>
      </trkpt>
      <trkpt lat="45.84565" lon="3.52378">
        <ele>301.39999389648</ele>
        <time>2024-04-30T16:27:01.000Z</time>
      </trkpt>
      <trkpt lat="45.84566" lon="3.52381">
        <ele>301.60000610352</ele>
        <time>2024-04-30T16:27:02.000Z</time>
      </trkpt>
      <trkpt lat="45.84567" lon="3.52385">
        <ele>301.60000610352</ele>
        <time>2024-04-30T16:27:03.000Z</time>
      </trkpt>
      <trkpt lat="45.84568" lon="3.52389">
        <ele>301.79998779297</ele>
        <time>2024-04-30T16:27:04.000Z</time>
      </trkpt>
      <trkpt lat="45.84569" lon="3.52392">
        <ele>302</ele>
        <time>2024-04-30T16:27:05.000Z</time>
      </trkpt>
      <trkpt lat="45.84571" lon="3.52396">
        <ele>301.79998779297</ele>
        <time>2024-04-30T16:27:06.000Z</time>
      </trkpt>
      <trkpt lat="45.84572" lon="3.52399">
        <ele>301.39999389648</ele>
        <time>2024-04-30T16:27:07.000Z</time>
      </trkpt>
      <trkpt lat="45.84573" lon="3.52402">
        <ele>301.60000610352</ele>
        <time>2024-04-30T16:27:08.000Z</time>
      </trkpt>
      <trkpt lat="45.84574" lon="3.52404">
        <ele>301.79998779297</ele>
        <time>2024-04-30T16:27:09.000Z</time>
      </trkpt>
      <trkpt lat="45.84575" lon="3.52409">
        <ele>301.79998779297</ele>
        <time>2024-04-30T16:27:10.000Z</time>
      </trkpt>
      <trkpt lat="45.84576" lon="3.52413">
        <ele>301.60000610352</ele>
        <time>2024-04-30T16:27:11.000Z</time>
      </trkpt>
      <trkpt lat="45.84577" lon="3.52416">
        <ele>301.60000610352</ele>
        <time>2024-04-30T16:27:12.000Z</time>
      </trkpt>
      <trkpt lat="45.84578" lon="3.52418">
        <ele>301.60000610352</ele>
        <time>2024-04-30T16:27:13.000Z</time>
      </trkpt>
      <trkpt lat="45.84579" lon="3.52421">
        <ele>301.79998779297</ele>
        <time>2024-04-30T16:27:14.000Z</time>
      </trkpt>
      <trkpt lat="45.84579" lon="3.52425">
        <ele>301.20001220703</ele>
        <time>2024-04-30T16:27:15.000Z</time>
      </trkpt>
      <trkpt lat="45.8458" lon="3.52428">
        <ele>301.20001220703</ele>
        <time>2024-04-30T16:27:16.000Z</time>
      </trkpt>
      <trkpt lat="45.84581" lon="3.52431">
        <ele>301.20001220703</ele>
        <time>2024-04-30T16:27:17.000Z</time>
      </trkpt>
      <trkpt lat="45.84583" lon="3.52433">
        <ele>301.39999389648</ele>
        <time>2024-04-30T16:27:18.000Z</time>
      </trkpt>
      <trkpt lat="45.84583" lon="3.52438">
        <ele>301.60000610352</ele>
        <time>2024-04-30T16:27:19.000Z</time>
      </trkpt>
      <trkpt lat="45.84584" lon="3.52441">
        <ele>301.60000610352</ele>
        <time>2024-04-30T16:27:20.000Z</time>
      </trkpt>
      <trkpt lat="45.84585" lon="3.52445">
        <ele>301.39999389648</ele>
        <time>2024-04-30T16:27:21.000Z</time>
      </trkpt>
      <trkpt lat="45.84586" lon="3.52448">
        <ele>301.39999389648</ele>
        <time>2024-04-30T16:27:22.000Z</time>
      </trkpt>
      <trkpt lat="45.84587" lon="3.52451">
        <ele>301.39999389648</ele>
        <time>2024-04-30T16:27:23.000Z</time>
      </trkpt>
      <trkpt lat="45.84588" lon="3.52454">
        <ele>301.20001220703</ele>
        <time>2024-04-30T16:27:24.000Z</time>
      </trkpt>
      <trkpt lat="45.84589" lon="3.52456">
        <ele>301.20001220703</ele>
        <time>2024-04-30T16:27:25.000Z</time>
      </trkpt>
      <trkpt lat="45.8459" lon="3.52459">
        <ele>301.39999389648</ele>
        <time>2024-04-30T16:27:26.000Z</time>
      </trkpt>
      <trkpt lat="45.84591" lon="3.52462">
        <ele>301.39999389648</ele>
        <time>2024-04-30T16:27:27.000Z</time>
      </trkpt>
      <trkpt lat="45.84592" lon="3.52465">
        <ele>301.39999389648</ele>
        <time>2024-04-30T16:27:28.000Z</time>
      </trkpt>
      <trkpt lat="45.84593" lon="3.52468">
        <ele>301.20001220703</ele>
        <time>2024-04-30T16:27:29.000Z</time>
      </trkpt>
      <trkpt lat="45.84594" lon="3.52471">
        <ele>301.39999389648</ele>
        <time>2024-04-30T16:27:30.000Z</time>
      </trkpt>
      <trkpt lat="45.84595" lon="3.52474">
        <ele>301.20001220703</ele>
        <time>2024-04-30T16:27:31.000Z</time>
      </trkpt>
      <trkpt lat="45.84596" lon="3.52477">
        <ele>301.39999389648</ele>
        <time>2024-04-30T16:27:32.000Z</time>
      </trkpt>
      <trkpt lat="45.84596" lon="3.5248">
        <ele>301.20001220703</ele>
        <time>2024-04-30T16:27:33.000Z</time>
      </trkpt>
      <trkpt lat="45.84598" lon="3.52484">
        <ele>301.20001220703</ele>
        <time>2024-04-30T16:27:34.000Z</time>
      </trkpt>
      <trkpt lat="45.84599" lon="3.52487">
        <ele>301</ele>
        <time>2024-04-30T16:27:35.000Z</time>
      </trkpt>
      <trkpt lat="45.846" lon="3.52489">
        <ele>301.20001220703</ele>
        <time>2024-04-30T16:27:36.000Z</time>
      </trkpt>
      <trkpt lat="45.84601" lon="3.52492">
        <ele>301</ele>
        <time>2024-04-30T16:27:37.000Z</time>
      </trkpt>
      <trkpt lat="45.84602" lon="3.52494">
        <ele>301</ele>
        <time>2024-04-30T16:27:38.000Z</time>
      </trkpt>
      <trkpt lat="45.84603" lon="3.52496">
        <ele>301.20001220703</ele>
        <time>2024-04-30T16:27:39.000Z</time>
      </trkpt>
      <trkpt lat="45.84604" lon="3.52498">
        <ele>301.39999389648</ele>
        <time>2024-04-30T16:27:40.000Z</time>
      </trkpt>
      <trkpt lat="45.84605" lon="3.52501">
        <ele>301.60000610352</ele>
        <time>2024-04-30T16:27:41.000Z</time>
      </trkpt>
      <trkpt lat="45.84606" lon="3.52505">
        <ele>301.60000610352</ele>
        <time>2024-04-30T16:27:42.000Z</time>
      </trkpt>
      <trkpt lat="45.84607" lon="3.52508">
        <ele>301.39999389648</ele>
        <time>2024-04-30T16:27:43.000Z</time>
      </trkpt>
      <trkpt lat="45.84608" lon="3.52511">
        <ele>301.39999389648</ele>
        <time>2024-04-30T16:27:44.000Z</time>
      </trkpt>
      <trkpt lat="45.84609" lon="3.52515">
        <ele>301.79998779297</ele>
        <time>2024-04-30T16:27:45.000Z</time>
      </trkpt>
      <trkpt lat="45.8461" lon="3.52518">
        <ele>301.60000610352</ele>
        <time>2024-04-30T16:27:46.000Z</time>
      </trkpt>
      <trkpt lat="45.84611" lon="3.52521">
        <ele>301.60000610352</ele>
        <time>2024-04-30T16:27:47.000Z</time>
      </trkpt>
      <trkpt lat="45.84612" lon="3.52523">
        <ele>301.60000610352</ele>
        <time>2024-04-30T16:27:48.000Z</time>
      </trkpt>
      <trkpt lat="45.84614" lon="3.52526">
        <ele>301.79998779297</ele>
        <time>2024-04-30T16:27:49.000Z</time>
      </trkpt>
      <trkpt lat="45.84615" lon="3.52528">
        <ele>301.79998779297</ele>
        <time>2024-04-30T16:27:50.000Z</time>
      </trkpt>
      <trkpt lat="45.84616" lon="3.52532">
        <ele>301.60000610352</ele>
        <time>2024-04-30T16:27:51.000Z</time>
      </trkpt>
      <trkpt lat="45.84618" lon="3.52535">
        <ele>301.60000610352</ele>
        <time>2024-04-30T16:27:52.000Z</time>
      </trkpt>
      <trkpt lat="45.8462" lon="3.52538">
        <ele>301.79998779297</ele>
        <time>2024-04-30T16:27:53.000Z</time>
      </trkpt>
      <trkpt lat="45.8462" lon="3.52541">
        <ele>302</ele>
        <time>2024-04-30T16:27:54.000Z</time>
      </trkpt>
      <trkpt lat="45.84621" lon="3.52545">
        <ele>301.60000610352</ele>
        <time>2024-04-30T16:27:55.000Z</time>
      </trkpt>
      <trkpt lat="45.84621" lon="3.52548">
        <ele>301.79998779297</ele>
        <time>2024-04-30T16:27:56.000Z</time>
      </trkpt>
      <trkpt lat="45.84623" lon="3.52552">
        <ele>301.79998779297</ele>
        <time>2024-04-30T16:27:57.000Z</time>
      </trkpt>
      <trkpt lat="45.84624" lon="3.52555">
        <ele>302</ele>
        <time>2024-04-30T16:27:58.000Z</time>
      </trkpt>
      <trkpt lat="45.84625" lon="3.52558">
        <ele>301.79998779297</ele>
        <time>2024-04-30T16:27:59.000Z</time>
      </trkpt>
      <trkpt lat="45.84626" lon="3.52561">
        <ele>301.60000610352</ele>
        <time>2024-04-30T16:28:00.000Z</time>
      </trkpt>
      <trkpt lat="45.84627" lon="3.52564">
        <ele>301.60000610352</ele>
        <time>2024-04-30T16:28:01.000Z</time>
      </trkpt>
      <trkpt lat="45.84628" lon="3.52568">
        <ele>301.79998779297</ele>
        <time>2024-04-30T16:28:02.000Z</time>
      </trkpt>
      <trkpt lat="45.84629" lon="3.52571">
        <ele>301.79998779297</ele>
        <time>2024-04-30T16:28:03.000Z</time>
      </trkpt>
      <trkpt lat="45.8463" lon="3.52575">
        <ele>301.60000610352</ele>
        <time>2024-04-30T16:28:04.000Z</time>
      </trkpt>
      <trkpt lat="45.8463" lon="3.52578">
        <ele>301.79998779297</ele>
        <time>2024-04-30T16:28:05.000Z</time>
      </trkpt>
      <trkpt lat="45.84631" lon="3.52581">
        <ele>301.79998779297</ele>
        <time>2024-04-30T16:28:06.000Z</time>
      </trkpt>
      <trkpt lat="45.84632" lon="3.52584">
        <ele>301.79998779297</ele>
        <time>2024-04-30T16:28:07.000Z</time>
      </trkpt>
      <trkpt lat="45.84633" lon="3.52587">
        <ele>301.79998779297</ele>
        <time>2024-04-30T16:28:08.000Z</time>
      </trkpt>
      <trkpt lat="45.84634" lon="3.52591">
        <ele>301.79998779297</ele>
        <time>2024-04-30T16:28:09.000Z</time>
      </trkpt>
      <trkpt lat="45.84635" lon="3.52596">
        <ele>302</ele>
        <time>2024-04-30T16:28:10.000Z</time>
      </trkpt>
      <trkpt lat="45.84636" lon="3.526">
        <ele>302</ele>
        <time>2024-04-30T16:28:11.000Z</time>
      </trkpt>
      <trkpt lat="45.84637" lon="3.52603">
        <ele>302</ele>
        <time>2024-04-30T16:28:12.000Z</time>
      </trkpt>
      <trkpt lat="45.84638" lon="3.52606">
        <ele>301.79998779297</ele>
        <time>2024-04-30T16:28:13.000Z</time>
      </trkpt>
      <trkpt lat="45.84639" lon="3.5261">
        <ele>302</ele>
        <time>2024-04-30T16:28:14.000Z</time>
      </trkpt>
      <trkpt lat="45.84639" lon="3.52614">
        <ele>302</ele>
        <time>2024-04-30T16:28:15.000Z</time>
      </trkpt>
      <trkpt lat="45.8464" lon="3.52617">
        <ele>302.20001220703</ele>
        <time>2024-04-30T16:28:16.000Z</time>
      </trkpt>
      <trkpt lat="45.84641" lon="3.52621">
        <ele>302.39999389648</ele>
        <time>2024-04-30T16:28:17.000Z</time>
      </trkpt>
      <trkpt lat="45.84642" lon="3.52624">
        <ele>302.39999389648</ele>
        <time>2024-04-30T16:28:18.000Z</time>
      </trkpt>
      <trkpt lat="45.84643" lon="3.52627">
        <ele>302.39999389648</ele>
        <time>2024-04-30T16:28:19.000Z</time>
      </trkpt>
      <trkpt lat="45.84644" lon="3.5263">
        <ele>302.20001220703</ele>
        <time>2024-04-30T16:28:20.000Z</time>
      </trkpt>
      <trkpt lat="45.84645" lon="3.52633">
        <ele>302</ele>
        <time>2024-04-30T16:28:21.000Z</time>
      </trkpt>
      <trkpt lat="45.84646" lon="3.52637">
        <ele>301.79998779297</ele>
        <time>2024-04-30T16:28:22.000Z</time>
      </trkpt>
      <trkpt lat="45.84648" lon="3.5264">
        <ele>301.79998779297</ele>
        <time>2024-04-30T16:28:23.000Z</time>
      </trkpt>
      <trkpt lat="45.84648" lon="3.52643">
        <ele>302</ele>
        <time>2024-04-30T16:28:24.000Z</time>
      </trkpt>
      <trkpt lat="45.84649" lon="3.52646">
        <ele>302.20001220703</ele>
        <time>2024-04-30T16:28:25.000Z</time>
      </trkpt>
      <trkpt lat="45.84651" lon="3.5265">
        <ele>302.39999389648</ele>
        <time>2024-04-30T16:28:26.000Z</time>
      </trkpt>
      <trkpt lat="45.84651" lon="3.52653">
        <ele>302.39999389648</ele>
        <time>2024-04-30T16:28:27.000Z</time>
      </trkpt>
      <trkpt lat="45.84652" lon="3.52656">
        <ele>302.39999389648</ele>
        <time>2024-04-30T16:28:28.000Z</time>
      </trkpt>
      <trkpt lat="45.84653" lon="3.52659">
        <ele>302.60000610352</ele>
        <time>2024-04-30T16:28:29.000Z</time>
      </trkpt>
      <trkpt lat="45.84654" lon="3.52662">
        <ele>302.60000610352</ele>
        <time>2024-04-30T16:28:30.000Z</time>
      </trkpt>
      <trkpt lat="45.84655" lon="3.52664">
        <ele>302.60000610352</ele>
        <time>2024-04-30T16:28:31.000Z</time>
      </trkpt>
      <trkpt lat="45.84655" lon="3.52667">
        <ele>302.60000610352</ele>
        <time>2024-04-30T16:28:32.000Z</time>
      </trkpt>
      <trkpt lat="45.84657" lon="3.5267">
        <ele>302.60000610352</ele>
        <time>2024-04-30T16:28:33.000Z</time>
      </trkpt>
      <trkpt lat="45.84658" lon="3.52673">
        <ele>302.60000610352</ele>
        <time>2024-04-30T16:28:34.000Z</time>
      </trkpt>
      <trkpt lat="45.84658" lon="3.52676">
        <ele>302.79998779297</ele>
        <time>2024-04-30T16:28:35.000Z</time>
      </trkpt>
      <trkpt lat="45.84659" lon="3.52679">
        <ele>302.79998779297</ele>
        <time>2024-04-30T16:28:36.000Z</time>
      </trkpt>
      <trkpt lat="45.8466" lon="3.52682">
        <ele>302.79998779297</ele>
        <time>2024-04-30T16:28:37.000Z</time>
      </trkpt>
      <trkpt lat="45.84661" lon="3.52685">
        <ele>302.79998779297</ele>
        <time>2024-04-30T16:28:38.000Z</time>
      </trkpt>
      <trkpt lat="45.84661" lon="3.52689">
        <ele>302.79998779297</ele>
        <time>2024-04-30T16:28:39.000Z</time>
      </trkpt>
      <trkpt lat="45.84662" lon="3.52693">
        <ele>302.79998779297</ele>
        <time>2024-04-30T16:28:40.000Z</time>
      </trkpt>
      <trkpt lat="45.84663" lon="3.52695">
        <ele>302.79998779297</ele>
        <time>2024-04-30T16:28:41.000Z</time>
      </trkpt>
      <trkpt lat="45.84664" lon="3.52698">
        <ele>302.79998779297</ele>
        <time>2024-04-30T16:28:42.000Z</time>
      </trkpt>
      <trkpt lat="45.84665" lon="3.52701">
        <ele>302.79998779297</ele>
        <time>2024-04-30T16:28:43.000Z</time>
      </trkpt>
      <trkpt lat="45.84666" lon="3.52704">
        <ele>303</ele>
        <time>2024-04-30T16:28:44.000Z</time>
      </trkpt>
      <trkpt lat="45.84666" lon="3.52709">
        <ele>303</ele>
        <time>2024-04-30T16:28:45.000Z</time>
      </trkpt>
      <trkpt lat="45.84667" lon="3.52712">
        <ele>303</ele>
        <time>2024-04-30T16:28:46.000Z</time>
      </trkpt>
      <trkpt lat="45.84668" lon="3.52715">
        <ele>302.79998779297</ele>
        <time>2024-04-30T16:28:47.000Z</time>
      </trkpt>
      <trkpt lat="45.8467" lon="3.52718">
        <ele>303</ele>
        <time>2024-04-30T16:28:48.000Z</time>
      </trkpt>
      <trkpt lat="45.84671" lon="3.5272">
        <ele>303.39999389648</ele>
        <time>2024-04-30T16:28:49.000Z</time>
      </trkpt>
      <trkpt lat="45.84672" lon="3.52723">
        <ele>303.39999389648</ele>
        <time>2024-04-30T16:28:50.000Z</time>
      </trkpt>
      <trkpt lat="45.84673" lon="3.52726">
        <ele>303.39999389648</ele>
        <time>2024-04-30T16:28:51.000Z</time>
      </trkpt>
      <trkpt lat="45.84674" lon="3.52729">
        <ele>303.60000610352</ele>
        <time>2024-04-30T16:28:52.000Z</time>
      </trkpt>
      <trkpt lat="45.84675" lon="3.52732">
        <ele>303.79998779297</ele>
        <time>2024-04-30T16:28:53.000Z</time>
      </trkpt>
      <trkpt lat="45.84676" lon="3.52736">
        <ele>303.39999389648</ele>
        <time>2024-04-30T16:28:54.000Z</time>
      </trkpt>
      <trkpt lat="45.84678" lon="3.52739">
        <ele>303.39999389648</ele>
        <time>2024-04-30T16:28:55.000Z</time>
      </trkpt>
      <trkpt lat="45.84679" lon="3.52742">
        <ele>303.60000610352</ele>
        <time>2024-04-30T16:28:56.000Z</time>
      </trkpt>
      <trkpt lat="45.8468" lon="3.52746">
        <ele>303.79998779297</ele>
        <time>2024-04-30T16:28:57.000Z</time>
      </trkpt>
      <trkpt lat="45.84681" lon="3.5275">
        <ele>303.60000610352</ele>
        <time>2024-04-30T16:28:58.000Z</time>
      </trkpt>
      <trkpt lat="45.84683" lon="3.52754">
        <ele>303.39999389648</ele>
        <time>2024-04-30T16:28:59.000Z</time>
      </trkpt>
      <trkpt lat="45.84684" lon="3.52757">
        <ele>303.39999389648</ele>
        <time>2024-04-30T16:29:00.000Z</time>
      </trkpt>
      <trkpt lat="45.84685" lon="3.52761">
        <ele>303.60000610352</ele>
        <time>2024-04-30T16:29:01.000Z</time>
      </trkpt>
      <trkpt lat="45.84686" lon="3.52764">
        <ele>303.60000610352</ele>
        <time>2024-04-30T16:29:02.000Z</time>
      </trkpt>
      <trkpt lat="45.84687" lon="3.52768">
        <ele>303.39999389648</ele>
        <time>2024-04-30T16:29:03.000Z</time>
      </trkpt>
      <trkpt lat="45.84689" lon="3.52772">
        <ele>303.39999389648</ele>
        <time>2024-04-30T16:29:04.000Z</time>
      </trkpt>
      <trkpt lat="45.8469" lon="3.52775">
        <ele>303.60000610352</ele>
        <time>2024-04-30T16:29:05.000Z</time>
      </trkpt>
      <trkpt lat="45.84691" lon="3.52779">
        <ele>303.60000610352</ele>
        <time>2024-04-30T16:29:06.000Z</time>
      </trkpt>
      <trkpt lat="45.84692" lon="3.52782">
        <ele>303.60000610352</ele>
        <time>2024-04-30T16:29:07.000Z</time>
      </trkpt>
      <trkpt lat="45.84693" lon="3.52785">
        <ele>303.60000610352</ele>
        <time>2024-04-30T16:29:08.000Z</time>
      </trkpt>
      <trkpt lat="45.84695" lon="3.52789">
        <ele>303.60000610352</ele>
        <time>2024-04-30T16:29:09.000Z</time>
      </trkpt>
      <trkpt lat="45.84696" lon="3.52793">
        <ele>303.60000610352</ele>
        <time>2024-04-30T16:29:10.000Z</time>
      </trkpt>
      <trkpt lat="45.84697" lon="3.52797">
        <ele>303.60000610352</ele>
        <time>2024-04-30T16:29:11.000Z</time>
      </trkpt>
      <trkpt lat="45.84698" lon="3.528">
        <ele>303.60000610352</ele>
        <time>2024-04-30T16:29:12.000Z</time>
      </trkpt>
      <trkpt lat="45.84699" lon="3.52803">
        <ele>303.60000610352</ele>
        <time>2024-04-30T16:29:13.000Z</time>
      </trkpt>
      <trkpt lat="45.84699" lon="3.52806">
        <ele>303.60000610352</ele>
        <time>2024-04-30T16:29:14.000Z</time>
      </trkpt>
      <trkpt lat="45.84699" lon="3.52811">
        <ele>303.79998779297</ele>
        <time>2024-04-30T16:29:15.000Z</time>
      </trkpt>
      <trkpt lat="45.847" lon="3.52815">
        <ele>303.79998779297</ele>
        <time>2024-04-30T16:29:16.000Z</time>
      </trkpt>
      <trkpt lat="45.847" lon="3.52819">
        <ele>303.79998779297</ele>
        <time>2024-04-30T16:29:17.000Z</time>
      </trkpt>
      <trkpt lat="45.84701" lon="3.52823">
        <ele>303.79998779297</ele>
        <time>2024-04-30T16:29:18.000Z</time>
      </trkpt>
      <trkpt lat="45.84701" lon="3.52826">
        <ele>303.79998779297</ele>
        <time>2024-04-30T16:29:19.000Z</time>
      </trkpt>
      <trkpt lat="45.84702" lon="3.5283">
        <ele>303.79998779297</ele>
        <time>2024-04-30T16:29:20.000Z</time>
      </trkpt>
      <trkpt lat="45.84703" lon="3.52834">
        <ele>303.79998779297</ele>
        <time>2024-04-30T16:29:21.000Z</time>
      </trkpt>
      <trkpt lat="45.84704" lon="3.52837">
        <ele>303.79998779297</ele>
        <time>2024-04-30T16:29:22.000Z</time>
      </trkpt>
      <trkpt lat="45.84705" lon="3.52841">
        <ele>304</ele>
        <time>2024-04-30T16:29:23.000Z</time>
      </trkpt>
      <trkpt lat="45.84706" lon="3.52843">
        <ele>304</ele>
        <time>2024-04-30T16:29:24.000Z</time>
      </trkpt>
      <trkpt lat="45.84707" lon="3.52847">
        <ele>304</ele>
        <time>2024-04-30T16:29:25.000Z</time>
      </trkpt>
      <trkpt lat="45.84708" lon="3.5285">
        <ele>304</ele>
        <time>2024-04-30T16:29:26.000Z</time>
      </trkpt>
      <trkpt lat="45.84709" lon="3.52854">
        <ele>304</ele>
        <time>2024-04-30T16:29:27.000Z</time>
      </trkpt>
      <trkpt lat="45.8471" lon="3.52858">
        <ele>304</ele>
        <time>2024-04-30T16:29:28.000Z</time>
      </trkpt>
      <trkpt lat="45.84711" lon="3.52861">
        <ele>304.20001220703</ele>
        <time>2024-04-30T16:29:29.000Z</time>
      </trkpt>
      <trkpt lat="45.84712" lon="3.52865">
        <ele>304.20001220703</ele>
        <time>2024-04-30T16:29:30.000Z</time>
      </trkpt>
      <trkpt lat="45.84713" lon="3.52869">
        <ele>304.20001220703</ele>
        <time>2024-04-30T16:29:31.000Z</time>
      </trkpt>
      <trkpt lat="45.84714" lon="3.52872">
        <ele>304</ele>
        <time>2024-04-30T16:29:32.000Z</time>
      </trkpt>
      <trkpt lat="45.84715" lon="3.52876">
        <ele>304</ele>
        <time>2024-04-30T16:29:33.000Z</time>
      </trkpt>
      <trkpt lat="45.84716" lon="3.5288">
        <ele>304</ele>
        <time>2024-04-30T16:29:34.000Z</time>
      </trkpt>
      <trkpt lat="45.84717" lon="3.52884">
        <ele>303.79998779297</ele>
        <time>2024-04-30T16:29:35.000Z</time>
      </trkpt>
      <trkpt lat="45.84718" lon="3.52887">
        <ele>304</ele>
        <time>2024-04-30T16:29:36.000Z</time>
      </trkpt>
      <trkpt lat="45.8472" lon="3.5289">
        <ele>304</ele>
        <time>2024-04-30T16:29:37.000Z</time>
      </trkpt>
      <trkpt lat="45.84721" lon="3.52892">
        <ele>303.79998779297</ele>
        <time>2024-04-30T16:29:38.000Z</time>
      </trkpt>
      <trkpt lat="45.84722" lon="3.52897">
        <ele>304</ele>
        <time>2024-04-30T16:29:39.000Z</time>
      </trkpt>
      <trkpt lat="45.84723" lon="3.52901">
        <ele>304</ele>
        <time>2024-04-30T16:29:40.000Z</time>
      </trkpt>
      <trkpt lat="45.84724" lon="3.52905">
        <ele>303.79998779297</ele>
        <time>2024-04-30T16:29:41.000Z</time>
      </trkpt>
      <trkpt lat="45.84725" lon="3.52909">
        <ele>303.79998779297</ele>
        <time>2024-04-30T16:29:42.000Z</time>
      </trkpt>
      <trkpt lat="45.84725" lon="3.52913">
        <ele>303.79998779297</ele>
        <time>2024-04-30T16:29:43.000Z</time>
      </trkpt>
      <trkpt lat="45.84726" lon="3.52917">
        <ele>304</ele>
        <time>2024-04-30T16:29:44.000Z</time>
      </trkpt>
      <trkpt lat="45.84728" lon="3.52921">
        <ele>303.79998779297</ele>
        <time>2024-04-30T16:29:45.000Z</time>
      </trkpt>
      <trkpt lat="45.8473" lon="3.52925">
        <ele>303.79998779297</ele>
        <time>2024-04-30T16:29:46.000Z</time>
      </trkpt>
      <trkpt lat="45.84731" lon="3.52929">
        <ele>303.39999389648</ele>
        <time>2024-04-30T16:29:47.000Z</time>
      </trkpt>
      <trkpt lat="45.84733" lon="3.52933">
        <ele>303.20001220703</ele>
        <time>2024-04-30T16:29:48.000Z</time>
      </trkpt>
      <trkpt lat="45.84734" lon="3.52937">
        <ele>303.20001220703</ele>
        <time>2024-04-30T16:29:49.000Z</time>
      </trkpt>
      <trkpt lat="45.84735" lon="3.5294">
        <ele>303.20001220703</ele>
        <time>2024-04-30T16:29:50.000Z</time>
      </trkpt>
      <trkpt lat="45.84736" lon="3.52944">
        <ele>303.20001220703</ele>
        <time>2024-04-30T16:29:51.000Z</time>
      </trkpt>
      <trkpt lat="45.84737" lon="3.52948">
        <ele>303.39999389648</ele>
        <time>2024-04-30T16:29:52.000Z</time>
      </trkpt>
      <trkpt lat="45.84738" lon="3.52951">
        <ele>303.39999389648</ele>
        <time>2024-04-30T16:29:53.000Z</time>
      </trkpt>
      <trkpt lat="45.84739" lon="3.52955">
        <ele>303.39999389648</ele>
        <time>2024-04-30T16:29:54.000Z</time>
      </trkpt>
      <trkpt lat="45.8474" lon="3.52958">
        <ele>303.60000610352</ele>
        <time>2024-04-30T16:29:55.000Z</time>
      </trkpt>
      <trkpt lat="45.84741" lon="3.52962">
        <ele>303.60000610352</ele>
        <time>2024-04-30T16:29:56.000Z</time>
      </trkpt>
      <trkpt lat="45.84741" lon="3.52966">
        <ele>303.79998779297</ele>
        <time>2024-04-30T16:29:57.000Z</time>
      </trkpt>
      <trkpt lat="45.84741" lon="3.52968">
        <ele>303.60000610352</ele>
        <time>2024-04-30T16:29:58.000Z</time>
      </trkpt>
      <trkpt lat="45.84742" lon="3.52973">
        <ele>303.60000610352</ele>
        <time>2024-04-30T16:29:59.000Z</time>
      </trkpt>
      <trkpt lat="45.84742" lon="3.52977">
        <ele>303.39999389648</ele>
        <time>2024-04-30T16:30:00.000Z</time>
      </trkpt>
      <trkpt lat="45.84743" lon="3.52981">
        <ele>303.60000610352</ele>
        <time>2024-04-30T16:30:01.000Z</time>
      </trkpt>
      <trkpt lat="45.84745" lon="3.52983">
        <ele>303.60000610352</ele>
        <time>2024-04-30T16:30:02.000Z</time>
      </trkpt>
      <trkpt lat="45.84746" lon="3.52987">
        <ele>303.60000610352</ele>
        <time>2024-04-30T16:30:03.000Z</time>
      </trkpt>
      <trkpt lat="45.84747" lon="3.52991">
        <ele>303.39999389648</ele>
        <time>2024-04-30T16:30:04.000Z</time>
      </trkpt>
      <trkpt lat="45.84748" lon="3.52995">
        <ele>303.39999389648</ele>
        <time>2024-04-30T16:30:05.000Z</time>
      </trkpt>
      <trkpt lat="45.84749" lon="3.52998">
        <ele>303.20001220703</ele>
        <time>2024-04-30T16:30:06.000Z</time>
      </trkpt>
      <trkpt lat="45.8475" lon="3.53001">
        <ele>303.60000610352</ele>
        <time>2024-04-30T16:30:07.000Z</time>
      </trkpt>
      <trkpt lat="45.84751" lon="3.53004">
        <ele>303.79998779297</ele>
        <time>2024-04-30T16:30:08.000Z</time>
      </trkpt>
      <trkpt lat="45.84751" lon="3.53008">
        <ele>303.79998779297</ele>
        <time>2024-04-30T16:30:09.000Z</time>
      </trkpt>
      <trkpt lat="45.84752" lon="3.53012">
        <ele>303.79998779297</ele>
        <time>2024-04-30T16:30:10.000Z</time>
      </trkpt>
      <trkpt lat="45.84753" lon="3.53016">
        <ele>303.79998779297</ele>
        <time>2024-04-30T16:30:11.000Z</time>
      </trkpt>
      <trkpt lat="45.84754" lon="3.5302">
        <ele>303.60000610352</ele>
        <time>2024-04-30T16:30:12.000Z</time>
      </trkpt>
      <trkpt lat="45.84755" lon="3.53023">
        <ele>303.79998779297</ele>
        <time>2024-04-30T16:30:13.000Z</time>
      </trkpt>
      <trkpt lat="45.84755" lon="3.53026">
        <ele>304</ele>
        <time>2024-04-30T16:30:14.000Z</time>
      </trkpt>
      <trkpt lat="45.84756" lon="3.5303">
        <ele>304</ele>
        <time>2024-04-30T16:30:15.000Z</time>
      </trkpt>
      <trkpt lat="45.84757" lon="3.53033">
        <ele>303.79998779297</ele>
        <time>2024-04-30T16:30:16.000Z</time>
      </trkpt>
      <trkpt lat="45.84759" lon="3.53036">
        <ele>303.79998779297</ele>
        <time>2024-04-30T16:30:17.000Z</time>
      </trkpt>
      <trkpt lat="45.8476" lon="3.53038">
        <ele>303.60000610352</ele>
        <time>2024-04-30T16:30:18.000Z</time>
      </trkpt>
      <trkpt lat="45.84761" lon="3.53042">
        <ele>303.79998779297</ele>
        <time>2024-04-30T16:30:19.000Z</time>
      </trkpt>
      <trkpt lat="45.84762" lon="3.53045">
        <ele>304</ele>
        <time>2024-04-30T16:30:20.000Z</time>
      </trkpt>
      <trkpt lat="45.84763" lon="3.53049">
        <ele>304.20001220703</ele>
        <time>2024-04-30T16:30:21.000Z</time>
      </trkpt>
      <trkpt lat="45.84763" lon="3.53053">
        <ele>304</ele>
        <time>2024-04-30T16:30:22.000Z</time>
      </trkpt>
      <trkpt lat="45.84765" lon="3.53056">
        <ele>304</ele>
        <time>2024-04-30T16:30:23.000Z</time>
      </trkpt>
      <trkpt lat="45.84766" lon="3.5306">
        <ele>304</ele>
        <time>2024-04-30T16:30:24.000Z</time>
      </trkpt>
      <trkpt lat="45.84767" lon="3.53064">
        <ele>304.20001220703</ele>
        <time>2024-04-30T16:30:25.000Z</time>
      </trkpt>
      <trkpt lat="45.84768" lon="3.53067">
        <ele>304.20001220703</ele>
        <time>2024-04-30T16:30:26.000Z</time>
      </trkpt>
      <trkpt lat="45.84769" lon="3.53072">
        <ele>304</ele>
        <time>2024-04-30T16:30:27.000Z</time>
      </trkpt>
      <trkpt lat="45.8477" lon="3.53075">
        <ele>304</ele>
        <time>2024-04-30T16:30:28.000Z</time>
      </trkpt>
      <trkpt lat="45.84771" lon="3.53079">
        <ele>303.79998779297</ele>
        <time>2024-04-30T16:30:29.000Z</time>
      </trkpt>
      <trkpt lat="45.84772" lon="3.53082">
        <ele>303.79998779297</ele>
        <time>2024-04-30T16:30:30.000Z</time>
      </trkpt>
      <trkpt lat="45.84773" lon="3.53086">
        <ele>304</ele>
        <time>2024-04-30T16:30:31.000Z</time>
      </trkpt>
      <trkpt lat="45.84774" lon="3.53089">
        <ele>304</ele>
        <time>2024-04-30T16:30:32.000Z</time>
      </trkpt>
      <trkpt lat="45.84775" lon="3.53091">
        <ele>304</ele>
        <time>2024-04-30T16:30:33.000Z</time>
      </trkpt>
      <trkpt lat="45.84776" lon="3.53094">
        <ele>303.79998779297</ele>
        <time>2024-04-30T16:30:34.000Z</time>
      </trkpt>
      <trkpt lat="45.84777" lon="3.53097">
        <ele>303.79998779297</ele>
        <time>2024-04-30T16:30:35.000Z</time>
      </trkpt>
      <trkpt lat="45.84779" lon="3.531">
        <ele>304</ele>
        <time>2024-04-30T16:30:36.000Z</time>
      </trkpt>
      <trkpt lat="45.8478" lon="3.53103">
        <ele>303.79998779297</ele>
        <time>2024-04-30T16:30:37.000Z</time>
      </trkpt>
      <trkpt lat="45.84781" lon="3.53106">
        <ele>304</ele>
        <time>2024-04-30T16:30:38.000Z</time>
      </trkpt>
      <trkpt lat="45.84782" lon="3.5311">
        <ele>304</ele>
        <time>2024-04-30T16:30:39.000Z</time>
      </trkpt>
      <trkpt lat="45.84783" lon="3.53114">
        <ele>304</ele>
        <time>2024-04-30T16:30:40.000Z</time>
      </trkpt>
      <trkpt lat="45.84784" lon="3.53118">
        <ele>303.79998779297</ele>
        <time>2024-04-30T16:30:41.000Z</time>
      </trkpt>
      <trkpt lat="45.84785" lon="3.53122">
        <ele>303.79998779297</ele>
        <time>2024-04-30T16:30:42.000Z</time>
      </trkpt>
      <trkpt lat="45.84786" lon="3.53125">
        <ele>303.79998779297</ele>
        <time>2024-04-30T16:30:43.000Z</time>
      </trkpt>
      <trkpt lat="45.84786" lon="3.53128">
        <ele>303.79998779297</ele>
        <time>2024-04-30T16:30:44.000Z</time>
      </trkpt>
      <trkpt lat="45.84787" lon="3.53133">
        <ele>303.60000610352</ele>
        <time>2024-04-30T16:30:45.000Z</time>
      </trkpt>
      <trkpt lat="45.84789" lon="3.53136">
        <ele>303.60000610352</ele>
        <time>2024-04-30T16:30:46.000Z</time>
      </trkpt>
      <trkpt lat="45.8479" lon="3.5314">
        <ele>303.79998779297</ele>
        <time>2024-04-30T16:30:47.000Z</time>
      </trkpt>
      <trkpt lat="45.84791" lon="3.53143">
        <ele>303.79998779297</ele>
        <time>2024-04-30T16:30:48.000Z</time>
      </trkpt>
      <trkpt lat="45.84792" lon="3.53147">
        <ele>303.79998779297</ele>
        <time>2024-04-30T16:30:49.000Z</time>
      </trkpt>
      <trkpt lat="45.84793" lon="3.53151">
        <ele>303.79998779297</ele>
        <time>2024-04-30T16:30:50.000Z</time>
      </trkpt>
      <trkpt lat="45.84794" lon="3.53155">
        <ele>303.79998779297</ele>
        <time>2024-04-30T16:30:51.000Z</time>
      </trkpt>
      <trkpt lat="45.84795" lon="3.53158">
        <ele>304</ele>
        <time>2024-04-30T16:30:52.000Z</time>
      </trkpt>
      <trkpt lat="45.84796" lon="3.53161">
        <ele>303.79998779297</ele>
        <time>2024-04-30T16:30:53.000Z</time>
      </trkpt>
      <trkpt lat="45.84797" lon="3.53165">
        <ele>303.79998779297</ele>
        <time>2024-04-30T16:30:54.000Z</time>
      </trkpt>
      <trkpt lat="45.84798" lon="3.53169">
        <ele>303.79998779297</ele>
        <time>2024-04-30T16:30:55.000Z</time>
      </trkpt>
      <trkpt lat="45.84799" lon="3.53172">
        <ele>303.79998779297</ele>
        <time>2024-04-30T16:30:56.000Z</time>
      </trkpt>
      <trkpt lat="45.84801" lon="3.53176">
        <ele>303.79998779297</ele>
        <time>2024-04-30T16:30:57.000Z</time>
      </trkpt>
      <trkpt lat="45.84802" lon="3.53179">
        <ele>303.79998779297</ele>
        <time>2024-04-30T16:30:58.000Z</time>
      </trkpt>
      <trkpt lat="45.84803" lon="3.53183">
        <ele>303.79998779297</ele>
        <time>2024-04-30T16:30:59.000Z</time>
      </trkpt>
      <trkpt lat="45.84804" lon="3.53187">
        <ele>303.79998779297</ele>
        <time>2024-04-30T16:31:00.000Z</time>
      </trkpt>
      <trkpt lat="45.84805" lon="3.5319">
        <ele>303.60000610352</ele>
        <time>2024-04-30T16:31:01.000Z</time>
      </trkpt>
      <trkpt lat="45.84806" lon="3.53193">
        <ele>303.79998779297</ele>
        <time>2024-04-30T16:31:02.000Z</time>
      </trkpt>
      <trkpt lat="45.84806" lon="3.53194">
        <ele>304</ele>
        <time>2024-04-30T16:31:03.000Z</time>
      </trkpt>
      <trkpt lat="45.84808" lon="3.53201">
        <ele>304</ele>
        <time>2024-04-30T16:31:04.000Z</time>
      </trkpt>
      <trkpt lat="45.8481" lon="3.53204">
        <ele>304</ele>
        <time>2024-04-30T16:31:05.000Z</time>
      </trkpt>
      <trkpt lat="45.84811" lon="3.53207">
        <ele>303.79998779297</ele>
        <time>2024-04-30T16:31:06.000Z</time>
      </trkpt>
      <trkpt lat="45.84812" lon="3.53211">
        <ele>303.79998779297</ele>
        <time>2024-04-30T16:31:07.000Z</time>
      </trkpt>
      <trkpt lat="45.84813" lon="3.53214">
        <ele>303.60000610352</ele>
        <time>2024-04-30T16:31:08.000Z</time>
      </trkpt>
      <trkpt lat="45.84814" lon="3.53218">
        <ele>303.60000610352</ele>
        <time>2024-04-30T16:31:09.000Z</time>
      </trkpt>
      <trkpt lat="45.84815" lon="3.53222">
        <ele>303.60000610352</ele>
        <time>2024-04-30T16:31:10.000Z</time>
      </trkpt>
      <trkpt lat="45.84816" lon="3.53226">
        <ele>303.79998779297</ele>
        <time>2024-04-30T16:31:11.000Z</time>
      </trkpt>
      <trkpt lat="45.84817" lon="3.53229">
        <ele>303.79998779297</ele>
        <time>2024-04-30T16:31:12.000Z</time>
      </trkpt>
      <trkpt lat="45.84818" lon="3.53233">
        <ele>303.79998779297</ele>
        <time>2024-04-30T16:31:13.000Z</time>
      </trkpt>
      <trkpt lat="45.84819" lon="3.53236">
        <ele>303.79998779297</ele>
        <time>2024-04-30T16:31:14.000Z</time>
      </trkpt>
      <trkpt lat="45.8482" lon="3.5324">
        <ele>303.79998779297</ele>
        <time>2024-04-30T16:31:15.000Z</time>
      </trkpt>
      <trkpt lat="45.84821" lon="3.53244">
        <ele>303.79998779297</ele>
        <time>2024-04-30T16:31:16.000Z</time>
      </trkpt>
      <trkpt lat="45.84823" lon="3.53247">
        <ele>303.79998779297</ele>
        <time>2024-04-30T16:31:17.000Z</time>
      </trkpt>
      <trkpt lat="45.84824" lon="3.53251">
        <ele>303.79998779297</ele>
        <time>2024-04-30T16:31:18.000Z</time>
      </trkpt>
      <trkpt lat="45.84825" lon="3.53254">
        <ele>303.79998779297</ele>
        <time>2024-04-30T16:31:19.000Z</time>
      </trkpt>
      <trkpt lat="45.84826" lon="3.53256">
        <ele>303.79998779297</ele>
        <time>2024-04-30T16:31:20.000Z</time>
      </trkpt>
      <trkpt lat="45.84828" lon="3.53259">
        <ele>303.79998779297</ele>
        <time>2024-04-30T16:31:21.000Z</time>
      </trkpt>
      <trkpt lat="45.84828" lon="3.53262">
        <ele>303.60000610352</ele>
        <time>2024-04-30T16:31:22.000Z</time>
      </trkpt>
      <trkpt lat="45.84829" lon="3.53265">
        <ele>303.60000610352</ele>
        <time>2024-04-30T16:31:23.000Z</time>
      </trkpt>
      <trkpt lat="45.8483" lon="3.53269">
        <ele>303.79998779297</ele>
        <time>2024-04-30T16:31:24.000Z</time>
      </trkpt>
      <trkpt lat="45.84831" lon="3.53272">
        <ele>303.79998779297</ele>
        <time>2024-04-30T16:31:25.000Z</time>
      </trkpt>
      <trkpt lat="45.84832" lon="3.53275">
        <ele>304</ele>
        <time>2024-04-30T16:31:26.000Z</time>
      </trkpt>
      <trkpt lat="45.84833" lon="3.53278">
        <ele>304</ele>
        <time>2024-04-30T16:31:27.000Z</time>
      </trkpt>
      <trkpt lat="45.84834" lon="3.53281">
        <ele>304</ele>
        <time>2024-04-30T16:31:28.000Z</time>
      </trkpt>
      <trkpt lat="45.84835" lon="3.53285">
        <ele>304</ele>
        <time>2024-04-30T16:31:29.000Z</time>
      </trkpt>
      <trkpt lat="45.84836" lon="3.53289">
        <ele>304</ele>
        <time>2024-04-30T16:31:30.000Z</time>
      </trkpt>
      <trkpt lat="45.84837" lon="3.53292">
        <ele>304</ele>
        <time>2024-04-30T16:31:31.000Z</time>
      </trkpt>
      <trkpt lat="45.84838" lon="3.53295">
        <ele>304</ele>
        <time>2024-04-30T16:31:32.000Z</time>
      </trkpt>
      <trkpt lat="45.84839" lon="3.53298">
        <ele>304</ele>
        <time>2024-04-30T16:31:33.000Z</time>
      </trkpt>
      <trkpt lat="45.8484" lon="3.53303">
        <ele>304</ele>
        <time>2024-04-30T16:31:34.000Z</time>
      </trkpt>
      <trkpt lat="45.8484" lon="3.53307">
        <ele>304</ele>
        <time>2024-04-30T16:31:35.000Z</time>
      </trkpt>
      <trkpt lat="45.8484" lon="3.5331">
        <ele>304</ele>
        <time>2024-04-30T16:31:36.000Z</time>
      </trkpt>
      <trkpt lat="45.8484" lon="3.53315">
        <ele>304</ele>
        <time>2024-04-30T16:31:37.000Z</time>
      </trkpt>
      <trkpt lat="45.84841" lon="3.53319">
        <ele>304</ele>
        <time>2024-04-30T16:31:38.000Z</time>
      </trkpt>
      <trkpt lat="45.84844" lon="3.53321">
        <ele>304</ele>
        <time>2024-04-30T16:31:39.000Z</time>
      </trkpt>
      <trkpt lat="45.84846" lon="3.53323">
        <ele>303.79998779297</ele>
        <time>2024-04-30T16:31:40.000Z</time>
      </trkpt>
      <trkpt lat="45.84847" lon="3.53327">
        <ele>303.79998779297</ele>
        <time>2024-04-30T16:31:41.000Z</time>
      </trkpt>
      <trkpt lat="45.84848" lon="3.5333">
        <ele>303.79998779297</ele>
        <time>2024-04-30T16:31:42.000Z</time>
      </trkpt>
      <trkpt lat="45.84849" lon="3.53334">
        <ele>304.20001220703</ele>
        <time>2024-04-30T16:31:43.000Z</time>
      </trkpt>
      <trkpt lat="45.8485" lon="3.53337">
        <ele>304.39999389648</ele>
        <time>2024-04-30T16:31:44.000Z</time>
      </trkpt>
      <trkpt lat="45.84851" lon="3.53341">
        <ele>304.20001220703</ele>
        <time>2024-04-30T16:31:45.000Z</time>
      </trkpt>
      <trkpt lat="45.84852" lon="3.53345">
        <ele>304.20001220703</ele>
        <time>2024-04-30T16:31:46.000Z</time>
      </trkpt>
      <trkpt lat="45.84853" lon="3.53349">
        <ele>304.20001220703</ele>
        <time>2024-04-30T16:31:47.000Z</time>
      </trkpt>
      <trkpt lat="45.84853" lon="3.53352">
        <ele>304.20001220703</ele>
        <time>2024-04-30T16:31:48.000Z</time>
      </trkpt>
      <trkpt lat="45.84855" lon="3.53356">
        <ele>304.20001220703</ele>
        <time>2024-04-30T16:31:49.000Z</time>
      </trkpt>
      <trkpt lat="45.84856" lon="3.53359">
        <ele>304.20001220703</ele>
        <time>2024-04-30T16:31:50.000Z</time>
      </trkpt>
      <trkpt lat="45.84857" lon="3.53363">
        <ele>304.20001220703</ele>
        <time>2024-04-30T16:31:51.000Z</time>
      </trkpt>
      <trkpt lat="45.84858" lon="3.53366">
        <ele>304.39999389648</ele>
        <time>2024-04-30T16:31:52.000Z</time>
      </trkpt>
      <trkpt lat="45.84859" lon="3.53369">
        <ele>304.39999389648</ele>
        <time>2024-04-30T16:31:53.000Z</time>
      </trkpt>
      <trkpt lat="45.8486" lon="3.53373">
        <ele>304.39999389648</ele>
        <time>2024-04-30T16:31:54.000Z</time>
      </trkpt>
      <trkpt lat="45.84861" lon="3.53377">
        <ele>304.60000610352</ele>
        <time>2024-04-30T16:31:55.000Z</time>
      </trkpt>
      <trkpt lat="45.84862" lon="3.5338">
        <ele>304.39999389648</ele>
        <time>2024-04-30T16:31:56.000Z</time>
      </trkpt>
      <trkpt lat="45.84862" lon="3.53384">
        <ele>304.39999389648</ele>
        <time>2024-04-30T16:31:57.000Z</time>
      </trkpt>
      <trkpt lat="45.84863" lon="3.53388">
        <ele>304.39999389648</ele>
        <time>2024-04-30T16:31:58.000Z</time>
      </trkpt>
      <trkpt lat="45.84864" lon="3.53391">
        <ele>304.79998779297</ele>
        <time>2024-04-30T16:31:59.000Z</time>
      </trkpt>
      <trkpt lat="45.84865" lon="3.53394">
        <ele>304.79998779297</ele>
        <time>2024-04-30T16:32:00.000Z</time>
      </trkpt>
      <trkpt lat="45.84867" lon="3.53397">
        <ele>304.79998779297</ele>
        <time>2024-04-30T16:32:01.000Z</time>
      </trkpt>
      <trkpt lat="45.84868" lon="3.53399">
        <ele>304.79998779297</ele>
        <time>2024-04-30T16:32:02.000Z</time>
      </trkpt>
      <trkpt lat="45.84869" lon="3.53403">
        <ele>304.79998779297</ele>
        <time>2024-04-30T16:32:03.000Z</time>
      </trkpt>
      <trkpt lat="45.84869" lon="3.53407">
        <ele>304.60000610352</ele>
        <time>2024-04-30T16:32:04.000Z</time>
      </trkpt>
      <trkpt lat="45.8487" lon="3.53411">
        <ele>304.79998779297</ele>
        <time>2024-04-30T16:32:05.000Z</time>
      </trkpt>
      <trkpt lat="45.84871" lon="3.53414">
        <ele>304.79998779297</ele>
        <time>2024-04-30T16:32:06.000Z</time>
      </trkpt>
      <trkpt lat="45.84872" lon="3.53417">
        <ele>304.79998779297</ele>
        <time>2024-04-30T16:32:07.000Z</time>
      </trkpt>
      <trkpt lat="45.84873" lon="3.5342">
        <ele>304.79998779297</ele>
        <time>2024-04-30T16:32:08.000Z</time>
      </trkpt>
      <trkpt lat="45.84874" lon="3.53424">
        <ele>304.60000610352</ele>
        <time>2024-04-30T16:32:09.000Z</time>
      </trkpt>
      <trkpt lat="45.84875" lon="3.53427">
        <ele>305</ele>
        <time>2024-04-30T16:32:10.000Z</time>
      </trkpt>
      <trkpt lat="45.84876" lon="3.53431">
        <ele>305.20001220703</ele>
        <time>2024-04-30T16:32:11.000Z</time>
      </trkpt>
      <trkpt lat="45.84877" lon="3.53434">
        <ele>305.20001220703</ele>
        <time>2024-04-30T16:32:12.000Z</time>
      </trkpt>
      <trkpt lat="45.84878" lon="3.53437">
        <ele>305.20001220703</ele>
        <time>2024-04-30T16:32:13.000Z</time>
      </trkpt>
      <trkpt lat="45.8488" lon="3.5344">
        <ele>305.20001220703</ele>
        <time>2024-04-30T16:32:14.000Z</time>
      </trkpt>
      <trkpt lat="45.8488" lon="3.53444">
        <ele>305.20001220703</ele>
        <time>2024-04-30T16:32:15.000Z</time>
      </trkpt>
      <trkpt lat="45.84881" lon="3.53448">
        <ele>305.39999389648</ele>
        <time>2024-04-30T16:32:16.000Z</time>
      </trkpt>
      <trkpt lat="45.84882" lon="3.53451">
        <ele>305.39999389648</ele>
        <time>2024-04-30T16:32:17.000Z</time>
      </trkpt>
      <trkpt lat="45.84883" lon="3.53454">
        <ele>305.39999389648</ele>
        <time>2024-04-30T16:32:18.000Z</time>
      </trkpt>
      <trkpt lat="45.84884" lon="3.53458">
        <ele>305.60000610352</ele>
        <time>2024-04-30T16:32:19.000Z</time>
      </trkpt>
      <trkpt lat="45.84885" lon="3.5346">
        <ele>305.39999389648</ele>
        <time>2024-04-30T16:32:20.000Z</time>
      </trkpt>
      <trkpt lat="45.84886" lon="3.53465">
        <ele>305.39999389648</ele>
        <time>2024-04-30T16:32:21.000Z</time>
      </trkpt>
      <trkpt lat="45.84887" lon="3.53469">
        <ele>305.39999389648</ele>
        <time>2024-04-30T16:32:22.000Z</time>
      </trkpt>
      <trkpt lat="45.84888" lon="3.53473">
        <ele>305.39999389648</ele>
        <time>2024-04-30T16:32:23.000Z</time>
      </trkpt>
      <trkpt lat="45.84889" lon="3.53476">
        <ele>305.39999389648</ele>
        <time>2024-04-30T16:32:24.000Z</time>
      </trkpt>
      <trkpt lat="45.84891" lon="3.5348">
        <ele>305.39999389648</ele>
        <time>2024-04-30T16:32:25.000Z</time>
      </trkpt>
      <trkpt lat="45.84893" lon="3.53484">
        <ele>305.39999389648</ele>
        <time>2024-04-30T16:32:26.000Z</time>
      </trkpt>
      <trkpt lat="45.84894" lon="3.53488">
        <ele>305.20001220703</ele>
        <time>2024-04-30T16:32:27.000Z</time>
      </trkpt>
      <trkpt lat="45.84895" lon="3.53492">
        <ele>305.39999389648</ele>
        <time>2024-04-30T16:32:28.000Z</time>
      </trkpt>
      <trkpt lat="45.84896" lon="3.53494">
        <ele>305.60000610352</ele>
        <time>2024-04-30T16:32:29.000Z</time>
      </trkpt>
      <trkpt lat="45.84898" lon="3.53498">
        <ele>305.60000610352</ele>
        <time>2024-04-30T16:32:30.000Z</time>
      </trkpt>
      <trkpt lat="45.849" lon="3.53501">
        <ele>305.60000610352</ele>
        <time>2024-04-30T16:32:31.000Z</time>
      </trkpt>
      <trkpt lat="45.84902" lon="3.53504">
        <ele>305.60000610352</ele>
        <time>2024-04-30T16:32:32.000Z</time>
      </trkpt>
      <trkpt lat="45.84904" lon="3.53506">
        <ele>305.60000610352</ele>
        <time>2024-04-30T16:32:33.000Z</time>
      </trkpt>
      <trkpt lat="45.84906" lon="3.53511">
        <ele>305.60000610352</ele>
        <time>2024-04-30T16:32:34.000Z</time>
      </trkpt>
      <trkpt lat="45.84907" lon="3.53514">
        <ele>305.60000610352</ele>
        <time>2024-04-30T16:32:35.000Z</time>
      </trkpt>
      <trkpt lat="45.84908" lon="3.53518">
        <ele>305.60000610352</ele>
        <time>2024-04-30T16:32:36.000Z</time>
      </trkpt>
      <trkpt lat="45.84908" lon="3.53522">
        <ele>305.79998779297</ele>
        <time>2024-04-30T16:32:37.000Z</time>
      </trkpt>
      <trkpt lat="45.84909" lon="3.53526">
        <ele>306</ele>
        <time>2024-04-30T16:32:38.000Z</time>
      </trkpt>
      <trkpt lat="45.84911" lon="3.5353">
        <ele>305.79998779297</ele>
        <time>2024-04-30T16:32:39.000Z</time>
      </trkpt>
      <trkpt lat="45.84912" lon="3.53534">
        <ele>305.60000610352</ele>
        <time>2024-04-30T16:32:40.000Z</time>
      </trkpt>
      <trkpt lat="45.84913" lon="3.53538">
        <ele>305.60000610352</ele>
        <time>2024-04-30T16:32:41.000Z</time>
      </trkpt>
      <trkpt lat="45.84914" lon="3.53541">
        <ele>305.39999389648</ele>
        <time>2024-04-30T16:32:42.000Z</time>
      </trkpt>
      <trkpt lat="45.84915" lon="3.53543">
        <ele>305.39999389648</ele>
        <time>2024-04-30T16:32:43.000Z</time>
      </trkpt>
      <trkpt lat="45.84916" lon="3.53548">
        <ele>305.60000610352</ele>
        <time>2024-04-30T16:32:44.000Z</time>
      </trkpt>
      <trkpt lat="45.84916" lon="3.53552">
        <ele>305.79998779297</ele>
        <time>2024-04-30T16:32:45.000Z</time>
      </trkpt>
      <trkpt lat="45.84917" lon="3.53555">
        <ele>305.60000610352</ele>
        <time>2024-04-30T16:32:46.000Z</time>
      </trkpt>
      <trkpt lat="45.84918" lon="3.53559">
        <ele>305.60000610352</ele>
        <time>2024-04-30T16:32:47.000Z</time>
      </trkpt>
      <trkpt lat="45.84919" lon="3.53563">
        <ele>305.60000610352</ele>
        <time>2024-04-30T16:32:48.000Z</time>
      </trkpt>
      <trkpt lat="45.8492" lon="3.53567">
        <ele>305.60000610352</ele>
        <time>2024-04-30T16:32:49.000Z</time>
      </trkpt>
      <trkpt lat="45.84921" lon="3.53569">
        <ele>305.79998779297</ele>
        <time>2024-04-30T16:32:50.000Z</time>
      </trkpt>
      <trkpt lat="45.84922" lon="3.53573">
        <ele>305.79998779297</ele>
        <time>2024-04-30T16:32:51.000Z</time>
      </trkpt>
      <trkpt lat="45.84923" lon="3.53577">
        <ele>305.60000610352</ele>
        <time>2024-04-30T16:32:52.000Z</time>
      </trkpt>
      <trkpt lat="45.84924" lon="3.53581">
        <ele>305.60000610352</ele>
        <time>2024-04-30T16:32:53.000Z</time>
      </trkpt>
      <trkpt lat="45.84925" lon="3.53585">
        <ele>305.39999389648</ele>
        <time>2024-04-30T16:32:54.000Z</time>
      </trkpt>
      <trkpt lat="45.84926" lon="3.53588">
        <ele>305.39999389648</ele>
        <time>2024-04-30T16:32:55.000Z</time>
      </trkpt>
      <trkpt lat="45.84927" lon="3.53592">
        <ele>305.60000610352</ele>
        <time>2024-04-30T16:32:56.000Z</time>
      </trkpt>
      <trkpt lat="45.84928" lon="3.53596">
        <ele>305.79998779297</ele>
        <time>2024-04-30T16:32:57.000Z</time>
      </trkpt>
      <trkpt lat="45.84929" lon="3.536">
        <ele>305.79998779297</ele>
        <time>2024-04-30T16:32:58.000Z</time>
      </trkpt>
      <trkpt lat="45.8493" lon="3.53604">
        <ele>305.60000610352</ele>
        <time>2024-04-30T16:32:59.000Z</time>
      </trkpt>
      <trkpt lat="45.84931" lon="3.53608">
        <ele>305.39999389648</ele>
        <time>2024-04-30T16:33:00.000Z</time>
      </trkpt>
      <trkpt lat="45.84932" lon="3.53611">
        <ele>305.20001220703</ele>
        <time>2024-04-30T16:33:01.000Z</time>
      </trkpt>
      <trkpt lat="45.84933" lon="3.53615">
        <ele>305.20001220703</ele>
        <time>2024-04-30T16:33:02.000Z</time>
      </trkpt>
      <trkpt lat="45.84934" lon="3.53618">
        <ele>305.39999389648</ele>
        <time>2024-04-30T16:33:03.000Z</time>
      </trkpt>
      <trkpt lat="45.84935" lon="3.53622">
        <ele>305.39999389648</ele>
        <time>2024-04-30T16:33:04.000Z</time>
      </trkpt>
      <trkpt lat="45.84936" lon="3.53626">
        <ele>305.20001220703</ele>
        <time>2024-04-30T16:33:05.000Z</time>
      </trkpt>
      <trkpt lat="45.84937" lon="3.53629">
        <ele>305.20001220703</ele>
        <time>2024-04-30T16:33:06.000Z</time>
      </trkpt>
      <trkpt lat="45.84938" lon="3.53633">
        <ele>305</ele>
        <time>2024-04-30T16:33:07.000Z</time>
      </trkpt>
      <trkpt lat="45.84939" lon="3.53636">
        <ele>305</ele>
        <time>2024-04-30T16:33:08.000Z</time>
      </trkpt>
      <trkpt lat="45.8494" lon="3.5364">
        <ele>305.20001220703</ele>
        <time>2024-04-30T16:33:09.000Z</time>
      </trkpt>
      <trkpt lat="45.84942" lon="3.53644">
        <ele>305.79998779297</ele>
        <time>2024-04-30T16:33:10.000Z</time>
      </trkpt>
      <trkpt lat="45.84943" lon="3.53647">
        <ele>306</ele>
        <time>2024-04-30T16:33:11.000Z</time>
      </trkpt>
      <trkpt lat="45.84944" lon="3.5365">
        <ele>306</ele>
        <time>2024-04-30T16:33:12.000Z</time>
      </trkpt>
      <trkpt lat="45.84945" lon="3.53653">
        <ele>306.20001220703</ele>
        <time>2024-04-30T16:33:13.000Z</time>
      </trkpt>
      <trkpt lat="45.84946" lon="3.53656">
        <ele>306</ele>
        <time>2024-04-30T16:33:14.000Z</time>
      </trkpt>
      <trkpt lat="45.84947" lon="3.53659">
        <ele>305.60000610352</ele>
        <time>2024-04-30T16:33:15.000Z</time>
      </trkpt>
      <trkpt lat="45.84948" lon="3.53664">
        <ele>305.39999389648</ele>
        <time>2024-04-30T16:33:16.000Z</time>
      </trkpt>
      <trkpt lat="45.84949" lon="3.53667">
        <ele>305.39999389648</ele>
        <time>2024-04-30T16:33:17.000Z</time>
      </trkpt>
      <trkpt lat="45.8495" lon="3.5367">
        <ele>305.39999389648</ele>
        <time>2024-04-30T16:33:18.000Z</time>
      </trkpt>
      <trkpt lat="45.84951" lon="3.53674">
        <ele>305.39999389648</ele>
        <time>2024-04-30T16:33:19.000Z</time>
      </trkpt>
      <trkpt lat="45.84953" lon="3.53677">
        <ele>305.39999389648</ele>
        <time>2024-04-30T16:33:20.000Z</time>
      </trkpt>
      <trkpt lat="45.84954" lon="3.53681">
        <ele>305.60000610352</ele>
        <time>2024-04-30T16:33:21.000Z</time>
      </trkpt>
      <trkpt lat="45.84955" lon="3.53684">
        <ele>305.39999389648</ele>
        <time>2024-04-30T16:33:22.000Z</time>
      </trkpt>
      <trkpt lat="45.84956" lon="3.53687">
        <ele>305.39999389648</ele>
        <time>2024-04-30T16:33:23.000Z</time>
      </trkpt>
      <trkpt lat="45.84957" lon="3.53691">
        <ele>305.39999389648</ele>
        <time>2024-04-30T16:33:24.000Z</time>
      </trkpt>
      <trkpt lat="45.84958" lon="3.53695">
        <ele>305.39999389648</ele>
        <time>2024-04-30T16:33:25.000Z</time>
      </trkpt>
      <trkpt lat="45.84959" lon="3.53698">
        <ele>305.60000610352</ele>
        <time>2024-04-30T16:33:26.000Z</time>
      </trkpt>
      <trkpt lat="45.8496" lon="3.53702">
        <ele>305.79998779297</ele>
        <time>2024-04-30T16:33:27.000Z</time>
      </trkpt>
      <trkpt lat="45.84961" lon="3.53706">
        <ele>305.79998779297</ele>
        <time>2024-04-30T16:33:28.000Z</time>
      </trkpt>
      <trkpt lat="45.84963" lon="3.53709">
        <ele>305.79998779297</ele>
        <time>2024-04-30T16:33:29.000Z</time>
      </trkpt>
      <trkpt lat="45.84964" lon="3.53713">
        <ele>305.79998779297</ele>
        <time>2024-04-30T16:33:30.000Z</time>
      </trkpt>
      <trkpt lat="45.84964" lon="3.53716">
        <ele>305.79998779297</ele>
        <time>2024-04-30T16:33:31.000Z</time>
      </trkpt>
      <trkpt lat="45.84965" lon="3.5372">
        <ele>305.79998779297</ele>
        <time>2024-04-30T16:33:32.000Z</time>
      </trkpt>
      <trkpt lat="45.84966" lon="3.53723">
        <ele>306</ele>
        <time>2024-04-30T16:33:33.000Z</time>
      </trkpt>
      <trkpt lat="45.84967" lon="3.53727">
        <ele>306</ele>
        <time>2024-04-30T16:33:34.000Z</time>
      </trkpt>
      <trkpt lat="45.84968" lon="3.53731">
        <ele>305.79998779297</ele>
        <time>2024-04-30T16:33:35.000Z</time>
      </trkpt>
      <trkpt lat="45.84968" lon="3.53735">
        <ele>305.79998779297</ele>
        <time>2024-04-30T16:33:36.000Z</time>
      </trkpt>
      <trkpt lat="45.8497" lon="3.53739">
        <ele>305.79998779297</ele>
        <time>2024-04-30T16:33:37.000Z</time>
      </trkpt>
      <trkpt lat="45.84971" lon="3.53741">
        <ele>305.79998779297</ele>
        <time>2024-04-30T16:33:38.000Z</time>
      </trkpt>
      <trkpt lat="45.84973" lon="3.53745">
        <ele>306</ele>
        <time>2024-04-30T16:33:39.000Z</time>
      </trkpt>
      <trkpt lat="45.84974" lon="3.53748">
        <ele>306.20001220703</ele>
        <time>2024-04-30T16:33:40.000Z</time>
      </trkpt>
      <trkpt lat="45.84976" lon="3.53751">
        <ele>306.20001220703</ele>
        <time>2024-04-30T16:33:41.000Z</time>
      </trkpt>
      <trkpt lat="45.84977" lon="3.53754">
        <ele>306.20001220703</ele>
        <time>2024-04-30T16:33:42.000Z</time>
      </trkpt>
      <trkpt lat="45.84978" lon="3.53757">
        <ele>306</ele>
        <time>2024-04-30T16:33:43.000Z</time>
      </trkpt>
      <trkpt lat="45.84979" lon="3.5376">
        <ele>306</ele>
        <time>2024-04-30T16:33:44.000Z</time>
      </trkpt>
      <trkpt lat="45.84981" lon="3.53764">
        <ele>306</ele>
        <time>2024-04-30T16:33:45.000Z</time>
      </trkpt>
      <trkpt lat="45.84982" lon="3.53768">
        <ele>306.20001220703</ele>
        <time>2024-04-30T16:33:46.000Z</time>
      </trkpt>
      <trkpt lat="45.84983" lon="3.53772">
        <ele>306.39999389648</ele>
        <time>2024-04-30T16:33:47.000Z</time>
      </trkpt>
      <trkpt lat="45.84984" lon="3.53776">
        <ele>306.60000610352</ele>
        <time>2024-04-30T16:33:48.000Z</time>
      </trkpt>
      <trkpt lat="45.84985" lon="3.53779">
        <ele>306.60000610352</ele>
        <time>2024-04-30T16:33:49.000Z</time>
      </trkpt>
      <trkpt lat="45.84986" lon="3.53783">
        <ele>306.60000610352</ele>
        <time>2024-04-30T16:33:50.000Z</time>
      </trkpt>
      <trkpt lat="45.84988" lon="3.53786">
        <ele>306.60000610352</ele>
        <time>2024-04-30T16:33:51.000Z</time>
      </trkpt>
      <trkpt lat="45.8499" lon="3.53788">
        <ele>306.60000610352</ele>
        <time>2024-04-30T16:33:52.000Z</time>
      </trkpt>
      <trkpt lat="45.84992" lon="3.53791">
        <ele>306.79998779297</ele>
        <time>2024-04-30T16:33:53.000Z</time>
      </trkpt>
      <trkpt lat="45.84993" lon="3.53795">
        <ele>306.79998779297</ele>
        <time>2024-04-30T16:33:54.000Z</time>
      </trkpt>
      <trkpt lat="45.84994" lon="3.53798">
        <ele>306.60000610352</ele>
        <time>2024-04-30T16:33:55.000Z</time>
      </trkpt>
      <trkpt lat="45.84995" lon="3.53801">
        <ele>306.39999389648</ele>
        <time>2024-04-30T16:33:56.000Z</time>
      </trkpt>
      <trkpt lat="45.84997" lon="3.53804">
        <ele>306.20001220703</ele>
        <time>2024-04-30T16:33:57.000Z</time>
      </trkpt>
      <trkpt lat="45.84998" lon="3.53807">
        <ele>306.39999389648</ele>
        <time>2024-04-30T16:33:58.000Z</time>
      </trkpt>
      <trkpt lat="45.84999" lon="3.53811">
        <ele>306.60000610352</ele>
        <time>2024-04-30T16:33:59.000Z</time>
      </trkpt>
      <trkpt lat="45.85" lon="3.53815">
        <ele>306.79998779297</ele>
        <time>2024-04-30T16:34:00.000Z</time>
      </trkpt>
      <trkpt lat="45.85001" lon="3.53818">
        <ele>306.79998779297</ele>
        <time>2024-04-30T16:34:01.000Z</time>
      </trkpt>
      <trkpt lat="45.85003" lon="3.53821">
        <ele>306.60000610352</ele>
        <time>2024-04-30T16:34:02.000Z</time>
      </trkpt>
      <trkpt lat="45.85003" lon="3.53824">
        <ele>306.60000610352</ele>
        <time>2024-04-30T16:34:03.000Z</time>
      </trkpt>
      <trkpt lat="45.85005" lon="3.53827">
        <ele>306.39999389648</ele>
        <time>2024-04-30T16:34:04.000Z</time>
      </trkpt>
      <trkpt lat="45.85005" lon="3.53831">
        <ele>306.60000610352</ele>
        <time>2024-04-30T16:34:05.000Z</time>
      </trkpt>
      <trkpt lat="45.85005" lon="3.53834">
        <ele>306.79998779297</ele>
        <time>2024-04-30T16:34:06.000Z</time>
      </trkpt>
      <trkpt lat="45.85006" lon="3.53836">
        <ele>306.79998779297</ele>
        <time>2024-04-30T16:34:07.000Z</time>
      </trkpt>
      <trkpt lat="45.85007" lon="3.53839">
        <ele>306.79998779297</ele>
        <time>2024-04-30T16:34:08.000Z</time>
      </trkpt>
      <trkpt lat="45.85009" lon="3.53842">
        <ele>306.79998779297</ele>
        <time>2024-04-30T16:34:09.000Z</time>
      </trkpt>
      <trkpt lat="45.8501" lon="3.53845">
        <ele>306.79998779297</ele>
        <time>2024-04-30T16:34:10.000Z</time>
      </trkpt>
      <trkpt lat="45.85011" lon="3.53848">
        <ele>307</ele>
        <time>2024-04-30T16:34:11.000Z</time>
      </trkpt>
      <trkpt lat="45.85012" lon="3.53852">
        <ele>306.79998779297</ele>
        <time>2024-04-30T16:34:12.000Z</time>
      </trkpt>
      <trkpt lat="45.85013" lon="3.53855">
        <ele>306.79998779297</ele>
        <time>2024-04-30T16:34:13.000Z</time>
      </trkpt>
      <trkpt lat="45.85014" lon="3.53857">
        <ele>306.79998779297</ele>
        <time>2024-04-30T16:34:14.000Z</time>
      </trkpt>
      <trkpt lat="45.85015" lon="3.53861">
        <ele>306.60000610352</ele>
        <time>2024-04-30T16:34:15.000Z</time>
      </trkpt>
      <trkpt lat="45.85017" lon="3.53865">
        <ele>306.60000610352</ele>
        <time>2024-04-30T16:34:16.000Z</time>
      </trkpt>
      <trkpt lat="45.85017" lon="3.53869">
        <ele>307</ele>
        <time>2024-04-30T16:34:17.000Z</time>
      </trkpt>
      <trkpt lat="45.85018" lon="3.53872">
        <ele>307</ele>
        <time>2024-04-30T16:34:18.000Z</time>
      </trkpt>
      <trkpt lat="45.8502" lon="3.53875">
        <ele>307</ele>
        <time>2024-04-30T16:34:19.000Z</time>
      </trkpt>
      <trkpt lat="45.85022" lon="3.53878">
        <ele>307</ele>
        <time>2024-04-30T16:34:20.000Z</time>
      </trkpt>
      <trkpt lat="45.85023" lon="3.53881">
        <ele>306.79998779297</ele>
        <time>2024-04-30T16:34:21.000Z</time>
      </trkpt>
      <trkpt lat="45.85025" lon="3.53884">
        <ele>306.60000610352</ele>
        <time>2024-04-30T16:34:22.000Z</time>
      </trkpt>
      <trkpt lat="45.85026" lon="3.53886">
        <ele>306.60000610352</ele>
        <time>2024-04-30T16:34:23.000Z</time>
      </trkpt>
      <trkpt lat="45.85028" lon="3.53891">
        <ele>306.79998779297</ele>
        <time>2024-04-30T16:34:24.000Z</time>
      </trkpt>
      <trkpt lat="45.85028" lon="3.53894">
        <ele>306.79998779297</ele>
        <time>2024-04-30T16:34:25.000Z</time>
      </trkpt>
      <trkpt lat="45.85028" lon="3.53898">
        <ele>306.79998779297</ele>
        <time>2024-04-30T16:34:26.000Z</time>
      </trkpt>
      <trkpt lat="45.85024" lon="3.53901">
        <ele>306.79998779297</ele>
        <time>2024-04-30T16:34:27.000Z</time>
      </trkpt>
      <trkpt lat="45.85022" lon="3.53903">
        <ele>306.79998779297</ele>
        <time>2024-04-30T16:34:28.000Z</time>
      </trkpt>
      <trkpt lat="45.85018" lon="3.53905">
        <ele>306.60000610352</ele>
        <time>2024-04-30T16:34:29.000Z</time>
      </trkpt>
      <trkpt lat="45.85016" lon="3.53906">
        <ele>306.79998779297</ele>
        <time>2024-04-30T16:34:30.000Z</time>
      </trkpt>
      <trkpt lat="45.85011" lon="3.53909">
        <ele>307</ele>
        <time>2024-04-30T16:34:31.000Z</time>
      </trkpt>
      <trkpt lat="45.85009" lon="3.5391">
        <ele>307</ele>
        <time>2024-04-30T16:34:32.000Z</time>
      </trkpt>
      <trkpt lat="45.85005" lon="3.53912">
        <ele>307</ele>
        <time>2024-04-30T16:34:33.000Z</time>
      </trkpt>
      <trkpt lat="45.85001" lon="3.53915">
        <ele>306.79998779297</ele>
        <time>2024-04-30T16:34:34.000Z</time>
      </trkpt>
      <trkpt lat="45.84998" lon="3.53917">
        <ele>306.79998779297</ele>
        <time>2024-04-30T16:34:35.000Z</time>
      </trkpt>
      <trkpt lat="45.84996" lon="3.5392">
        <ele>306.79998779297</ele>
        <time>2024-04-30T16:34:36.000Z</time>
      </trkpt>
      <trkpt lat="45.84994" lon="3.53924">
        <ele>307</ele>
        <time>2024-04-30T16:34:37.000Z</time>
      </trkpt>
      <trkpt lat="45.84993" lon="3.53927">
        <ele>307.39999389648</ele>
        <time>2024-04-30T16:34:38.000Z</time>
      </trkpt>
      <trkpt lat="45.84994" lon="3.53933">
        <ele>307.39999389648</ele>
        <time>2024-04-30T16:34:39.000Z</time>
      </trkpt>
      <trkpt lat="45.84994" lon="3.53937">
        <ele>307.39999389648</ele>
        <time>2024-04-30T16:34:40.000Z</time>
      </trkpt>
      <trkpt lat="45.84995" lon="3.53941">
        <ele>307.39999389648</ele>
        <time>2024-04-30T16:34:41.000Z</time>
      </trkpt>
      <trkpt lat="45.84995" lon="3.53945">
        <ele>307.39999389648</ele>
        <time>2024-04-30T16:34:42.000Z</time>
      </trkpt>
      <trkpt lat="45.84996" lon="3.53948">
        <ele>307.39999389648</ele>
        <time>2024-04-30T16:34:43.000Z</time>
      </trkpt>
      <trkpt lat="45.84997" lon="3.53952">
        <ele>307.39999389648</ele>
        <time>2024-04-30T16:34:44.000Z</time>
      </trkpt>
      <trkpt lat="45.84998" lon="3.53956">
        <ele>307.60000610352</ele>
        <time>2024-04-30T16:34:45.000Z</time>
      </trkpt>
      <trkpt lat="45.84999" lon="3.5396">
        <ele>307.79998779297</ele>
        <time>2024-04-30T16:34:46.000Z</time>
      </trkpt>
      <trkpt lat="45.85" lon="3.53964">
        <ele>307.79998779297</ele>
        <time>2024-04-30T16:34:47.000Z</time>
      </trkpt>
      <trkpt lat="45.85001" lon="3.53968">
        <ele>307.79998779297</ele>
        <time>2024-04-30T16:34:48.000Z</time>
      </trkpt>
      <trkpt lat="45.85002" lon="3.53971">
        <ele>307.60000610352</ele>
        <time>2024-04-30T16:34:49.000Z</time>
      </trkpt>
      <trkpt lat="45.85003" lon="3.53975">
        <ele>307.60000610352</ele>
        <time>2024-04-30T16:34:50.000Z</time>
      </trkpt>
      <trkpt lat="45.85004" lon="3.53979">
        <ele>307.79998779297</ele>
        <time>2024-04-30T16:34:51.000Z</time>
      </trkpt>
      <trkpt lat="45.85005" lon="3.53982">
        <ele>308</ele>
        <time>2024-04-30T16:34:52.000Z</time>
      </trkpt>
      <trkpt lat="45.85006" lon="3.53985">
        <ele>308</ele>
        <time>2024-04-30T16:34:53.000Z</time>
      </trkpt>
      <trkpt lat="45.85007" lon="3.53989">
        <ele>307.79998779297</ele>
        <time>2024-04-30T16:34:54.000Z</time>
      </trkpt>
      <trkpt lat="45.85008" lon="3.53993">
        <ele>307.79998779297</ele>
        <time>2024-04-30T16:34:55.000Z</time>
      </trkpt>
      <trkpt lat="45.85009" lon="3.53996">
        <ele>307.60000610352</ele>
        <time>2024-04-30T16:34:56.000Z</time>
      </trkpt>
      <trkpt lat="45.8501" lon="3.54">
        <ele>307.79998779297</ele>
        <time>2024-04-30T16:34:57.000Z</time>
      </trkpt>
      <trkpt lat="45.85011" lon="3.54004">
        <ele>307.79998779297</ele>
        <time>2024-04-30T16:34:58.000Z</time>
      </trkpt>
      <trkpt lat="45.85012" lon="3.54009">
        <ele>308</ele>
        <time>2024-04-30T16:34:59.000Z</time>
      </trkpt>
      <trkpt lat="45.85012" lon="3.54013">
        <ele>308</ele>
        <time>2024-04-30T16:35:00.000Z</time>
      </trkpt>
      <trkpt lat="45.85013" lon="3.54017">
        <ele>307.79998779297</ele>
        <time>2024-04-30T16:35:01.000Z</time>
      </trkpt>
      <trkpt lat="45.85014" lon="3.5402">
        <ele>307.79998779297</ele>
        <time>2024-04-30T16:35:02.000Z</time>
      </trkpt>
      <trkpt lat="45.85015" lon="3.54024">
        <ele>307.60000610352</ele>
        <time>2024-04-30T16:35:03.000Z</time>
      </trkpt>
      <trkpt lat="45.85016" lon="3.54029">
        <ele>307.79998779297</ele>
        <time>2024-04-30T16:35:04.000Z</time>
      </trkpt>
      <trkpt lat="45.85016" lon="3.54033">
        <ele>307.79998779297</ele>
        <time>2024-04-30T16:35:05.000Z</time>
      </trkpt>
      <trkpt lat="45.85017" lon="3.54036">
        <ele>308</ele>
        <time>2024-04-30T16:35:06.000Z</time>
      </trkpt>
      <trkpt lat="45.85018" lon="3.5404">
        <ele>308</ele>
        <time>2024-04-30T16:35:07.000Z</time>
      </trkpt>
      <trkpt lat="45.85019" lon="3.54044">
        <ele>308</ele>
        <time>2024-04-30T16:35:08.000Z</time>
      </trkpt>
      <trkpt lat="45.85019" lon="3.54047">
        <ele>307.79998779297</ele>
        <time>2024-04-30T16:35:09.000Z</time>
      </trkpt>
      <trkpt lat="45.8502" lon="3.54051">
        <ele>307.79998779297</ele>
        <time>2024-04-30T16:35:10.000Z</time>
      </trkpt>
      <trkpt lat="45.85021" lon="3.54054">
        <ele>308</ele>
        <time>2024-04-30T16:35:11.000Z</time>
      </trkpt>
      <trkpt lat="45.85022" lon="3.54058">
        <ele>308.20001220703</ele>
        <time>2024-04-30T16:35:12.000Z</time>
      </trkpt>
      <trkpt lat="45.85022" lon="3.54062">
        <ele>308.20001220703</ele>
        <time>2024-04-30T16:35:13.000Z</time>
      </trkpt>
      <trkpt lat="45.85023" lon="3.54066">
        <ele>308.20001220703</ele>
        <time>2024-04-30T16:35:14.000Z</time>
      </trkpt>
      <trkpt lat="45.85023" lon="3.54069">
        <ele>308.20001220703</ele>
        <time>2024-04-30T16:35:15.000Z</time>
      </trkpt>
      <trkpt lat="45.85024" lon="3.54074">
        <ele>308</ele>
        <time>2024-04-30T16:35:16.000Z</time>
      </trkpt>
      <trkpt lat="45.85025" lon="3.54077">
        <ele>307.79998779297</ele>
        <time>2024-04-30T16:35:17.000Z</time>
      </trkpt>
      <trkpt lat="45.85026" lon="3.54081">
        <ele>307.79998779297</ele>
        <time>2024-04-30T16:35:18.000Z</time>
      </trkpt>
      <trkpt lat="45.85026" lon="3.54085">
        <ele>308</ele>
        <time>2024-04-30T16:35:19.000Z</time>
      </trkpt>
      <trkpt lat="45.85027" lon="3.54088">
        <ele>308</ele>
        <time>2024-04-30T16:35:20.000Z</time>
      </trkpt>
      <trkpt lat="45.85027" lon="3.54092">
        <ele>308.39999389648</ele>
        <time>2024-04-30T16:35:21.000Z</time>
      </trkpt>
      <trkpt lat="45.85028" lon="3.54096">
        <ele>308.60000610352</ele>
        <time>2024-04-30T16:35:22.000Z</time>
      </trkpt>
      <trkpt lat="45.85029" lon="3.541">
        <ele>308.60000610352</ele>
        <time>2024-04-30T16:35:23.000Z</time>
      </trkpt>
      <trkpt lat="45.8503" lon="3.54103">
        <ele>308.60000610352</ele>
        <time>2024-04-30T16:35:24.000Z</time>
      </trkpt>
      <trkpt lat="45.85031" lon="3.54107">
        <ele>308.60000610352</ele>
        <time>2024-04-30T16:35:25.000Z</time>
      </trkpt>
      <trkpt lat="45.85032" lon="3.5411">
        <ele>308.39999389648</ele>
        <time>2024-04-30T16:35:26.000Z</time>
      </trkpt>
      <trkpt lat="45.85032" lon="3.54115">
        <ele>308.20001220703</ele>
        <time>2024-04-30T16:35:27.000Z</time>
      </trkpt>
      <trkpt lat="45.85032" lon="3.54118">
        <ele>308.39999389648</ele>
        <time>2024-04-30T16:35:28.000Z</time>
      </trkpt>
      <trkpt lat="45.85032" lon="3.54123">
        <ele>308.60000610352</ele>
        <time>2024-04-30T16:35:29.000Z</time>
      </trkpt>
      <trkpt lat="45.85032" lon="3.54127">
        <ele>308.60000610352</ele>
        <time>2024-04-30T16:35:30.000Z</time>
      </trkpt>
      <trkpt lat="45.85032" lon="3.54131">
        <ele>308.60000610352</ele>
        <time>2024-04-30T16:35:31.000Z</time>
      </trkpt>
      <trkpt lat="45.85033" lon="3.54135">
        <ele>308.60000610352</ele>
        <time>2024-04-30T16:35:32.000Z</time>
      </trkpt>
      <trkpt lat="45.85033" lon="3.54138">
        <ele>308.39999389648</ele>
        <time>2024-04-30T16:35:33.000Z</time>
      </trkpt>
      <trkpt lat="45.85034" lon="3.54143">
        <ele>308.20001220703</ele>
        <time>2024-04-30T16:35:34.000Z</time>
      </trkpt>
      <trkpt lat="45.85034" lon="3.54146">
        <ele>308.20001220703</ele>
        <time>2024-04-30T16:35:35.000Z</time>
      </trkpt>
      <trkpt lat="45.85035" lon="3.5415">
        <ele>308.39999389648</ele>
        <time>2024-04-30T16:35:36.000Z</time>
      </trkpt>
      <trkpt lat="45.85035" lon="3.54154">
        <ele>308.60000610352</ele>
        <time>2024-04-30T16:35:37.000Z</time>
      </trkpt>
      <trkpt lat="45.85035" lon="3.54157">
        <ele>308.60000610352</ele>
        <time>2024-04-30T16:35:38.000Z</time>
      </trkpt>
      <trkpt lat="45.85035" lon="3.54161">
        <ele>308.60000610352</ele>
        <time>2024-04-30T16:35:39.000Z</time>
      </trkpt>
      <trkpt lat="45.85036" lon="3.54165">
        <ele>308.39999389648</ele>
        <time>2024-04-30T16:35:40.000Z</time>
      </trkpt>
      <trkpt lat="45.85036" lon="3.54168">
        <ele>308.39999389648</ele>
        <time>2024-04-30T16:35:41.000Z</time>
      </trkpt>
      <trkpt lat="45.85037" lon="3.54172">
        <ele>308.39999389648</ele>
        <time>2024-04-30T16:35:42.000Z</time>
      </trkpt>
      <trkpt lat="45.85037" lon="3.54175">
        <ele>308.60000610352</ele>
        <time>2024-04-30T16:35:43.000Z</time>
      </trkpt>
      <trkpt lat="45.85037" lon="3.54179">
        <ele>308.60000610352</ele>
        <time>2024-04-30T16:35:44.000Z</time>
      </trkpt>
      <trkpt lat="45.85037" lon="3.54183">
        <ele>308.79998779297</ele>
        <time>2024-04-30T16:35:45.000Z</time>
      </trkpt>
      <trkpt lat="45.85038" lon="3.54187">
        <ele>308.79998779297</ele>
        <time>2024-04-30T16:35:46.000Z</time>
      </trkpt>
      <trkpt lat="45.85038" lon="3.54191">
        <ele>308.60000610352</ele>
        <time>2024-04-30T16:35:47.000Z</time>
      </trkpt>
      <trkpt lat="45.85039" lon="3.54195">
        <ele>308.60000610352</ele>
        <time>2024-04-30T16:35:48.000Z</time>
      </trkpt>
      <trkpt lat="45.85039" lon="3.54199">
        <ele>308.60000610352</ele>
        <time>2024-04-30T16:35:49.000Z</time>
      </trkpt>
      <trkpt lat="45.8504" lon="3.54202">
        <ele>308.79998779297</ele>
        <time>2024-04-30T16:35:50.000Z</time>
      </trkpt>
      <trkpt lat="45.8504" lon="3.54206">
        <ele>308.79998779297</ele>
        <time>2024-04-30T16:35:51.000Z</time>
      </trkpt>
      <trkpt lat="45.85041" lon="3.5421">
        <ele>308.79998779297</ele>
        <time>2024-04-30T16:35:52.000Z</time>
      </trkpt>
      <trkpt lat="45.85041" lon="3.54213">
        <ele>308.79998779297</ele>
        <time>2024-04-30T16:35:53.000Z</time>
      </trkpt>
      <trkpt lat="45.85042" lon="3.54217">
        <ele>308.60000610352</ele>
        <time>2024-04-30T16:35:54.000Z</time>
      </trkpt>
      <trkpt lat="45.85043" lon="3.54221">
        <ele>308.60000610352</ele>
        <time>2024-04-30T16:35:55.000Z</time>
      </trkpt>
      <trkpt lat="45.85044" lon="3.54226">
        <ele>308.60000610352</ele>
        <time>2024-04-30T16:35:56.000Z</time>
      </trkpt>
      <trkpt lat="45.85044" lon="3.54229">
        <ele>308.60000610352</ele>
        <time>2024-04-30T16:35:57.000Z</time>
      </trkpt>
      <trkpt lat="45.85045" lon="3.54233">
        <ele>308.60000610352</ele>
        <time>2024-04-30T16:35:58.000Z</time>
      </trkpt>
      <trkpt lat="45.85046" lon="3.54237">
        <ele>308.60000610352</ele>
        <time>2024-04-30T16:35:59.000Z</time>
      </trkpt>
      <trkpt lat="45.85047" lon="3.54241">
        <ele>308.60000610352</ele>
        <time>2024-04-30T16:36:00.000Z</time>
      </trkpt>
      <trkpt lat="45.85048" lon="3.54245">
        <ele>308.79998779297</ele>
        <time>2024-04-30T16:36:01.000Z</time>
      </trkpt>
      <trkpt lat="45.8505" lon="3.54248">
        <ele>308.60000610352</ele>
        <time>2024-04-30T16:36:02.000Z</time>
      </trkpt>
      <trkpt lat="45.85051" lon="3.54251">
        <ele>308.60000610352</ele>
        <time>2024-04-30T16:36:03.000Z</time>
      </trkpt>
      <trkpt lat="45.85053" lon="3.54253">
        <ele>308.60000610352</ele>
        <time>2024-04-30T16:36:04.000Z</time>
      </trkpt>
      <trkpt lat="45.85054" lon="3.54256">
        <ele>308.39999389648</ele>
        <time>2024-04-30T16:36:05.000Z</time>
      </trkpt>
      <trkpt lat="45.85054" lon="3.54258">
        <ele>308.39999389648</ele>
        <time>2024-04-30T16:36:06.000Z</time>
      </trkpt>
      <trkpt lat="45.85054" lon="3.5426">
        <ele>308.39999389648</ele>
        <time>2024-04-30T16:36:07.000Z</time>
      </trkpt>
      <trkpt lat="45.85054" lon="3.54265">
        <ele>308.39999389648</ele>
        <time>2024-04-30T16:36:08.000Z</time>
      </trkpt>
      <trkpt lat="45.85055" lon="3.54269">
        <ele>308.39999389648</ele>
        <time>2024-04-30T16:36:09.000Z</time>
      </trkpt>
      <trkpt lat="45.85055" lon="3.54273">
        <ele>308.39999389648</ele>
        <time>2024-04-30T16:36:10.000Z</time>
      </trkpt>
      <trkpt lat="45.85056" lon="3.54277">
        <ele>308.39999389648</ele>
        <time>2024-04-30T16:36:11.000Z</time>
      </trkpt>
      <trkpt lat="45.85057" lon="3.5428">
        <ele>308.39999389648</ele>
        <time>2024-04-30T16:36:12.000Z</time>
      </trkpt>
      <trkpt lat="45.85058" lon="3.54284">
        <ele>308.39999389648</ele>
        <time>2024-04-30T16:36:13.000Z</time>
      </trkpt>
      <trkpt lat="45.85059" lon="3.54288">
        <ele>308.39999389648</ele>
        <time>2024-04-30T16:36:14.000Z</time>
      </trkpt>
      <trkpt lat="45.8506" lon="3.54292">
        <ele>308.39999389648</ele>
        <time>2024-04-30T16:36:15.000Z</time>
      </trkpt>
      <trkpt lat="45.85062" lon="3.54296">
        <ele>308.39999389648</ele>
        <time>2024-04-30T16:36:16.000Z</time>
      </trkpt>
      <trkpt lat="45.85064" lon="3.54298">
        <ele>308.39999389648</ele>
        <time>2024-04-30T16:36:17.000Z</time>
      </trkpt>
      <trkpt lat="45.85066" lon="3.543">
        <ele>308.60000610352</ele>
        <time>2024-04-30T16:36:18.000Z</time>
      </trkpt>
      <trkpt lat="45.85068" lon="3.54302">
        <ele>308.79998779297</ele>
        <time>2024-04-30T16:36:19.000Z</time>
      </trkpt>
      <trkpt lat="45.85071" lon="3.54303">
        <ele>308.79998779297</ele>
        <time>2024-04-30T16:36:20.000Z</time>
      </trkpt>
      <trkpt lat="45.8507" lon="3.54305">
        <ele>308.79998779297</ele>
        <time>2024-04-30T16:36:21.000Z</time>
      </trkpt>
      <trkpt lat="45.8507" lon="3.54305">
        <ele>308.79998779297</ele>
        <time>2024-04-30T16:36:22.000Z</time>
      </trkpt>
      <trkpt lat="45.85072" lon="3.54305">
        <ele>308.79998779297</ele>
        <time>2024-04-30T16:36:23.000Z</time>
      </trkpt>
      <trkpt lat="45.85073" lon="3.54305">
        <ele>308.60000610352</ele>
        <time>2024-04-30T16:36:24.000Z</time>
      </trkpt>
      <trkpt lat="45.85074" lon="3.54305">
        <ele>308.60000610352</ele>
        <time>2024-04-30T16:36:25.000Z</time>
      </trkpt>
      <trkpt lat="45.85076" lon="3.54305">
        <ele>308.60000610352</ele>
        <time>2024-04-30T16:36:26.000Z</time>
      </trkpt>
      <trkpt lat="45.85079" lon="3.54307">
        <ele>308.60000610352</ele>
        <time>2024-04-30T16:36:27.000Z</time>
      </trkpt>
      <trkpt lat="45.85079" lon="3.54308">
        <ele>308.39999389648</ele>
        <time>2024-04-30T16:36:28.000Z</time>
      </trkpt>
      <trkpt lat="45.8508" lon="3.54309">
        <ele>308.60000610352</ele>
        <time>2024-04-30T16:36:29.000Z</time>
      </trkpt>
      <trkpt lat="45.85081" lon="3.5431">
        <ele>308.60000610352</ele>
        <time>2024-04-30T16:36:30.000Z</time>
      </trkpt>
      <trkpt lat="45.85082" lon="3.5431">
        <ele>308.60000610352</ele>
        <time>2024-04-30T16:36:31.000Z</time>
      </trkpt>
      <trkpt lat="45.85082" lon="3.5431">
        <ele>308.79998779297</ele>
        <time>2024-04-30T16:36:32.000Z</time>
      </trkpt>
      <trkpt lat="45.85083" lon="3.54311">
        <ele>308.79998779297</ele>
        <time>2024-04-30T16:36:33.000Z</time>
      </trkpt>
      <trkpt lat="45.85084" lon="3.54311">
        <ele>308.79998779297</ele>
        <time>2024-04-30T16:36:34.000Z</time>
      </trkpt>
      <trkpt lat="45.85084" lon="3.54311">
        <ele>308.60000610352</ele>
        <time>2024-04-30T16:36:35.000Z</time>
      </trkpt>
      <trkpt lat="45.85085" lon="3.54312">
        <ele>308.79998779297</ele>
        <time>2024-04-30T16:36:36.000Z</time>
      </trkpt>
      <trkpt lat="45.85086" lon="3.54313">
        <ele>308.79998779297</ele>
        <time>2024-04-30T16:36:37.000Z</time>
      </trkpt>
      <trkpt lat="45.85089" lon="3.54316">
        <ele>308.79998779297</ele>
        <time>2024-04-30T16:36:38.000Z</time>
      </trkpt>
      <trkpt lat="45.8509" lon="3.54319">
        <ele>308.79998779297</ele>
        <time>2024-04-30T16:36:39.000Z</time>
      </trkpt>
      <trkpt lat="45.85092" lon="3.54321">
        <ele>308.79998779297</ele>
        <time>2024-04-30T16:36:40.000Z</time>
      </trkpt>
      <trkpt lat="45.85093" lon="3.54323">
        <ele>308.79998779297</ele>
        <time>2024-04-30T16:36:41.000Z</time>
      </trkpt>
      <trkpt lat="45.85094" lon="3.54325">
        <ele>309</ele>
        <time>2024-04-30T16:36:42.000Z</time>
      </trkpt>
      <trkpt lat="45.85095" lon="3.54328">
        <ele>309</ele>
        <time>2024-04-30T16:36:43.000Z</time>
      </trkpt>
      <trkpt lat="45.85096" lon="3.54331">
        <ele>309.20001220703</ele>
        <time>2024-04-30T16:36:44.000Z</time>
      </trkpt>
      <trkpt lat="45.85097" lon="3.54334">
        <ele>309.20001220703</ele>
        <time>2024-04-30T16:36:45.000Z</time>
      </trkpt>
      <trkpt lat="45.85098" lon="3.54336">
        <ele>309.20001220703</ele>
        <time>2024-04-30T16:36:46.000Z</time>
      </trkpt>
      <trkpt lat="45.851" lon="3.5434">
        <ele>309.39999389648</ele>
        <time>2024-04-30T16:36:47.000Z</time>
      </trkpt>
      <trkpt lat="45.85101" lon="3.54343">
        <ele>309.39999389648</ele>
        <time>2024-04-30T16:36:48.000Z</time>
      </trkpt>
      <trkpt lat="45.85101" lon="3.54345">
        <ele>309.39999389648</ele>
        <time>2024-04-30T16:36:49.000Z</time>
      </trkpt>
      <trkpt lat="45.85102" lon="3.5435">
        <ele>309.20001220703</ele>
        <time>2024-04-30T16:36:50.000Z</time>
      </trkpt>
      <trkpt lat="45.85101" lon="3.54352">
        <ele>309.39999389648</ele>
        <time>2024-04-30T16:36:51.000Z</time>
      </trkpt>
      <trkpt lat="45.85101" lon="3.54355">
        <ele>309.39999389648</ele>
        <time>2024-04-30T16:36:52.000Z</time>
      </trkpt>
      <trkpt lat="45.85101" lon="3.54359">
        <ele>309.39999389648</ele>
        <time>2024-04-30T16:36:53.000Z</time>
      </trkpt>
      <trkpt lat="45.851" lon="3.54363">
        <ele>309.60000610352</ele>
        <time>2024-04-30T16:36:54.000Z</time>
      </trkpt>
      <trkpt lat="45.851" lon="3.54366">
        <ele>309.60000610352</ele>
        <time>2024-04-30T16:36:55.000Z</time>
      </trkpt>
      <trkpt lat="45.85099" lon="3.54369">
        <ele>309.39999389648</ele>
        <time>2024-04-30T16:36:56.000Z</time>
      </trkpt>
      <trkpt lat="45.85099" lon="3.54373">
        <ele>309.39999389648</ele>
        <time>2024-04-30T16:36:57.000Z</time>
      </trkpt>
      <trkpt lat="45.85098" lon="3.54375">
        <ele>309.39999389648</ele>
        <time>2024-04-30T16:36:58.000Z</time>
      </trkpt>
      <trkpt lat="45.85097" lon="3.54379">
        <ele>309.79998779297</ele>
        <time>2024-04-30T16:36:59.000Z</time>
      </trkpt>
      <trkpt lat="45.85096" lon="3.54382">
        <ele>309.79998779297</ele>
        <time>2024-04-30T16:37:00.000Z</time>
      </trkpt>
      <trkpt lat="45.85094" lon="3.54383">
        <ele>310</ele>
        <time>2024-04-30T16:37:01.000Z</time>
      </trkpt>
      <trkpt lat="45.85093" lon="3.54385">
        <ele>310</ele>
        <time>2024-04-30T16:37:02.000Z</time>
      </trkpt>
      <trkpt lat="45.85091" lon="3.54386">
        <ele>310.20001220703</ele>
        <time>2024-04-30T16:37:03.000Z</time>
      </trkpt>
      <trkpt lat="45.85089" lon="3.5439">
        <ele>310.20001220703</ele>
        <time>2024-04-30T16:37:04.000Z</time>
      </trkpt>
      <trkpt lat="45.85087" lon="3.54393">
        <ele>310</ele>
        <time>2024-04-30T16:37:05.000Z</time>
      </trkpt>
      <trkpt lat="45.85086" lon="3.54396">
        <ele>310</ele>
        <time>2024-04-30T16:37:06.000Z</time>
      </trkpt>
      <trkpt lat="45.85085" lon="3.54399">
        <ele>310</ele>
        <time>2024-04-30T16:37:07.000Z</time>
      </trkpt>
      <trkpt lat="45.85085" lon="3.54402">
        <ele>310</ele>
        <time>2024-04-30T16:37:08.000Z</time>
      </trkpt>
      <trkpt lat="45.85085" lon="3.54407">
        <ele>310</ele>
        <time>2024-04-30T16:37:09.000Z</time>
      </trkpt>
      <trkpt lat="45.85085" lon="3.54412">
        <ele>310</ele>
        <time>2024-04-30T16:37:10.000Z</time>
      </trkpt>
      <trkpt lat="45.85086" lon="3.54416">
        <ele>310</ele>
        <time>2024-04-30T16:37:11.000Z</time>
      </trkpt>
      <trkpt lat="45.85086" lon="3.54419">
        <ele>310.20001220703</ele>
        <time>2024-04-30T16:37:12.000Z</time>
      </trkpt>
      <trkpt lat="45.85087" lon="3.54423">
        <ele>310.39999389648</ele>
        <time>2024-04-30T16:37:13.000Z</time>
      </trkpt>
      <trkpt lat="45.8509" lon="3.54425">
        <ele>310.20001220703</ele>
        <time>2024-04-30T16:37:14.000Z</time>
      </trkpt>
      <trkpt lat="45.85091" lon="3.54429">
        <ele>310.39999389648</ele>
        <time>2024-04-30T16:37:15.000Z</time>
      </trkpt>
      <trkpt lat="45.85093" lon="3.54431">
        <ele>310.39999389648</ele>
        <time>2024-04-30T16:37:16.000Z</time>
      </trkpt>
      <trkpt lat="45.85095" lon="3.54433">
        <ele>310.60000610352</ele>
        <time>2024-04-30T16:37:17.000Z</time>
      </trkpt>
      <trkpt lat="45.85097" lon="3.54435">
        <ele>310.39999389648</ele>
        <time>2024-04-30T16:37:18.000Z</time>
      </trkpt>
      <trkpt lat="45.85099" lon="3.54438">
        <ele>310.39999389648</ele>
        <time>2024-04-30T16:37:19.000Z</time>
      </trkpt>
      <trkpt lat="45.851" lon="3.5444">
        <ele>310.60000610352</ele>
        <time>2024-04-30T16:37:20.000Z</time>
      </trkpt>
      <trkpt lat="45.85101" lon="3.54443">
        <ele>310.60000610352</ele>
        <time>2024-04-30T16:37:21.000Z</time>
      </trkpt>
      <trkpt lat="45.85104" lon="3.54444">
        <ele>310.39999389648</ele>
        <time>2024-04-30T16:37:22.000Z</time>
      </trkpt>
      <trkpt lat="45.85106" lon="3.54444">
        <ele>310.20001220703</ele>
        <time>2024-04-30T16:37:23.000Z</time>
      </trkpt>
      <trkpt lat="45.85108" lon="3.54442">
        <ele>310.20001220703</ele>
        <time>2024-04-30T16:37:24.000Z</time>
      </trkpt>
      <trkpt lat="45.8511" lon="3.5444">
        <ele>310.20001220703</ele>
        <time>2024-04-30T16:37:25.000Z</time>
      </trkpt>
      <trkpt lat="45.85112" lon="3.54437">
        <ele>310.20001220703</ele>
        <time>2024-04-30T16:37:26.000Z</time>
      </trkpt>
      <trkpt lat="45.85114" lon="3.54434">
        <ele>310</ele>
        <time>2024-04-30T16:37:27.000Z</time>
      </trkpt>
      <trkpt lat="45.85116" lon="3.54432">
        <ele>310.20001220703</ele>
        <time>2024-04-30T16:37:28.000Z</time>
      </trkpt>
      <trkpt lat="45.85118" lon="3.54429">
        <ele>310.20001220703</ele>
        <time>2024-04-30T16:37:29.000Z</time>
      </trkpt>
      <trkpt lat="45.8512" lon="3.54427">
        <ele>310.20001220703</ele>
        <time>2024-04-30T16:37:30.000Z</time>
      </trkpt>
      <trkpt lat="45.85122" lon="3.54424">
        <ele>310</ele>
        <time>2024-04-30T16:37:31.000Z</time>
      </trkpt>
      <trkpt lat="45.85124" lon="3.54421">
        <ele>310.20001220703</ele>
        <time>2024-04-30T16:37:32.000Z</time>
      </trkpt>
      <trkpt lat="45.85125" lon="3.54419">
        <ele>310.20001220703</ele>
        <time>2024-04-30T16:37:33.000Z</time>
      </trkpt>
      <trkpt lat="45.85127" lon="3.54415">
        <ele>310.39999389648</ele>
        <time>2024-04-30T16:37:34.000Z</time>
      </trkpt>
      <trkpt lat="45.85129" lon="3.54412">
        <ele>310.39999389648</ele>
        <time>2024-04-30T16:37:35.000Z</time>
      </trkpt>
      <trkpt lat="45.8513" lon="3.5441">
        <ele>310.20001220703</ele>
        <time>2024-04-30T16:37:36.000Z</time>
      </trkpt>
      <trkpt lat="45.85131" lon="3.54408">
        <ele>310</ele>
        <time>2024-04-30T16:37:37.000Z</time>
      </trkpt>
      <trkpt lat="45.85133" lon="3.5441">
        <ele>310</ele>
        <time>2024-04-30T16:37:38.000Z</time>
      </trkpt>
      <trkpt lat="45.85134" lon="3.54413">
        <ele>309.60000610352</ele>
        <time>2024-04-30T16:37:39.000Z</time>
      </trkpt>
      <trkpt lat="45.85135" lon="3.54416">
        <ele>309.60000610352</ele>
        <time>2024-04-30T16:37:40.000Z</time>
      </trkpt>
      <trkpt lat="45.85136" lon="3.54418">
        <ele>309.60000610352</ele>
        <time>2024-04-30T16:37:41.000Z</time>
      </trkpt>
      <trkpt lat="45.85138" lon="3.5442">
        <ele>309.60000610352</ele>
        <time>2024-04-30T16:37:42.000Z</time>
      </trkpt>
      <trkpt lat="45.8514" lon="3.54422">
        <ele>309.60000610352</ele>
        <time>2024-04-30T16:37:43.000Z</time>
      </trkpt>
      <trkpt lat="45.85142" lon="3.54423">
        <ele>309.60000610352</ele>
        <time>2024-04-30T16:37:44.000Z</time>
      </trkpt>
      <trkpt lat="45.85144" lon="3.54425">
        <ele>309.39999389648</ele>
        <time>2024-04-30T16:37:45.000Z</time>
      </trkpt>
      <trkpt lat="45.85146" lon="3.54426">
        <ele>309.60000610352</ele>
        <time>2024-04-30T16:37:46.000Z</time>
      </trkpt>
      <trkpt lat="45.85147" lon="3.54428">
        <ele>309.79998779297</ele>
        <time>2024-04-30T16:37:47.000Z</time>
      </trkpt>
      <trkpt lat="45.85147" lon="3.5443">
        <ele>309.79998779297</ele>
        <time>2024-04-30T16:37:48.000Z</time>
      </trkpt>
      <trkpt lat="45.85147" lon="3.54434">
        <ele>309.79998779297</ele>
        <time>2024-04-30T16:37:49.000Z</time>
      </trkpt>
      <trkpt lat="45.85148" lon="3.54439">
        <ele>310</ele>
        <time>2024-04-30T16:37:50.000Z</time>
      </trkpt>
      <trkpt lat="45.85149" lon="3.54443">
        <ele>310</ele>
        <time>2024-04-30T16:37:51.000Z</time>
      </trkpt>
      <trkpt lat="45.85151" lon="3.54446">
        <ele>310</ele>
        <time>2024-04-30T16:37:52.000Z</time>
      </trkpt>
      <trkpt lat="45.85153" lon="3.5445">
        <ele>310</ele>
        <time>2024-04-30T16:37:53.000Z</time>
      </trkpt>
      <trkpt lat="45.85154" lon="3.54454">
        <ele>309.79998779297</ele>
        <time>2024-04-30T16:37:54.000Z</time>
      </trkpt>
      <trkpt lat="45.85154" lon="3.54458">
        <ele>309.79998779297</ele>
        <time>2024-04-30T16:37:55.000Z</time>
      </trkpt>
      <trkpt lat="45.85153" lon="3.54462">
        <ele>309.79998779297</ele>
        <time>2024-04-30T16:37:56.000Z</time>
      </trkpt>
      <trkpt lat="45.85156" lon="3.54467">
        <ele>309.60000610352</ele>
        <time>2024-04-30T16:37:57.000Z</time>
      </trkpt>
      <trkpt lat="45.85156" lon="3.5447">
        <ele>309.60000610352</ele>
        <time>2024-04-30T16:37:58.000Z</time>
      </trkpt>
      <trkpt lat="45.85158" lon="3.54473">
        <ele>309.79998779297</ele>
        <time>2024-04-30T16:37:59.000Z</time>
      </trkpt>
      <trkpt lat="45.85158" lon="3.54477">
        <ele>310</ele>
        <time>2024-04-30T16:38:00.000Z</time>
      </trkpt>
      <trkpt lat="45.85158" lon="3.5448">
        <ele>309.79998779297</ele>
        <time>2024-04-30T16:38:01.000Z</time>
      </trkpt>
      <trkpt lat="45.85158" lon="3.54483">
        <ele>310</ele>
        <time>2024-04-30T16:38:02.000Z</time>
      </trkpt>
      <trkpt lat="45.85157" lon="3.54485">
        <ele>310.20001220703</ele>
        <time>2024-04-30T16:38:03.000Z</time>
      </trkpt>
      <trkpt lat="45.85158" lon="3.54489">
        <ele>310.39999389648</ele>
        <time>2024-04-30T16:38:04.000Z</time>
      </trkpt>
      <trkpt lat="45.85158" lon="3.54492">
        <ele>310.39999389648</ele>
        <time>2024-04-30T16:38:05.000Z</time>
      </trkpt>
      <trkpt lat="45.85159" lon="3.54495">
        <ele>310.60000610352</ele>
        <time>2024-04-30T16:38:06.000Z</time>
      </trkpt>
      <trkpt lat="45.8516" lon="3.54499">
        <ele>310.79998779297</ele>
        <time>2024-04-30T16:38:07.000Z</time>
      </trkpt>
      <trkpt lat="45.8516" lon="3.545">
        <ele>311</ele>
        <time>2024-04-30T16:38:08.000Z</time>
      </trkpt>
      <trkpt lat="45.85161" lon="3.54503">
        <ele>311</ele>
        <time>2024-04-30T16:38:09.000Z</time>
      </trkpt>
      <trkpt lat="45.85162" lon="3.54505">
        <ele>310.79998779297</ele>
        <time>2024-04-30T16:38:10.000Z</time>
      </trkpt>
      <trkpt lat="45.85163" lon="3.54507">
        <ele>311</ele>
        <time>2024-04-30T16:38:11.000Z</time>
      </trkpt>
      <trkpt lat="45.85164" lon="3.5451">
        <ele>311.20001220703</ele>
        <time>2024-04-30T16:38:12.000Z</time>
      </trkpt>
      <trkpt lat="45.85164" lon="3.54513">
        <ele>311.20001220703</ele>
        <time>2024-04-30T16:38:13.000Z</time>
      </trkpt>
      <trkpt lat="45.85163" lon="3.54517">
        <ele>311.20001220703</ele>
        <time>2024-04-30T16:38:14.000Z</time>
      </trkpt>
      <trkpt lat="45.85163" lon="3.54519">
        <ele>311.20001220703</ele>
        <time>2024-04-30T16:38:15.000Z</time>
      </trkpt>
      <trkpt lat="45.85161" lon="3.54521">
        <ele>311.39999389648</ele>
        <time>2024-04-30T16:38:16.000Z</time>
      </trkpt>
      <trkpt lat="45.85158" lon="3.54522">
        <ele>311.20001220703</ele>
        <time>2024-04-30T16:38:17.000Z</time>
      </trkpt>
      <trkpt lat="45.85157" lon="3.54522">
        <ele>311.20001220703</ele>
        <time>2024-04-30T16:38:18.000Z</time>
      </trkpt>
      <trkpt lat="45.85155" lon="3.54525">
        <ele>311.39999389648</ele>
        <time>2024-04-30T16:38:19.000Z</time>
      </trkpt>
      <trkpt lat="45.85153" lon="3.54526">
        <ele>311.39999389648</ele>
        <time>2024-04-30T16:38:20.000Z</time>
      </trkpt>
      <trkpt lat="45.8515" lon="3.54528">
        <ele>311.39999389648</ele>
        <time>2024-04-30T16:38:21.000Z</time>
      </trkpt>
      <trkpt lat="45.85148" lon="3.54531">
        <ele>311.39999389648</ele>
        <time>2024-04-30T16:38:22.000Z</time>
      </trkpt>
      <trkpt lat="45.85146" lon="3.54533">
        <ele>311.60000610352</ele>
        <time>2024-04-30T16:38:23.000Z</time>
      </trkpt>
      <trkpt lat="45.85145" lon="3.54535">
        <ele>311.60000610352</ele>
        <time>2024-04-30T16:38:24.000Z</time>
      </trkpt>
      <trkpt lat="45.85143" lon="3.54537">
        <ele>311.79998779297</ele>
        <time>2024-04-30T16:38:25.000Z</time>
      </trkpt>
      <trkpt lat="45.85142" lon="3.5454">
        <ele>312</ele>
        <time>2024-04-30T16:38:26.000Z</time>
      </trkpt>
      <trkpt lat="45.8514" lon="3.54543">
        <ele>312</ele>
        <time>2024-04-30T16:38:27.000Z</time>
      </trkpt>
      <trkpt lat="45.85139" lon="3.54546">
        <ele>312.20001220703</ele>
        <time>2024-04-30T16:38:28.000Z</time>
      </trkpt>
      <trkpt lat="45.85138" lon="3.54548">
        <ele>312.20001220703</ele>
        <time>2024-04-30T16:38:29.000Z</time>
      </trkpt>
      <trkpt lat="45.85139" lon="3.5455">
        <ele>312.20001220703</ele>
        <time>2024-04-30T16:38:30.000Z</time>
      </trkpt>
      <trkpt lat="45.8514" lon="3.54552">
        <ele>312.39999389648</ele>
        <time>2024-04-30T16:38:31.000Z</time>
      </trkpt>
      <trkpt lat="45.85139" lon="3.54554">
        <ele>312.60000610352</ele>
        <time>2024-04-30T16:38:32.000Z</time>
      </trkpt>
      <trkpt lat="45.85137" lon="3.54557">
        <ele>312.79998779297</ele>
        <time>2024-04-30T16:38:33.000Z</time>
      </trkpt>
      <trkpt lat="45.85137" lon="3.5456">
        <ele>313.39999389648</ele>
        <time>2024-04-30T16:38:34.000Z</time>
      </trkpt>
      <trkpt lat="45.85137" lon="3.54563">
        <ele>313.79998779297</ele>
        <time>2024-04-30T16:38:35.000Z</time>
      </trkpt>
      <trkpt lat="45.85137" lon="3.54566">
        <ele>314.20001220703</ele>
        <time>2024-04-30T16:38:36.000Z</time>
      </trkpt>
      <trkpt lat="45.85137" lon="3.54568">
        <ele>314.20001220703</ele>
        <time>2024-04-30T16:38:37.000Z</time>
      </trkpt>
      <trkpt lat="45.85137" lon="3.54571">
        <ele>314.60000610352</ele>
        <time>2024-04-30T16:38:38.000Z</time>
      </trkpt>
      <trkpt lat="45.85137" lon="3.54573">
        <ele>315</ele>
        <time>2024-04-30T16:38:39.000Z</time>
      </trkpt>
      <trkpt lat="45.85137" lon="3.54575">
        <ele>315.39999389648</ele>
        <time>2024-04-30T16:38:40.000Z</time>
      </trkpt>
      <trkpt lat="45.85136" lon="3.54578">
        <ele>315.60000610352</ele>
        <time>2024-04-30T16:38:41.000Z</time>
      </trkpt>
      <trkpt lat="45.85136" lon="3.5458">
        <ele>316</ele>
        <time>2024-04-30T16:38:42.000Z</time>
      </trkpt>
      <trkpt lat="45.85135" lon="3.5458">
        <ele>316.20001220703</ele>
        <time>2024-04-30T16:38:43.000Z</time>
      </trkpt>
      <trkpt lat="45.85134" lon="3.54582">
        <ele>316.60000610352</ele>
        <time>2024-04-30T16:38:44.000Z</time>
      </trkpt>
      <trkpt lat="45.85133" lon="3.54586">
        <ele>316.79998779297</ele>
        <time>2024-04-30T16:38:45.000Z</time>
      </trkpt>
      <trkpt lat="45.85131" lon="3.54589">
        <ele>317</ele>
        <time>2024-04-30T16:38:46.000Z</time>
      </trkpt>
      <trkpt lat="45.8513" lon="3.54591">
        <ele>317.39999389648</ele>
        <time>2024-04-30T16:38:47.000Z</time>
      </trkpt>
      <trkpt lat="45.85129" lon="3.54593">
        <ele>317.60000610352</ele>
        <time>2024-04-30T16:38:48.000Z</time>
      </trkpt>
      <trkpt lat="45.85127" lon="3.54596">
        <ele>318</ele>
        <time>2024-04-30T16:38:49.000Z</time>
      </trkpt>
      <trkpt lat="45.85125" lon="3.54599">
        <ele>318.20001220703</ele>
        <time>2024-04-30T16:38:50.000Z</time>
      </trkpt>
      <trkpt lat="45.85124" lon="3.54601">
        <ele>318.60000610352</ele>
        <time>2024-04-30T16:38:51.000Z</time>
      </trkpt>
      <trkpt lat="45.85124" lon="3.54603">
        <ele>319</ele>
        <time>2024-04-30T16:38:52.000Z</time>
      </trkpt>
      <trkpt lat="45.85123" lon="3.54605">
        <ele>319</ele>
        <time>2024-04-30T16:38:53.000Z</time>
      </trkpt>
      <trkpt lat="45.85123" lon="3.54607">
        <ele>319.39999389648</ele>
        <time>2024-04-30T16:38:54.000Z</time>
      </trkpt>
      <trkpt lat="45.85123" lon="3.5461">
        <ele>319.79998779297</ele>
        <time>2024-04-30T16:38:55.000Z</time>
      </trkpt>
      <trkpt lat="45.85122" lon="3.54612">
        <ele>320.20001220703</ele>
        <time>2024-04-30T16:38:56.000Z</time>
      </trkpt>
      <trkpt lat="45.85122" lon="3.54616">
        <ele>320.39999389648</ele>
        <time>2024-04-30T16:38:57.000Z</time>
      </trkpt>
      <trkpt lat="45.85121" lon="3.54619">
        <ele>320.60000610352</ele>
        <time>2024-04-30T16:38:58.000Z</time>
      </trkpt>
      <trkpt lat="45.85121" lon="3.5462">
        <ele>320.79998779297</ele>
        <time>2024-04-30T16:38:59.000Z</time>
      </trkpt>
      <trkpt lat="45.85121" lon="3.54624">
        <ele>321.20001220703</ele>
        <time>2024-04-30T16:39:00.000Z</time>
      </trkpt>
      <trkpt lat="45.85122" lon="3.54627">
        <ele>321.39999389648</ele>
        <time>2024-04-30T16:39:01.000Z</time>
      </trkpt>
      <trkpt lat="45.85123" lon="3.5463">
        <ele>321.60000610352</ele>
        <time>2024-04-30T16:39:02.000Z</time>
      </trkpt>
      <trkpt lat="45.85124" lon="3.54631">
        <ele>322</ele>
        <time>2024-04-30T16:39:03.000Z</time>
      </trkpt>
      <trkpt lat="45.85123" lon="3.54629">
        <ele>322.20001220703</ele>
        <time>2024-04-30T16:39:04.000Z</time>
      </trkpt>
      <trkpt lat="45.85123" lon="3.5463">
        <ele>322.20001220703</ele>
        <time>2024-04-30T16:39:05.000Z</time>
      </trkpt>
      <trkpt lat="45.85123" lon="3.5463">
        <ele>322.39999389648</ele>
        <time>2024-04-30T16:39:06.000Z</time>
      </trkpt>
      <trkpt lat="45.85123" lon="3.5463">
        <ele>322.60000610352</ele>
        <time>2024-04-30T16:39:07.000Z</time>
      </trkpt>
      <trkpt lat="45.85123" lon="3.5463">
        <ele>322.60000610352</ele>
        <time>2024-04-30T16:39:08.000Z</time>
      </trkpt>
      <trkpt lat="45.85123" lon="3.54629">
        <ele>322.79998779297</ele>
        <time>2024-04-30T16:39:09.000Z</time>
      </trkpt>
      <trkpt lat="45.85123" lon="3.54628">
        <ele>323.20001220703</ele>
        <time>2024-04-30T16:39:10.000Z</time>
      </trkpt>
      <trkpt lat="45.85123" lon="3.54628">
        <ele>323.60000610352</ele>
        <time>2024-04-30T16:39:11.000Z</time>
      </trkpt>
      <trkpt lat="45.85123" lon="3.54627">
        <ele>324</ele>
        <time>2024-04-30T16:39:12.000Z</time>
      </trkpt>
      <trkpt lat="45.85123" lon="3.54627">
        <ele>324.39999389648</ele>
        <time>2024-04-30T16:39:13.000Z</time>
      </trkpt>
      <trkpt lat="45.85124" lon="3.54626">
        <ele>324.79998779297</ele>
        <time>2024-04-30T16:39:14.000Z</time>
      </trkpt>
      <trkpt lat="45.85124" lon="3.54624">
        <ele>325.20001220703</ele>
        <time>2024-04-30T16:39:15.000Z</time>
      </trkpt>
      <trkpt lat="45.85124" lon="3.54623">
        <ele>325.39999389648</ele>
        <time>2024-04-30T16:39:16.000Z</time>
      </trkpt>
      <trkpt lat="45.85125" lon="3.54621">
        <ele>325.79998779297</ele>
        <time>2024-04-30T16:39:17.000Z</time>
      </trkpt>
      <trkpt lat="45.85125" lon="3.5462">
        <ele>325.79998779297</ele>
        <time>2024-04-30T16:39:18.000Z</time>
      </trkpt>
      <trkpt lat="45.85125" lon="3.5462">
        <ele>326</ele>
        <time>2024-04-30T16:39:19.000Z</time>
      </trkpt>
      <trkpt lat="45.85125" lon="3.54619">
        <ele>326.20001220703</ele>
        <time>2024-04-30T16:39:20.000Z</time>
      </trkpt>
      <trkpt lat="45.85125" lon="3.54618">
        <ele>326.60000610352</ele>
        <time>2024-04-30T16:39:21.000Z</time>
      </trkpt>
      <trkpt lat="45.85125" lon="3.54617">
        <ele>326.60000610352</ele>
        <time>2024-04-30T16:39:22.000Z</time>
      </trkpt>
      <trkpt lat="45.85125" lon="3.54616">
        <ele>326.79998779297</ele>
        <time>2024-04-30T16:39:23.000Z</time>
      </trkpt>
      <trkpt lat="45.85126" lon="3.54615">
        <ele>327</ele>
        <time>2024-04-30T16:39:24.000Z</time>
      </trkpt>
      <trkpt lat="45.85126" lon="3.54614">
        <ele>327.20001220703</ele>
        <time>2024-04-30T16:39:25.000Z</time>
      </trkpt>
      <trkpt lat="45.85126" lon="3.54613">
        <ele>327.20001220703</ele>
        <time>2024-04-30T16:39:26.000Z</time>
      </trkpt>
      <trkpt lat="45.85127" lon="3.54615">
        <ele>327.60000610352</ele>
        <time>2024-04-30T16:39:27.000Z</time>
      </trkpt>
      <trkpt lat="45.85127" lon="3.54615">
        <ele>327.79998779297</ele>
        <time>2024-04-30T16:39:28.000Z</time>
      </trkpt>
      <trkpt lat="45.85128" lon="3.54616">
        <ele>328.20001220703</ele>
        <time>2024-04-30T16:39:29.000Z</time>
      </trkpt>
      <trkpt lat="45.85128" lon="3.54618">
        <ele>328.60000610352</ele>
        <time>2024-04-30T16:39:30.000Z</time>
      </trkpt>
      <trkpt lat="45.85128" lon="3.5462">
        <ele>329</ele>
        <time>2024-04-30T16:39:31.000Z</time>
      </trkpt>
      <trkpt lat="45.85128" lon="3.54621">
        <ele>329.20001220703</ele>
        <time>2024-04-30T16:39:32.000Z</time>
      </trkpt>
      <trkpt lat="45.85128" lon="3.54622">
        <ele>329.39999389648</ele>
        <time>2024-04-30T16:39:33.000Z</time>
      </trkpt>
      <trkpt lat="45.85127" lon="3.54623">
        <ele>329.60000610352</ele>
        <time>2024-04-30T16:39:34.000Z</time>
      </trkpt>
      <trkpt lat="45.85128" lon="3.54623">
        <ele>329.79998779297</ele>
        <time>2024-04-30T16:39:35.000Z</time>
      </trkpt>
      <trkpt lat="45.85128" lon="3.54623">
        <ele>329.79998779297</ele>
        <time>2024-04-30T16:39:36.000Z</time>
      </trkpt>
      <trkpt lat="45.85127" lon="3.54626">
        <ele>329.79998779297</ele>
        <time>2024-04-30T16:39:37.000Z</time>
      </trkpt>
      <trkpt lat="45.85128" lon="3.54628">
        <ele>330</ele>
        <time>2024-04-30T16:39:38.000Z</time>
      </trkpt>
      <trkpt lat="45.85128" lon="3.54629">
        <ele>330.20001220703</ele>
        <time>2024-04-30T16:39:39.000Z</time>
      </trkpt>
      <trkpt lat="45.85127" lon="3.5463">
        <ele>330.60000610352</ele>
        <time>2024-04-30T16:39:40.000Z</time>
      </trkpt>
      <trkpt lat="45.85127" lon="3.54632">
        <ele>331</ele>
        <time>2024-04-30T16:39:41.000Z</time>
      </trkpt>
      <trkpt lat="45.85128" lon="3.54634">
        <ele>331.39999389648</ele>
        <time>2024-04-30T16:39:42.000Z</time>
      </trkpt>
      <trkpt lat="45.85128" lon="3.54635">
        <ele>331.60000610352</ele>
        <time>2024-04-30T16:39:43.000Z</time>
      </trkpt>
      <trkpt lat="45.85129" lon="3.54637">
        <ele>331.79998779297</ele>
        <time>2024-04-30T16:39:44.000Z</time>
      </trkpt>
      <trkpt lat="45.85129" lon="3.54636">
        <ele>332</ele>
        <time>2024-04-30T16:39:45.000Z</time>
      </trkpt>
      <trkpt lat="45.8513" lon="3.54639">
        <ele>332.20001220703</ele>
        <time>2024-04-30T16:39:46.000Z</time>
      </trkpt>
      <trkpt lat="45.85131" lon="3.54639">
        <ele>332.39999389648</ele>
        <time>2024-04-30T16:39:47.000Z</time>
      </trkpt>
      <trkpt lat="45.85131" lon="3.5464">
        <ele>332.60000610352</ele>
        <time>2024-04-30T16:39:48.000Z</time>
      </trkpt>
      <trkpt lat="45.85132" lon="3.54641">
        <ele>332.79998779297</ele>
        <time>2024-04-30T16:39:49.000Z</time>
      </trkpt>
      <trkpt lat="45.85133" lon="3.54641">
        <ele>333</ele>
        <time>2024-04-30T16:39:50.000Z</time>
      </trkpt>
      <trkpt lat="45.85133" lon="3.54641">
        <ele>333.20001220703</ele>
        <time>2024-04-30T16:39:51.000Z</time>
      </trkpt>
      <trkpt lat="45.85133" lon="3.54642">
        <ele>333.39999389648</ele>
        <time>2024-04-30T16:39:52.000Z</time>
      </trkpt>
      <trkpt lat="45.85133" lon="3.54642">
        <ele>333.60000610352</ele>
        <time>2024-04-30T16:39:53.000Z</time>
      </trkpt>
      <trkpt lat="45.85134" lon="3.54644">
        <ele>334</ele>
        <time>2024-04-30T16:39:54.000Z</time>
      </trkpt>
      <trkpt lat="45.85135" lon="3.54645">
        <ele>334.39999389648</ele>
        <time>2024-04-30T16:39:55.000Z</time>
      </trkpt>
      <trkpt lat="45.85137" lon="3.54646">
        <ele>334.60000610352</ele>
        <time>2024-04-30T16:39:56.000Z</time>
      </trkpt>
      <trkpt lat="45.85138" lon="3.54647">
        <ele>335</ele>
        <time>2024-04-30T16:39:57.000Z</time>
      </trkpt>
      <trkpt lat="45.85139" lon="3.54648">
        <ele>335.20001220703</ele>
        <time>2024-04-30T16:39:58.000Z</time>
      </trkpt>
      <trkpt lat="45.85141" lon="3.5465">
        <ele>335.20001220703</ele>
        <time>2024-04-30T16:39:59.000Z</time>
      </trkpt>
      <trkpt lat="45.85142" lon="3.54652">
        <ele>335.39999389648</ele>
        <time>2024-04-30T16:40:00.000Z</time>
      </trkpt>
      <trkpt lat="45.85143" lon="3.54654">
        <ele>335.39999389648</ele>
        <time>2024-04-30T16:40:01.000Z</time>
      </trkpt>
      <trkpt lat="45.85145" lon="3.54655">
        <ele>335.39999389648</ele>
        <time>2024-04-30T16:40:02.000Z</time>
      </trkpt>
      <trkpt lat="45.85146" lon="3.54656">
        <ele>335.39999389648</ele>
        <time>2024-04-30T16:40:03.000Z</time>
      </trkpt>
      <trkpt lat="45.85147" lon="3.54658">
        <ele>335.20001220703</ele>
        <time>2024-04-30T16:40:04.000Z</time>
      </trkpt>
      <trkpt lat="45.85147" lon="3.5466">
        <ele>335</ele>
        <time>2024-04-30T16:40:05.000Z</time>
      </trkpt>
      <trkpt lat="45.85148" lon="3.54662">
        <ele>334.60000610352</ele>
        <time>2024-04-30T16:40:06.000Z</time>
      </trkpt>
      <trkpt lat="45.85148" lon="3.54664">
        <ele>334.20001220703</ele>
        <time>2024-04-30T16:40:07.000Z</time>
      </trkpt>
      <trkpt lat="45.85148" lon="3.54665">
        <ele>333.79998779297</ele>
        <time>2024-04-30T16:40:08.000Z</time>
      </trkpt>
      <trkpt lat="45.85147" lon="3.5467">
        <ele>333</ele>
        <time>2024-04-30T16:40:09.000Z</time>
      </trkpt>
      <trkpt lat="45.85147" lon="3.54672">
        <ele>332.39999389648</ele>
        <time>2024-04-30T16:40:10.000Z</time>
      </trkpt>
      <trkpt lat="45.85146" lon="3.54676">
        <ele>331.79998779297</ele>
        <time>2024-04-30T16:40:11.000Z</time>
      </trkpt>
      <trkpt lat="45.85146" lon="3.54679">
        <ele>331.39999389648</ele>
        <time>2024-04-30T16:40:12.000Z</time>
      </trkpt>
      <trkpt lat="45.85146" lon="3.54682">
        <ele>331</ele>
        <time>2024-04-30T16:40:13.000Z</time>
      </trkpt>
      <trkpt lat="45.85145" lon="3.54686">
        <ele>330.60000610352</ele>
        <time>2024-04-30T16:40:14.000Z</time>
      </trkpt>
      <trkpt lat="45.85144" lon="3.5469">
        <ele>330.39999389648</ele>
        <time>2024-04-30T16:40:15.000Z</time>
      </trkpt>
      <trkpt lat="45.85143" lon="3.54693">
        <ele>329.79998779297</ele>
        <time>2024-04-30T16:40:16.000Z</time>
      </trkpt>
      <trkpt lat="45.85142" lon="3.54696">
        <ele>329.20001220703</ele>
        <time>2024-04-30T16:40:17.000Z</time>
      </trkpt>
      <trkpt lat="45.85141" lon="3.54699">
        <ele>329</ele>
        <time>2024-04-30T16:40:18.000Z</time>
      </trkpt>
      <trkpt lat="45.85139" lon="3.54703">
        <ele>328.79998779297</ele>
        <time>2024-04-30T16:40:19.000Z</time>
      </trkpt>
      <trkpt lat="45.85137" lon="3.54706">
        <ele>328.20001220703</ele>
        <time>2024-04-30T16:40:20.000Z</time>
      </trkpt>
      <trkpt lat="45.85135" lon="3.54709">
        <ele>327.79998779297</ele>
        <time>2024-04-30T16:40:21.000Z</time>
      </trkpt>
      <trkpt lat="45.85133" lon="3.5471">
        <ele>327.39999389648</ele>
        <time>2024-04-30T16:40:22.000Z</time>
      </trkpt>
      <trkpt lat="45.85132" lon="3.54712">
        <ele>326.79998779297</ele>
        <time>2024-04-30T16:40:23.000Z</time>
      </trkpt>
      <trkpt lat="45.85131" lon="3.54715">
        <ele>326.60000610352</ele>
        <time>2024-04-30T16:40:24.000Z</time>
      </trkpt>
      <trkpt lat="45.8513" lon="3.54718">
        <ele>326.20001220703</ele>
        <time>2024-04-30T16:40:25.000Z</time>
      </trkpt>
      <trkpt lat="45.85129" lon="3.54722">
        <ele>325.79998779297</ele>
        <time>2024-04-30T16:40:26.000Z</time>
      </trkpt>
      <trkpt lat="45.85128" lon="3.54725">
        <ele>325.60000610352</ele>
        <time>2024-04-30T16:40:27.000Z</time>
      </trkpt>
      <trkpt lat="45.85127" lon="3.54729">
        <ele>325.39999389648</ele>
        <time>2024-04-30T16:40:28.000Z</time>
      </trkpt>
      <trkpt lat="45.85126" lon="3.54733">
        <ele>325</ele>
        <time>2024-04-30T16:40:29.000Z</time>
      </trkpt>
      <trkpt lat="45.85126" lon="3.54736">
        <ele>324.79998779297</ele>
        <time>2024-04-30T16:40:30.000Z</time>
      </trkpt>
      <trkpt lat="45.85125" lon="3.54739">
        <ele>324.60000610352</ele>
        <time>2024-04-30T16:40:31.000Z</time>
      </trkpt>
      <trkpt lat="45.85125" lon="3.54741">
        <ele>324.39999389648</ele>
        <time>2024-04-30T16:40:32.000Z</time>
      </trkpt>
      <trkpt lat="45.85126" lon="3.54743">
        <ele>324.60000610352</ele>
        <time>2024-04-30T16:40:33.000Z</time>
      </trkpt>
      <trkpt lat="45.85125" lon="3.54746">
        <ele>324.79998779297</ele>
        <time>2024-04-30T16:40:34.000Z</time>
      </trkpt>
      <trkpt lat="45.85125" lon="3.54748">
        <ele>325</ele>
        <time>2024-04-30T16:40:35.000Z</time>
      </trkpt>
      <trkpt lat="45.85124" lon="3.54751">
        <ele>325.20001220703</ele>
        <time>2024-04-30T16:40:36.000Z</time>
      </trkpt>
      <trkpt lat="45.85122" lon="3.54753">
        <ele>325.20001220703</ele>
        <time>2024-04-30T16:40:37.000Z</time>
      </trkpt>
      <trkpt lat="45.85121" lon="3.54756">
        <ele>325.39999389648</ele>
        <time>2024-04-30T16:40:38.000Z</time>
      </trkpt>
      <trkpt lat="45.8512" lon="3.54757">
        <ele>325.60000610352</ele>
        <time>2024-04-30T16:40:39.000Z</time>
      </trkpt>
      <trkpt lat="45.85118" lon="3.5476">
        <ele>325.79998779297</ele>
        <time>2024-04-30T16:40:40.000Z</time>
      </trkpt>
      <trkpt lat="45.85117" lon="3.54762">
        <ele>325.60000610352</ele>
        <time>2024-04-30T16:40:41.000Z</time>
      </trkpt>
      <trkpt lat="45.85115" lon="3.54763">
        <ele>325.79998779297</ele>
        <time>2024-04-30T16:40:42.000Z</time>
      </trkpt>
      <trkpt lat="45.85114" lon="3.54766">
        <ele>326</ele>
        <time>2024-04-30T16:40:43.000Z</time>
      </trkpt>
      <trkpt lat="45.85113" lon="3.54768">
        <ele>326</ele>
        <time>2024-04-30T16:40:44.000Z</time>
      </trkpt>
      <trkpt lat="45.85112" lon="3.54772">
        <ele>326</ele>
        <time>2024-04-30T16:40:45.000Z</time>
      </trkpt>
      <trkpt lat="45.8511" lon="3.54774">
        <ele>326</ele>
        <time>2024-04-30T16:40:46.000Z</time>
      </trkpt>
      <trkpt lat="45.85109" lon="3.54777">
        <ele>326</ele>
        <time>2024-04-30T16:40:47.000Z</time>
      </trkpt>
      <trkpt lat="45.85108" lon="3.5478">
        <ele>326</ele>
        <time>2024-04-30T16:40:48.000Z</time>
      </trkpt>
      <trkpt lat="45.85107" lon="3.54783">
        <ele>325.79998779297</ele>
        <time>2024-04-30T16:40:49.000Z</time>
      </trkpt>
      <trkpt lat="45.85105" lon="3.54785">
        <ele>325.79998779297</ele>
        <time>2024-04-30T16:40:50.000Z</time>
      </trkpt>
      <trkpt lat="45.85104" lon="3.54788">
        <ele>325.39999389648</ele>
        <time>2024-04-30T16:40:51.000Z</time>
      </trkpt>
      <trkpt lat="45.85103" lon="3.5479">
        <ele>325.39999389648</ele>
        <time>2024-04-30T16:40:52.000Z</time>
      </trkpt>
      <trkpt lat="45.85102" lon="3.54793">
        <ele>325.39999389648</ele>
        <time>2024-04-30T16:40:53.000Z</time>
      </trkpt>
      <trkpt lat="45.851" lon="3.54795">
        <ele>325.20001220703</ele>
        <time>2024-04-30T16:40:54.000Z</time>
      </trkpt>
      <trkpt lat="45.85099" lon="3.54798">
        <ele>325.20001220703</ele>
        <time>2024-04-30T16:40:55.000Z</time>
      </trkpt>
      <trkpt lat="45.85098" lon="3.548">
        <ele>325.20001220703</ele>
        <time>2024-04-30T16:40:56.000Z</time>
      </trkpt>
      <trkpt lat="45.85096" lon="3.54802">
        <ele>325</ele>
        <time>2024-04-30T16:40:57.000Z</time>
      </trkpt>
      <trkpt lat="45.85095" lon="3.54804">
        <ele>324.79998779297</ele>
        <time>2024-04-30T16:40:58.000Z</time>
      </trkpt>
      <trkpt lat="45.85093" lon="3.54804">
        <ele>324.79998779297</ele>
        <time>2024-04-30T16:40:59.000Z</time>
      </trkpt>
      <trkpt lat="45.85092" lon="3.54802">
        <ele>324.60000610352</ele>
        <time>2024-04-30T16:41:00.000Z</time>
      </trkpt>
      <trkpt lat="45.8509" lon="3.54801">
        <ele>324.20001220703</ele>
        <time>2024-04-30T16:41:01.000Z</time>
      </trkpt>
      <trkpt lat="45.85088" lon="3.54799">
        <ele>324</ele>
        <time>2024-04-30T16:41:02.000Z</time>
      </trkpt>
      <trkpt lat="45.85086" lon="3.54798">
        <ele>324</ele>
        <time>2024-04-30T16:41:03.000Z</time>
      </trkpt>
      <trkpt lat="45.85084" lon="3.54797">
        <ele>323.60000610352</ele>
        <time>2024-04-30T16:41:04.000Z</time>
      </trkpt>
      <trkpt lat="45.85082" lon="3.54796">
        <ele>323.60000610352</ele>
        <time>2024-04-30T16:41:05.000Z</time>
      </trkpt>
      <trkpt lat="45.8508" lon="3.54795">
        <ele>323.60000610352</ele>
        <time>2024-04-30T16:41:06.000Z</time>
      </trkpt>
      <trkpt lat="45.85078" lon="3.54794">
        <ele>323.79998779297</ele>
        <time>2024-04-30T16:41:07.000Z</time>
      </trkpt>
      <trkpt lat="45.85076" lon="3.54794">
        <ele>323.60000610352</ele>
        <time>2024-04-30T16:41:08.000Z</time>
      </trkpt>
      <trkpt lat="45.85074" lon="3.54793">
        <ele>323.79998779297</ele>
        <time>2024-04-30T16:41:09.000Z</time>
      </trkpt>
      <trkpt lat="45.85072" lon="3.54792">
        <ele>323.79998779297</ele>
        <time>2024-04-30T16:41:10.000Z</time>
      </trkpt>
      <trkpt lat="45.8507" lon="3.54792">
        <ele>324</ele>
        <time>2024-04-30T16:41:11.000Z</time>
      </trkpt>
      <trkpt lat="45.85068" lon="3.54791">
        <ele>324.20001220703</ele>
        <time>2024-04-30T16:41:12.000Z</time>
      </trkpt>
      <trkpt lat="45.85066" lon="3.54791">
        <ele>324.39999389648</ele>
        <time>2024-04-30T16:41:13.000Z</time>
      </trkpt>
      <trkpt lat="45.85064" lon="3.54791">
        <ele>324.60000610352</ele>
        <time>2024-04-30T16:41:14.000Z</time>
      </trkpt>
      <trkpt lat="45.85061" lon="3.54792">
        <ele>324.79998779297</ele>
        <time>2024-04-30T16:41:15.000Z</time>
      </trkpt>
      <trkpt lat="45.8506" lon="3.54793">
        <ele>325</ele>
        <time>2024-04-30T16:41:16.000Z</time>
      </trkpt>
      <trkpt lat="45.85059" lon="3.54795">
        <ele>325.20001220703</ele>
        <time>2024-04-30T16:41:17.000Z</time>
      </trkpt>
      <trkpt lat="45.85057" lon="3.54798">
        <ele>325.20001220703</ele>
        <time>2024-04-30T16:41:18.000Z</time>
      </trkpt>
      <trkpt lat="45.85056" lon="3.54799">
        <ele>325.39999389648</ele>
        <time>2024-04-30T16:41:19.000Z</time>
      </trkpt>
      <trkpt lat="45.85055" lon="3.54801">
        <ele>325.60000610352</ele>
        <time>2024-04-30T16:41:20.000Z</time>
      </trkpt>
      <trkpt lat="45.85054" lon="3.54803">
        <ele>325.60000610352</ele>
        <time>2024-04-30T16:41:21.000Z</time>
      </trkpt>
      <trkpt lat="45.85053" lon="3.54804">
        <ele>325.79998779297</ele>
        <time>2024-04-30T16:41:22.000Z</time>
      </trkpt>
      <trkpt lat="45.85053" lon="3.54805">
        <ele>326</ele>
        <time>2024-04-30T16:41:23.000Z</time>
      </trkpt>
      <trkpt lat="45.85051" lon="3.54807">
        <ele>326</ele>
        <time>2024-04-30T16:41:24.000Z</time>
      </trkpt>
      <trkpt lat="45.85049" lon="3.54809">
        <ele>326</ele>
        <time>2024-04-30T16:41:25.000Z</time>
      </trkpt>
      <trkpt lat="45.85047" lon="3.54811">
        <ele>326.20001220703</ele>
        <time>2024-04-30T16:41:26.000Z</time>
      </trkpt>
      <trkpt lat="45.85044" lon="3.54813">
        <ele>326.20001220703</ele>
        <time>2024-04-30T16:41:27.000Z</time>
      </trkpt>
      <trkpt lat="45.85042" lon="3.54816">
        <ele>326.39999389648</ele>
        <time>2024-04-30T16:41:28.000Z</time>
      </trkpt>
      <trkpt lat="45.8504" lon="3.54817">
        <ele>326.60000610352</ele>
        <time>2024-04-30T16:41:29.000Z</time>
      </trkpt>
      <trkpt lat="45.85037" lon="3.54819">
        <ele>326.60000610352</ele>
        <time>2024-04-30T16:41:30.000Z</time>
      </trkpt>
      <trkpt lat="45.85035" lon="3.5482">
        <ele>326.60000610352</ele>
        <time>2024-04-30T16:41:31.000Z</time>
      </trkpt>
      <trkpt lat="45.85033" lon="3.54821">
        <ele>326.79998779297</ele>
        <time>2024-04-30T16:41:32.000Z</time>
      </trkpt>
      <trkpt lat="45.85031" lon="3.54822">
        <ele>327</ele>
        <time>2024-04-30T16:41:33.000Z</time>
      </trkpt>
      <trkpt lat="45.8503" lon="3.54824">
        <ele>327.20001220703</ele>
        <time>2024-04-30T16:41:34.000Z</time>
      </trkpt>
      <trkpt lat="45.85028" lon="3.54825">
        <ele>327.20001220703</ele>
        <time>2024-04-30T16:41:35.000Z</time>
      </trkpt>
      <trkpt lat="45.85026" lon="3.54826">
        <ele>327.39999389648</ele>
        <time>2024-04-30T16:41:36.000Z</time>
      </trkpt>
      <trkpt lat="45.85024" lon="3.54828">
        <ele>327.39999389648</ele>
        <time>2024-04-30T16:41:37.000Z</time>
      </trkpt>
      <trkpt lat="45.85022" lon="3.54829">
        <ele>327.39999389648</ele>
        <time>2024-04-30T16:41:38.000Z</time>
      </trkpt>
      <trkpt lat="45.85019" lon="3.5483">
        <ele>327.79998779297</ele>
        <time>2024-04-30T16:41:39.000Z</time>
      </trkpt>
      <trkpt lat="45.85016" lon="3.54831">
        <ele>328</ele>
        <time>2024-04-30T16:41:40.000Z</time>
      </trkpt>
      <trkpt lat="45.85013" lon="3.54833">
        <ele>328</ele>
        <time>2024-04-30T16:41:41.000Z</time>
      </trkpt>
      <trkpt lat="45.8501" lon="3.54834">
        <ele>328.20001220703</ele>
        <time>2024-04-30T16:41:42.000Z</time>
      </trkpt>
      <trkpt lat="45.85008" lon="3.54836">
        <ele>328.39999389648</ele>
        <time>2024-04-30T16:41:43.000Z</time>
      </trkpt>
      <trkpt lat="45.85005" lon="3.54837">
        <ele>328.39999389648</ele>
        <time>2024-04-30T16:41:44.000Z</time>
      </trkpt>
      <trkpt lat="45.85003" lon="3.54839">
        <ele>328.60000610352</ele>
        <time>2024-04-30T16:41:45.000Z</time>
      </trkpt>
      <trkpt lat="45.85002" lon="3.54841">
        <ele>328.79998779297</ele>
        <time>2024-04-30T16:41:46.000Z</time>
      </trkpt>
      <trkpt lat="45.85" lon="3.54844">
        <ele>328.79998779297</ele>
        <time>2024-04-30T16:41:47.000Z</time>
      </trkpt>
      <trkpt lat="45.85" lon="3.54846">
        <ele>328.79998779297</ele>
        <time>2024-04-30T16:41:48.000Z</time>
      </trkpt>
      <trkpt lat="45.84999" lon="3.54849">
        <ele>329</ele>
        <time>2024-04-30T16:41:49.000Z</time>
      </trkpt>
      <trkpt lat="45.84998" lon="3.54852">
        <ele>329.20001220703</ele>
        <time>2024-04-30T16:41:50.000Z</time>
      </trkpt>
      <trkpt lat="45.84998" lon="3.54855">
        <ele>329.20001220703</ele>
        <time>2024-04-30T16:41:51.000Z</time>
      </trkpt>
      <trkpt lat="45.84998" lon="3.54859">
        <ele>329.39999389648</ele>
        <time>2024-04-30T16:41:52.000Z</time>
      </trkpt>
      <trkpt lat="45.84998" lon="3.54861">
        <ele>329.39999389648</ele>
        <time>2024-04-30T16:41:53.000Z</time>
      </trkpt>
      <trkpt lat="45.84998" lon="3.54864">
        <ele>329.39999389648</ele>
        <time>2024-04-30T16:41:54.000Z</time>
      </trkpt>
      <trkpt lat="45.84998" lon="3.54867">
        <ele>329.79998779297</ele>
        <time>2024-04-30T16:41:55.000Z</time>
      </trkpt>
      <trkpt lat="45.84997" lon="3.5487">
        <ele>330</ele>
        <time>2024-04-30T16:41:56.000Z</time>
      </trkpt>
      <trkpt lat="45.84997" lon="3.54873">
        <ele>330.20001220703</ele>
        <time>2024-04-30T16:41:57.000Z</time>
      </trkpt>
      <trkpt lat="45.84996" lon="3.54875">
        <ele>330.20001220703</ele>
        <time>2024-04-30T16:41:58.000Z</time>
      </trkpt>
      <trkpt lat="45.84996" lon="3.54878">
        <ele>330.39999389648</ele>
        <time>2024-04-30T16:41:59.000Z</time>
      </trkpt>
      <trkpt lat="45.84995" lon="3.54881">
        <ele>330.39999389648</ele>
        <time>2024-04-30T16:42:00.000Z</time>
      </trkpt>
      <trkpt lat="45.84995" lon="3.54884">
        <ele>330.79998779297</ele>
        <time>2024-04-30T16:42:01.000Z</time>
      </trkpt>
      <trkpt lat="45.84994" lon="3.54886">
        <ele>331</ele>
        <time>2024-04-30T16:42:02.000Z</time>
      </trkpt>
      <trkpt lat="45.84994" lon="3.54888">
        <ele>331</ele>
        <time>2024-04-30T16:42:03.000Z</time>
      </trkpt>
      <trkpt lat="45.84994" lon="3.54892">
        <ele>331</ele>
        <time>2024-04-30T16:42:04.000Z</time>
      </trkpt>
      <trkpt lat="45.84993" lon="3.54895">
        <ele>331.20001220703</ele>
        <time>2024-04-30T16:42:05.000Z</time>
      </trkpt>
      <trkpt lat="45.84993" lon="3.54898">
        <ele>331.20001220703</ele>
        <time>2024-04-30T16:42:06.000Z</time>
      </trkpt>
      <trkpt lat="45.84992" lon="3.54902">
        <ele>331.39999389648</ele>
        <time>2024-04-30T16:42:07.000Z</time>
      </trkpt>
      <trkpt lat="45.84991" lon="3.54905">
        <ele>331.60000610352</ele>
        <time>2024-04-30T16:42:08.000Z</time>
      </trkpt>
      <trkpt lat="45.84992" lon="3.54908">
        <ele>331.79998779297</ele>
        <time>2024-04-30T16:42:09.000Z</time>
      </trkpt>
      <trkpt lat="45.84993" lon="3.54912">
        <ele>332</ele>
        <time>2024-04-30T16:42:10.000Z</time>
      </trkpt>
      <trkpt lat="45.84993" lon="3.54915">
        <ele>332</ele>
        <time>2024-04-30T16:42:11.000Z</time>
      </trkpt>
      <trkpt lat="45.84993" lon="3.54919">
        <ele>332.20001220703</ele>
        <time>2024-04-30T16:42:12.000Z</time>
      </trkpt>
      <trkpt lat="45.84994" lon="3.54923">
        <ele>332</ele>
        <time>2024-04-30T16:42:13.000Z</time>
      </trkpt>
      <trkpt lat="45.84995" lon="3.54926">
        <ele>332.39999389648</ele>
        <time>2024-04-30T16:42:14.000Z</time>
      </trkpt>
      <trkpt lat="45.84995" lon="3.5493">
        <ele>332.60000610352</ele>
        <time>2024-04-30T16:42:15.000Z</time>
      </trkpt>
      <trkpt lat="45.84996" lon="3.54933">
        <ele>332.79998779297</ele>
        <time>2024-04-30T16:42:16.000Z</time>
      </trkpt>
      <trkpt lat="45.84997" lon="3.54936">
        <ele>332.79998779297</ele>
        <time>2024-04-30T16:42:17.000Z</time>
      </trkpt>
      <trkpt lat="45.84998" lon="3.54939">
        <ele>332.79998779297</ele>
        <time>2024-04-30T16:42:18.000Z</time>
      </trkpt>
      <trkpt lat="45.84999" lon="3.54943">
        <ele>333</ele>
        <time>2024-04-30T16:42:19.000Z</time>
      </trkpt>
      <trkpt lat="45.85" lon="3.54945">
        <ele>333.20001220703</ele>
        <time>2024-04-30T16:42:20.000Z</time>
      </trkpt>
      <trkpt lat="45.85001" lon="3.54949">
        <ele>333.39999389648</ele>
        <time>2024-04-30T16:42:21.000Z</time>
      </trkpt>
      <trkpt lat="45.85002" lon="3.54952">
        <ele>333.60000610352</ele>
        <time>2024-04-30T16:42:22.000Z</time>
      </trkpt>
      <trkpt lat="45.85003" lon="3.54954">
        <ele>333.79998779297</ele>
        <time>2024-04-30T16:42:23.000Z</time>
      </trkpt>
      <trkpt lat="45.85004" lon="3.54959">
        <ele>333.79998779297</ele>
        <time>2024-04-30T16:42:24.000Z</time>
      </trkpt>
      <trkpt lat="45.85005" lon="3.54962">
        <ele>333.79998779297</ele>
        <time>2024-04-30T16:42:25.000Z</time>
      </trkpt>
      <trkpt lat="45.85007" lon="3.54965">
        <ele>334</ele>
        <time>2024-04-30T16:42:26.000Z</time>
      </trkpt>
      <trkpt lat="45.85008" lon="3.54968">
        <ele>334.20001220703</ele>
        <time>2024-04-30T16:42:27.000Z</time>
      </trkpt>
      <trkpt lat="45.85009" lon="3.5497">
        <ele>334.20001220703</ele>
        <time>2024-04-30T16:42:28.000Z</time>
      </trkpt>
      <trkpt lat="45.8501" lon="3.54974">
        <ele>334.39999389648</ele>
        <time>2024-04-30T16:42:29.000Z</time>
      </trkpt>
      <trkpt lat="45.85011" lon="3.54976">
        <ele>334.60000610352</ele>
        <time>2024-04-30T16:42:30.000Z</time>
      </trkpt>
      <trkpt lat="45.85012" lon="3.54979">
        <ele>334.79998779297</ele>
        <time>2024-04-30T16:42:31.000Z</time>
      </trkpt>
      <trkpt lat="45.85013" lon="3.54981">
        <ele>334.79998779297</ele>
        <time>2024-04-30T16:42:32.000Z</time>
      </trkpt>
      <trkpt lat="45.85015" lon="3.54984">
        <ele>335</ele>
        <time>2024-04-30T16:42:33.000Z</time>
      </trkpt>
      <trkpt lat="45.85016" lon="3.54986">
        <ele>335</ele>
        <time>2024-04-30T16:42:34.000Z</time>
      </trkpt>
      <trkpt lat="45.85018" lon="3.54989">
        <ele>335.20001220703</ele>
        <time>2024-04-30T16:42:35.000Z</time>
      </trkpt>
      <trkpt lat="45.8502" lon="3.54991">
        <ele>335.39999389648</ele>
        <time>2024-04-30T16:42:36.000Z</time>
      </trkpt>
      <trkpt lat="45.85022" lon="3.54994">
        <ele>335.60000610352</ele>
        <time>2024-04-30T16:42:37.000Z</time>
      </trkpt>
      <trkpt lat="45.85023" lon="3.54997">
        <ele>335.60000610352</ele>
        <time>2024-04-30T16:42:38.000Z</time>
      </trkpt>
      <trkpt lat="45.85025" lon="3.55">
        <ele>335.79998779297</ele>
        <time>2024-04-30T16:42:39.000Z</time>
      </trkpt>
      <trkpt lat="45.85026" lon="3.55003">
        <ele>335.79998779297</ele>
        <time>2024-04-30T16:42:40.000Z</time>
      </trkpt>
      <trkpt lat="45.85027" lon="3.55006">
        <ele>336</ele>
        <time>2024-04-30T16:42:41.000Z</time>
      </trkpt>
      <trkpt lat="45.85028" lon="3.55009">
        <ele>336.20001220703</ele>
        <time>2024-04-30T16:42:42.000Z</time>
      </trkpt>
      <trkpt lat="45.85029" lon="3.55011">
        <ele>336.20001220703</ele>
        <time>2024-04-30T16:42:43.000Z</time>
      </trkpt>
      <trkpt lat="45.8503" lon="3.55015">
        <ele>336.39999389648</ele>
        <time>2024-04-30T16:42:44.000Z</time>
      </trkpt>
      <trkpt lat="45.85031" lon="3.55018">
        <ele>336.60000610352</ele>
        <time>2024-04-30T16:42:45.000Z</time>
      </trkpt>
      <trkpt lat="45.85032" lon="3.55021">
        <ele>336.60000610352</ele>
        <time>2024-04-30T16:42:46.000Z</time>
      </trkpt>
      <trkpt lat="45.85033" lon="3.55025">
        <ele>336.79998779297</ele>
        <time>2024-04-30T16:42:47.000Z</time>
      </trkpt>
      <trkpt lat="45.85032" lon="3.55028">
        <ele>337</ele>
        <time>2024-04-30T16:42:48.000Z</time>
      </trkpt>
      <trkpt lat="45.85031" lon="3.55032">
        <ele>337</ele>
        <time>2024-04-30T16:42:49.000Z</time>
      </trkpt>
      <trkpt lat="45.85031" lon="3.55036">
        <ele>337</ele>
        <time>2024-04-30T16:42:50.000Z</time>
      </trkpt>
      <trkpt lat="45.8503" lon="3.5504">
        <ele>337.20001220703</ele>
        <time>2024-04-30T16:42:51.000Z</time>
      </trkpt>
      <trkpt lat="45.85028" lon="3.55044">
        <ele>337.39999389648</ele>
        <time>2024-04-30T16:42:52.000Z</time>
      </trkpt>
      <trkpt lat="45.85028" lon="3.55048">
        <ele>337.39999389648</ele>
        <time>2024-04-30T16:42:53.000Z</time>
      </trkpt>
      <trkpt lat="45.85027" lon="3.55051">
        <ele>337.60000610352</ele>
        <time>2024-04-30T16:42:54.000Z</time>
      </trkpt>
      <trkpt lat="45.85027" lon="3.55055">
        <ele>337.79998779297</ele>
        <time>2024-04-30T16:42:55.000Z</time>
      </trkpt>
      <trkpt lat="45.85028" lon="3.55058">
        <ele>338</ele>
        <time>2024-04-30T16:42:56.000Z</time>
      </trkpt>
      <trkpt lat="45.85028" lon="3.55062">
        <ele>338</ele>
        <time>2024-04-30T16:42:57.000Z</time>
      </trkpt>
      <trkpt lat="45.85029" lon="3.55065">
        <ele>338.20001220703</ele>
        <time>2024-04-30T16:42:58.000Z</time>
      </trkpt>
      <trkpt lat="45.8503" lon="3.55067">
        <ele>338.39999389648</ele>
        <time>2024-04-30T16:42:59.000Z</time>
      </trkpt>
      <trkpt lat="45.8503" lon="3.5507">
        <ele>338.60000610352</ele>
        <time>2024-04-30T16:43:00.000Z</time>
      </trkpt>
      <trkpt lat="45.85031" lon="3.55072">
        <ele>338.60000610352</ele>
        <time>2024-04-30T16:43:01.000Z</time>
      </trkpt>
      <trkpt lat="45.85033" lon="3.55075">
        <ele>338.79998779297</ele>
        <time>2024-04-30T16:43:02.000Z</time>
      </trkpt>
      <trkpt lat="45.85035" lon="3.55078">
        <ele>338.79998779297</ele>
        <time>2024-04-30T16:43:03.000Z</time>
      </trkpt>
      <trkpt lat="45.85036" lon="3.5508">
        <ele>339</ele>
        <time>2024-04-30T16:43:04.000Z</time>
      </trkpt>
      <trkpt lat="45.85038" lon="3.55083">
        <ele>339</ele>
        <time>2024-04-30T16:43:05.000Z</time>
      </trkpt>
      <trkpt lat="45.8504" lon="3.55085">
        <ele>339.20001220703</ele>
        <time>2024-04-30T16:43:06.000Z</time>
      </trkpt>
      <trkpt lat="45.85041" lon="3.55088">
        <ele>339.39999389648</ele>
        <time>2024-04-30T16:43:07.000Z</time>
      </trkpt>
      <trkpt lat="45.85042" lon="3.5509">
        <ele>339.60000610352</ele>
        <time>2024-04-30T16:43:08.000Z</time>
      </trkpt>
      <trkpt lat="45.85045" lon="3.55093">
        <ele>339.79998779297</ele>
        <time>2024-04-30T16:43:09.000Z</time>
      </trkpt>
      <trkpt lat="45.85048" lon="3.55095">
        <ele>340</ele>
        <time>2024-04-30T16:43:10.000Z</time>
      </trkpt>
      <trkpt lat="45.8505" lon="3.55097">
        <ele>340</ele>
        <time>2024-04-30T16:43:11.000Z</time>
      </trkpt>
      <trkpt lat="45.85052" lon="3.551">
        <ele>340.20001220703</ele>
        <time>2024-04-30T16:43:12.000Z</time>
      </trkpt>
      <trkpt lat="45.85053" lon="3.55102">
        <ele>340.20001220703</ele>
        <time>2024-04-30T16:43:13.000Z</time>
      </trkpt>
      <trkpt lat="45.85056" lon="3.55104">
        <ele>340.39999389648</ele>
        <time>2024-04-30T16:43:14.000Z</time>
      </trkpt>
      <trkpt lat="45.85058" lon="3.55107">
        <ele>340.60000610352</ele>
        <time>2024-04-30T16:43:15.000Z</time>
      </trkpt>
      <trkpt lat="45.8506" lon="3.55109">
        <ele>340.79998779297</ele>
        <time>2024-04-30T16:43:16.000Z</time>
      </trkpt>
      <trkpt lat="45.85061" lon="3.55111">
        <ele>340.79998779297</ele>
        <time>2024-04-30T16:43:17.000Z</time>
      </trkpt>
      <trkpt lat="45.85063" lon="3.55113">
        <ele>340.79998779297</ele>
        <time>2024-04-30T16:43:18.000Z</time>
      </trkpt>
      <trkpt lat="45.85064" lon="3.55114">
        <ele>341.20001220703</ele>
        <time>2024-04-30T16:43:19.000Z</time>
      </trkpt>
      <trkpt lat="45.85066" lon="3.55116">
        <ele>341.39999389648</ele>
        <time>2024-04-30T16:43:20.000Z</time>
      </trkpt>
      <trkpt lat="45.85067" lon="3.55118">
        <ele>341.39999389648</ele>
        <time>2024-04-30T16:43:21.000Z</time>
      </trkpt>
      <trkpt lat="45.85069" lon="3.5512">
        <ele>341.39999389648</ele>
        <time>2024-04-30T16:43:22.000Z</time>
      </trkpt>
      <trkpt lat="45.8507" lon="3.55121">
        <ele>341.39999389648</ele>
        <time>2024-04-30T16:43:23.000Z</time>
      </trkpt>
      <trkpt lat="45.85072" lon="3.55123">
        <ele>341.60000610352</ele>
        <time>2024-04-30T16:43:24.000Z</time>
      </trkpt>
      <trkpt lat="45.85074" lon="3.55124">
        <ele>341.79998779297</ele>
        <time>2024-04-30T16:43:25.000Z</time>
      </trkpt>
      <trkpt lat="45.85075" lon="3.55127">
        <ele>342</ele>
        <time>2024-04-30T16:43:26.000Z</time>
      </trkpt>
      <trkpt lat="45.85076" lon="3.5513">
        <ele>342</ele>
        <time>2024-04-30T16:43:27.000Z</time>
      </trkpt>
      <trkpt lat="45.85078" lon="3.55132">
        <ele>342</ele>
        <time>2024-04-30T16:43:28.000Z</time>
      </trkpt>
      <trkpt lat="45.85077" lon="3.55135">
        <ele>342.20001220703</ele>
        <time>2024-04-30T16:43:29.000Z</time>
      </trkpt>
      <trkpt lat="45.85078" lon="3.55137">
        <ele>342.39999389648</ele>
        <time>2024-04-30T16:43:30.000Z</time>
      </trkpt>
      <trkpt lat="45.85079" lon="3.5514">
        <ele>342.39999389648</ele>
        <time>2024-04-30T16:43:31.000Z</time>
      </trkpt>
      <trkpt lat="45.85081" lon="3.55141">
        <ele>342.60000610352</ele>
        <time>2024-04-30T16:43:32.000Z</time>
      </trkpt>
      <trkpt lat="45.85083" lon="3.55143">
        <ele>342.60000610352</ele>
        <time>2024-04-30T16:43:33.000Z</time>
      </trkpt>
      <trkpt lat="45.85085" lon="3.55146">
        <ele>342.60000610352</ele>
        <time>2024-04-30T16:43:34.000Z</time>
      </trkpt>
      <trkpt lat="45.85086" lon="3.55148">
        <ele>342.79998779297</ele>
        <time>2024-04-30T16:43:35.000Z</time>
      </trkpt>
      <trkpt lat="45.85088" lon="3.55151">
        <ele>343.20001220703</ele>
        <time>2024-04-30T16:43:36.000Z</time>
      </trkpt>
      <trkpt lat="45.8509" lon="3.55153">
        <ele>343.20001220703</ele>
        <time>2024-04-30T16:43:37.000Z</time>
      </trkpt>
      <trkpt lat="45.85091" lon="3.55154">
        <ele>343.39999389648</ele>
        <time>2024-04-30T16:43:38.000Z</time>
      </trkpt>
      <trkpt lat="45.85094" lon="3.55157">
        <ele>343.39999389648</ele>
        <time>2024-04-30T16:43:39.000Z</time>
      </trkpt>
      <trkpt lat="45.85096" lon="3.55158">
        <ele>343.60000610352</ele>
        <time>2024-04-30T16:43:40.000Z</time>
      </trkpt>
      <trkpt lat="45.85099" lon="3.5516">
        <ele>343.60000610352</ele>
        <time>2024-04-30T16:43:41.000Z</time>
      </trkpt>
      <trkpt lat="45.85101" lon="3.55162">
        <ele>343.79998779297</ele>
        <time>2024-04-30T16:43:42.000Z</time>
      </trkpt>
      <trkpt lat="45.85103" lon="3.55162">
        <ele>344</ele>
        <time>2024-04-30T16:43:43.000Z</time>
      </trkpt>
      <trkpt lat="45.85106" lon="3.55163">
        <ele>344</ele>
        <time>2024-04-30T16:43:44.000Z</time>
      </trkpt>
      <trkpt lat="45.85109" lon="3.55164">
        <ele>344.20001220703</ele>
        <time>2024-04-30T16:43:45.000Z</time>
      </trkpt>
      <trkpt lat="45.85111" lon="3.55164">
        <ele>344.20001220703</ele>
        <time>2024-04-30T16:43:46.000Z</time>
      </trkpt>
      <trkpt lat="45.85114" lon="3.55164">
        <ele>344.60000610352</ele>
        <time>2024-04-30T16:43:47.000Z</time>
      </trkpt>
      <trkpt lat="45.85117" lon="3.55164">
        <ele>344.79998779297</ele>
        <time>2024-04-30T16:43:48.000Z</time>
      </trkpt>
      <trkpt lat="45.85119" lon="3.55163">
        <ele>345</ele>
        <time>2024-04-30T16:43:49.000Z</time>
      </trkpt>
      <trkpt lat="45.85121" lon="3.55163">
        <ele>345</ele>
        <time>2024-04-30T16:43:50.000Z</time>
      </trkpt>
      <trkpt lat="45.85123" lon="3.55162">
        <ele>345.20001220703</ele>
        <time>2024-04-30T16:43:51.000Z</time>
      </trkpt>
      <trkpt lat="45.85124" lon="3.55162">
        <ele>345.20001220703</ele>
        <time>2024-04-30T16:43:52.000Z</time>
      </trkpt>
      <trkpt lat="45.85125" lon="3.55161">
        <ele>345.39999389648</ele>
        <time>2024-04-30T16:43:53.000Z</time>
      </trkpt>
      <trkpt lat="45.85127" lon="3.5516">
        <ele>345.60000610352</ele>
        <time>2024-04-30T16:43:54.000Z</time>
      </trkpt>
      <trkpt lat="45.8513" lon="3.55159">
        <ele>345.79998779297</ele>
        <time>2024-04-30T16:43:55.000Z</time>
      </trkpt>
      <trkpt lat="45.85132" lon="3.55158">
        <ele>346</ele>
        <time>2024-04-30T16:43:56.000Z</time>
      </trkpt>
      <trkpt lat="45.85134" lon="3.55157">
        <ele>346.20001220703</ele>
        <time>2024-04-30T16:43:57.000Z</time>
      </trkpt>
      <trkpt lat="45.85136" lon="3.55156">
        <ele>346.20001220703</ele>
        <time>2024-04-30T16:43:58.000Z</time>
      </trkpt>
      <trkpt lat="45.85138" lon="3.55155">
        <ele>346.39999389648</ele>
        <time>2024-04-30T16:43:59.000Z</time>
      </trkpt>
      <trkpt lat="45.85141" lon="3.55154">
        <ele>346.60000610352</ele>
        <time>2024-04-30T16:44:00.000Z</time>
      </trkpt>
      <trkpt lat="45.85144" lon="3.55153">
        <ele>346.60000610352</ele>
        <time>2024-04-30T16:44:01.000Z</time>
      </trkpt>
      <trkpt lat="45.85147" lon="3.55152">
        <ele>346.79998779297</ele>
        <time>2024-04-30T16:44:02.000Z</time>
      </trkpt>
      <trkpt lat="45.8515" lon="3.55151">
        <ele>346.79998779297</ele>
        <time>2024-04-30T16:44:03.000Z</time>
      </trkpt>
      <trkpt lat="45.85152" lon="3.55149">
        <ele>347</ele>
        <time>2024-04-30T16:44:04.000Z</time>
      </trkpt>
      <trkpt lat="45.85155" lon="3.55148">
        <ele>347.20001220703</ele>
        <time>2024-04-30T16:44:05.000Z</time>
      </trkpt>
      <trkpt lat="45.85158" lon="3.55147">
        <ele>347.39999389648</ele>
        <time>2024-04-30T16:44:06.000Z</time>
      </trkpt>
      <trkpt lat="45.8516" lon="3.55145">
        <ele>347.39999389648</ele>
        <time>2024-04-30T16:44:07.000Z</time>
      </trkpt>
      <trkpt lat="45.85162" lon="3.55143">
        <ele>347.39999389648</ele>
        <time>2024-04-30T16:44:08.000Z</time>
      </trkpt>
      <trkpt lat="45.85164" lon="3.55141">
        <ele>347.39999389648</ele>
        <time>2024-04-30T16:44:09.000Z</time>
      </trkpt>
      <trkpt lat="45.85166" lon="3.55138">
        <ele>347.60000610352</ele>
        <time>2024-04-30T16:44:10.000Z</time>
      </trkpt>
      <trkpt lat="45.85169" lon="3.55137">
        <ele>347.79998779297</ele>
        <time>2024-04-30T16:44:11.000Z</time>
      </trkpt>
      <trkpt lat="45.85172" lon="3.55134">
        <ele>348</ele>
        <time>2024-04-30T16:44:12.000Z</time>
      </trkpt>
      <trkpt lat="45.85173" lon="3.55131">
        <ele>348.20001220703</ele>
        <time>2024-04-30T16:44:13.000Z</time>
      </trkpt>
      <trkpt lat="45.85175" lon="3.55129">
        <ele>348.39999389648</ele>
        <time>2024-04-30T16:44:14.000Z</time>
      </trkpt>
      <trkpt lat="45.85178" lon="3.55127">
        <ele>348.39999389648</ele>
        <time>2024-04-30T16:44:15.000Z</time>
      </trkpt>
      <trkpt lat="45.8518" lon="3.55126">
        <ele>348.39999389648</ele>
        <time>2024-04-30T16:44:16.000Z</time>
      </trkpt>
      <trkpt lat="45.85182" lon="3.55123">
        <ele>348.60000610352</ele>
        <time>2024-04-30T16:44:17.000Z</time>
      </trkpt>
      <trkpt lat="45.85184" lon="3.55122">
        <ele>348.39999389648</ele>
        <time>2024-04-30T16:44:18.000Z</time>
      </trkpt>
      <trkpt lat="45.85186" lon="3.5512">
        <ele>348.79998779297</ele>
        <time>2024-04-30T16:44:19.000Z</time>
      </trkpt>
      <trkpt lat="45.85188" lon="3.55118">
        <ele>348.79998779297</ele>
        <time>2024-04-30T16:44:20.000Z</time>
      </trkpt>
      <trkpt lat="45.8519" lon="3.55115">
        <ele>349</ele>
        <time>2024-04-30T16:44:21.000Z</time>
      </trkpt>
      <trkpt lat="45.85191" lon="3.55112">
        <ele>348.79998779297</ele>
        <time>2024-04-30T16:44:22.000Z</time>
      </trkpt>
      <trkpt lat="45.85192" lon="3.5511">
        <ele>349</ele>
        <time>2024-04-30T16:44:23.000Z</time>
      </trkpt>
      <trkpt lat="45.85193" lon="3.55107">
        <ele>349.20001220703</ele>
        <time>2024-04-30T16:44:24.000Z</time>
      </trkpt>
      <trkpt lat="45.85195" lon="3.55104">
        <ele>349.20001220703</ele>
        <time>2024-04-30T16:44:25.000Z</time>
      </trkpt>
      <trkpt lat="45.85196" lon="3.55101">
        <ele>349</ele>
        <time>2024-04-30T16:44:26.000Z</time>
      </trkpt>
      <trkpt lat="45.85198" lon="3.55099">
        <ele>349.20001220703</ele>
        <time>2024-04-30T16:44:27.000Z</time>
      </trkpt>
      <trkpt lat="45.852" lon="3.55097">
        <ele>349.39999389648</ele>
        <time>2024-04-30T16:44:28.000Z</time>
      </trkpt>
      <trkpt lat="45.852" lon="3.55093">
        <ele>349.39999389648</ele>
        <time>2024-04-30T16:44:29.000Z</time>
      </trkpt>
      <trkpt lat="45.85202" lon="3.5509">
        <ele>349.39999389648</ele>
        <time>2024-04-30T16:44:30.000Z</time>
      </trkpt>
      <trkpt lat="45.85204" lon="3.55088">
        <ele>349.39999389648</ele>
        <time>2024-04-30T16:44:31.000Z</time>
      </trkpt>
      <trkpt lat="45.85206" lon="3.55085">
        <ele>349.39999389648</ele>
        <time>2024-04-30T16:44:32.000Z</time>
      </trkpt>
      <trkpt lat="45.85207" lon="3.55083">
        <ele>349.39999389648</ele>
        <time>2024-04-30T16:44:33.000Z</time>
      </trkpt>
      <trkpt lat="45.85208" lon="3.55079">
        <ele>349.39999389648</ele>
        <time>2024-04-30T16:44:34.000Z</time>
      </trkpt>
      <trkpt lat="45.8521" lon="3.55077">
        <ele>349.60000610352</ele>
        <time>2024-04-30T16:44:35.000Z</time>
      </trkpt>
      <trkpt lat="45.85212" lon="3.55074">
        <ele>349.39999389648</ele>
        <time>2024-04-30T16:44:36.000Z</time>
      </trkpt>
      <trkpt lat="45.85213" lon="3.55072">
        <ele>349.60000610352</ele>
        <time>2024-04-30T16:44:37.000Z</time>
      </trkpt>
      <trkpt lat="45.85216" lon="3.5507">
        <ele>349.60000610352</ele>
        <time>2024-04-30T16:44:38.000Z</time>
      </trkpt>
      <trkpt lat="45.85217" lon="3.55067">
        <ele>350</ele>
        <time>2024-04-30T16:44:39.000Z</time>
      </trkpt>
      <trkpt lat="45.85219" lon="3.55064">
        <ele>350</ele>
        <time>2024-04-30T16:44:40.000Z</time>
      </trkpt>
      <trkpt lat="45.85222" lon="3.55062">
        <ele>350</ele>
        <time>2024-04-30T16:44:41.000Z</time>
      </trkpt>
      <trkpt lat="45.85224" lon="3.5506">
        <ele>350.39999389648</ele>
        <time>2024-04-30T16:44:42.000Z</time>
      </trkpt>
      <trkpt lat="45.85227" lon="3.55057">
        <ele>350.60000610352</ele>
        <time>2024-04-30T16:44:43.000Z</time>
      </trkpt>
      <trkpt lat="45.85228" lon="3.55056">
        <ele>350.39999389648</ele>
        <time>2024-04-30T16:44:44.000Z</time>
      </trkpt>
      <trkpt lat="45.8523" lon="3.55054">
        <ele>350.39999389648</ele>
        <time>2024-04-30T16:44:45.000Z</time>
      </trkpt>
      <trkpt lat="45.85233" lon="3.55053">
        <ele>350.60000610352</ele>
        <time>2024-04-30T16:44:46.000Z</time>
      </trkpt>
      <trkpt lat="45.85236" lon="3.55052">
        <ele>350.39999389648</ele>
        <time>2024-04-30T16:44:47.000Z</time>
      </trkpt>
      <trkpt lat="45.85238" lon="3.5505">
        <ele>350.60000610352</ele>
        <time>2024-04-30T16:44:48.000Z</time>
      </trkpt>
      <trkpt lat="45.8524" lon="3.5505">
        <ele>350.79998779297</ele>
        <time>2024-04-30T16:44:49.000Z</time>
      </trkpt>
      <trkpt lat="45.85241" lon="3.5505">
        <ele>350.79998779297</ele>
        <time>2024-04-30T16:44:50.000Z</time>
      </trkpt>
      <trkpt lat="45.85242" lon="3.55049">
        <ele>350.79998779297</ele>
        <time>2024-04-30T16:44:51.000Z</time>
      </trkpt>
      <trkpt lat="45.85245" lon="3.55049">
        <ele>350.79998779297</ele>
        <time>2024-04-30T16:44:52.000Z</time>
      </trkpt>
      <trkpt lat="45.85246" lon="3.55048">
        <ele>351</ele>
        <time>2024-04-30T16:44:53.000Z</time>
      </trkpt>
      <trkpt lat="45.85247" lon="3.55048">
        <ele>350.79998779297</ele>
        <time>2024-04-30T16:44:54.000Z</time>
      </trkpt>
      <trkpt lat="45.8525" lon="3.55049">
        <ele>350.79998779297</ele>
        <time>2024-04-30T16:44:55.000Z</time>
      </trkpt>
      <trkpt lat="45.85253" lon="3.5505">
        <ele>351</ele>
        <time>2024-04-30T16:44:56.000Z</time>
      </trkpt>
      <trkpt lat="45.85259" lon="3.55053">
        <ele>350.79998779297</ele>
        <time>2024-04-30T16:44:59.000Z</time>
      </trkpt>
      <trkpt lat="45.85262" lon="3.55054">
        <ele>351</ele>
        <time>2024-04-30T16:45:00.000Z</time>
      </trkpt>
      <trkpt lat="45.85263" lon="3.55056">
        <ele>350.79998779297</ele>
        <time>2024-04-30T16:45:01.000Z</time>
      </trkpt>
      <trkpt lat="45.85265" lon="3.55058">
        <ele>350.79998779297</ele>
        <time>2024-04-30T16:45:02.000Z</time>
      </trkpt>
      <trkpt lat="45.85268" lon="3.55059">
        <ele>350.79998779297</ele>
        <time>2024-04-30T16:45:03.000Z</time>
      </trkpt>
      <trkpt lat="45.85271" lon="3.55061">
        <ele>350.79998779297</ele>
        <time>2024-04-30T16:45:04.000Z</time>
      </trkpt>
      <trkpt lat="45.85274" lon="3.55061">
        <ele>351</ele>
        <time>2024-04-30T16:45:05.000Z</time>
      </trkpt>
      <trkpt lat="45.85276" lon="3.55061">
        <ele>351</ele>
        <time>2024-04-30T16:45:06.000Z</time>
      </trkpt>
      <trkpt lat="45.85276" lon="3.55062">
        <ele>351</ele>
        <time>2024-04-30T16:45:07.000Z</time>
      </trkpt>
      <trkpt lat="45.85278" lon="3.55061">
        <ele>351</ele>
        <time>2024-04-30T16:45:08.000Z</time>
      </trkpt>
      <trkpt lat="45.8528" lon="3.55062">
        <ele>351</ele>
        <time>2024-04-30T16:45:09.000Z</time>
      </trkpt>
      <trkpt lat="45.85282" lon="3.55061">
        <ele>351</ele>
        <time>2024-04-30T16:45:10.000Z</time>
      </trkpt>
      <trkpt lat="45.85282" lon="3.55062">
        <ele>351</ele>
        <time>2024-04-30T16:45:11.000Z</time>
      </trkpt>
      <trkpt lat="45.85284" lon="3.55062">
        <ele>351.20001220703</ele>
        <time>2024-04-30T16:45:12.000Z</time>
      </trkpt>
      <trkpt lat="45.85286" lon="3.55064">
        <ele>351.20001220703</ele>
        <time>2024-04-30T16:45:13.000Z</time>
      </trkpt>
      <trkpt lat="45.85288" lon="3.55067">
        <ele>351.20001220703</ele>
        <time>2024-04-30T16:45:14.000Z</time>
      </trkpt>
      <trkpt lat="45.85291" lon="3.55067">
        <ele>351.39999389648</ele>
        <time>2024-04-30T16:45:15.000Z</time>
      </trkpt>
      <trkpt lat="45.85293" lon="3.55067">
        <ele>351.20001220703</ele>
        <time>2024-04-30T16:45:16.000Z</time>
      </trkpt>
      <trkpt lat="45.85294" lon="3.55067">
        <ele>351.20001220703</ele>
        <time>2024-04-30T16:45:17.000Z</time>
      </trkpt>
      <trkpt lat="45.85296" lon="3.55066">
        <ele>351.39999389648</ele>
        <time>2024-04-30T16:45:18.000Z</time>
      </trkpt>
      <trkpt lat="45.85297" lon="3.55066">
        <ele>351.39999389648</ele>
        <time>2024-04-30T16:45:19.000Z</time>
      </trkpt>
      <trkpt lat="45.85299" lon="3.55067">
        <ele>351.60000610352</ele>
        <time>2024-04-30T16:45:20.000Z</time>
      </trkpt>
      <trkpt lat="45.85302" lon="3.55066">
        <ele>351.60000610352</ele>
        <time>2024-04-30T16:45:21.000Z</time>
      </trkpt>
      <trkpt lat="45.85304" lon="3.55067">
        <ele>351.60000610352</ele>
        <time>2024-04-30T16:45:22.000Z</time>
      </trkpt>
      <trkpt lat="45.85307" lon="3.55067">
        <ele>351.79998779297</ele>
        <time>2024-04-30T16:45:23.000Z</time>
      </trkpt>
      <trkpt lat="45.85309" lon="3.55066">
        <ele>351.79998779297</ele>
        <time>2024-04-30T16:45:24.000Z</time>
      </trkpt>
      <trkpt lat="45.85312" lon="3.55067">
        <ele>352</ele>
        <time>2024-04-30T16:45:25.000Z</time>
      </trkpt>
      <trkpt lat="45.85315" lon="3.55067">
        <ele>351.79998779297</ele>
        <time>2024-04-30T16:45:26.000Z</time>
      </trkpt>
      <trkpt lat="45.85317" lon="3.55067">
        <ele>352</ele>
        <time>2024-04-30T16:45:27.000Z</time>
      </trkpt>
      <trkpt lat="45.8532" lon="3.55067">
        <ele>352</ele>
        <time>2024-04-30T16:45:28.000Z</time>
      </trkpt>
      <trkpt lat="45.85322" lon="3.55068">
        <ele>352.20001220703</ele>
        <time>2024-04-30T16:45:29.000Z</time>
      </trkpt>
      <trkpt lat="45.85324" lon="3.55068">
        <ele>352.20001220703</ele>
        <time>2024-04-30T16:45:30.000Z</time>
      </trkpt>
      <trkpt lat="45.85326" lon="3.55068">
        <ele>352.20001220703</ele>
        <time>2024-04-30T16:45:31.000Z</time>
      </trkpt>
      <trkpt lat="45.85329" lon="3.55067">
        <ele>352.20001220703</ele>
        <time>2024-04-30T16:45:32.000Z</time>
      </trkpt>
      <trkpt lat="45.85331" lon="3.55068">
        <ele>352.39999389648</ele>
        <time>2024-04-30T16:45:33.000Z</time>
      </trkpt>
      <trkpt lat="45.85334" lon="3.55069">
        <ele>352.39999389648</ele>
        <time>2024-04-30T16:45:34.000Z</time>
      </trkpt>
      <trkpt lat="45.85337" lon="3.5507">
        <ele>352.39999389648</ele>
        <time>2024-04-30T16:45:35.000Z</time>
      </trkpt>
      <trkpt lat="45.8534" lon="3.5507">
        <ele>352.39999389648</ele>
        <time>2024-04-30T16:45:36.000Z</time>
      </trkpt>
      <trkpt lat="45.85342" lon="3.5507">
        <ele>352.60000610352</ele>
        <time>2024-04-30T16:45:37.000Z</time>
      </trkpt>
      <trkpt lat="45.85344" lon="3.5507">
        <ele>352.39999389648</ele>
        <time>2024-04-30T16:45:38.000Z</time>
      </trkpt>
      <trkpt lat="45.85347" lon="3.55071">
        <ele>352.39999389648</ele>
        <time>2024-04-30T16:45:39.000Z</time>
      </trkpt>
      <trkpt lat="45.85349" lon="3.55071">
        <ele>352.39999389648</ele>
        <time>2024-04-30T16:45:40.000Z</time>
      </trkpt>
      <trkpt lat="45.85351" lon="3.55072">
        <ele>352.39999389648</ele>
        <time>2024-04-30T16:45:41.000Z</time>
      </trkpt>
      <trkpt lat="45.85353" lon="3.55071">
        <ele>352.39999389648</ele>
        <time>2024-04-30T16:45:42.000Z</time>
      </trkpt>
      <trkpt lat="45.85356" lon="3.55071">
        <ele>352.60000610352</ele>
        <time>2024-04-30T16:45:43.000Z</time>
      </trkpt>
      <trkpt lat="45.85358" lon="3.55071">
        <ele>352.39999389648</ele>
        <time>2024-04-30T16:45:44.000Z</time>
      </trkpt>
      <trkpt lat="45.8536" lon="3.55072">
        <ele>352.60000610352</ele>
        <time>2024-04-30T16:45:45.000Z</time>
      </trkpt>
      <trkpt lat="45.85362" lon="3.55071">
        <ele>352.79998779297</ele>
        <time>2024-04-30T16:45:46.000Z</time>
      </trkpt>
      <trkpt lat="45.85361" lon="3.55071">
        <ele>352.79998779297</ele>
        <time>2024-04-30T16:45:47.000Z</time>
      </trkpt>
      <trkpt lat="45.85364" lon="3.55072">
        <ele>352.79998779297</ele>
        <time>2024-04-30T16:45:48.000Z</time>
      </trkpt>
      <trkpt lat="45.85367" lon="3.55074">
        <ele>353</ele>
        <time>2024-04-30T16:45:49.000Z</time>
      </trkpt>
      <trkpt lat="45.85369" lon="3.55074">
        <ele>353</ele>
        <time>2024-04-30T16:45:50.000Z</time>
      </trkpt>
      <trkpt lat="45.85372" lon="3.55074">
        <ele>353</ele>
        <time>2024-04-30T16:45:51.000Z</time>
      </trkpt>
      <trkpt lat="45.85375" lon="3.55074">
        <ele>353.20001220703</ele>
        <time>2024-04-30T16:45:52.000Z</time>
      </trkpt>
      <trkpt lat="45.85377" lon="3.55074">
        <ele>353.39999389648</ele>
        <time>2024-04-30T16:45:53.000Z</time>
      </trkpt>
      <trkpt lat="45.85379" lon="3.55075">
        <ele>353.39999389648</ele>
        <time>2024-04-30T16:45:54.000Z</time>
      </trkpt>
      <trkpt lat="45.85383" lon="3.55076">
        <ele>353.60000610352</ele>
        <time>2024-04-30T16:45:55.000Z</time>
      </trkpt>
      <trkpt lat="45.85386" lon="3.55078">
        <ele>353.60000610352</ele>
        <time>2024-04-30T16:45:56.000Z</time>
      </trkpt>
      <trkpt lat="45.85389" lon="3.55079">
        <ele>353.39999389648</ele>
        <time>2024-04-30T16:45:57.000Z</time>
      </trkpt>
      <trkpt lat="45.8539" lon="3.55079">
        <ele>353.39999389648</ele>
        <time>2024-04-30T16:45:58.000Z</time>
      </trkpt>
      <trkpt lat="45.85393" lon="3.55081">
        <ele>353.39999389648</ele>
        <time>2024-04-30T16:45:59.000Z</time>
      </trkpt>
      <trkpt lat="45.85395" lon="3.55082">
        <ele>353.60000610352</ele>
        <time>2024-04-30T16:46:00.000Z</time>
      </trkpt>
      <trkpt lat="45.85399" lon="3.55084">
        <ele>353.60000610352</ele>
        <time>2024-04-30T16:46:01.000Z</time>
      </trkpt>
      <trkpt lat="45.85402" lon="3.55086">
        <ele>353.60000610352</ele>
        <time>2024-04-30T16:46:02.000Z</time>
      </trkpt>
      <trkpt lat="45.85405" lon="3.55088">
        <ele>353.60000610352</ele>
        <time>2024-04-30T16:46:03.000Z</time>
      </trkpt>
      <trkpt lat="45.85408" lon="3.5509">
        <ele>353.79998779297</ele>
        <time>2024-04-30T16:46:04.000Z</time>
      </trkpt>
      <trkpt lat="45.8541" lon="3.55092">
        <ele>354</ele>
        <time>2024-04-30T16:46:05.000Z</time>
      </trkpt>
      <trkpt lat="45.85413" lon="3.55094">
        <ele>354</ele>
        <time>2024-04-30T16:46:06.000Z</time>
      </trkpt>
      <trkpt lat="45.85416" lon="3.55095">
        <ele>354</ele>
        <time>2024-04-30T16:46:07.000Z</time>
      </trkpt>
      <trkpt lat="45.85419" lon="3.55097">
        <ele>354</ele>
        <time>2024-04-30T16:46:08.000Z</time>
      </trkpt>
      <trkpt lat="45.85421" lon="3.55101">
        <ele>354.20001220703</ele>
        <time>2024-04-30T16:46:09.000Z</time>
      </trkpt>
      <trkpt lat="45.85424" lon="3.55104">
        <ele>354</ele>
        <time>2024-04-30T16:46:10.000Z</time>
      </trkpt>
      <trkpt lat="45.85427" lon="3.55105">
        <ele>354</ele>
        <time>2024-04-30T16:46:11.000Z</time>
      </trkpt>
      <trkpt lat="45.85429" lon="3.55107">
        <ele>354</ele>
        <time>2024-04-30T16:46:12.000Z</time>
      </trkpt>
      <trkpt lat="45.85433" lon="3.5511">
        <ele>354.20001220703</ele>
        <time>2024-04-30T16:46:13.000Z</time>
      </trkpt>
      <trkpt lat="45.85434" lon="3.55112">
        <ele>354.20001220703</ele>
        <time>2024-04-30T16:46:14.000Z</time>
      </trkpt>
      <trkpt lat="45.85436" lon="3.55114">
        <ele>354.20001220703</ele>
        <time>2024-04-30T16:46:15.000Z</time>
      </trkpt>
      <trkpt lat="45.85439" lon="3.55116">
        <ele>354.20001220703</ele>
        <time>2024-04-30T16:46:16.000Z</time>
      </trkpt>
      <trkpt lat="45.85442" lon="3.55118">
        <ele>354.20001220703</ele>
        <time>2024-04-30T16:46:17.000Z</time>
      </trkpt>
      <trkpt lat="45.85444" lon="3.55121">
        <ele>354.39999389648</ele>
        <time>2024-04-30T16:46:18.000Z</time>
      </trkpt>
      <trkpt lat="45.85445" lon="3.55125">
        <ele>354</ele>
        <time>2024-04-30T16:46:19.000Z</time>
      </trkpt>
      <trkpt lat="45.85449" lon="3.55127">
        <ele>354</ele>
        <time>2024-04-30T16:46:20.000Z</time>
      </trkpt>
      <trkpt lat="45.85452" lon="3.55128">
        <ele>354</ele>
        <time>2024-04-30T16:46:21.000Z</time>
      </trkpt>
      <trkpt lat="45.85454" lon="3.55131">
        <ele>354.20001220703</ele>
        <time>2024-04-30T16:46:22.000Z</time>
      </trkpt>
      <trkpt lat="45.85457" lon="3.55133">
        <ele>354.20001220703</ele>
        <time>2024-04-30T16:46:23.000Z</time>
      </trkpt>
      <trkpt lat="45.85458" lon="3.55135">
        <ele>354.20001220703</ele>
        <time>2024-04-30T16:46:24.000Z</time>
      </trkpt>
      <trkpt lat="45.8546" lon="3.55138">
        <ele>354.20001220703</ele>
        <time>2024-04-30T16:46:25.000Z</time>
      </trkpt>
      <trkpt lat="45.85462" lon="3.55141">
        <ele>354.39999389648</ele>
        <time>2024-04-30T16:46:26.000Z</time>
      </trkpt>
      <trkpt lat="45.85464" lon="3.55143">
        <ele>354.60000610352</ele>
        <time>2024-04-30T16:46:27.000Z</time>
      </trkpt>
      <trkpt lat="45.85467" lon="3.55147">
        <ele>354.39999389648</ele>
        <time>2024-04-30T16:46:28.000Z</time>
      </trkpt>
      <trkpt lat="45.85469" lon="3.55149">
        <ele>354.60000610352</ele>
        <time>2024-04-30T16:46:29.000Z</time>
      </trkpt>
      <trkpt lat="45.85471" lon="3.55152">
        <ele>354.79998779297</ele>
        <time>2024-04-30T16:46:30.000Z</time>
      </trkpt>
      <trkpt lat="45.85474" lon="3.55155">
        <ele>354.79998779297</ele>
        <time>2024-04-30T16:46:31.000Z</time>
      </trkpt>
      <trkpt lat="45.85476" lon="3.55157">
        <ele>355</ele>
        <time>2024-04-30T16:46:32.000Z</time>
      </trkpt>
      <trkpt lat="45.85477" lon="3.55161">
        <ele>355</ele>
        <time>2024-04-30T16:46:33.000Z</time>
      </trkpt>
      <trkpt lat="45.8548" lon="3.55164">
        <ele>355</ele>
        <time>2024-04-30T16:46:34.000Z</time>
      </trkpt>
      <trkpt lat="45.85481" lon="3.55167">
        <ele>355</ele>
        <time>2024-04-30T16:46:35.000Z</time>
      </trkpt>
      <trkpt lat="45.85482" lon="3.5517">
        <ele>355.20001220703</ele>
        <time>2024-04-30T16:46:36.000Z</time>
      </trkpt>
      <trkpt lat="45.85483" lon="3.55173">
        <ele>355</ele>
        <time>2024-04-30T16:46:37.000Z</time>
      </trkpt>
      <trkpt lat="45.85484" lon="3.55175">
        <ele>355.20001220703</ele>
        <time>2024-04-30T16:46:38.000Z</time>
      </trkpt>
      <trkpt lat="45.85486" lon="3.55177">
        <ele>355.20001220703</ele>
        <time>2024-04-30T16:46:39.000Z</time>
      </trkpt>
      <trkpt lat="45.85488" lon="3.55179">
        <ele>355.39999389648</ele>
        <time>2024-04-30T16:46:40.000Z</time>
      </trkpt>
      <trkpt lat="45.8549" lon="3.5518">
        <ele>355.20001220703</ele>
        <time>2024-04-30T16:46:41.000Z</time>
      </trkpt>
      <trkpt lat="45.85492" lon="3.55182">
        <ele>355.20001220703</ele>
        <time>2024-04-30T16:46:42.000Z</time>
      </trkpt>
      <trkpt lat="45.85495" lon="3.55183">
        <ele>355.39999389648</ele>
        <time>2024-04-30T16:46:43.000Z</time>
      </trkpt>
      <trkpt lat="45.85497" lon="3.55183">
        <ele>355.39999389648</ele>
        <time>2024-04-30T16:46:44.000Z</time>
      </trkpt>
      <trkpt lat="45.85499" lon="3.55184">
        <ele>355.39999389648</ele>
        <time>2024-04-30T16:46:45.000Z</time>
      </trkpt>
      <trkpt lat="45.85501" lon="3.55183">
        <ele>355.39999389648</ele>
        <time>2024-04-30T16:46:46.000Z</time>
      </trkpt>
      <trkpt lat="45.85503" lon="3.55183">
        <ele>355.39999389648</ele>
        <time>2024-04-30T16:46:47.000Z</time>
      </trkpt>
      <trkpt lat="45.85505" lon="3.55182">
        <ele>355.39999389648</ele>
        <time>2024-04-30T16:46:48.000Z</time>
      </trkpt>
      <trkpt lat="45.85507" lon="3.55181">
        <ele>355.60000610352</ele>
        <time>2024-04-30T16:46:49.000Z</time>
      </trkpt>
      <trkpt lat="45.85509" lon="3.5518">
        <ele>355.60000610352</ele>
        <time>2024-04-30T16:46:50.000Z</time>
      </trkpt>
      <trkpt lat="45.85509" lon="3.5518">
        <ele>355.60000610352</ele>
        <time>2024-04-30T16:46:51.000Z</time>
      </trkpt>
      <trkpt lat="45.85513" lon="3.55178">
        <ele>355.79998779297</ele>
        <time>2024-04-30T16:46:52.000Z</time>
      </trkpt>
      <trkpt lat="45.85515" lon="3.55178">
        <ele>355.79998779297</ele>
        <time>2024-04-30T16:46:53.000Z</time>
      </trkpt>
      <trkpt lat="45.85516" lon="3.55178">
        <ele>355.79998779297</ele>
        <time>2024-04-30T16:46:54.000Z</time>
      </trkpt>
      <trkpt lat="45.85519" lon="3.55177">
        <ele>355.79998779297</ele>
        <time>2024-04-30T16:46:55.000Z</time>
      </trkpt>
      <trkpt lat="45.85522" lon="3.55176">
        <ele>356</ele>
        <time>2024-04-30T16:46:56.000Z</time>
      </trkpt>
      <trkpt lat="45.85525" lon="3.55176">
        <ele>356</ele>
        <time>2024-04-30T16:46:57.000Z</time>
      </trkpt>
      <trkpt lat="45.85528" lon="3.55177">
        <ele>356.20001220703</ele>
        <time>2024-04-30T16:46:58.000Z</time>
      </trkpt>
      <trkpt lat="45.85532" lon="3.55176">
        <ele>356.20001220703</ele>
        <time>2024-04-30T16:46:59.000Z</time>
      </trkpt>
      <trkpt lat="45.85534" lon="3.55176">
        <ele>356.20001220703</ele>
        <time>2024-04-30T16:47:00.000Z</time>
      </trkpt>
      <trkpt lat="45.85537" lon="3.55177">
        <ele>356.20001220703</ele>
        <time>2024-04-30T16:47:01.000Z</time>
      </trkpt>
      <trkpt lat="45.8554" lon="3.55176">
        <ele>356.39999389648</ele>
        <time>2024-04-30T16:47:02.000Z</time>
      </trkpt>
      <trkpt lat="45.85542" lon="3.55175">
        <ele>356.39999389648</ele>
        <time>2024-04-30T16:47:03.000Z</time>
      </trkpt>
      <trkpt lat="45.85544" lon="3.55171">
        <ele>356.39999389648</ele>
        <time>2024-04-30T16:47:04.000Z</time>
      </trkpt>
      <trkpt lat="45.85544" lon="3.55167">
        <ele>356.39999389648</ele>
        <time>2024-04-30T16:47:05.000Z</time>
      </trkpt>
      <trkpt lat="45.85545" lon="3.55163">
        <ele>356.60000610352</ele>
        <time>2024-04-30T16:47:06.000Z</time>
      </trkpt>
      <trkpt lat="45.85546" lon="3.5516">
        <ele>356.60000610352</ele>
        <time>2024-04-30T16:47:07.000Z</time>
      </trkpt>
      <trkpt lat="45.85547" lon="3.55157">
        <ele>356.79998779297</ele>
        <time>2024-04-30T16:47:08.000Z</time>
      </trkpt>
      <trkpt lat="45.85546" lon="3.55154">
        <ele>357</ele>
        <time>2024-04-30T16:47:09.000Z</time>
      </trkpt>
      <trkpt lat="45.85546" lon="3.5515">
        <ele>357.20001220703</ele>
        <time>2024-04-30T16:47:10.000Z</time>
      </trkpt>
      <trkpt lat="45.85545" lon="3.55147">
        <ele>357.60000610352</ele>
        <time>2024-04-30T16:47:11.000Z</time>
      </trkpt>
      <trkpt lat="45.85544" lon="3.55145">
        <ele>357.60000610352</ele>
        <time>2024-04-30T16:47:12.000Z</time>
      </trkpt>
      <trkpt lat="45.85544" lon="3.55141">
        <ele>358</ele>
        <time>2024-04-30T16:47:13.000Z</time>
      </trkpt>
      <trkpt lat="45.85543" lon="3.5514">
        <ele>358.20001220703</ele>
        <time>2024-04-30T16:47:14.000Z</time>
      </trkpt>
      <trkpt lat="45.85543" lon="3.55136">
        <ele>358.39999389648</ele>
        <time>2024-04-30T16:47:15.000Z</time>
      </trkpt>
      <trkpt lat="45.85542" lon="3.55134">
        <ele>358.60000610352</ele>
        <time>2024-04-30T16:47:16.000Z</time>
      </trkpt>
      <trkpt lat="45.85542" lon="3.55132">
        <ele>358.79998779297</ele>
        <time>2024-04-30T16:47:17.000Z</time>
      </trkpt>
      <trkpt lat="45.85542" lon="3.55129">
        <ele>359</ele>
        <time>2024-04-30T16:47:18.000Z</time>
      </trkpt>
      <trkpt lat="45.8554" lon="3.55125">
        <ele>359.20001220703</ele>
        <time>2024-04-30T16:47:19.000Z</time>
      </trkpt>
      <trkpt lat="45.8554" lon="3.55122">
        <ele>359.39999389648</ele>
        <time>2024-04-30T16:47:20.000Z</time>
      </trkpt>
      <trkpt lat="45.8554" lon="3.55118">
        <ele>359.79998779297</ele>
        <time>2024-04-30T16:47:21.000Z</time>
      </trkpt>
      <trkpt lat="45.85539" lon="3.55115">
        <ele>360</ele>
        <time>2024-04-30T16:47:22.000Z</time>
      </trkpt>
      <trkpt lat="45.85539" lon="3.55112">
        <ele>360.20001220703</ele>
        <time>2024-04-30T16:47:23.000Z</time>
      </trkpt>
      <trkpt lat="45.85537" lon="3.5511">
        <ele>360.60000610352</ele>
        <time>2024-04-30T16:47:24.000Z</time>
      </trkpt>
      <trkpt lat="45.85535" lon="3.55109">
        <ele>360.79998779297</ele>
        <time>2024-04-30T16:47:25.000Z</time>
      </trkpt>
      <trkpt lat="45.85533" lon="3.55109">
        <ele>361</ele>
        <time>2024-04-30T16:47:26.000Z</time>
      </trkpt>
      <trkpt lat="45.85531" lon="3.55109">
        <ele>361.20001220703</ele>
        <time>2024-04-30T16:47:27.000Z</time>
      </trkpt>
      <trkpt lat="45.85528" lon="3.5511">
        <ele>361.39999389648</ele>
        <time>2024-04-30T16:47:28.000Z</time>
      </trkpt>
      <trkpt lat="45.85526" lon="3.5511">
        <ele>361.60000610352</ele>
        <time>2024-04-30T16:47:29.000Z</time>
      </trkpt>
      <trkpt lat="45.85524" lon="3.55111">
        <ele>361.79998779297</ele>
        <time>2024-04-30T16:47:30.000Z</time>
      </trkpt>
      <trkpt lat="45.85522" lon="3.55113">
        <ele>361.79998779297</ele>
        <time>2024-04-30T16:47:31.000Z</time>
      </trkpt>
      <trkpt lat="45.8552" lon="3.55116">
        <ele>361.79998779297</ele>
        <time>2024-04-30T16:47:32.000Z</time>
      </trkpt>
      <trkpt lat="45.85518" lon="3.55116">
        <ele>361.60000610352</ele>
        <time>2024-04-30T16:47:33.000Z</time>
      </trkpt>
      <trkpt lat="45.85516" lon="3.55114">
        <ele>361.39999389648</ele>
        <time>2024-04-30T16:47:34.000Z</time>
      </trkpt>
      <trkpt lat="45.85514" lon="3.55114">
        <ele>361</ele>
        <time>2024-04-30T16:47:35.000Z</time>
      </trkpt>
      <trkpt lat="45.85512" lon="3.55114">
        <ele>360.39999389648</ele>
        <time>2024-04-30T16:47:36.000Z</time>
      </trkpt>
      <trkpt lat="45.8551" lon="3.55114">
        <ele>360</ele>
        <time>2024-04-30T16:47:37.000Z</time>
      </trkpt>
      <trkpt lat="45.85508" lon="3.55114">
        <ele>359.60000610352</ele>
        <time>2024-04-30T16:47:38.000Z</time>
      </trkpt>
      <trkpt lat="45.85506" lon="3.55112">
        <ele>359</ele>
        <time>2024-04-30T16:47:39.000Z</time>
      </trkpt>
      <trkpt lat="45.85504" lon="3.5511">
        <ele>358.60000610352</ele>
        <time>2024-04-30T16:47:40.000Z</time>
      </trkpt>
      <trkpt lat="45.85502" lon="3.55108">
        <ele>358.20001220703</ele>
        <time>2024-04-30T16:47:41.000Z</time>
      </trkpt>
      <trkpt lat="45.85501" lon="3.55106">
        <ele>357.60000610352</ele>
        <time>2024-04-30T16:47:42.000Z</time>
      </trkpt>
      <trkpt lat="45.855" lon="3.55106">
        <ele>357.39999389648</ele>
        <time>2024-04-30T16:47:43.000Z</time>
      </trkpt>
      <trkpt lat="45.85498" lon="3.55104">
        <ele>357</ele>
        <time>2024-04-30T16:47:44.000Z</time>
      </trkpt>
      <trkpt lat="45.85497" lon="3.551">
        <ele>356.60000610352</ele>
        <time>2024-04-30T16:47:45.000Z</time>
      </trkpt>
      <trkpt lat="45.85496" lon="3.55099">
        <ele>356</ele>
        <time>2024-04-30T16:47:46.000Z</time>
      </trkpt>
      <trkpt lat="45.85495" lon="3.551">
        <ele>355.60000610352</ele>
        <time>2024-04-30T16:47:47.000Z</time>
      </trkpt>
      <trkpt lat="45.85492" lon="3.551">
        <ele>355.20001220703</ele>
        <time>2024-04-30T16:47:48.000Z</time>
      </trkpt>
      <trkpt lat="45.85489" lon="3.55098">
        <ele>354.60000610352</ele>
        <time>2024-04-30T16:47:49.000Z</time>
      </trkpt>
      <trkpt lat="45.85488" lon="3.55095">
        <ele>354</ele>
        <time>2024-04-30T16:47:50.000Z</time>
      </trkpt>
      <trkpt lat="45.85486" lon="3.55094">
        <ele>353.60000610352</ele>
        <time>2024-04-30T16:47:51.000Z</time>
      </trkpt>
      <trkpt lat="45.85484" lon="3.55093">
        <ele>353.20001220703</ele>
        <time>2024-04-30T16:47:52.000Z</time>
      </trkpt>
      <trkpt lat="45.85483" lon="3.55092">
        <ele>352.79998779297</ele>
        <time>2024-04-30T16:47:53.000Z</time>
      </trkpt>
      <trkpt lat="45.85481" lon="3.55089">
        <ele>352.60000610352</ele>
        <time>2024-04-30T16:47:54.000Z</time>
      </trkpt>
      <trkpt lat="45.85479" lon="3.55087">
        <ele>352.20001220703</ele>
        <time>2024-04-30T16:47:55.000Z</time>
      </trkpt>
      <trkpt lat="45.85477" lon="3.55086">
        <ele>352.20001220703</ele>
        <time>2024-04-30T16:47:56.000Z</time>
      </trkpt>
      <trkpt lat="45.85474" lon="3.55085">
        <ele>352</ele>
        <time>2024-04-30T16:47:57.000Z</time>
      </trkpt>
      <trkpt lat="45.85472" lon="3.55082">
        <ele>352.20001220703</ele>
        <time>2024-04-30T16:47:58.000Z</time>
      </trkpt>
      <trkpt lat="45.85471" lon="3.55081">
        <ele>352.20001220703</ele>
        <time>2024-04-30T16:47:59.000Z</time>
      </trkpt>
      <trkpt lat="45.85469" lon="3.55079">
        <ele>352.20001220703</ele>
        <time>2024-04-30T16:48:00.000Z</time>
      </trkpt>
      <trkpt lat="45.85467" lon="3.55077">
        <ele>352.20001220703</ele>
        <time>2024-04-30T16:48:01.000Z</time>
      </trkpt>
      <trkpt lat="45.85466" lon="3.55075">
        <ele>352.39999389648</ele>
        <time>2024-04-30T16:48:02.000Z</time>
      </trkpt>
      <trkpt lat="45.85465" lon="3.55072">
        <ele>352.39999389648</ele>
        <time>2024-04-30T16:48:03.000Z</time>
      </trkpt>
      <trkpt lat="45.85463" lon="3.55068">
        <ele>352.39999389648</ele>
        <time>2024-04-30T16:48:04.000Z</time>
      </trkpt>
      <trkpt lat="45.85462" lon="3.55066">
        <ele>352.60000610352</ele>
        <time>2024-04-30T16:48:05.000Z</time>
      </trkpt>
      <trkpt lat="45.8546" lon="3.55064">
        <ele>352.60000610352</ele>
        <time>2024-04-30T16:48:06.000Z</time>
      </trkpt>
      <trkpt lat="45.85458" lon="3.55061">
        <ele>352.79998779297</ele>
        <time>2024-04-30T16:48:07.000Z</time>
      </trkpt>
      <trkpt lat="45.85457" lon="3.55059">
        <ele>352.79998779297</ele>
        <time>2024-04-30T16:48:08.000Z</time>
      </trkpt>
      <trkpt lat="45.85455" lon="3.55055">
        <ele>352.79998779297</ele>
        <time>2024-04-30T16:48:09.000Z</time>
      </trkpt>
      <trkpt lat="45.85454" lon="3.55052">
        <ele>352.79998779297</ele>
        <time>2024-04-30T16:48:10.000Z</time>
      </trkpt>
      <trkpt lat="45.85452" lon="3.55049">
        <ele>352.60000610352</ele>
        <time>2024-04-30T16:48:11.000Z</time>
      </trkpt>
      <trkpt lat="45.85451" lon="3.55046">
        <ele>352.60000610352</ele>
        <time>2024-04-30T16:48:12.000Z</time>
      </trkpt>
      <trkpt lat="45.85449" lon="3.55044">
        <ele>352.60000610352</ele>
        <time>2024-04-30T16:48:13.000Z</time>
      </trkpt>
      <trkpt lat="45.85448" lon="3.55042">
        <ele>352.60000610352</ele>
        <time>2024-04-30T16:48:14.000Z</time>
      </trkpt>
      <trkpt lat="45.85446" lon="3.55038">
        <ele>352.39999389648</ele>
        <time>2024-04-30T16:48:15.000Z</time>
      </trkpt>
      <trkpt lat="45.85444" lon="3.55035">
        <ele>352.79998779297</ele>
        <time>2024-04-30T16:48:16.000Z</time>
      </trkpt>
      <trkpt lat="45.85442" lon="3.55033">
        <ele>352.60000610352</ele>
        <time>2024-04-30T16:48:17.000Z</time>
      </trkpt>
      <trkpt lat="45.8544" lon="3.55032">
        <ele>352.39999389648</ele>
        <time>2024-04-30T16:48:18.000Z</time>
      </trkpt>
      <trkpt lat="45.85438" lon="3.55028">
        <ele>352.60000610352</ele>
        <time>2024-04-30T16:48:19.000Z</time>
      </trkpt>
      <trkpt lat="45.85436" lon="3.55025">
        <ele>352.60000610352</ele>
        <time>2024-04-30T16:48:20.000Z</time>
      </trkpt>
      <trkpt lat="45.85433" lon="3.55022">
        <ele>352.39999389648</ele>
        <time>2024-04-30T16:48:21.000Z</time>
      </trkpt>
      <trkpt lat="45.85431" lon="3.55021">
        <ele>352.60000610352</ele>
        <time>2024-04-30T16:48:22.000Z</time>
      </trkpt>
      <trkpt lat="45.85428" lon="3.5502">
        <ele>352.60000610352</ele>
        <time>2024-04-30T16:48:23.000Z</time>
      </trkpt>
      <trkpt lat="45.85426" lon="3.55019">
        <ele>352.60000610352</ele>
        <time>2024-04-30T16:48:24.000Z</time>
      </trkpt>
      <trkpt lat="45.85423" lon="3.55017">
        <ele>352.39999389648</ele>
        <time>2024-04-30T16:48:25.000Z</time>
      </trkpt>
      <trkpt lat="45.8542" lon="3.55016">
        <ele>352.39999389648</ele>
        <time>2024-04-30T16:48:26.000Z</time>
      </trkpt>
      <trkpt lat="45.85417" lon="3.55015">
        <ele>352</ele>
        <time>2024-04-30T16:48:27.000Z</time>
      </trkpt>
      <trkpt lat="45.85415" lon="3.55015">
        <ele>351.79998779297</ele>
        <time>2024-04-30T16:48:28.000Z</time>
      </trkpt>
      <trkpt lat="45.85413" lon="3.55013">
        <ele>351.20001220703</ele>
        <time>2024-04-30T16:48:29.000Z</time>
      </trkpt>
      <trkpt lat="45.85411" lon="3.55013">
        <ele>350.79998779297</ele>
        <time>2024-04-30T16:48:30.000Z</time>
      </trkpt>
      <trkpt lat="45.85408" lon="3.55012">
        <ele>350.20001220703</ele>
        <time>2024-04-30T16:48:31.000Z</time>
      </trkpt>
      <trkpt lat="45.85406" lon="3.55011">
        <ele>349.60000610352</ele>
        <time>2024-04-30T16:48:32.000Z</time>
      </trkpt>
      <trkpt lat="45.85404" lon="3.55012">
        <ele>349.20001220703</ele>
        <time>2024-04-30T16:48:33.000Z</time>
      </trkpt>
      <trkpt lat="45.85401" lon="3.55012">
        <ele>349</ele>
        <time>2024-04-30T16:48:34.000Z</time>
      </trkpt>
      <trkpt lat="45.85399" lon="3.55013">
        <ele>349</ele>
        <time>2024-04-30T16:48:35.000Z</time>
      </trkpt>
      <trkpt lat="45.85396" lon="3.55013">
        <ele>349</ele>
        <time>2024-04-30T16:48:36.000Z</time>
      </trkpt>
      <trkpt lat="45.85394" lon="3.55013">
        <ele>349.20001220703</ele>
        <time>2024-04-30T16:48:37.000Z</time>
      </trkpt>
      <trkpt lat="45.85392" lon="3.55015">
        <ele>349.39999389648</ele>
        <time>2024-04-30T16:48:38.000Z</time>
      </trkpt>
      <trkpt lat="45.8539" lon="3.55015">
        <ele>349.39999389648</ele>
        <time>2024-04-30T16:48:39.000Z</time>
      </trkpt>
      <trkpt lat="45.85387" lon="3.55017">
        <ele>349.39999389648</ele>
        <time>2024-04-30T16:48:40.000Z</time>
      </trkpt>
      <trkpt lat="45.85385" lon="3.55018">
        <ele>349.60000610352</ele>
        <time>2024-04-30T16:48:41.000Z</time>
      </trkpt>
      <trkpt lat="45.85383" lon="3.55019">
        <ele>349.79998779297</ele>
        <time>2024-04-30T16:48:42.000Z</time>
      </trkpt>
      <trkpt lat="45.85381" lon="3.5502">
        <ele>349.60000610352</ele>
        <time>2024-04-30T16:48:43.000Z</time>
      </trkpt>
      <trkpt lat="45.85377" lon="3.55019">
        <ele>349.60000610352</ele>
        <time>2024-04-30T16:48:44.000Z</time>
      </trkpt>
      <trkpt lat="45.85375" lon="3.55018">
        <ele>349.79998779297</ele>
        <time>2024-04-30T16:48:45.000Z</time>
      </trkpt>
      <trkpt lat="45.85373" lon="3.55017">
        <ele>350</ele>
        <time>2024-04-30T16:48:46.000Z</time>
      </trkpt>
      <trkpt lat="45.85371" lon="3.55016">
        <ele>349.60000610352</ele>
        <time>2024-04-30T16:48:47.000Z</time>
      </trkpt>
      <trkpt lat="45.85369" lon="3.55015">
        <ele>349.79998779297</ele>
        <time>2024-04-30T16:48:48.000Z</time>
      </trkpt>
      <trkpt lat="45.85367" lon="3.55016">
        <ele>350</ele>
        <time>2024-04-30T16:48:49.000Z</time>
      </trkpt>
      <trkpt lat="45.85366" lon="3.55016">
        <ele>350.20001220703</ele>
        <time>2024-04-30T16:48:50.000Z</time>
      </trkpt>
      <trkpt lat="45.85362" lon="3.55015">
        <ele>350.20001220703</ele>
        <time>2024-04-30T16:48:51.000Z</time>
      </trkpt>
      <trkpt lat="45.8536" lon="3.55014">
        <ele>350.60000610352</ele>
        <time>2024-04-30T16:48:52.000Z</time>
      </trkpt>
      <trkpt lat="45.85359" lon="3.55015">
        <ele>350.79998779297</ele>
        <time>2024-04-30T16:48:53.000Z</time>
      </trkpt>
      <trkpt lat="45.85354" lon="3.55013">
        <ele>350.79998779297</ele>
        <time>2024-04-30T16:48:54.000Z</time>
      </trkpt>
      <trkpt lat="45.85351" lon="3.55013">
        <ele>351</ele>
        <time>2024-04-30T16:48:55.000Z</time>
      </trkpt>
      <trkpt lat="45.8535" lon="3.55015">
        <ele>351</ele>
        <time>2024-04-30T16:48:56.000Z</time>
      </trkpt>
      <trkpt lat="45.85346" lon="3.55014">
        <ele>351</ele>
        <time>2024-04-30T16:48:57.000Z</time>
      </trkpt>
      <trkpt lat="45.85344" lon="3.55015">
        <ele>350.79998779297</ele>
        <time>2024-04-30T16:48:58.000Z</time>
      </trkpt>
      <trkpt lat="45.85341" lon="3.55016">
        <ele>351</ele>
        <time>2024-04-30T16:48:59.000Z</time>
      </trkpt>
      <trkpt lat="45.85338" lon="3.55016">
        <ele>350.79998779297</ele>
        <time>2024-04-30T16:49:00.000Z</time>
      </trkpt>
      <trkpt lat="45.85335" lon="3.55017">
        <ele>350.60000610352</ele>
        <time>2024-04-30T16:49:01.000Z</time>
      </trkpt>
      <trkpt lat="45.85333" lon="3.55018">
        <ele>350.60000610352</ele>
        <time>2024-04-30T16:49:02.000Z</time>
      </trkpt>
      <trkpt lat="45.85329" lon="3.55019">
        <ele>350.60000610352</ele>
        <time>2024-04-30T16:49:03.000Z</time>
      </trkpt>
      <trkpt lat="45.85326" lon="3.55018">
        <ele>350.20001220703</ele>
        <time>2024-04-30T16:49:04.000Z</time>
      </trkpt>
      <trkpt lat="45.85323" lon="3.55019">
        <ele>350.20001220703</ele>
        <time>2024-04-30T16:49:05.000Z</time>
      </trkpt>
      <trkpt lat="45.8532" lon="3.55019">
        <ele>350</ele>
        <time>2024-04-30T16:49:06.000Z</time>
      </trkpt>
      <trkpt lat="45.85317" lon="3.5502">
        <ele>349.60000610352</ele>
        <time>2024-04-30T16:49:07.000Z</time>
      </trkpt>
      <trkpt lat="45.85315" lon="3.55021">
        <ele>349.60000610352</ele>
        <time>2024-04-30T16:49:08.000Z</time>
      </trkpt>
      <trkpt lat="45.85312" lon="3.55021">
        <ele>349.60000610352</ele>
        <time>2024-04-30T16:49:09.000Z</time>
      </trkpt>
      <trkpt lat="45.85309" lon="3.55021">
        <ele>349.20001220703</ele>
        <time>2024-04-30T16:49:10.000Z</time>
      </trkpt>
      <trkpt lat="45.85306" lon="3.55021">
        <ele>349</ele>
        <time>2024-04-30T16:49:11.000Z</time>
      </trkpt>
      <trkpt lat="45.85304" lon="3.5502">
        <ele>348.79998779297</ele>
        <time>2024-04-30T16:49:12.000Z</time>
      </trkpt>
      <trkpt lat="45.85302" lon="3.5502">
        <ele>348.60000610352</ele>
        <time>2024-04-30T16:49:13.000Z</time>
      </trkpt>
      <trkpt lat="45.85299" lon="3.5502">
        <ele>348.39999389648</ele>
        <time>2024-04-30T16:49:14.000Z</time>
      </trkpt>
      <trkpt lat="45.85296" lon="3.55021">
        <ele>348.20001220703</ele>
        <time>2024-04-30T16:49:15.000Z</time>
      </trkpt>
      <trkpt lat="45.85293" lon="3.5502">
        <ele>348.20001220703</ele>
        <time>2024-04-30T16:49:16.000Z</time>
      </trkpt>
      <trkpt lat="45.8529" lon="3.55019">
        <ele>348</ele>
        <time>2024-04-30T16:49:17.000Z</time>
      </trkpt>
      <trkpt lat="45.85287" lon="3.55019">
        <ele>347.79998779297</ele>
        <time>2024-04-30T16:49:18.000Z</time>
      </trkpt>
      <trkpt lat="45.85285" lon="3.55018">
        <ele>348</ele>
        <time>2024-04-30T16:49:19.000Z</time>
      </trkpt>
      <trkpt lat="45.85282" lon="3.55018">
        <ele>347.79998779297</ele>
        <time>2024-04-30T16:49:20.000Z</time>
      </trkpt>
      <trkpt lat="45.8528" lon="3.55017">
        <ele>347.39999389648</ele>
        <time>2024-04-30T16:49:21.000Z</time>
      </trkpt>
      <trkpt lat="45.85278" lon="3.55017">
        <ele>347.39999389648</ele>
        <time>2024-04-30T16:49:22.000Z</time>
      </trkpt>
      <trkpt lat="45.85276" lon="3.55017">
        <ele>347.39999389648</ele>
        <time>2024-04-30T16:49:23.000Z</time>
      </trkpt>
      <trkpt lat="45.85274" lon="3.55016">
        <ele>347.20001220703</ele>
        <time>2024-04-30T16:49:24.000Z</time>
      </trkpt>
      <trkpt lat="45.85272" lon="3.55016">
        <ele>347.20001220703</ele>
        <time>2024-04-30T16:49:25.000Z</time>
      </trkpt>
      <trkpt lat="45.8527" lon="3.55016">
        <ele>347</ele>
        <time>2024-04-30T16:49:26.000Z</time>
      </trkpt>
      <trkpt lat="45.85266" lon="3.55014">
        <ele>346.79998779297</ele>
        <time>2024-04-30T16:49:27.000Z</time>
      </trkpt>
      <trkpt lat="45.85263" lon="3.55014">
        <ele>346.60000610352</ele>
        <time>2024-04-30T16:49:28.000Z</time>
      </trkpt>
      <trkpt lat="45.85261" lon="3.55012">
        <ele>346.39999389648</ele>
        <time>2024-04-30T16:49:29.000Z</time>
      </trkpt>
      <trkpt lat="45.85258" lon="3.5501">
        <ele>346.20001220703</ele>
        <time>2024-04-30T16:49:30.000Z</time>
      </trkpt>
      <trkpt lat="45.85255" lon="3.55008">
        <ele>346.39999389648</ele>
        <time>2024-04-30T16:49:31.000Z</time>
      </trkpt>
      <trkpt lat="45.85253" lon="3.55007">
        <ele>346.20001220703</ele>
        <time>2024-04-30T16:49:32.000Z</time>
      </trkpt>
      <trkpt lat="45.85251" lon="3.55007">
        <ele>346.20001220703</ele>
        <time>2024-04-30T16:49:33.000Z</time>
      </trkpt>
      <trkpt lat="45.85247" lon="3.55006">
        <ele>346.39999389648</ele>
        <time>2024-04-30T16:49:34.000Z</time>
      </trkpt>
      <trkpt lat="45.85245" lon="3.55006">
        <ele>346.39999389648</ele>
        <time>2024-04-30T16:49:35.000Z</time>
      </trkpt>
      <trkpt lat="45.85242" lon="3.55005">
        <ele>346.20001220703</ele>
        <time>2024-04-30T16:49:36.000Z</time>
      </trkpt>
      <trkpt lat="45.85241" lon="3.55004">
        <ele>346.39999389648</ele>
        <time>2024-04-30T16:49:37.000Z</time>
      </trkpt>
      <trkpt lat="45.85241" lon="3.55003">
        <ele>346.39999389648</ele>
        <time>2024-04-30T16:49:38.000Z</time>
      </trkpt>
      <trkpt lat="45.85237" lon="3.55002">
        <ele>346.20001220703</ele>
        <time>2024-04-30T16:49:39.000Z</time>
      </trkpt>
      <trkpt lat="45.85234" lon="3.55001">
        <ele>346.20001220703</ele>
        <time>2024-04-30T16:49:40.000Z</time>
      </trkpt>
      <trkpt lat="45.85232" lon="3.55">
        <ele>346.20001220703</ele>
        <time>2024-04-30T16:49:41.000Z</time>
      </trkpt>
      <trkpt lat="45.85229" lon="3.54999">
        <ele>346</ele>
        <time>2024-04-30T16:49:42.000Z</time>
      </trkpt>
      <trkpt lat="45.85228" lon="3.54998">
        <ele>346.20001220703</ele>
        <time>2024-04-30T16:49:43.000Z</time>
      </trkpt>
      <trkpt lat="45.85225" lon="3.54997">
        <ele>346</ele>
        <time>2024-04-30T16:49:44.000Z</time>
      </trkpt>
      <trkpt lat="45.85221" lon="3.54995">
        <ele>345.79998779297</ele>
        <time>2024-04-30T16:49:45.000Z</time>
      </trkpt>
      <trkpt lat="45.85218" lon="3.54995">
        <ele>345.60000610352</ele>
        <time>2024-04-30T16:49:46.000Z</time>
      </trkpt>
      <trkpt lat="45.85215" lon="3.54995">
        <ele>345.60000610352</ele>
        <time>2024-04-30T16:49:47.000Z</time>
      </trkpt>
      <trkpt lat="45.85213" lon="3.54995">
        <ele>345.39999389648</ele>
        <time>2024-04-30T16:49:48.000Z</time>
      </trkpt>
      <trkpt lat="45.8521" lon="3.54995">
        <ele>345.20001220703</ele>
        <time>2024-04-30T16:49:49.000Z</time>
      </trkpt>
      <trkpt lat="45.85208" lon="3.54995">
        <ele>345.39999389648</ele>
        <time>2024-04-30T16:49:50.000Z</time>
      </trkpt>
      <trkpt lat="45.85205" lon="3.54995">
        <ele>345.20001220703</ele>
        <time>2024-04-30T16:49:51.000Z</time>
      </trkpt>
      <trkpt lat="45.85203" lon="3.54994">
        <ele>345.20001220703</ele>
        <time>2024-04-30T16:49:52.000Z</time>
      </trkpt>
      <trkpt lat="45.85201" lon="3.54993">
        <ele>345.20001220703</ele>
        <time>2024-04-30T16:49:53.000Z</time>
      </trkpt>
      <trkpt lat="45.85199" lon="3.54991">
        <ele>345</ele>
        <time>2024-04-30T16:49:54.000Z</time>
      </trkpt>
      <trkpt lat="45.85197" lon="3.54991">
        <ele>345.20001220703</ele>
        <time>2024-04-30T16:49:55.000Z</time>
      </trkpt>
      <trkpt lat="45.85196" lon="3.54991">
        <ele>345.20001220703</ele>
        <time>2024-04-30T16:49:56.000Z</time>
      </trkpt>
      <trkpt lat="45.85193" lon="3.54991">
        <ele>345</ele>
        <time>2024-04-30T16:49:57.000Z</time>
      </trkpt>
      <trkpt lat="45.85191" lon="3.5499">
        <ele>345.20001220703</ele>
        <time>2024-04-30T16:49:58.000Z</time>
      </trkpt>
      <trkpt lat="45.85189" lon="3.54991">
        <ele>345.20001220703</ele>
        <time>2024-04-30T16:49:59.000Z</time>
      </trkpt>
      <trkpt lat="45.85188" lon="3.54991">
        <ele>345</ele>
        <time>2024-04-30T16:50:00.000Z</time>
      </trkpt>
      <trkpt lat="45.85186" lon="3.5499">
        <ele>345</ele>
        <time>2024-04-30T16:50:01.000Z</time>
      </trkpt>
      <trkpt lat="45.85185" lon="3.5499">
        <ele>345.39999389648</ele>
        <time>2024-04-30T16:50:02.000Z</time>
      </trkpt>
      <trkpt lat="45.85185" lon="3.54991">
        <ele>345.20001220703</ele>
        <time>2024-04-30T16:50:03.000Z</time>
      </trkpt>
      <trkpt lat="45.85183" lon="3.54991">
        <ele>345.20001220703</ele>
        <time>2024-04-30T16:50:04.000Z</time>
      </trkpt>
      <trkpt lat="45.85182" lon="3.54992">
        <ele>345.39999389648</ele>
        <time>2024-04-30T16:50:05.000Z</time>
      </trkpt>
      <trkpt lat="45.85179" lon="3.54992">
        <ele>345.79998779297</ele>
        <time>2024-04-30T16:50:06.000Z</time>
      </trkpt>
      <trkpt lat="45.85177" lon="3.54993">
        <ele>346</ele>
        <time>2024-04-30T16:50:07.000Z</time>
      </trkpt>
      <trkpt lat="45.85176" lon="3.54993">
        <ele>346.20001220703</ele>
        <time>2024-04-30T16:50:08.000Z</time>
      </trkpt>
      <trkpt lat="45.85174" lon="3.54991">
        <ele>346.39999389648</ele>
        <time>2024-04-30T16:50:09.000Z</time>
      </trkpt>
      <trkpt lat="45.85172" lon="3.54992">
        <ele>346.79998779297</ele>
        <time>2024-04-30T16:50:10.000Z</time>
      </trkpt>
      <trkpt lat="45.8517" lon="3.54994">
        <ele>347</ele>
        <time>2024-04-30T16:50:11.000Z</time>
      </trkpt>
      <trkpt lat="45.85168" lon="3.54997">
        <ele>347.39999389648</ele>
        <time>2024-04-30T16:50:12.000Z</time>
      </trkpt>
      <trkpt lat="45.85167" lon="3.55">
        <ele>347.60000610352</ele>
        <time>2024-04-30T16:50:13.000Z</time>
      </trkpt>
      <trkpt lat="45.85165" lon="3.55002">
        <ele>348</ele>
        <time>2024-04-30T16:50:14.000Z</time>
      </trkpt>
      <trkpt lat="45.85164" lon="3.55004">
        <ele>348.20001220703</ele>
        <time>2024-04-30T16:50:15.000Z</time>
      </trkpt>
      <trkpt lat="45.85163" lon="3.55005">
        <ele>348.39999389648</ele>
        <time>2024-04-30T16:50:16.000Z</time>
      </trkpt>
      <trkpt lat="45.85161" lon="3.55007">
        <ele>348.60000610352</ele>
        <time>2024-04-30T16:50:17.000Z</time>
      </trkpt>
      <trkpt lat="45.85159" lon="3.55007">
        <ele>348.79998779297</ele>
        <time>2024-04-30T16:50:18.000Z</time>
      </trkpt>
      <trkpt lat="45.85159" lon="3.55007">
        <ele>349</ele>
        <time>2024-04-30T16:50:19.000Z</time>
      </trkpt>
      <trkpt lat="45.85157" lon="3.55007">
        <ele>349.20001220703</ele>
        <time>2024-04-30T16:50:20.000Z</time>
      </trkpt>
      <trkpt lat="45.85158" lon="3.55007">
        <ele>349.39999389648</ele>
        <time>2024-04-30T16:50:21.000Z</time>
      </trkpt>
      <trkpt lat="45.85156" lon="3.55007">
        <ele>349.60000610352</ele>
        <time>2024-04-30T16:50:22.000Z</time>
      </trkpt>
      <trkpt lat="45.85156" lon="3.55007">
        <ele>350</ele>
        <time>2024-04-30T16:50:23.000Z</time>
      </trkpt>
      <trkpt lat="45.85155" lon="3.55006">
        <ele>350.39999389648</ele>
        <time>2024-04-30T16:50:24.000Z</time>
      </trkpt>
      <trkpt lat="45.85155" lon="3.55005">
        <ele>350.79998779297</ele>
        <time>2024-04-30T16:50:25.000Z</time>
      </trkpt>
      <trkpt lat="45.85155" lon="3.55004">
        <ele>351.20001220703</ele>
        <time>2024-04-30T16:50:26.000Z</time>
      </trkpt>
      <trkpt lat="45.85156" lon="3.55004">
        <ele>351.39999389648</ele>
        <time>2024-04-30T16:50:27.000Z</time>
      </trkpt>
      <trkpt lat="45.85156" lon="3.55002">
        <ele>351.79998779297</ele>
        <time>2024-04-30T16:50:28.000Z</time>
      </trkpt>
      <trkpt lat="45.85156" lon="3.55">
        <ele>352.20001220703</ele>
        <time>2024-04-30T16:50:29.000Z</time>
      </trkpt>
      <trkpt lat="45.85156" lon="3.54998">
        <ele>352.60000610352</ele>
        <time>2024-04-30T16:50:30.000Z</time>
      </trkpt>
      <trkpt lat="45.85156" lon="3.54997">
        <ele>352.79998779297</ele>
        <time>2024-04-30T16:50:31.000Z</time>
      </trkpt>
      <trkpt lat="45.85156" lon="3.54996">
        <ele>353</ele>
        <time>2024-04-30T16:50:32.000Z</time>
      </trkpt>
      <trkpt lat="45.85156" lon="3.54995">
        <ele>353.39999389648</ele>
        <time>2024-04-30T16:50:33.000Z</time>
      </trkpt>
      <trkpt lat="45.85157" lon="3.54993">
        <ele>353.79998779297</ele>
        <time>2024-04-30T16:50:34.000Z</time>
      </trkpt>
      <trkpt lat="45.85157" lon="3.54992">
        <ele>354</ele>
        <time>2024-04-30T16:50:35.000Z</time>
      </trkpt>
      <trkpt lat="45.85157" lon="3.54992">
        <ele>354.39999389648</ele>
        <time>2024-04-30T16:50:36.000Z</time>
      </trkpt>
      <trkpt lat="45.85158" lon="3.5499">
        <ele>354.60000610352</ele>
        <time>2024-04-30T16:50:37.000Z</time>
      </trkpt>
      <trkpt lat="45.85158" lon="3.54989">
        <ele>354.79998779297</ele>
        <time>2024-04-30T16:50:38.000Z</time>
      </trkpt>
      <trkpt lat="45.85159" lon="3.54987">
        <ele>355</ele>
        <time>2024-04-30T16:50:39.000Z</time>
      </trkpt>
      <trkpt lat="45.85159" lon="3.54986">
        <ele>355.20001220703</ele>
        <time>2024-04-30T16:50:40.000Z</time>
      </trkpt>
      <trkpt lat="45.85161" lon="3.54984">
        <ele>355.39999389648</ele>
        <time>2024-04-30T16:50:41.000Z</time>
      </trkpt>
      <trkpt lat="45.85161" lon="3.54983">
        <ele>355.60000610352</ele>
        <time>2024-04-30T16:50:42.000Z</time>
      </trkpt>
      <trkpt lat="45.85161" lon="3.54982">
        <ele>355.79998779297</ele>
        <time>2024-04-30T16:50:43.000Z</time>
      </trkpt>
      <trkpt lat="45.85162" lon="3.54981">
        <ele>356</ele>
        <time>2024-04-30T16:50:44.000Z</time>
      </trkpt>
      <trkpt lat="45.85163" lon="3.5498">
        <ele>356</ele>
        <time>2024-04-30T16:50:45.000Z</time>
      </trkpt>
      <trkpt lat="45.85163" lon="3.54978">
        <ele>356.20001220703</ele>
        <time>2024-04-30T16:50:46.000Z</time>
      </trkpt>
      <trkpt lat="45.85164" lon="3.54976">
        <ele>356.39999389648</ele>
        <time>2024-04-30T16:50:47.000Z</time>
      </trkpt>
      <trkpt lat="45.85165" lon="3.54974">
        <ele>356.60000610352</ele>
        <time>2024-04-30T16:50:48.000Z</time>
      </trkpt>
      <trkpt lat="45.85165" lon="3.54973">
        <ele>357</ele>
        <time>2024-04-30T16:50:49.000Z</time>
      </trkpt>
      <trkpt lat="45.85166" lon="3.54972">
        <ele>357.39999389648</ele>
        <time>2024-04-30T16:50:50.000Z</time>
      </trkpt>
      <trkpt lat="45.85166" lon="3.54971">
        <ele>357.60000610352</ele>
        <time>2024-04-30T16:50:51.000Z</time>
      </trkpt>
      <trkpt lat="45.85167" lon="3.54969">
        <ele>357.79998779297</ele>
        <time>2024-04-30T16:50:52.000Z</time>
      </trkpt>
      <trkpt lat="45.85166" lon="3.54967">
        <ele>358</ele>
        <time>2024-04-30T16:50:53.000Z</time>
      </trkpt>
      <trkpt lat="45.85166" lon="3.54966">
        <ele>358.39999389648</ele>
        <time>2024-04-30T16:50:54.000Z</time>
      </trkpt>
      <trkpt lat="45.85167" lon="3.54964">
        <ele>358.60000610352</ele>
        <time>2024-04-30T16:50:55.000Z</time>
      </trkpt>
      <trkpt lat="45.85168" lon="3.54963">
        <ele>358.79998779297</ele>
        <time>2024-04-30T16:50:56.000Z</time>
      </trkpt>
      <trkpt lat="45.85169" lon="3.54962">
        <ele>359.20001220703</ele>
        <time>2024-04-30T16:50:57.000Z</time>
      </trkpt>
      <trkpt lat="45.85169" lon="3.54961">
        <ele>359.39999389648</ele>
        <time>2024-04-30T16:50:58.000Z</time>
      </trkpt>
      <trkpt lat="45.85169" lon="3.5496">
        <ele>359.79998779297</ele>
        <time>2024-04-30T16:50:59.000Z</time>
      </trkpt>
      <trkpt lat="45.8517" lon="3.54959">
        <ele>360</ele>
        <time>2024-04-30T16:51:00.000Z</time>
      </trkpt>
      <trkpt lat="45.85171" lon="3.54958">
        <ele>360.20001220703</ele>
        <time>2024-04-30T16:51:01.000Z</time>
      </trkpt>
      <trkpt lat="45.85172" lon="3.54957">
        <ele>360.39999389648</ele>
        <time>2024-04-30T16:51:02.000Z</time>
      </trkpt>
      <trkpt lat="45.85172" lon="3.54956">
        <ele>360.60000610352</ele>
        <time>2024-04-30T16:51:03.000Z</time>
      </trkpt>
      <trkpt lat="45.85173" lon="3.54956">
        <ele>360.79998779297</ele>
        <time>2024-04-30T16:51:04.000Z</time>
      </trkpt>
      <trkpt lat="45.85174" lon="3.54955">
        <ele>361</ele>
        <time>2024-04-30T16:51:05.000Z</time>
      </trkpt>
      <trkpt lat="45.85175" lon="3.54954">
        <ele>361.20001220703</ele>
        <time>2024-04-30T16:51:06.000Z</time>
      </trkpt>
      <trkpt lat="45.85175" lon="3.54953">
        <ele>361.60000610352</ele>
        <time>2024-04-30T16:51:07.000Z</time>
      </trkpt>
      <trkpt lat="45.85175" lon="3.54954">
        <ele>361.79998779297</ele>
        <time>2024-04-30T16:51:08.000Z</time>
      </trkpt>
      <trkpt lat="45.85177" lon="3.54953">
        <ele>362.20001220703</ele>
        <time>2024-04-30T16:51:09.000Z</time>
      </trkpt>
      <trkpt lat="45.85176" lon="3.54953">
        <ele>362.39999389648</ele>
        <time>2024-04-30T16:51:10.000Z</time>
      </trkpt>
      <trkpt lat="45.85177" lon="3.54952">
        <ele>362.79998779297</ele>
        <time>2024-04-30T16:51:11.000Z</time>
      </trkpt>
      <trkpt lat="45.85178" lon="3.54952">
        <ele>363</ele>
        <time>2024-04-30T16:51:12.000Z</time>
      </trkpt>
      <trkpt lat="45.85177" lon="3.54951">
        <ele>363.20001220703</ele>
        <time>2024-04-30T16:51:13.000Z</time>
      </trkpt>
      <trkpt lat="45.85177" lon="3.5495">
        <ele>363.60000610352</ele>
        <time>2024-04-30T16:51:14.000Z</time>
      </trkpt>
      <trkpt lat="45.85177" lon="3.54951">
        <ele>363.79998779297</ele>
        <time>2024-04-30T16:51:15.000Z</time>
      </trkpt>
      <trkpt lat="45.85177" lon="3.54949">
        <ele>364.20001220703</ele>
        <time>2024-04-30T16:51:16.000Z</time>
      </trkpt>
      <trkpt lat="45.85177" lon="3.54948">
        <ele>364.60000610352</ele>
        <time>2024-04-30T16:51:17.000Z</time>
      </trkpt>
      <trkpt lat="45.85178" lon="3.54947">
        <ele>365</ele>
        <time>2024-04-30T16:51:18.000Z</time>
      </trkpt>
      <trkpt lat="45.85179" lon="3.54946">
        <ele>365.20001220703</ele>
        <time>2024-04-30T16:51:19.000Z</time>
      </trkpt>
      <trkpt lat="45.85179" lon="3.54945">
        <ele>365.60000610352</ele>
        <time>2024-04-30T16:51:20.000Z</time>
      </trkpt>
      <trkpt lat="45.85179" lon="3.54945">
        <ele>365.60000610352</ele>
        <time>2024-04-30T16:51:21.000Z</time>
      </trkpt>
      <trkpt lat="45.8518" lon="3.54946">
        <ele>366</ele>
        <time>2024-04-30T16:51:23.000Z</time>
      </trkpt>
      <trkpt lat="45.85179" lon="3.54947">
        <ele>366</ele>
        <time>2024-04-30T16:51:24.000Z</time>
      </trkpt>
      <trkpt lat="45.85178" lon="3.54947">
        <ele>366.39999389648</ele>
        <time>2024-04-30T16:51:25.000Z</time>
      </trkpt>
      <trkpt lat="45.85178" lon="3.54946">
        <ele>366.39999389648</ele>
        <time>2024-04-30T16:51:26.000Z</time>
      </trkpt>
      <trkpt lat="45.85176" lon="3.54947">
        <ele>366.60000610352</ele>
        <time>2024-04-30T16:51:27.000Z</time>
      </trkpt>
      <trkpt lat="45.85176" lon="3.54948">
        <ele>366.79998779297</ele>
        <time>2024-04-30T16:51:28.000Z</time>
      </trkpt>
      <trkpt lat="45.85175" lon="3.54948">
        <ele>367</ele>
        <time>2024-04-30T16:51:29.000Z</time>
      </trkpt>
      <trkpt lat="45.85174" lon="3.54947">
        <ele>367.20001220703</ele>
        <time>2024-04-30T16:51:30.000Z</time>
      </trkpt>
      <trkpt lat="45.85174" lon="3.54948">
        <ele>367.60000610352</ele>
        <time>2024-04-30T16:51:31.000Z</time>
      </trkpt>
      <trkpt lat="45.85171" lon="3.54948">
        <ele>368</ele>
        <time>2024-04-30T16:51:32.000Z</time>
      </trkpt>
      <trkpt lat="45.85169" lon="3.5495">
        <ele>368.20001220703</ele>
        <time>2024-04-30T16:51:33.000Z</time>
      </trkpt>
      <trkpt lat="45.85166" lon="3.54951">
        <ele>368.60000610352</ele>
        <time>2024-04-30T16:51:34.000Z</time>
      </trkpt>
      <trkpt lat="45.85165" lon="3.54953">
        <ele>368.79998779297</ele>
        <time>2024-04-30T16:51:35.000Z</time>
      </trkpt>
      <trkpt lat="45.85163" lon="3.54954">
        <ele>369</ele>
        <time>2024-04-30T16:51:36.000Z</time>
      </trkpt>
      <trkpt lat="45.85162" lon="3.54956">
        <ele>369</ele>
        <time>2024-04-30T16:51:37.000Z</time>
      </trkpt>
      <trkpt lat="45.85161" lon="3.54958">
        <ele>369.20001220703</ele>
        <time>2024-04-30T16:51:38.000Z</time>
      </trkpt>
      <trkpt lat="45.85158" lon="3.54959">
        <ele>369.20001220703</ele>
        <time>2024-04-30T16:51:39.000Z</time>
      </trkpt>
      <trkpt lat="45.85156" lon="3.54962">
        <ele>369.20001220703</ele>
        <time>2024-04-30T16:51:40.000Z</time>
      </trkpt>
      <trkpt lat="45.85155" lon="3.54965">
        <ele>369.20001220703</ele>
        <time>2024-04-30T16:51:41.000Z</time>
      </trkpt>
      <trkpt lat="45.85152" lon="3.54969">
        <ele>369.20001220703</ele>
        <time>2024-04-30T16:51:42.000Z</time>
      </trkpt>
      <trkpt lat="45.85151" lon="3.54972">
        <ele>369.20001220703</ele>
        <time>2024-04-30T16:51:43.000Z</time>
      </trkpt>
      <trkpt lat="45.8515" lon="3.54976">
        <ele>369.20001220703</ele>
        <time>2024-04-30T16:51:44.000Z</time>
      </trkpt>
      <trkpt lat="45.85149" lon="3.54979">
        <ele>369</ele>
        <time>2024-04-30T16:51:45.000Z</time>
      </trkpt>
      <trkpt lat="45.85149" lon="3.54982">
        <ele>369</ele>
        <time>2024-04-30T16:51:46.000Z</time>
      </trkpt>
      <trkpt lat="45.85147" lon="3.54984">
        <ele>368.79998779297</ele>
        <time>2024-04-30T16:51:47.000Z</time>
      </trkpt>
      <trkpt lat="45.85146" lon="3.54987">
        <ele>368.60000610352</ele>
        <time>2024-04-30T16:51:48.000Z</time>
      </trkpt>
      <trkpt lat="45.85145" lon="3.54991">
        <ele>368.20001220703</ele>
        <time>2024-04-30T16:51:49.000Z</time>
      </trkpt>
      <trkpt lat="45.85145" lon="3.54995">
        <ele>368.20001220703</ele>
        <time>2024-04-30T16:51:50.000Z</time>
      </trkpt>
      <trkpt lat="45.85144" lon="3.54996">
        <ele>368</ele>
        <time>2024-04-30T16:51:51.000Z</time>
      </trkpt>
      <trkpt lat="45.85142" lon="3.54998">
        <ele>368</ele>
        <time>2024-04-30T16:51:52.000Z</time>
      </trkpt>
      <trkpt lat="45.85139" lon="3.54996">
        <ele>368</ele>
        <time>2024-04-30T16:51:53.000Z</time>
      </trkpt>
      <trkpt lat="45.85135" lon="3.54994">
        <ele>368.20001220703</ele>
        <time>2024-04-30T16:51:54.000Z</time>
      </trkpt>
      <trkpt lat="45.85132" lon="3.54993">
        <ele>368.20001220703</ele>
        <time>2024-04-30T16:51:55.000Z</time>
      </trkpt>
      <trkpt lat="45.85129" lon="3.54991">
        <ele>368.20001220703</ele>
        <time>2024-04-30T16:51:56.000Z</time>
      </trkpt>
      <trkpt lat="45.85127" lon="3.54989">
        <ele>368.39999389648</ele>
        <time>2024-04-30T16:51:57.000Z</time>
      </trkpt>
      <trkpt lat="45.85125" lon="3.54987">
        <ele>368.39999389648</ele>
        <time>2024-04-30T16:51:58.000Z</time>
      </trkpt>
      <trkpt lat="45.85127" lon="3.54985">
        <ele>368.60000610352</ele>
        <time>2024-04-30T16:51:59.000Z</time>
      </trkpt>
      <trkpt lat="45.85128" lon="3.54983">
        <ele>368.60000610352</ele>
        <time>2024-04-30T16:52:00.000Z</time>
      </trkpt>
      <trkpt lat="45.85129" lon="3.54981">
        <ele>368.60000610352</ele>
        <time>2024-04-30T16:52:01.000Z</time>
      </trkpt>
      <trkpt lat="45.8513" lon="3.54979">
        <ele>368.79998779297</ele>
        <time>2024-04-30T16:52:02.000Z</time>
      </trkpt>
      <trkpt lat="45.8513" lon="3.54976">
        <ele>369</ele>
        <time>2024-04-30T16:52:03.000Z</time>
      </trkpt>
      <trkpt lat="45.85131" lon="3.54974">
        <ele>369</ele>
        <time>2024-04-30T16:52:04.000Z</time>
      </trkpt>
      <trkpt lat="45.85133" lon="3.54971">
        <ele>369.20001220703</ele>
        <time>2024-04-30T16:52:05.000Z</time>
      </trkpt>
      <trkpt lat="45.85134" lon="3.54968">
        <ele>369.39999389648</ele>
        <time>2024-04-30T16:52:06.000Z</time>
      </trkpt>
      <trkpt lat="45.85134" lon="3.54964">
        <ele>370</ele>
        <time>2024-04-30T16:52:07.000Z</time>
      </trkpt>
      <trkpt lat="45.85135" lon="3.54962">
        <ele>370.39999389648</ele>
        <time>2024-04-30T16:52:08.000Z</time>
      </trkpt>
      <trkpt lat="45.85134" lon="3.54957">
        <ele>371</ele>
        <time>2024-04-30T16:52:09.000Z</time>
      </trkpt>
      <trkpt lat="45.85134" lon="3.54954">
        <ele>371.39999389648</ele>
        <time>2024-04-30T16:52:10.000Z</time>
      </trkpt>
      <trkpt lat="45.85134" lon="3.54951">
        <ele>371.79998779297</ele>
        <time>2024-04-30T16:52:11.000Z</time>
      </trkpt>
      <trkpt lat="45.85134" lon="3.54948">
        <ele>372.20001220703</ele>
        <time>2024-04-30T16:52:12.000Z</time>
      </trkpt>
      <trkpt lat="45.85135" lon="3.54945">
        <ele>372.20001220703</ele>
        <time>2024-04-30T16:52:13.000Z</time>
      </trkpt>
      <trkpt lat="45.85135" lon="3.54941">
        <ele>372.39999389648</ele>
        <time>2024-04-30T16:52:14.000Z</time>
      </trkpt>
      <trkpt lat="45.85137" lon="3.54939">
        <ele>372.60000610352</ele>
        <time>2024-04-30T16:52:15.000Z</time>
      </trkpt>
      <trkpt lat="45.85135" lon="3.54934">
        <ele>372.60000610352</ele>
        <time>2024-04-30T16:52:16.000Z</time>
      </trkpt>
      <trkpt lat="45.85135" lon="3.54931">
        <ele>372.79998779297</ele>
        <time>2024-04-30T16:52:17.000Z</time>
      </trkpt>
      <trkpt lat="45.85134" lon="3.54928">
        <ele>373</ele>
        <time>2024-04-30T16:52:18.000Z</time>
      </trkpt>
      <trkpt lat="45.85132" lon="3.54925">
        <ele>373</ele>
        <time>2024-04-30T16:52:19.000Z</time>
      </trkpt>
      <trkpt lat="45.85131" lon="3.54921">
        <ele>373</ele>
        <time>2024-04-30T16:52:20.000Z</time>
      </trkpt>
      <trkpt lat="45.85131" lon="3.54918">
        <ele>373</ele>
        <time>2024-04-30T16:52:21.000Z</time>
      </trkpt>
      <trkpt lat="45.85131" lon="3.54914">
        <ele>373.20001220703</ele>
        <time>2024-04-30T16:52:22.000Z</time>
      </trkpt>
      <trkpt lat="45.85132" lon="3.5491">
        <ele>373</ele>
        <time>2024-04-30T16:52:23.000Z</time>
      </trkpt>
      <trkpt lat="45.85133" lon="3.54906">
        <ele>373</ele>
        <time>2024-04-30T16:52:24.000Z</time>
      </trkpt>
      <trkpt lat="45.85134" lon="3.54902">
        <ele>373</ele>
        <time>2024-04-30T16:52:25.000Z</time>
      </trkpt>
      <trkpt lat="45.85136" lon="3.54899">
        <ele>372.79998779297</ele>
        <time>2024-04-30T16:52:26.000Z</time>
      </trkpt>
      <trkpt lat="45.85136" lon="3.54895">
        <ele>372.79998779297</ele>
        <time>2024-04-30T16:52:27.000Z</time>
      </trkpt>
      <trkpt lat="45.85135" lon="3.54891">
        <ele>372.60000610352</ele>
        <time>2024-04-30T16:52:28.000Z</time>
      </trkpt>
      <trkpt lat="45.85137" lon="3.54889">
        <ele>372.39999389648</ele>
        <time>2024-04-30T16:52:29.000Z</time>
      </trkpt>
      <trkpt lat="45.85138" lon="3.54886">
        <ele>372</ele>
        <time>2024-04-30T16:52:30.000Z</time>
      </trkpt>
      <trkpt lat="45.8514" lon="3.54883">
        <ele>371.79998779297</ele>
        <time>2024-04-30T16:52:31.000Z</time>
      </trkpt>
      <trkpt lat="45.85141" lon="3.5488">
        <ele>371.79998779297</ele>
        <time>2024-04-30T16:52:32.000Z</time>
      </trkpt>
      <trkpt lat="45.85142" lon="3.54877">
        <ele>371.60000610352</ele>
        <time>2024-04-30T16:52:33.000Z</time>
      </trkpt>
      <trkpt lat="45.85142" lon="3.54873">
        <ele>371.39999389648</ele>
        <time>2024-04-30T16:52:34.000Z</time>
      </trkpt>
      <trkpt lat="45.85142" lon="3.54869">
        <ele>371.39999389648</ele>
        <time>2024-04-30T16:52:35.000Z</time>
      </trkpt>
      <trkpt lat="45.85142" lon="3.54865">
        <ele>371.20001220703</ele>
        <time>2024-04-30T16:52:36.000Z</time>
      </trkpt>
      <trkpt lat="45.85144" lon="3.54862">
        <ele>371</ele>
        <time>2024-04-30T16:52:37.000Z</time>
      </trkpt>
      <trkpt lat="45.85145" lon="3.54858">
        <ele>371</ele>
        <time>2024-04-30T16:52:38.000Z</time>
      </trkpt>
      <trkpt lat="45.85145" lon="3.54856">
        <ele>370.79998779297</ele>
        <time>2024-04-30T16:52:39.000Z</time>
      </trkpt>
      <trkpt lat="45.85148" lon="3.54853">
        <ele>370.60000610352</ele>
        <time>2024-04-30T16:52:40.000Z</time>
      </trkpt>
      <trkpt lat="45.8515" lon="3.54849">
        <ele>370.60000610352</ele>
        <time>2024-04-30T16:52:41.000Z</time>
      </trkpt>
      <trkpt lat="45.85151" lon="3.54845">
        <ele>370.39999389648</ele>
        <time>2024-04-30T16:52:42.000Z</time>
      </trkpt>
      <trkpt lat="45.85151" lon="3.54842">
        <ele>370.20001220703</ele>
        <time>2024-04-30T16:52:43.000Z</time>
      </trkpt>
      <trkpt lat="45.85152" lon="3.54838">
        <ele>370</ele>
        <time>2024-04-30T16:52:44.000Z</time>
      </trkpt>
      <trkpt lat="45.85152" lon="3.54835">
        <ele>369.79998779297</ele>
        <time>2024-04-30T16:52:45.000Z</time>
      </trkpt>
      <trkpt lat="45.85152" lon="3.54831">
        <ele>369.60000610352</ele>
        <time>2024-04-30T16:52:46.000Z</time>
      </trkpt>
      <trkpt lat="45.85152" lon="3.54828">
        <ele>369.60000610352</ele>
        <time>2024-04-30T16:52:47.000Z</time>
      </trkpt>
      <trkpt lat="45.85152" lon="3.54826">
        <ele>369.20001220703</ele>
        <time>2024-04-30T16:52:48.000Z</time>
      </trkpt>
      <trkpt lat="45.85154" lon="3.54825">
        <ele>369.20001220703</ele>
        <time>2024-04-30T16:52:49.000Z</time>
      </trkpt>
      <trkpt lat="45.85156" lon="3.54824">
        <ele>369</ele>
        <time>2024-04-30T16:52:50.000Z</time>
      </trkpt>
      <trkpt lat="45.85157" lon="3.54825">
        <ele>368.79998779297</ele>
        <time>2024-04-30T16:52:51.000Z</time>
      </trkpt>
      <trkpt lat="45.85157" lon="3.54825">
        <ele>369</ele>
        <time>2024-04-30T16:52:52.000Z</time>
      </trkpt>
      <trkpt lat="45.85157" lon="3.54825">
        <ele>369</ele>
        <time>2024-04-30T16:52:53.000Z</time>
      </trkpt>
      <trkpt lat="45.85159" lon="3.54825">
        <ele>369</ele>
        <time>2024-04-30T16:52:54.000Z</time>
      </trkpt>
      <trkpt lat="45.85159" lon="3.54825">
        <ele>369.20001220703</ele>
        <time>2024-04-30T16:52:55.000Z</time>
      </trkpt>
      <trkpt lat="45.85159" lon="3.54825">
        <ele>369.39999389648</ele>
        <time>2024-04-30T16:52:56.000Z</time>
      </trkpt>
      <trkpt lat="45.8516" lon="3.54825">
        <ele>369.79998779297</ele>
        <time>2024-04-30T16:52:57.000Z</time>
      </trkpt>
      <trkpt lat="45.8516" lon="3.54825">
        <ele>370.20001220703</ele>
        <time>2024-04-30T16:52:58.000Z</time>
      </trkpt>
      <trkpt lat="45.85161" lon="3.54825">
        <ele>370.60000610352</ele>
        <time>2024-04-30T16:52:59.000Z</time>
      </trkpt>
      <trkpt lat="45.8516" lon="3.54825">
        <ele>371.20001220703</ele>
        <time>2024-04-30T16:53:00.000Z</time>
      </trkpt>
      <trkpt lat="45.8516" lon="3.54825">
        <ele>371.60000610352</ele>
        <time>2024-04-30T16:53:01.000Z</time>
      </trkpt>
      <trkpt lat="45.8516" lon="3.54825">
        <ele>372</ele>
        <time>2024-04-30T16:53:02.000Z</time>
      </trkpt>
      <trkpt lat="45.8516" lon="3.54827">
        <ele>372.39999389648</ele>
        <time>2024-04-30T16:53:03.000Z</time>
      </trkpt>
      <trkpt lat="45.8516" lon="3.54828">
        <ele>372.60000610352</ele>
        <time>2024-04-30T16:53:04.000Z</time>
      </trkpt>
      <trkpt lat="45.85162" lon="3.54828">
        <ele>373</ele>
        <time>2024-04-30T16:53:05.000Z</time>
      </trkpt>
      <trkpt lat="45.85163" lon="3.54829">
        <ele>373</ele>
        <time>2024-04-30T16:53:06.000Z</time>
      </trkpt>
      <trkpt lat="45.85162" lon="3.54828">
        <ele>373.20001220703</ele>
        <time>2024-04-30T16:53:07.000Z</time>
      </trkpt>
      <trkpt lat="45.85162" lon="3.54829">
        <ele>373.39999389648</ele>
        <time>2024-04-30T16:53:08.000Z</time>
      </trkpt>
      <trkpt lat="45.85163" lon="3.5483">
        <ele>373.60000610352</ele>
        <time>2024-04-30T16:53:09.000Z</time>
      </trkpt>
      <trkpt lat="45.85163" lon="3.5483">
        <ele>374</ele>
        <time>2024-04-30T16:53:10.000Z</time>
      </trkpt>
      <trkpt lat="45.85162" lon="3.5483">
        <ele>374.60000610352</ele>
        <time>2024-04-30T16:53:11.000Z</time>
      </trkpt>
      <trkpt lat="45.85163" lon="3.5483">
        <ele>374.79998779297</ele>
        <time>2024-04-30T16:53:12.000Z</time>
      </trkpt>
      <trkpt lat="45.85163" lon="3.54831">
        <ele>375</ele>
        <time>2024-04-30T16:53:13.000Z</time>
      </trkpt>
      <trkpt lat="45.85164" lon="3.54831">
        <ele>375.39999389648</ele>
        <time>2024-04-30T16:53:14.000Z</time>
      </trkpt>
      <trkpt lat="45.85164" lon="3.54832">
        <ele>375.79998779297</ele>
        <time>2024-04-30T16:53:15.000Z</time>
      </trkpt>
      <trkpt lat="45.85164" lon="3.54832">
        <ele>376.20001220703</ele>
        <time>2024-04-30T16:53:16.000Z</time>
      </trkpt>
      <trkpt lat="45.85164" lon="3.54832">
        <ele>376.60000610352</ele>
        <time>2024-04-30T16:53:17.000Z</time>
      </trkpt>
      <trkpt lat="45.85164" lon="3.54832">
        <ele>376.79998779297</ele>
        <time>2024-04-30T16:53:18.000Z</time>
      </trkpt>
      <trkpt lat="45.85164" lon="3.54834">
        <ele>377</ele>
        <time>2024-04-30T16:53:19.000Z</time>
      </trkpt>
      <trkpt lat="45.85164" lon="3.54834">
        <ele>377.20001220703</ele>
        <time>2024-04-30T16:53:20.000Z</time>
      </trkpt>
      <trkpt lat="45.85164" lon="3.54834">
        <ele>377.60000610352</ele>
        <time>2024-04-30T16:53:21.000Z</time>
      </trkpt>
      <trkpt lat="45.85165" lon="3.54834">
        <ele>377.79998779297</ele>
        <time>2024-04-30T16:53:22.000Z</time>
      </trkpt>
      <trkpt lat="45.85165" lon="3.54834">
        <ele>378</ele>
        <time>2024-04-30T16:53:23.000Z</time>
      </trkpt>
      <trkpt lat="45.85165" lon="3.54834">
        <ele>378.20001220703</ele>
        <time>2024-04-30T16:53:24.000Z</time>
      </trkpt>
      <trkpt lat="45.85167" lon="3.54835">
        <ele>378.60000610352</ele>
        <time>2024-04-30T16:53:25.000Z</time>
      </trkpt>
      <trkpt lat="45.85168" lon="3.54834">
        <ele>379</ele>
        <time>2024-04-30T16:53:26.000Z</time>
      </trkpt>
      <trkpt lat="45.85169" lon="3.54832">
        <ele>379.39999389648</ele>
        <time>2024-04-30T16:53:27.000Z</time>
      </trkpt>
      <trkpt lat="45.85171" lon="3.54833">
        <ele>379.79998779297</ele>
        <time>2024-04-30T16:53:28.000Z</time>
      </trkpt>
      <trkpt lat="45.85173" lon="3.54831">
        <ele>380</ele>
        <time>2024-04-30T16:53:29.000Z</time>
      </trkpt>
      <trkpt lat="45.85176" lon="3.54831">
        <ele>380.20001220703</ele>
        <time>2024-04-30T16:53:30.000Z</time>
      </trkpt>
      <trkpt lat="45.85178" lon="3.54831">
        <ele>380.20001220703</ele>
        <time>2024-04-30T16:53:31.000Z</time>
      </trkpt>
      <trkpt lat="45.85181" lon="3.5483">
        <ele>380.39999389648</ele>
        <time>2024-04-30T16:53:32.000Z</time>
      </trkpt>
      <trkpt lat="45.85182" lon="3.54829">
        <ele>380.39999389648</ele>
        <time>2024-04-30T16:53:33.000Z</time>
      </trkpt>
      <trkpt lat="45.85185" lon="3.54828">
        <ele>380.39999389648</ele>
        <time>2024-04-30T16:53:34.000Z</time>
      </trkpt>
      <trkpt lat="45.85187" lon="3.54826">
        <ele>380.39999389648</ele>
        <time>2024-04-30T16:53:35.000Z</time>
      </trkpt>
      <trkpt lat="45.85189" lon="3.54825">
        <ele>380.60000610352</ele>
        <time>2024-04-30T16:53:36.000Z</time>
      </trkpt>
      <trkpt lat="45.85192" lon="3.54824">
        <ele>380.60000610352</ele>
        <time>2024-04-30T16:53:37.000Z</time>
      </trkpt>
      <trkpt lat="45.85194" lon="3.54824">
        <ele>380.60000610352</ele>
        <time>2024-04-30T16:53:38.000Z</time>
      </trkpt>
      <trkpt lat="45.85196" lon="3.54823">
        <ele>380.60000610352</ele>
        <time>2024-04-30T16:53:39.000Z</time>
      </trkpt>
      <trkpt lat="45.85199" lon="3.54825">
        <ele>380.79998779297</ele>
        <time>2024-04-30T16:53:40.000Z</time>
      </trkpt>
      <trkpt lat="45.85201" lon="3.54823">
        <ele>380.79998779297</ele>
        <time>2024-04-30T16:53:41.000Z</time>
      </trkpt>
      <trkpt lat="45.85202" lon="3.54822">
        <ele>380.79998779297</ele>
        <time>2024-04-30T16:53:42.000Z</time>
      </trkpt>
      <trkpt lat="45.85205" lon="3.54823">
        <ele>380.79998779297</ele>
        <time>2024-04-30T16:53:43.000Z</time>
      </trkpt>
      <trkpt lat="45.85207" lon="3.54825">
        <ele>381</ele>
        <time>2024-04-30T16:53:44.000Z</time>
      </trkpt>
      <trkpt lat="45.85209" lon="3.54827">
        <ele>381.20001220703</ele>
        <time>2024-04-30T16:53:45.000Z</time>
      </trkpt>
      <trkpt lat="45.85211" lon="3.54828">
        <ele>381.20001220703</ele>
        <time>2024-04-30T16:53:46.000Z</time>
      </trkpt>
      <trkpt lat="45.85213" lon="3.54828">
        <ele>381.20001220703</ele>
        <time>2024-04-30T16:53:47.000Z</time>
      </trkpt>
      <trkpt lat="45.85221" lon="3.54827">
        <ele>381.39999389648</ele>
        <time>2024-04-30T16:53:50.000Z</time>
      </trkpt>
      <trkpt lat="45.85224" lon="3.5483">
        <ele>381.60000610352</ele>
        <time>2024-04-30T16:53:51.000Z</time>
      </trkpt>
      <trkpt lat="45.85225" lon="3.54832">
        <ele>381.39999389648</ele>
        <time>2024-04-30T16:53:52.000Z</time>
      </trkpt>
      <trkpt lat="45.85226" lon="3.54835">
        <ele>381.39999389648</ele>
        <time>2024-04-30T16:53:53.000Z</time>
      </trkpt>
      <trkpt lat="45.85227" lon="3.54838">
        <ele>381.60000610352</ele>
        <time>2024-04-30T16:53:54.000Z</time>
      </trkpt>
      <trkpt lat="45.85228" lon="3.54841">
        <ele>381.60000610352</ele>
        <time>2024-04-30T16:53:55.000Z</time>
      </trkpt>
      <trkpt lat="45.8523" lon="3.54845">
        <ele>381.60000610352</ele>
        <time>2024-04-30T16:53:56.000Z</time>
      </trkpt>
      <trkpt lat="45.85231" lon="3.54845">
        <ele>382</ele>
        <time>2024-04-30T16:53:57.000Z</time>
      </trkpt>
      <trkpt lat="45.85232" lon="3.54845">
        <ele>382.20001220703</ele>
        <time>2024-04-30T16:53:58.000Z</time>
      </trkpt>
      <trkpt lat="45.85234" lon="3.54846">
        <ele>382.39999389648</ele>
        <time>2024-04-30T16:53:59.000Z</time>
      </trkpt>
      <trkpt lat="45.85237" lon="3.54848">
        <ele>382.60000610352</ele>
        <time>2024-04-30T16:54:00.000Z</time>
      </trkpt>
      <trkpt lat="45.85238" lon="3.54848">
        <ele>382.79998779297</ele>
        <time>2024-04-30T16:54:01.000Z</time>
      </trkpt>
      <trkpt lat="45.85241" lon="3.54849">
        <ele>383.20001220703</ele>
        <time>2024-04-30T16:54:02.000Z</time>
      </trkpt>
      <trkpt lat="45.85243" lon="3.5485">
        <ele>383.39999389648</ele>
        <time>2024-04-30T16:54:03.000Z</time>
      </trkpt>
      <trkpt lat="45.85245" lon="3.54852">
        <ele>383.79998779297</ele>
        <time>2024-04-30T16:54:04.000Z</time>
      </trkpt>
      <trkpt lat="45.85247" lon="3.54854">
        <ele>384.20001220703</ele>
        <time>2024-04-30T16:54:05.000Z</time>
      </trkpt>
      <trkpt lat="45.85247" lon="3.54855">
        <ele>384.60000610352</ele>
        <time>2024-04-30T16:54:06.000Z</time>
      </trkpt>
      <trkpt lat="45.85248" lon="3.54858">
        <ele>385</ele>
        <time>2024-04-30T16:54:07.000Z</time>
      </trkpt>
      <trkpt lat="45.85248" lon="3.5486">
        <ele>385.20001220703</ele>
        <time>2024-04-30T16:54:08.000Z</time>
      </trkpt>
      <trkpt lat="45.85248" lon="3.54864">
        <ele>385.39999389648</ele>
        <time>2024-04-30T16:54:09.000Z</time>
      </trkpt>
      <trkpt lat="45.85248" lon="3.54867">
        <ele>385.79998779297</ele>
        <time>2024-04-30T16:54:10.000Z</time>
      </trkpt>
      <trkpt lat="45.85249" lon="3.54868">
        <ele>386</ele>
        <time>2024-04-30T16:54:11.000Z</time>
      </trkpt>
      <trkpt lat="45.85252" lon="3.5487">
        <ele>386.39999389648</ele>
        <time>2024-04-30T16:54:12.000Z</time>
      </trkpt>
      <trkpt lat="45.85254" lon="3.54872">
        <ele>386.60000610352</ele>
        <time>2024-04-30T16:54:13.000Z</time>
      </trkpt>
      <trkpt lat="45.85256" lon="3.54873">
        <ele>386.60000610352</ele>
        <time>2024-04-30T16:54:14.000Z</time>
      </trkpt>
      <trkpt lat="45.85259" lon="3.54874">
        <ele>387</ele>
        <time>2024-04-30T16:54:15.000Z</time>
      </trkpt>
      <trkpt lat="45.85261" lon="3.54876">
        <ele>387.20001220703</ele>
        <time>2024-04-30T16:54:16.000Z</time>
      </trkpt>
      <trkpt lat="45.85262" lon="3.54876">
        <ele>387.20001220703</ele>
        <time>2024-04-30T16:54:17.000Z</time>
      </trkpt>
      <trkpt lat="45.85265" lon="3.54878">
        <ele>387.39999389648</ele>
        <time>2024-04-30T16:54:18.000Z</time>
      </trkpt>
      <trkpt lat="45.85266" lon="3.5488">
        <ele>387.60000610352</ele>
        <time>2024-04-30T16:54:19.000Z</time>
      </trkpt>
      <trkpt lat="45.85267" lon="3.54882">
        <ele>387.79998779297</ele>
        <time>2024-04-30T16:54:20.000Z</time>
      </trkpt>
      <trkpt lat="45.85269" lon="3.54885">
        <ele>387.79998779297</ele>
        <time>2024-04-30T16:54:21.000Z</time>
      </trkpt>
      <trkpt lat="45.85271" lon="3.54887">
        <ele>388</ele>
        <time>2024-04-30T16:54:22.000Z</time>
      </trkpt>
      <trkpt lat="45.85272" lon="3.5489">
        <ele>388.20001220703</ele>
        <time>2024-04-30T16:54:23.000Z</time>
      </trkpt>
      <trkpt lat="45.85273" lon="3.54893">
        <ele>388.20001220703</ele>
        <time>2024-04-30T16:54:24.000Z</time>
      </trkpt>
      <trkpt lat="45.85274" lon="3.54895">
        <ele>388.39999389648</ele>
        <time>2024-04-30T16:54:25.000Z</time>
      </trkpt>
      <trkpt lat="45.85276" lon="3.54898">
        <ele>388.60000610352</ele>
        <time>2024-04-30T16:54:26.000Z</time>
      </trkpt>
      <trkpt lat="45.85277" lon="3.54901">
        <ele>388.60000610352</ele>
        <time>2024-04-30T16:54:27.000Z</time>
      </trkpt>
      <trkpt lat="45.85279" lon="3.54902">
        <ele>388.60000610352</ele>
        <time>2024-04-30T16:54:28.000Z</time>
      </trkpt>
      <trkpt lat="45.8528" lon="3.54905">
        <ele>389</ele>
        <time>2024-04-30T16:54:29.000Z</time>
      </trkpt>
      <trkpt lat="45.85282" lon="3.54907">
        <ele>389</ele>
        <time>2024-04-30T16:54:30.000Z</time>
      </trkpt>
      <trkpt lat="45.85284" lon="3.5491">
        <ele>389.39999389648</ele>
        <time>2024-04-30T16:54:31.000Z</time>
      </trkpt>
      <trkpt lat="45.85286" lon="3.54911">
        <ele>389.60000610352</ele>
        <time>2024-04-30T16:54:32.000Z</time>
      </trkpt>
      <trkpt lat="45.85288" lon="3.54912">
        <ele>390</ele>
        <time>2024-04-30T16:54:33.000Z</time>
      </trkpt>
      <trkpt lat="45.85289" lon="3.54914">
        <ele>390</ele>
        <time>2024-04-30T16:54:34.000Z</time>
      </trkpt>
      <trkpt lat="45.8529" lon="3.54914">
        <ele>390.20001220703</ele>
        <time>2024-04-30T16:54:35.000Z</time>
      </trkpt>
      <trkpt lat="45.85292" lon="3.54916">
        <ele>390.20001220703</ele>
        <time>2024-04-30T16:54:36.000Z</time>
      </trkpt>
      <trkpt lat="45.85294" lon="3.54915">
        <ele>390.20001220703</ele>
        <time>2024-04-30T16:54:37.000Z</time>
      </trkpt>
      <trkpt lat="45.85297" lon="3.54916">
        <ele>390.39999389648</ele>
        <time>2024-04-30T16:54:38.000Z</time>
      </trkpt>
      <trkpt lat="45.85298" lon="3.54914">
        <ele>390.60000610352</ele>
        <time>2024-04-30T16:54:39.000Z</time>
      </trkpt>
      <trkpt lat="45.85299" lon="3.54916">
        <ele>390.60000610352</ele>
        <time>2024-04-30T16:54:40.000Z</time>
      </trkpt>
      <trkpt lat="45.85301" lon="3.54916">
        <ele>390.60000610352</ele>
        <time>2024-04-30T16:54:41.000Z</time>
      </trkpt>
      <trkpt lat="45.85305" lon="3.54917">
        <ele>390.79998779297</ele>
        <time>2024-04-30T16:54:42.000Z</time>
      </trkpt>
      <trkpt lat="45.85307" lon="3.54916">
        <ele>391</ele>
        <time>2024-04-30T16:54:43.000Z</time>
      </trkpt>
      <trkpt lat="45.85309" lon="3.54915">
        <ele>391.20001220703</ele>
        <time>2024-04-30T16:54:44.000Z</time>
      </trkpt>
      <trkpt lat="45.85312" lon="3.54912">
        <ele>391.20001220703</ele>
        <time>2024-04-30T16:54:45.000Z</time>
      </trkpt>
      <trkpt lat="45.85314" lon="3.54911">
        <ele>391.60000610352</ele>
        <time>2024-04-30T16:54:46.000Z</time>
      </trkpt>
      <trkpt lat="45.85316" lon="3.5491">
        <ele>391.60000610352</ele>
        <time>2024-04-30T16:54:47.000Z</time>
      </trkpt>
      <trkpt lat="45.85319" lon="3.54909">
        <ele>391.60000610352</ele>
        <time>2024-04-30T16:54:48.000Z</time>
      </trkpt>
      <trkpt lat="45.85321" lon="3.54909">
        <ele>391.79998779297</ele>
        <time>2024-04-30T16:54:49.000Z</time>
      </trkpt>
      <trkpt lat="45.85324" lon="3.54908">
        <ele>391.79998779297</ele>
        <time>2024-04-30T16:54:50.000Z</time>
      </trkpt>
      <trkpt lat="45.85326" lon="3.54907">
        <ele>392</ele>
        <time>2024-04-30T16:54:51.000Z</time>
      </trkpt>
      <trkpt lat="45.85329" lon="3.54904">
        <ele>392.20001220703</ele>
        <time>2024-04-30T16:54:52.000Z</time>
      </trkpt>
      <trkpt lat="45.85331" lon="3.54902">
        <ele>392.20001220703</ele>
        <time>2024-04-30T16:54:53.000Z</time>
      </trkpt>
      <trkpt lat="45.85333" lon="3.54901">
        <ele>392.39999389648</ele>
        <time>2024-04-30T16:54:54.000Z</time>
      </trkpt>
      <trkpt lat="45.85335" lon="3.54899">
        <ele>392.39999389648</ele>
        <time>2024-04-30T16:54:55.000Z</time>
      </trkpt>
      <trkpt lat="45.85337" lon="3.54899">
        <ele>392.39999389648</ele>
        <time>2024-04-30T16:54:56.000Z</time>
      </trkpt>
      <trkpt lat="45.85338" lon="3.54896">
        <ele>392.39999389648</ele>
        <time>2024-04-30T16:54:57.000Z</time>
      </trkpt>
      <trkpt lat="45.85341" lon="3.54894">
        <ele>392.39999389648</ele>
        <time>2024-04-30T16:54:58.000Z</time>
      </trkpt>
      <trkpt lat="45.85342" lon="3.54893">
        <ele>392.39999389648</ele>
        <time>2024-04-30T16:54:59.000Z</time>
      </trkpt>
      <trkpt lat="45.85344" lon="3.54891">
        <ele>392.39999389648</ele>
        <time>2024-04-30T16:55:00.000Z</time>
      </trkpt>
      <trkpt lat="45.85345" lon="3.5489">
        <ele>392.39999389648</ele>
        <time>2024-04-30T16:55:01.000Z</time>
      </trkpt>
      <trkpt lat="45.85347" lon="3.54888">
        <ele>392.60000610352</ele>
        <time>2024-04-30T16:55:02.000Z</time>
      </trkpt>
      <trkpt lat="45.8535" lon="3.54888">
        <ele>393</ele>
        <time>2024-04-30T16:55:03.000Z</time>
      </trkpt>
      <trkpt lat="45.85352" lon="3.54886">
        <ele>393</ele>
        <time>2024-04-30T16:55:04.000Z</time>
      </trkpt>
      <trkpt lat="45.85354" lon="3.54884">
        <ele>393.20001220703</ele>
        <time>2024-04-30T16:55:05.000Z</time>
      </trkpt>
      <trkpt lat="45.85356" lon="3.54882">
        <ele>393.39999389648</ele>
        <time>2024-04-30T16:55:06.000Z</time>
      </trkpt>
      <trkpt lat="45.85359" lon="3.54882">
        <ele>393.79998779297</ele>
        <time>2024-04-30T16:55:07.000Z</time>
      </trkpt>
      <trkpt lat="45.85361" lon="3.54881">
        <ele>393.79998779297</ele>
        <time>2024-04-30T16:55:08.000Z</time>
      </trkpt>
      <trkpt lat="45.85362" lon="3.5488">
        <ele>394</ele>
        <time>2024-04-30T16:55:09.000Z</time>
      </trkpt>
      <trkpt lat="45.85363" lon="3.54879">
        <ele>394.20001220703</ele>
        <time>2024-04-30T16:55:10.000Z</time>
      </trkpt>
      <trkpt lat="45.85363" lon="3.54878">
        <ele>394.20001220703</ele>
        <time>2024-04-30T16:55:11.000Z</time>
      </trkpt>
      <trkpt lat="45.85364" lon="3.54878">
        <ele>394.39999389648</ele>
        <time>2024-04-30T16:55:12.000Z</time>
      </trkpt>
      <trkpt lat="45.85364" lon="3.54877">
        <ele>394.60000610352</ele>
        <time>2024-04-30T16:55:13.000Z</time>
      </trkpt>
      <trkpt lat="45.85366" lon="3.54877">
        <ele>394.79998779297</ele>
        <time>2024-04-30T16:55:14.000Z</time>
      </trkpt>
      <trkpt lat="45.85367" lon="3.54878">
        <ele>395</ele>
        <time>2024-04-30T16:55:15.000Z</time>
      </trkpt>
      <trkpt lat="45.85368" lon="3.54879">
        <ele>395.20001220703</ele>
        <time>2024-04-30T16:55:16.000Z</time>
      </trkpt>
      <trkpt lat="45.85369" lon="3.5488">
        <ele>395.39999389648</ele>
        <time>2024-04-30T16:55:17.000Z</time>
      </trkpt>
      <trkpt lat="45.85369" lon="3.54881">
        <ele>395.60000610352</ele>
        <time>2024-04-30T16:55:18.000Z</time>
      </trkpt>
      <trkpt lat="45.85371" lon="3.54882">
        <ele>395.79998779297</ele>
        <time>2024-04-30T16:55:19.000Z</time>
      </trkpt>
      <trkpt lat="45.85372" lon="3.54882">
        <ele>396.39999389648</ele>
        <time>2024-04-30T16:55:20.000Z</time>
      </trkpt>
      <trkpt lat="45.85374" lon="3.54883">
        <ele>397</ele>
        <time>2024-04-30T16:55:21.000Z</time>
      </trkpt>
      <trkpt lat="45.85376" lon="3.54883">
        <ele>397.20001220703</ele>
        <time>2024-04-30T16:55:22.000Z</time>
      </trkpt>
      <trkpt lat="45.85377" lon="3.54882">
        <ele>397.39999389648</ele>
        <time>2024-04-30T16:55:23.000Z</time>
      </trkpt>
      <trkpt lat="45.85378" lon="3.54881">
        <ele>397.60000610352</ele>
        <time>2024-04-30T16:55:24.000Z</time>
      </trkpt>
      <trkpt lat="45.85378" lon="3.54881">
        <ele>397.79998779297</ele>
        <time>2024-04-30T16:55:25.000Z</time>
      </trkpt>
      <trkpt lat="45.85378" lon="3.54881">
        <ele>398</ele>
        <time>2024-04-30T16:55:26.000Z</time>
      </trkpt>
      <trkpt lat="45.85378" lon="3.54881">
        <ele>398.39999389648</ele>
        <time>2024-04-30T16:55:27.000Z</time>
      </trkpt>
      <trkpt lat="45.85378" lon="3.54881">
        <ele>398.79998779297</ele>
        <time>2024-04-30T16:55:28.000Z</time>
      </trkpt>
      <trkpt lat="45.85376" lon="3.54873">
        <ele>399.20001220703</ele>
        <time>2024-04-30T16:55:29.000Z</time>
      </trkpt>
      <trkpt lat="45.85375" lon="3.54869">
        <ele>399.60000610352</ele>
        <time>2024-04-30T16:55:30.000Z</time>
      </trkpt>
      <trkpt lat="45.85374" lon="3.54867">
        <ele>399.79998779297</ele>
        <time>2024-04-30T16:55:31.000Z</time>
      </trkpt>
      <trkpt lat="45.85373" lon="3.54866">
        <ele>400</ele>
        <time>2024-04-30T16:55:32.000Z</time>
      </trkpt>
      <trkpt lat="45.85372" lon="3.54866">
        <ele>400.39999389648</ele>
        <time>2024-04-30T16:55:33.000Z</time>
      </trkpt>
      <trkpt lat="45.85371" lon="3.54865">
        <ele>400.60000610352</ele>
        <time>2024-04-30T16:55:34.000Z</time>
      </trkpt>
      <trkpt lat="45.85368" lon="3.54865">
        <ele>400.79998779297</ele>
        <time>2024-04-30T16:55:35.000Z</time>
      </trkpt>
      <trkpt lat="45.85365" lon="3.54864">
        <ele>401</ele>
        <time>2024-04-30T16:55:36.000Z</time>
      </trkpt>
      <trkpt lat="45.85366" lon="3.54865">
        <ele>401.20001220703</ele>
        <time>2024-04-30T16:55:37.000Z</time>
      </trkpt>
      <trkpt lat="45.85364" lon="3.5487">
        <ele>401.39999389648</ele>
        <time>2024-04-30T16:55:38.000Z</time>
      </trkpt>
      <trkpt lat="45.85365" lon="3.54871">
        <ele>401.39999389648</ele>
        <time>2024-04-30T16:55:39.000Z</time>
      </trkpt>
      <trkpt lat="45.85366" lon="3.54874">
        <ele>401.79998779297</ele>
        <time>2024-04-30T16:55:40.000Z</time>
      </trkpt>
      <trkpt lat="45.85366" lon="3.54876">
        <ele>401.79998779297</ele>
        <time>2024-04-30T16:55:41.000Z</time>
      </trkpt>
      <trkpt lat="45.85365" lon="3.54878">
        <ele>401.79998779297</ele>
        <time>2024-04-30T16:55:42.000Z</time>
      </trkpt>
      <trkpt lat="45.85363" lon="3.5488">
        <ele>402</ele>
        <time>2024-04-30T16:55:43.000Z</time>
      </trkpt>
      <trkpt lat="45.85361" lon="3.54881">
        <ele>402</ele>
        <time>2024-04-30T16:55:44.000Z</time>
      </trkpt>
      <trkpt lat="45.85355" lon="3.54881">
        <ele>402</ele>
        <time>2024-04-30T16:55:45.000Z</time>
      </trkpt>
      <trkpt lat="45.85351" lon="3.54881">
        <ele>402.39999389648</ele>
        <time>2024-04-30T16:55:46.000Z</time>
      </trkpt>
      <trkpt lat="45.85347" lon="3.54882">
        <ele>402.39999389648</ele>
        <time>2024-04-30T16:55:47.000Z</time>
      </trkpt>
      <trkpt lat="45.85345" lon="3.54883">
        <ele>402.60000610352</ele>
        <time>2024-04-30T16:55:48.000Z</time>
      </trkpt>
      <trkpt lat="45.85343" lon="3.54884">
        <ele>402.79998779297</ele>
        <time>2024-04-30T16:55:49.000Z</time>
      </trkpt>
      <trkpt lat="45.85342" lon="3.54884">
        <ele>402.79998779297</ele>
        <time>2024-04-30T16:55:50.000Z</time>
      </trkpt>
      <trkpt lat="45.85338" lon="3.54883">
        <ele>403</ele>
        <time>2024-04-30T16:55:51.000Z</time>
      </trkpt>
      <trkpt lat="45.85336" lon="3.54881">
        <ele>402.79998779297</ele>
        <time>2024-04-30T16:55:52.000Z</time>
      </trkpt>
      <trkpt lat="45.85335" lon="3.5488">
        <ele>402.79998779297</ele>
        <time>2024-04-30T16:55:53.000Z</time>
      </trkpt>
      <trkpt lat="45.85334" lon="3.54879">
        <ele>402.79998779297</ele>
        <time>2024-04-30T16:55:54.000Z</time>
      </trkpt>
      <trkpt lat="45.85333" lon="3.54878">
        <ele>402.79998779297</ele>
        <time>2024-04-30T16:55:55.000Z</time>
      </trkpt>
      <trkpt lat="45.85333" lon="3.54874">
        <ele>402.79998779297</ele>
        <time>2024-04-30T16:55:56.000Z</time>
      </trkpt>
      <trkpt lat="45.85332" lon="3.54871">
        <ele>402.79998779297</ele>
        <time>2024-04-30T16:55:57.000Z</time>
      </trkpt>
      <trkpt lat="45.85332" lon="3.54869">
        <ele>403</ele>
        <time>2024-04-30T16:55:58.000Z</time>
      </trkpt>
      <trkpt lat="45.8533" lon="3.54867">
        <ele>403</ele>
        <time>2024-04-30T16:55:59.000Z</time>
      </trkpt>
      <trkpt lat="45.85328" lon="3.54862">
        <ele>402.79998779297</ele>
        <time>2024-04-30T16:56:00.000Z</time>
      </trkpt>
      <trkpt lat="45.85327" lon="3.5486">
        <ele>402.79998779297</ele>
        <time>2024-04-30T16:56:01.000Z</time>
      </trkpt>
      <trkpt lat="45.85324" lon="3.54856">
        <ele>402.79998779297</ele>
        <time>2024-04-30T16:56:02.000Z</time>
      </trkpt>
      <trkpt lat="45.85322" lon="3.54853">
        <ele>402.79998779297</ele>
        <time>2024-04-30T16:56:03.000Z</time>
      </trkpt>
      <trkpt lat="45.85321" lon="3.54849">
        <ele>402.79998779297</ele>
        <time>2024-04-30T16:56:04.000Z</time>
      </trkpt>
      <trkpt lat="45.85317" lon="3.54846">
        <ele>402.79998779297</ele>
        <time>2024-04-30T16:56:05.000Z</time>
      </trkpt>
      <trkpt lat="45.85314" lon="3.54845">
        <ele>402.60000610352</ele>
        <time>2024-04-30T16:56:06.000Z</time>
      </trkpt>
      <trkpt lat="45.85311" lon="3.54841">
        <ele>402.39999389648</ele>
        <time>2024-04-30T16:56:07.000Z</time>
      </trkpt>
      <trkpt lat="45.85308" lon="3.54837">
        <ele>402.39999389648</ele>
        <time>2024-04-30T16:56:08.000Z</time>
      </trkpt>
      <trkpt lat="45.8531" lon="3.54833">
        <ele>401.79998779297</ele>
        <time>2024-04-30T16:56:09.000Z</time>
      </trkpt>
      <trkpt lat="45.8531" lon="3.5483">
        <ele>401.60000610352</ele>
        <time>2024-04-30T16:56:10.000Z</time>
      </trkpt>
      <trkpt lat="45.8531" lon="3.54827">
        <ele>401.39999389648</ele>
        <time>2024-04-30T16:56:11.000Z</time>
      </trkpt>
      <trkpt lat="45.8531" lon="3.54823">
        <ele>401</ele>
        <time>2024-04-30T16:56:12.000Z</time>
      </trkpt>
      <trkpt lat="45.85309" lon="3.5482">
        <ele>400.79998779297</ele>
        <time>2024-04-30T16:56:13.000Z</time>
      </trkpt>
      <trkpt lat="45.85312" lon="3.54817">
        <ele>400.60000610352</ele>
        <time>2024-04-30T16:56:14.000Z</time>
      </trkpt>
      <trkpt lat="45.85314" lon="3.54814">
        <ele>400.20001220703</ele>
        <time>2024-04-30T16:56:15.000Z</time>
      </trkpt>
      <trkpt lat="45.85316" lon="3.54811">
        <ele>399.79998779297</ele>
        <time>2024-04-30T16:56:16.000Z</time>
      </trkpt>
      <trkpt lat="45.85317" lon="3.54809">
        <ele>399.60000610352</ele>
        <time>2024-04-30T16:56:17.000Z</time>
      </trkpt>
      <trkpt lat="45.85319" lon="3.54806">
        <ele>399.39999389648</ele>
        <time>2024-04-30T16:56:18.000Z</time>
      </trkpt>
      <trkpt lat="45.85322" lon="3.54803">
        <ele>399.20001220703</ele>
        <time>2024-04-30T16:56:19.000Z</time>
      </trkpt>
      <trkpt lat="45.85325" lon="3.54802">
        <ele>399.20001220703</ele>
        <time>2024-04-30T16:56:20.000Z</time>
      </trkpt>
      <trkpt lat="45.85326" lon="3.54802">
        <ele>399.20001220703</ele>
        <time>2024-04-30T16:56:21.000Z</time>
      </trkpt>
      <trkpt lat="45.85328" lon="3.54802">
        <ele>399.60000610352</ele>
        <time>2024-04-30T16:56:22.000Z</time>
      </trkpt>
      <trkpt lat="45.85329" lon="3.54803">
        <ele>400</ele>
        <time>2024-04-30T16:56:23.000Z</time>
      </trkpt>
      <trkpt lat="45.85332" lon="3.54801">
        <ele>400.39999389648</ele>
        <time>2024-04-30T16:56:24.000Z</time>
      </trkpt>
      <trkpt lat="45.85334" lon="3.54801">
        <ele>400.79998779297</ele>
        <time>2024-04-30T16:56:25.000Z</time>
      </trkpt>
      <trkpt lat="45.85336" lon="3.54801">
        <ele>401</ele>
        <time>2024-04-30T16:56:26.000Z</time>
      </trkpt>
      <trkpt lat="45.85338" lon="3.54799">
        <ele>401</ele>
        <time>2024-04-30T16:56:27.000Z</time>
      </trkpt>
      <trkpt lat="45.8534" lon="3.54799">
        <ele>401</ele>
        <time>2024-04-30T16:56:28.000Z</time>
      </trkpt>
      <trkpt lat="45.85342" lon="3.54799">
        <ele>401</ele>
        <time>2024-04-30T16:56:29.000Z</time>
      </trkpt>
      <trkpt lat="45.85344" lon="3.54799">
        <ele>401</ele>
        <time>2024-04-30T16:56:30.000Z</time>
      </trkpt>
      <trkpt lat="45.85347" lon="3.54799">
        <ele>401</ele>
        <time>2024-04-30T16:56:31.000Z</time>
      </trkpt>
      <trkpt lat="45.85349" lon="3.54799">
        <ele>401</ele>
        <time>2024-04-30T16:56:32.000Z</time>
      </trkpt>
      <trkpt lat="45.8535" lon="3.548">
        <ele>401.20001220703</ele>
        <time>2024-04-30T16:56:33.000Z</time>
      </trkpt>
      <trkpt lat="45.8535" lon="3.54802">
        <ele>401.20001220703</ele>
        <time>2024-04-30T16:56:34.000Z</time>
      </trkpt>
      <trkpt lat="45.85351" lon="3.54801">
        <ele>401</ele>
        <time>2024-04-30T16:56:35.000Z</time>
      </trkpt>
      <trkpt lat="45.85351" lon="3.54801">
        <ele>401</ele>
        <time>2024-04-30T16:56:36.000Z</time>
      </trkpt>
      <trkpt lat="45.85352" lon="3.54799">
        <ele>401</ele>
        <time>2024-04-30T16:56:37.000Z</time>
      </trkpt>
      <trkpt lat="45.85355" lon="3.54799">
        <ele>401</ele>
        <time>2024-04-30T16:56:38.000Z</time>
      </trkpt>
      <trkpt lat="45.85358" lon="3.54798">
        <ele>401</ele>
        <time>2024-04-30T16:56:39.000Z</time>
      </trkpt>
      <trkpt lat="45.85362" lon="3.54797">
        <ele>401</ele>
        <time>2024-04-30T16:56:40.000Z</time>
      </trkpt>
      <trkpt lat="45.85365" lon="3.54796">
        <ele>401</ele>
        <time>2024-04-30T16:56:41.000Z</time>
      </trkpt>
      <trkpt lat="45.85365" lon="3.54794">
        <ele>401.20001220703</ele>
        <time>2024-04-30T16:56:42.000Z</time>
      </trkpt>
      <trkpt lat="45.85367" lon="3.54792">
        <ele>401.39999389648</ele>
        <time>2024-04-30T16:56:43.000Z</time>
      </trkpt>
      <trkpt lat="45.8537" lon="3.54791">
        <ele>401.39999389648</ele>
        <time>2024-04-30T16:56:44.000Z</time>
      </trkpt>
      <trkpt lat="45.85372" lon="3.54792">
        <ele>401.39999389648</ele>
        <time>2024-04-30T16:56:45.000Z</time>
      </trkpt>
      <trkpt lat="45.85375" lon="3.54792">
        <ele>401.60000610352</ele>
        <time>2024-04-30T16:56:46.000Z</time>
      </trkpt>
      <trkpt lat="45.85376" lon="3.54791">
        <ele>401.60000610352</ele>
        <time>2024-04-30T16:56:47.000Z</time>
      </trkpt>
      <trkpt lat="45.85379" lon="3.5479">
        <ele>401.39999389648</ele>
        <time>2024-04-30T16:56:48.000Z</time>
      </trkpt>
      <trkpt lat="45.85381" lon="3.5479">
        <ele>401.39999389648</ele>
        <time>2024-04-30T16:56:49.000Z</time>
      </trkpt>
      <trkpt lat="45.85383" lon="3.5479">
        <ele>401.39999389648</ele>
        <time>2024-04-30T16:56:50.000Z</time>
      </trkpt>
      <trkpt lat="45.85385" lon="3.54791">
        <ele>401.39999389648</ele>
        <time>2024-04-30T16:56:51.000Z</time>
      </trkpt>
      <trkpt lat="45.85388" lon="3.54792">
        <ele>401.39999389648</ele>
        <time>2024-04-30T16:56:52.000Z</time>
      </trkpt>
      <trkpt lat="45.85391" lon="3.54795">
        <ele>401.20001220703</ele>
        <time>2024-04-30T16:56:53.000Z</time>
      </trkpt>
      <trkpt lat="45.85394" lon="3.54797">
        <ele>401.20001220703</ele>
        <time>2024-04-30T16:56:54.000Z</time>
      </trkpt>
      <trkpt lat="45.85397" lon="3.54799">
        <ele>401</ele>
        <time>2024-04-30T16:56:55.000Z</time>
      </trkpt>
      <trkpt lat="45.854" lon="3.54801">
        <ele>401</ele>
        <time>2024-04-30T16:56:56.000Z</time>
      </trkpt>
      <trkpt lat="45.85403" lon="3.54801">
        <ele>400.79998779297</ele>
        <time>2024-04-30T16:56:57.000Z</time>
      </trkpt>
      <trkpt lat="45.85406" lon="3.54797">
        <ele>400.60000610352</ele>
        <time>2024-04-30T16:56:58.000Z</time>
      </trkpt>
      <trkpt lat="45.85409" lon="3.54795">
        <ele>400.39999389648</ele>
        <time>2024-04-30T16:56:59.000Z</time>
      </trkpt>
      <trkpt lat="45.85412" lon="3.54791">
        <ele>400.39999389648</ele>
        <time>2024-04-30T16:57:00.000Z</time>
      </trkpt>
      <trkpt lat="45.85413" lon="3.54787">
        <ele>400</ele>
        <time>2024-04-30T16:57:01.000Z</time>
      </trkpt>
      <trkpt lat="45.85413" lon="3.54784">
        <ele>399.79998779297</ele>
        <time>2024-04-30T16:57:02.000Z</time>
      </trkpt>
      <trkpt lat="45.85413" lon="3.54779">
        <ele>399.60000610352</ele>
        <time>2024-04-30T16:57:03.000Z</time>
      </trkpt>
      <trkpt lat="45.85414" lon="3.54776">
        <ele>399.20001220703</ele>
        <time>2024-04-30T16:57:04.000Z</time>
      </trkpt>
      <trkpt lat="45.85412" lon="3.54772">
        <ele>398.79998779297</ele>
        <time>2024-04-30T16:57:05.000Z</time>
      </trkpt>
      <trkpt lat="45.8541" lon="3.54767">
        <ele>398.79998779297</ele>
        <time>2024-04-30T16:57:06.000Z</time>
      </trkpt>
      <trkpt lat="45.85407" lon="3.54766">
        <ele>398.39999389648</ele>
        <time>2024-04-30T16:57:07.000Z</time>
      </trkpt>
      <trkpt lat="45.85405" lon="3.54763">
        <ele>398.39999389648</ele>
        <time>2024-04-30T16:57:08.000Z</time>
      </trkpt>
      <trkpt lat="45.85402" lon="3.54761">
        <ele>398.39999389648</ele>
        <time>2024-04-30T16:57:09.000Z</time>
      </trkpt>
      <trkpt lat="45.85399" lon="3.5476">
        <ele>398.20001220703</ele>
        <time>2024-04-30T16:57:10.000Z</time>
      </trkpt>
      <trkpt lat="45.85395" lon="3.54757">
        <ele>397.60000610352</ele>
        <time>2024-04-30T16:57:11.000Z</time>
      </trkpt>
      <trkpt lat="45.85391" lon="3.54754">
        <ele>397.39999389648</ele>
        <time>2024-04-30T16:57:12.000Z</time>
      </trkpt>
      <trkpt lat="45.85388" lon="3.54754">
        <ele>397</ele>
        <time>2024-04-30T16:57:13.000Z</time>
      </trkpt>
      <trkpt lat="45.85385" lon="3.54754">
        <ele>396.60000610352</ele>
        <time>2024-04-30T16:57:14.000Z</time>
      </trkpt>
      <trkpt lat="45.85382" lon="3.54753">
        <ele>396.20001220703</ele>
        <time>2024-04-30T16:57:15.000Z</time>
      </trkpt>
      <trkpt lat="45.85379" lon="3.54753">
        <ele>395.39999389648</ele>
        <time>2024-04-30T16:57:16.000Z</time>
      </trkpt>
      <trkpt lat="45.85375" lon="3.54753">
        <ele>395</ele>
        <time>2024-04-30T16:57:17.000Z</time>
      </trkpt>
      <trkpt lat="45.85372" lon="3.54753">
        <ele>394.39999389648</ele>
        <time>2024-04-30T16:57:18.000Z</time>
      </trkpt>
      <trkpt lat="45.85368" lon="3.54754">
        <ele>394</ele>
        <time>2024-04-30T16:57:19.000Z</time>
      </trkpt>
      <trkpt lat="45.85366" lon="3.54753">
        <ele>393.39999389648</ele>
        <time>2024-04-30T16:57:20.000Z</time>
      </trkpt>
      <trkpt lat="45.85362" lon="3.54753">
        <ele>393</ele>
        <time>2024-04-30T16:57:21.000Z</time>
      </trkpt>
      <trkpt lat="45.85358" lon="3.54752">
        <ele>392.60000610352</ele>
        <time>2024-04-30T16:57:22.000Z</time>
      </trkpt>
      <trkpt lat="45.85355" lon="3.54751">
        <ele>392.60000610352</ele>
        <time>2024-04-30T16:57:23.000Z</time>
      </trkpt>
      <trkpt lat="45.85353" lon="3.54749">
        <ele>392.39999389648</ele>
        <time>2024-04-30T16:57:24.000Z</time>
      </trkpt>
      <trkpt lat="45.8535" lon="3.54749">
        <ele>392.20001220703</ele>
        <time>2024-04-30T16:57:25.000Z</time>
      </trkpt>
      <trkpt lat="45.85347" lon="3.54749">
        <ele>392</ele>
        <time>2024-04-30T16:57:26.000Z</time>
      </trkpt>
      <trkpt lat="45.85344" lon="3.5475">
        <ele>391.79998779297</ele>
        <time>2024-04-30T16:57:27.000Z</time>
      </trkpt>
      <trkpt lat="45.85343" lon="3.5475">
        <ele>391.60000610352</ele>
        <time>2024-04-30T16:57:28.000Z</time>
      </trkpt>
      <trkpt lat="45.85341" lon="3.54749">
        <ele>391.60000610352</ele>
        <time>2024-04-30T16:57:29.000Z</time>
      </trkpt>
      <trkpt lat="45.85338" lon="3.54749">
        <ele>391.39999389648</ele>
        <time>2024-04-30T16:57:30.000Z</time>
      </trkpt>
      <trkpt lat="45.85334" lon="3.54749">
        <ele>391.20001220703</ele>
        <time>2024-04-30T16:57:31.000Z</time>
      </trkpt>
      <trkpt lat="45.85331" lon="3.54748">
        <ele>391.20001220703</ele>
        <time>2024-04-30T16:57:32.000Z</time>
      </trkpt>
      <trkpt lat="45.85328" lon="3.54747">
        <ele>391</ele>
        <time>2024-04-30T16:57:33.000Z</time>
      </trkpt>
      <trkpt lat="45.85325" lon="3.54749">
        <ele>390.79998779297</ele>
        <time>2024-04-30T16:57:34.000Z</time>
      </trkpt>
      <trkpt lat="45.85322" lon="3.54751">
        <ele>390.79998779297</ele>
        <time>2024-04-30T16:57:35.000Z</time>
      </trkpt>
      <trkpt lat="45.85319" lon="3.54752">
        <ele>390.60000610352</ele>
        <time>2024-04-30T16:57:36.000Z</time>
      </trkpt>
      <trkpt lat="45.85316" lon="3.54753">
        <ele>390.39999389648</ele>
        <time>2024-04-30T16:57:37.000Z</time>
      </trkpt>
      <trkpt lat="45.85313" lon="3.54754">
        <ele>390.20001220703</ele>
        <time>2024-04-30T16:57:38.000Z</time>
      </trkpt>
      <trkpt lat="45.85311" lon="3.54754">
        <ele>389.79998779297</ele>
        <time>2024-04-30T16:57:39.000Z</time>
      </trkpt>
      <trkpt lat="45.85308" lon="3.54755">
        <ele>389.79998779297</ele>
        <time>2024-04-30T16:57:40.000Z</time>
      </trkpt>
      <trkpt lat="45.85306" lon="3.54755">
        <ele>389.60000610352</ele>
        <time>2024-04-30T16:57:41.000Z</time>
      </trkpt>
      <trkpt lat="45.85303" lon="3.54755">
        <ele>389.20001220703</ele>
        <time>2024-04-30T16:57:42.000Z</time>
      </trkpt>
      <trkpt lat="45.85301" lon="3.54756">
        <ele>389.20001220703</ele>
        <time>2024-04-30T16:57:43.000Z</time>
      </trkpt>
      <trkpt lat="45.85298" lon="3.54756">
        <ele>389</ele>
        <time>2024-04-30T16:57:44.000Z</time>
      </trkpt>
      <trkpt lat="45.85296" lon="3.54754">
        <ele>388.60000610352</ele>
        <time>2024-04-30T16:57:45.000Z</time>
      </trkpt>
      <trkpt lat="45.85293" lon="3.54754">
        <ele>388.60000610352</ele>
        <time>2024-04-30T16:57:46.000Z</time>
      </trkpt>
      <trkpt lat="45.8529" lon="3.54754">
        <ele>388.39999389648</ele>
        <time>2024-04-30T16:57:47.000Z</time>
      </trkpt>
      <trkpt lat="45.85288" lon="3.54753">
        <ele>388.20001220703</ele>
        <time>2024-04-30T16:57:48.000Z</time>
      </trkpt>
      <trkpt lat="45.85286" lon="3.54755">
        <ele>388.20001220703</ele>
        <time>2024-04-30T16:57:49.000Z</time>
      </trkpt>
      <trkpt lat="45.85284" lon="3.54758">
        <ele>388</ele>
        <time>2024-04-30T16:57:50.000Z</time>
      </trkpt>
      <trkpt lat="45.85279" lon="3.54758">
        <ele>387.79998779297</ele>
        <time>2024-04-30T16:57:51.000Z</time>
      </trkpt>
      <trkpt lat="45.85275" lon="3.54759">
        <ele>387.79998779297</ele>
        <time>2024-04-30T16:57:52.000Z</time>
      </trkpt>
      <trkpt lat="45.85272" lon="3.54758">
        <ele>388</ele>
        <time>2024-04-30T16:57:53.000Z</time>
      </trkpt>
      <trkpt lat="45.8527" lon="3.54758">
        <ele>388</ele>
        <time>2024-04-30T16:57:54.000Z</time>
      </trkpt>
      <trkpt lat="45.85267" lon="3.54759">
        <ele>387.79998779297</ele>
        <time>2024-04-30T16:57:55.000Z</time>
      </trkpt>
      <trkpt lat="45.85263" lon="3.54758">
        <ele>387.79998779297</ele>
        <time>2024-04-30T16:57:56.000Z</time>
      </trkpt>
      <trkpt lat="45.85259" lon="3.54761">
        <ele>387.60000610352</ele>
        <time>2024-04-30T16:57:57.000Z</time>
      </trkpt>
      <trkpt lat="45.85256" lon="3.54761">
        <ele>387.39999389648</ele>
        <time>2024-04-30T16:57:58.000Z</time>
      </trkpt>
      <trkpt lat="45.85252" lon="3.54762">
        <ele>387.39999389648</ele>
        <time>2024-04-30T16:57:59.000Z</time>
      </trkpt>
      <trkpt lat="45.8525" lon="3.54766">
        <ele>387.20001220703</ele>
        <time>2024-04-30T16:58:00.000Z</time>
      </trkpt>
      <trkpt lat="45.85247" lon="3.54767">
        <ele>387</ele>
        <time>2024-04-30T16:58:01.000Z</time>
      </trkpt>
      <trkpt lat="45.85245" lon="3.54767">
        <ele>387</ele>
        <time>2024-04-30T16:58:02.000Z</time>
      </trkpt>
      <trkpt lat="45.85248" lon="3.54767">
        <ele>386.60000610352</ele>
        <time>2024-04-30T16:58:03.000Z</time>
      </trkpt>
      <trkpt lat="45.85249" lon="3.54769">
        <ele>386.60000610352</ele>
        <time>2024-04-30T16:58:04.000Z</time>
      </trkpt>
      <trkpt lat="45.85249" lon="3.54773">
        <ele>386.20001220703</ele>
        <time>2024-04-30T16:58:05.000Z</time>
      </trkpt>
      <trkpt lat="45.85247" lon="3.54775">
        <ele>386</ele>
        <time>2024-04-30T16:58:06.000Z</time>
      </trkpt>
      <trkpt lat="45.85245" lon="3.54777">
        <ele>386</ele>
        <time>2024-04-30T16:58:07.000Z</time>
      </trkpt>
      <trkpt lat="45.85244" lon="3.54777">
        <ele>385.60000610352</ele>
        <time>2024-04-30T16:58:08.000Z</time>
      </trkpt>
      <trkpt lat="45.85241" lon="3.54778">
        <ele>385.39999389648</ele>
        <time>2024-04-30T16:58:09.000Z</time>
      </trkpt>
      <trkpt lat="45.85238" lon="3.54778">
        <ele>385.20001220703</ele>
        <time>2024-04-30T16:58:10.000Z</time>
      </trkpt>
      <trkpt lat="45.85235" lon="3.5478">
        <ele>384.79998779297</ele>
        <time>2024-04-30T16:58:11.000Z</time>
      </trkpt>
      <trkpt lat="45.85232" lon="3.54782">
        <ele>384.39999389648</ele>
        <time>2024-04-30T16:58:12.000Z</time>
      </trkpt>
      <trkpt lat="45.85229" lon="3.54785">
        <ele>384.20001220703</ele>
        <time>2024-04-30T16:58:13.000Z</time>
      </trkpt>
      <trkpt lat="45.85228" lon="3.54789">
        <ele>383.79998779297</ele>
        <time>2024-04-30T16:58:14.000Z</time>
      </trkpt>
      <trkpt lat="45.85226" lon="3.54792">
        <ele>383.60000610352</ele>
        <time>2024-04-30T16:58:15.000Z</time>
      </trkpt>
      <trkpt lat="45.85224" lon="3.54796">
        <ele>383.20001220703</ele>
        <time>2024-04-30T16:58:16.000Z</time>
      </trkpt>
      <trkpt lat="45.85224" lon="3.54798">
        <ele>383</ele>
        <time>2024-04-30T16:58:17.000Z</time>
      </trkpt>
      <trkpt lat="45.85223" lon="3.548">
        <ele>382.79998779297</ele>
        <time>2024-04-30T16:58:18.000Z</time>
      </trkpt>
      <trkpt lat="45.85223" lon="3.548">
        <ele>382.39999389648</ele>
        <time>2024-04-30T16:58:19.000Z</time>
      </trkpt>
      <trkpt lat="45.85223" lon="3.54799">
        <ele>382</ele>
        <time>2024-04-30T16:58:20.000Z</time>
      </trkpt>
      <trkpt lat="45.85224" lon="3.54795">
        <ele>381.79998779297</ele>
        <time>2024-04-30T16:58:21.000Z</time>
      </trkpt>
      <trkpt lat="45.85223" lon="3.54792">
        <ele>381.79998779297</ele>
        <time>2024-04-30T16:58:22.000Z</time>
      </trkpt>
      <trkpt lat="45.85223" lon="3.54787">
        <ele>381.39999389648</ele>
        <time>2024-04-30T16:58:23.000Z</time>
      </trkpt>
      <trkpt lat="45.85224" lon="3.54783">
        <ele>381.20001220703</ele>
        <time>2024-04-30T16:58:24.000Z</time>
      </trkpt>
      <trkpt lat="45.85225" lon="3.54779">
        <ele>380.79998779297</ele>
        <time>2024-04-30T16:58:25.000Z</time>
      </trkpt>
      <trkpt lat="45.85226" lon="3.54775">
        <ele>380.20001220703</ele>
        <time>2024-04-30T16:58:26.000Z</time>
      </trkpt>
      <trkpt lat="45.85229" lon="3.54773">
        <ele>380</ele>
        <time>2024-04-30T16:58:27.000Z</time>
      </trkpt>
      <trkpt lat="45.85231" lon="3.54769">
        <ele>379.79998779297</ele>
        <time>2024-04-30T16:58:28.000Z</time>
      </trkpt>
      <trkpt lat="45.85233" lon="3.54766">
        <ele>379.39999389648</ele>
        <time>2024-04-30T16:58:29.000Z</time>
      </trkpt>
      <trkpt lat="45.85235" lon="3.54761">
        <ele>379.20001220703</ele>
        <time>2024-04-30T16:58:30.000Z</time>
      </trkpt>
      <trkpt lat="45.85234" lon="3.54756">
        <ele>378.79998779297</ele>
        <time>2024-04-30T16:58:31.000Z</time>
      </trkpt>
      <trkpt lat="45.85233" lon="3.54752">
        <ele>378.39999389648</ele>
        <time>2024-04-30T16:58:32.000Z</time>
      </trkpt>
      <trkpt lat="45.85234" lon="3.54749">
        <ele>377.79998779297</ele>
        <time>2024-04-30T16:58:33.000Z</time>
      </trkpt>
      <trkpt lat="45.85236" lon="3.54745">
        <ele>377.20001220703</ele>
        <time>2024-04-30T16:58:34.000Z</time>
      </trkpt>
      <trkpt lat="45.85239" lon="3.54741">
        <ele>376.60000610352</ele>
        <time>2024-04-30T16:58:35.000Z</time>
      </trkpt>
      <trkpt lat="45.8524" lon="3.54738">
        <ele>376</ele>
        <time>2024-04-30T16:58:36.000Z</time>
      </trkpt>
      <trkpt lat="45.85242" lon="3.54735">
        <ele>375.39999389648</ele>
        <time>2024-04-30T16:58:37.000Z</time>
      </trkpt>
      <trkpt lat="45.85244" lon="3.54731">
        <ele>375.20001220703</ele>
        <time>2024-04-30T16:58:38.000Z</time>
      </trkpt>
      <trkpt lat="45.85243" lon="3.54727">
        <ele>374.60000610352</ele>
        <time>2024-04-30T16:58:39.000Z</time>
      </trkpt>
      <trkpt lat="45.85244" lon="3.54723">
        <ele>374</ele>
        <time>2024-04-30T16:58:40.000Z</time>
      </trkpt>
      <trkpt lat="45.85245" lon="3.54719">
        <ele>373.79998779297</ele>
        <time>2024-04-30T16:58:41.000Z</time>
      </trkpt>
      <trkpt lat="45.85245" lon="3.54715">
        <ele>373.20001220703</ele>
        <time>2024-04-30T16:58:42.000Z</time>
      </trkpt>
      <trkpt lat="45.85245" lon="3.54711">
        <ele>372.79998779297</ele>
        <time>2024-04-30T16:58:43.000Z</time>
      </trkpt>
      <trkpt lat="45.85246" lon="3.54708">
        <ele>372.60000610352</ele>
        <time>2024-04-30T16:58:44.000Z</time>
      </trkpt>
      <trkpt lat="45.85247" lon="3.54704">
        <ele>372.20001220703</ele>
        <time>2024-04-30T16:58:45.000Z</time>
      </trkpt>
      <trkpt lat="45.85246" lon="3.547">
        <ele>371.60000610352</ele>
        <time>2024-04-30T16:58:46.000Z</time>
      </trkpt>
      <trkpt lat="45.85246" lon="3.54695">
        <ele>371.20001220703</ele>
        <time>2024-04-30T16:58:47.000Z</time>
      </trkpt>
      <trkpt lat="45.85248" lon="3.54692">
        <ele>371</ele>
        <time>2024-04-30T16:58:48.000Z</time>
      </trkpt>
      <trkpt lat="45.85248" lon="3.54688">
        <ele>370.60000610352</ele>
        <time>2024-04-30T16:58:49.000Z</time>
      </trkpt>
      <trkpt lat="45.85248" lon="3.54684">
        <ele>370.20001220703</ele>
        <time>2024-04-30T16:58:50.000Z</time>
      </trkpt>
      <trkpt lat="45.85249" lon="3.54681">
        <ele>369.79998779297</ele>
        <time>2024-04-30T16:58:51.000Z</time>
      </trkpt>
      <trkpt lat="45.8525" lon="3.54678">
        <ele>369.20001220703</ele>
        <time>2024-04-30T16:58:52.000Z</time>
      </trkpt>
      <trkpt lat="45.85251" lon="3.54673">
        <ele>368.60000610352</ele>
        <time>2024-04-30T16:58:53.000Z</time>
      </trkpt>
      <trkpt lat="45.85253" lon="3.54669">
        <ele>368</ele>
        <time>2024-04-30T16:58:54.000Z</time>
      </trkpt>
      <trkpt lat="45.85254" lon="3.54666">
        <ele>367.39999389648</ele>
        <time>2024-04-30T16:58:55.000Z</time>
      </trkpt>
      <trkpt lat="45.85256" lon="3.54662">
        <ele>366.79998779297</ele>
        <time>2024-04-30T16:58:56.000Z</time>
      </trkpt>
      <trkpt lat="45.85255" lon="3.54658">
        <ele>366.20001220703</ele>
        <time>2024-04-30T16:58:57.000Z</time>
      </trkpt>
      <trkpt lat="45.85254" lon="3.54655">
        <ele>366</ele>
        <time>2024-04-30T16:58:58.000Z</time>
      </trkpt>
      <trkpt lat="45.85251" lon="3.54652">
        <ele>365.60000610352</ele>
        <time>2024-04-30T16:58:59.000Z</time>
      </trkpt>
      <trkpt lat="45.85248" lon="3.54651">
        <ele>365.20001220703</ele>
        <time>2024-04-30T16:59:00.000Z</time>
      </trkpt>
      <trkpt lat="45.85246" lon="3.54652">
        <ele>365</ele>
        <time>2024-04-30T16:59:01.000Z</time>
      </trkpt>
      <trkpt lat="45.85242" lon="3.54652">
        <ele>364.60000610352</ele>
        <time>2024-04-30T16:59:02.000Z</time>
      </trkpt>
      <trkpt lat="45.8524" lon="3.54652">
        <ele>364.20001220703</ele>
        <time>2024-04-30T16:59:03.000Z</time>
      </trkpt>
      <trkpt lat="45.85238" lon="3.54652">
        <ele>364.20001220703</ele>
        <time>2024-04-30T16:59:04.000Z</time>
      </trkpt>
      <trkpt lat="45.85236" lon="3.54651">
        <ele>364</ele>
        <time>2024-04-30T16:59:05.000Z</time>
      </trkpt>
      <trkpt lat="45.85233" lon="3.54649">
        <ele>363.60000610352</ele>
        <time>2024-04-30T16:59:06.000Z</time>
      </trkpt>
      <trkpt lat="45.85231" lon="3.54648">
        <ele>363.60000610352</ele>
        <time>2024-04-30T16:59:07.000Z</time>
      </trkpt>
      <trkpt lat="45.85229" lon="3.54643">
        <ele>363.60000610352</ele>
        <time>2024-04-30T16:59:08.000Z</time>
      </trkpt>
      <trkpt lat="45.85226" lon="3.54641">
        <ele>363.39999389648</ele>
        <time>2024-04-30T16:59:09.000Z</time>
      </trkpt>
      <trkpt lat="45.85223" lon="3.54639">
        <ele>363</ele>
        <time>2024-04-30T16:59:10.000Z</time>
      </trkpt>
      <trkpt lat="45.8522" lon="3.54635">
        <ele>362.79998779297</ele>
        <time>2024-04-30T16:59:11.000Z</time>
      </trkpt>
      <trkpt lat="45.85217" lon="3.54633">
        <ele>362.39999389648</ele>
        <time>2024-04-30T16:59:12.000Z</time>
      </trkpt>
      <trkpt lat="45.85215" lon="3.54631">
        <ele>362</ele>
        <time>2024-04-30T16:59:13.000Z</time>
      </trkpt>
      <trkpt lat="45.85214" lon="3.5463">
        <ele>361.60000610352</ele>
        <time>2024-04-30T16:59:14.000Z</time>
      </trkpt>
      <trkpt lat="45.85214" lon="3.54625">
        <ele>361.39999389648</ele>
        <time>2024-04-30T16:59:15.000Z</time>
      </trkpt>
      <trkpt lat="45.85215" lon="3.54622">
        <ele>360.79998779297</ele>
        <time>2024-04-30T16:59:16.000Z</time>
      </trkpt>
      <trkpt lat="45.85217" lon="3.5462">
        <ele>360.39999389648</ele>
        <time>2024-04-30T16:59:17.000Z</time>
      </trkpt>
      <trkpt lat="45.85219" lon="3.5462">
        <ele>360.20001220703</ele>
        <time>2024-04-30T16:59:18.000Z</time>
      </trkpt>
      <trkpt lat="45.8522" lon="3.54619">
        <ele>359.79998779297</ele>
        <time>2024-04-30T16:59:19.000Z</time>
      </trkpt>
      <trkpt lat="45.85221" lon="3.54618">
        <ele>359.39999389648</ele>
        <time>2024-04-30T16:59:20.000Z</time>
      </trkpt>
      <trkpt lat="45.85223" lon="3.54616">
        <ele>359.39999389648</ele>
        <time>2024-04-30T16:59:21.000Z</time>
      </trkpt>
      <trkpt lat="45.85224" lon="3.54615">
        <ele>359.60000610352</ele>
        <time>2024-04-30T16:59:22.000Z</time>
      </trkpt>
      <trkpt lat="45.85225" lon="3.54612">
        <ele>359.60000610352</ele>
        <time>2024-04-30T16:59:23.000Z</time>
      </trkpt>
      <trkpt lat="45.85224" lon="3.54609">
        <ele>359.60000610352</ele>
        <time>2024-04-30T16:59:24.000Z</time>
      </trkpt>
      <trkpt lat="45.85225" lon="3.54609">
        <ele>359.79998779297</ele>
        <time>2024-04-30T16:59:25.000Z</time>
      </trkpt>
      <trkpt lat="45.85226" lon="3.54608">
        <ele>359.79998779297</ele>
        <time>2024-04-30T16:59:26.000Z</time>
      </trkpt>
      <trkpt lat="45.85228" lon="3.54607">
        <ele>359.79998779297</ele>
        <time>2024-04-30T16:59:27.000Z</time>
      </trkpt>
      <trkpt lat="45.85232" lon="3.54606">
        <ele>359.79998779297</ele>
        <time>2024-04-30T16:59:28.000Z</time>
      </trkpt>
      <trkpt lat="45.85234" lon="3.54603">
        <ele>359.79998779297</ele>
        <time>2024-04-30T16:59:29.000Z</time>
      </trkpt>
      <trkpt lat="45.85238" lon="3.54602">
        <ele>359.60000610352</ele>
        <time>2024-04-30T16:59:30.000Z</time>
      </trkpt>
      <trkpt lat="45.85241" lon="3.54601">
        <ele>359.20001220703</ele>
        <time>2024-04-30T16:59:31.000Z</time>
      </trkpt>
      <trkpt lat="45.85242" lon="3.54599">
        <ele>358.79998779297</ele>
        <time>2024-04-30T16:59:32.000Z</time>
      </trkpt>
      <trkpt lat="45.85245" lon="3.54597">
        <ele>358.39999389648</ele>
        <time>2024-04-30T16:59:33.000Z</time>
      </trkpt>
      <trkpt lat="45.85246" lon="3.54595">
        <ele>358</ele>
        <time>2024-04-30T16:59:34.000Z</time>
      </trkpt>
      <trkpt lat="45.85249" lon="3.54593">
        <ele>357.60000610352</ele>
        <time>2024-04-30T16:59:35.000Z</time>
      </trkpt>
      <trkpt lat="45.85253" lon="3.54591">
        <ele>357.39999389648</ele>
        <time>2024-04-30T16:59:36.000Z</time>
      </trkpt>
      <trkpt lat="45.85257" lon="3.5459">
        <ele>357</ele>
        <time>2024-04-30T16:59:37.000Z</time>
      </trkpt>
      <trkpt lat="45.8526" lon="3.54588">
        <ele>356.79998779297</ele>
        <time>2024-04-30T16:59:38.000Z</time>
      </trkpt>
      <trkpt lat="45.85263" lon="3.54587">
        <ele>356.60000610352</ele>
        <time>2024-04-30T16:59:39.000Z</time>
      </trkpt>
      <trkpt lat="45.85267" lon="3.54585">
        <ele>356.39999389648</ele>
        <time>2024-04-30T16:59:40.000Z</time>
      </trkpt>
      <trkpt lat="45.85271" lon="3.54582">
        <ele>356</ele>
        <time>2024-04-30T16:59:41.000Z</time>
      </trkpt>
      <trkpt lat="45.85273" lon="3.5458">
        <ele>355.79998779297</ele>
        <time>2024-04-30T16:59:42.000Z</time>
      </trkpt>
      <trkpt lat="45.85274" lon="3.54578">
        <ele>355.39999389648</ele>
        <time>2024-04-30T16:59:43.000Z</time>
      </trkpt>
      <trkpt lat="45.85276" lon="3.54577">
        <ele>355.20001220703</ele>
        <time>2024-04-30T16:59:44.000Z</time>
      </trkpt>
      <trkpt lat="45.85279" lon="3.54577">
        <ele>354.79998779297</ele>
        <time>2024-04-30T16:59:45.000Z</time>
      </trkpt>
      <trkpt lat="45.85282" lon="3.54575">
        <ele>354.60000610352</ele>
        <time>2024-04-30T16:59:46.000Z</time>
      </trkpt>
      <trkpt lat="45.85285" lon="3.54572">
        <ele>354.20001220703</ele>
        <time>2024-04-30T16:59:47.000Z</time>
      </trkpt>
      <trkpt lat="45.85287" lon="3.5457">
        <ele>354</ele>
        <time>2024-04-30T16:59:48.000Z</time>
      </trkpt>
      <trkpt lat="45.8529" lon="3.54568">
        <ele>353.60000610352</ele>
        <time>2024-04-30T16:59:49.000Z</time>
      </trkpt>
      <trkpt lat="45.85293" lon="3.54567">
        <ele>353.20001220703</ele>
        <time>2024-04-30T16:59:50.000Z</time>
      </trkpt>
      <trkpt lat="45.85296" lon="3.54565">
        <ele>352.60000610352</ele>
        <time>2024-04-30T16:59:51.000Z</time>
      </trkpt>
      <trkpt lat="45.85299" lon="3.54564">
        <ele>352.20001220703</ele>
        <time>2024-04-30T16:59:52.000Z</time>
      </trkpt>
      <trkpt lat="45.85301" lon="3.54562">
        <ele>351.79998779297</ele>
        <time>2024-04-30T16:59:53.000Z</time>
      </trkpt>
      <trkpt lat="45.85303" lon="3.54561">
        <ele>351.39999389648</ele>
        <time>2024-04-30T16:59:54.000Z</time>
      </trkpt>
      <trkpt lat="45.85306" lon="3.54559">
        <ele>350.79998779297</ele>
        <time>2024-04-30T16:59:55.000Z</time>
      </trkpt>
      <trkpt lat="45.85309" lon="3.54558">
        <ele>350.60000610352</ele>
        <time>2024-04-30T16:59:56.000Z</time>
      </trkpt>
      <trkpt lat="45.85312" lon="3.54557">
        <ele>350.20001220703</ele>
        <time>2024-04-30T16:59:57.000Z</time>
      </trkpt>
      <trkpt lat="45.85315" lon="3.54555">
        <ele>349.79998779297</ele>
        <time>2024-04-30T16:59:58.000Z</time>
      </trkpt>
      <trkpt lat="45.8532" lon="3.54553">
        <ele>349.39999389648</ele>
        <time>2024-04-30T16:59:59.000Z</time>
      </trkpt>
      <trkpt lat="45.85323" lon="3.54552">
        <ele>349</ele>
        <time>2024-04-30T17:00:00.000Z</time>
      </trkpt>
      <trkpt lat="45.85325" lon="3.5455">
        <ele>349</ele>
        <time>2024-04-30T17:00:01.000Z</time>
      </trkpt>
      <trkpt lat="45.85327" lon="3.54549">
        <ele>348.60000610352</ele>
        <time>2024-04-30T17:00:02.000Z</time>
      </trkpt>
      <trkpt lat="45.8533" lon="3.54548">
        <ele>348.20001220703</ele>
        <time>2024-04-30T17:00:03.000Z</time>
      </trkpt>
      <trkpt lat="45.85334" lon="3.54548">
        <ele>348</ele>
        <time>2024-04-30T17:00:04.000Z</time>
      </trkpt>
      <trkpt lat="45.85336" lon="3.54547">
        <ele>347.79998779297</ele>
        <time>2024-04-30T17:00:05.000Z</time>
      </trkpt>
      <trkpt lat="45.85338" lon="3.54546">
        <ele>347.39999389648</ele>
        <time>2024-04-30T17:00:06.000Z</time>
      </trkpt>
      <trkpt lat="45.8534" lon="3.54546">
        <ele>347.20001220703</ele>
        <time>2024-04-30T17:00:07.000Z</time>
      </trkpt>
      <trkpt lat="45.85343" lon="3.54545">
        <ele>347.20001220703</ele>
        <time>2024-04-30T17:00:08.000Z</time>
      </trkpt>
      <trkpt lat="45.85346" lon="3.54546">
        <ele>347</ele>
        <time>2024-04-30T17:00:09.000Z</time>
      </trkpt>
      <trkpt lat="45.85347" lon="3.54546">
        <ele>346.60000610352</ele>
        <time>2024-04-30T17:00:10.000Z</time>
      </trkpt>
      <trkpt lat="45.85347" lon="3.54547">
        <ele>346.79998779297</ele>
        <time>2024-04-30T17:00:11.000Z</time>
      </trkpt>
      <trkpt lat="45.8535" lon="3.54551">
        <ele>346.60000610352</ele>
        <time>2024-04-30T17:00:12.000Z</time>
      </trkpt>
      <trkpt lat="45.85349" lon="3.54554">
        <ele>346.60000610352</ele>
        <time>2024-04-30T17:00:13.000Z</time>
      </trkpt>
      <trkpt lat="45.85348" lon="3.54556">
        <ele>346.79998779297</ele>
        <time>2024-04-30T17:00:14.000Z</time>
      </trkpt>
      <trkpt lat="45.85346" lon="3.54559">
        <ele>347.20001220703</ele>
        <time>2024-04-30T17:00:15.000Z</time>
      </trkpt>
      <trkpt lat="45.85344" lon="3.54561">
        <ele>347.20001220703</ele>
        <time>2024-04-30T17:00:16.000Z</time>
      </trkpt>
      <trkpt lat="45.85342" lon="3.54564">
        <ele>347.60000610352</ele>
        <time>2024-04-30T17:00:17.000Z</time>
      </trkpt>
      <trkpt lat="45.85341" lon="3.54566">
        <ele>348</ele>
        <time>2024-04-30T17:00:18.000Z</time>
      </trkpt>
      <trkpt lat="45.8534" lon="3.54569">
        <ele>348.20001220703</ele>
        <time>2024-04-30T17:00:19.000Z</time>
      </trkpt>
      <trkpt lat="45.85338" lon="3.54573">
        <ele>348.60000610352</ele>
        <time>2024-04-30T17:00:20.000Z</time>
      </trkpt>
      <trkpt lat="45.85341" lon="3.54574">
        <ele>349</ele>
        <time>2024-04-30T17:00:21.000Z</time>
      </trkpt>
      <trkpt lat="45.8534" lon="3.54573">
        <ele>349.39999389648</ele>
        <time>2024-04-30T17:00:22.000Z</time>
      </trkpt>
      <trkpt lat="45.8534" lon="3.54573">
        <ele>349.79998779297</ele>
        <time>2024-04-30T17:00:23.000Z</time>
      </trkpt>
      <trkpt lat="45.85339" lon="3.54576">
        <ele>350</ele>
        <time>2024-04-30T17:00:24.000Z</time>
      </trkpt>
      <trkpt lat="45.8534" lon="3.54575">
        <ele>350.20001220703</ele>
        <time>2024-04-30T17:00:25.000Z</time>
      </trkpt>
      <trkpt lat="45.8534" lon="3.54575">
        <ele>350.39999389648</ele>
        <time>2024-04-30T17:00:26.000Z</time>
      </trkpt>
      <trkpt lat="45.8534" lon="3.54576">
        <ele>350.79998779297</ele>
        <time>2024-04-30T17:00:27.000Z</time>
      </trkpt>
      <trkpt lat="45.8534" lon="3.54576">
        <ele>351</ele>
        <time>2024-04-30T17:00:28.000Z</time>
      </trkpt>
      <trkpt lat="45.85341" lon="3.54576">
        <ele>351.39999389648</ele>
        <time>2024-04-30T17:00:29.000Z</time>
      </trkpt>
      <trkpt lat="45.85343" lon="3.54577">
        <ele>351.79998779297</ele>
        <time>2024-04-30T17:00:30.000Z</time>
      </trkpt>
      <trkpt lat="45.85344" lon="3.54579">
        <ele>352</ele>
        <time>2024-04-30T17:00:31.000Z</time>
      </trkpt>
      <trkpt lat="45.85344" lon="3.5458">
        <ele>352.20001220703</ele>
        <time>2024-04-30T17:00:32.000Z</time>
      </trkpt>
      <trkpt lat="45.85345" lon="3.5458">
        <ele>352.60000610352</ele>
        <time>2024-04-30T17:00:33.000Z</time>
      </trkpt>
      <trkpt lat="45.85346" lon="3.54582">
        <ele>353</ele>
        <time>2024-04-30T17:00:34.000Z</time>
      </trkpt>
      <trkpt lat="45.85347" lon="3.54582">
        <ele>353.20001220703</ele>
        <time>2024-04-30T17:00:35.000Z</time>
      </trkpt>
      <trkpt lat="45.85346" lon="3.54582">
        <ele>353.60000610352</ele>
        <time>2024-04-30T17:00:36.000Z</time>
      </trkpt>
      <trkpt lat="45.85348" lon="3.54582">
        <ele>353.79998779297</ele>
        <time>2024-04-30T17:00:37.000Z</time>
      </trkpt>
      <trkpt lat="45.85348" lon="3.54582">
        <ele>354</ele>
        <time>2024-04-30T17:00:38.000Z</time>
      </trkpt>
      <trkpt lat="45.85348" lon="3.54582">
        <ele>354.20001220703</ele>
        <time>2024-04-30T17:00:39.000Z</time>
      </trkpt>
      <trkpt lat="45.85348" lon="3.54581">
        <ele>354.60000610352</ele>
        <time>2024-04-30T17:00:40.000Z</time>
      </trkpt>
      <trkpt lat="45.85348" lon="3.54581">
        <ele>354.60000610352</ele>
        <time>2024-04-30T17:00:41.000Z</time>
      </trkpt>
      <trkpt lat="45.85349" lon="3.54582">
        <ele>355</ele>
        <time>2024-04-30T17:00:42.000Z</time>
      </trkpt>
      <trkpt lat="45.8535" lon="3.54583">
        <ele>355.39999389648</ele>
        <time>2024-04-30T17:00:43.000Z</time>
      </trkpt>
      <trkpt lat="45.85349" lon="3.54583">
        <ele>355.60000610352</ele>
        <time>2024-04-30T17:00:44.000Z</time>
      </trkpt>
      <trkpt lat="45.85349" lon="3.54584">
        <ele>355.79998779297</ele>
        <time>2024-04-30T17:00:45.000Z</time>
      </trkpt>
      <trkpt lat="45.8535" lon="3.54585">
        <ele>356</ele>
        <time>2024-04-30T17:00:46.000Z</time>
      </trkpt>
      <trkpt lat="45.8535" lon="3.54587">
        <ele>356.39999389648</ele>
        <time>2024-04-30T17:00:47.000Z</time>
      </trkpt>
      <trkpt lat="45.8535" lon="3.54587">
        <ele>356.60000610352</ele>
        <time>2024-04-30T17:00:48.000Z</time>
      </trkpt>
      <trkpt lat="45.85349" lon="3.54588">
        <ele>356.79998779297</ele>
        <time>2024-04-30T17:00:49.000Z</time>
      </trkpt>
      <trkpt lat="45.85349" lon="3.54588">
        <ele>357.20001220703</ele>
        <time>2024-04-30T17:00:50.000Z</time>
      </trkpt>
      <trkpt lat="45.85349" lon="3.54588">
        <ele>357.39999389648</ele>
        <time>2024-04-30T17:00:51.000Z</time>
      </trkpt>
      <trkpt lat="45.85349" lon="3.54589">
        <ele>357.60000610352</ele>
        <time>2024-04-30T17:00:52.000Z</time>
      </trkpt>
      <trkpt lat="45.8535" lon="3.5459">
        <ele>358</ele>
        <time>2024-04-30T17:00:53.000Z</time>
      </trkpt>
      <trkpt lat="45.8535" lon="3.5459">
        <ele>358.20001220703</ele>
        <time>2024-04-30T17:00:54.000Z</time>
      </trkpt>
      <trkpt lat="45.8535" lon="3.5459">
        <ele>358.60000610352</ele>
        <time>2024-04-30T17:00:55.000Z</time>
      </trkpt>
      <trkpt lat="45.8535" lon="3.5459">
        <ele>358.79998779297</ele>
        <time>2024-04-30T17:00:56.000Z</time>
      </trkpt>
      <trkpt lat="45.85351" lon="3.5459">
        <ele>359</ele>
        <time>2024-04-30T17:00:57.000Z</time>
      </trkpt>
      <trkpt lat="45.85351" lon="3.5459">
        <ele>359.20001220703</ele>
        <time>2024-04-30T17:00:58.000Z</time>
      </trkpt>
      <trkpt lat="45.85351" lon="3.54589">
        <ele>359.60000610352</ele>
        <time>2024-04-30T17:00:59.000Z</time>
      </trkpt>
      <trkpt lat="45.85353" lon="3.54589">
        <ele>360</ele>
        <time>2024-04-30T17:01:00.000Z</time>
      </trkpt>
      <trkpt lat="45.85354" lon="3.54589">
        <ele>360.60000610352</ele>
        <time>2024-04-30T17:01:01.000Z</time>
      </trkpt>
      <trkpt lat="45.85354" lon="3.54589">
        <ele>360.79998779297</ele>
        <time>2024-04-30T17:01:02.000Z</time>
      </trkpt>
      <trkpt lat="45.85354" lon="3.54589">
        <ele>361.20001220703</ele>
        <time>2024-04-30T17:01:03.000Z</time>
      </trkpt>
      <trkpt lat="45.85354" lon="3.54588">
        <ele>361.39999389648</ele>
        <time>2024-04-30T17:01:04.000Z</time>
      </trkpt>
      <trkpt lat="45.85355" lon="3.54588">
        <ele>361.39999389648</ele>
        <time>2024-04-30T17:01:05.000Z</time>
      </trkpt>
      <trkpt lat="45.85355" lon="3.54588">
        <ele>361.60000610352</ele>
        <time>2024-04-30T17:01:06.000Z</time>
      </trkpt>
      <trkpt lat="45.85356" lon="3.54589">
        <ele>361.79998779297</ele>
        <time>2024-04-30T17:01:07.000Z</time>
      </trkpt>
      <trkpt lat="45.85357" lon="3.5459">
        <ele>362</ele>
        <time>2024-04-30T17:01:08.000Z</time>
      </trkpt>
      <trkpt lat="45.85357" lon="3.5459">
        <ele>362.20001220703</ele>
        <time>2024-04-30T17:01:09.000Z</time>
      </trkpt>
      <trkpt lat="45.85358" lon="3.54591">
        <ele>362.39999389648</ele>
        <time>2024-04-30T17:01:10.000Z</time>
      </trkpt>
      <trkpt lat="45.85359" lon="3.54592">
        <ele>362.79998779297</ele>
        <time>2024-04-30T17:01:11.000Z</time>
      </trkpt>
      <trkpt lat="45.8536" lon="3.54593">
        <ele>363</ele>
        <time>2024-04-30T17:01:12.000Z</time>
      </trkpt>
      <trkpt lat="45.8536" lon="3.54593">
        <ele>363</ele>
        <time>2024-04-30T17:01:13.000Z</time>
      </trkpt>
      <trkpt lat="45.85361" lon="3.54594">
        <ele>363.20001220703</ele>
        <time>2024-04-30T17:01:14.000Z</time>
      </trkpt>
      <trkpt lat="45.85361" lon="3.54594">
        <ele>363.39999389648</ele>
        <time>2024-04-30T17:01:15.000Z</time>
      </trkpt>
      <trkpt lat="45.85362" lon="3.54596">
        <ele>363.39999389648</ele>
        <time>2024-04-30T17:01:16.000Z</time>
      </trkpt>
      <trkpt lat="45.85363" lon="3.54596">
        <ele>363.60000610352</ele>
        <time>2024-04-30T17:01:17.000Z</time>
      </trkpt>
      <trkpt lat="45.85363" lon="3.54597">
        <ele>364</ele>
        <time>2024-04-30T17:01:18.000Z</time>
      </trkpt>
      <trkpt lat="45.85363" lon="3.54597">
        <ele>364</ele>
        <time>2024-04-30T17:01:19.000Z</time>
      </trkpt>
      <trkpt lat="45.85364" lon="3.54598">
        <ele>364.39999389648</ele>
        <time>2024-04-30T17:01:20.000Z</time>
      </trkpt>
      <trkpt lat="45.85364" lon="3.54598">
        <ele>364.60000610352</ele>
        <time>2024-04-30T17:01:21.000Z</time>
      </trkpt>
      <trkpt lat="45.85365" lon="3.54599">
        <ele>364.60000610352</ele>
        <time>2024-04-30T17:01:22.000Z</time>
      </trkpt>
      <trkpt lat="45.85366" lon="3.546">
        <ele>364.79998779297</ele>
        <time>2024-04-30T17:01:23.000Z</time>
      </trkpt>
      <trkpt lat="45.85366" lon="3.546">
        <ele>365.20001220703</ele>
        <time>2024-04-30T17:01:24.000Z</time>
      </trkpt>
      <trkpt lat="45.85367" lon="3.54601">
        <ele>365.60000610352</ele>
        <time>2024-04-30T17:01:25.000Z</time>
      </trkpt>
      <trkpt lat="45.85367" lon="3.54601">
        <ele>366</ele>
        <time>2024-04-30T17:01:26.000Z</time>
      </trkpt>
      <trkpt lat="45.85368" lon="3.54602">
        <ele>366.39999389648</ele>
        <time>2024-04-30T17:01:27.000Z</time>
      </trkpt>
      <trkpt lat="45.85368" lon="3.54602">
        <ele>366.79998779297</ele>
        <time>2024-04-30T17:01:28.000Z</time>
      </trkpt>
      <trkpt lat="45.85369" lon="3.54604">
        <ele>367.20001220703</ele>
        <time>2024-04-30T17:01:29.000Z</time>
      </trkpt>
      <trkpt lat="45.85369" lon="3.54605">
        <ele>367.39999389648</ele>
        <time>2024-04-30T17:01:30.000Z</time>
      </trkpt>
      <trkpt lat="45.8537" lon="3.54605">
        <ele>367.39999389648</ele>
        <time>2024-04-30T17:01:31.000Z</time>
      </trkpt>
      <trkpt lat="45.85371" lon="3.54606">
        <ele>367.39999389648</ele>
        <time>2024-04-30T17:01:32.000Z</time>
      </trkpt>
      <trkpt lat="45.85371" lon="3.54605">
        <ele>367.60000610352</ele>
        <time>2024-04-30T17:01:33.000Z</time>
      </trkpt>
      <trkpt lat="45.85372" lon="3.54606">
        <ele>367.79998779297</ele>
        <time>2024-04-30T17:01:34.000Z</time>
      </trkpt>
      <trkpt lat="45.85372" lon="3.54608">
        <ele>368</ele>
        <time>2024-04-30T17:01:35.000Z</time>
      </trkpt>
      <trkpt lat="45.85373" lon="3.54608">
        <ele>368.20001220703</ele>
        <time>2024-04-30T17:01:36.000Z</time>
      </trkpt>
      <trkpt lat="45.85373" lon="3.54608">
        <ele>368.39999389648</ele>
        <time>2024-04-30T17:01:37.000Z</time>
      </trkpt>
      <trkpt lat="45.85374" lon="3.54609">
        <ele>368.79998779297</ele>
        <time>2024-04-30T17:01:38.000Z</time>
      </trkpt>
      <trkpt lat="45.85374" lon="3.54609">
        <ele>369.20001220703</ele>
        <time>2024-04-30T17:01:39.000Z</time>
      </trkpt>
      <trkpt lat="45.85373" lon="3.54608">
        <ele>369.39999389648</ele>
        <time>2024-04-30T17:01:40.000Z</time>
      </trkpt>
      <trkpt lat="45.85374" lon="3.5461">
        <ele>369.79998779297</ele>
        <time>2024-04-30T17:01:41.000Z</time>
      </trkpt>
      <trkpt lat="45.85374" lon="3.5461">
        <ele>370</ele>
        <time>2024-04-30T17:01:42.000Z</time>
      </trkpt>
      <trkpt lat="45.85377" lon="3.54611">
        <ele>370.39999389648</ele>
        <time>2024-04-30T17:01:43.000Z</time>
      </trkpt>
      <trkpt lat="45.85377" lon="3.54613">
        <ele>370.79998779297</ele>
        <time>2024-04-30T17:01:44.000Z</time>
      </trkpt>
      <trkpt lat="45.85377" lon="3.54612">
        <ele>371</ele>
        <time>2024-04-30T17:01:45.000Z</time>
      </trkpt>
      <trkpt lat="45.85378" lon="3.54614">
        <ele>371.20001220703</ele>
        <time>2024-04-30T17:01:46.000Z</time>
      </trkpt>
      <trkpt lat="45.85379" lon="3.54615">
        <ele>371.39999389648</ele>
        <time>2024-04-30T17:01:47.000Z</time>
      </trkpt>
      <trkpt lat="45.85378" lon="3.54614">
        <ele>371.60000610352</ele>
        <time>2024-04-30T17:01:48.000Z</time>
      </trkpt>
      <trkpt lat="45.85379" lon="3.54615">
        <ele>371.79998779297</ele>
        <time>2024-04-30T17:01:49.000Z</time>
      </trkpt>
      <trkpt lat="45.8538" lon="3.54616">
        <ele>371.79998779297</ele>
        <time>2024-04-30T17:01:50.000Z</time>
      </trkpt>
      <trkpt lat="45.8538" lon="3.54616">
        <ele>372</ele>
        <time>2024-04-30T17:01:51.000Z</time>
      </trkpt>
      <trkpt lat="45.85381" lon="3.54616">
        <ele>372.20001220703</ele>
        <time>2024-04-30T17:01:52.000Z</time>
      </trkpt>
      <trkpt lat="45.85381" lon="3.54617">
        <ele>372.20001220703</ele>
        <time>2024-04-30T17:01:53.000Z</time>
      </trkpt>
      <trkpt lat="45.85381" lon="3.54617">
        <ele>372.60000610352</ele>
        <time>2024-04-30T17:01:54.000Z</time>
      </trkpt>
      <trkpt lat="45.85382" lon="3.54618">
        <ele>372.79998779297</ele>
        <time>2024-04-30T17:01:55.000Z</time>
      </trkpt>
      <trkpt lat="45.85383" lon="3.54619">
        <ele>373</ele>
        <time>2024-04-30T17:01:56.000Z</time>
      </trkpt>
      <trkpt lat="45.85384" lon="3.5462">
        <ele>373.20001220703</ele>
        <time>2024-04-30T17:01:57.000Z</time>
      </trkpt>
      <trkpt lat="45.85384" lon="3.5462">
        <ele>373.60000610352</ele>
        <time>2024-04-30T17:01:58.000Z</time>
      </trkpt>
      <trkpt lat="45.85385" lon="3.54621">
        <ele>374</ele>
        <time>2024-04-30T17:01:59.000Z</time>
      </trkpt>
      <trkpt lat="45.85386" lon="3.54622">
        <ele>374.39999389648</ele>
        <time>2024-04-30T17:02:00.000Z</time>
      </trkpt>
      <trkpt lat="45.85388" lon="3.54623">
        <ele>374.79998779297</ele>
        <time>2024-04-30T17:02:01.000Z</time>
      </trkpt>
      <trkpt lat="45.85389" lon="3.54623">
        <ele>375.20001220703</ele>
        <time>2024-04-30T17:02:02.000Z</time>
      </trkpt>
      <trkpt lat="45.85388" lon="3.54623">
        <ele>375.39999389648</ele>
        <time>2024-04-30T17:02:03.000Z</time>
      </trkpt>
      <trkpt lat="45.85388" lon="3.54623">
        <ele>375.39999389648</ele>
        <time>2024-04-30T17:02:04.000Z</time>
      </trkpt>
      <trkpt lat="45.85389" lon="3.54623">
        <ele>375.60000610352</ele>
        <time>2024-04-30T17:02:05.000Z</time>
      </trkpt>
      <trkpt lat="45.85389" lon="3.54624">
        <ele>375.79998779297</ele>
        <time>2024-04-30T17:02:06.000Z</time>
      </trkpt>
      <trkpt lat="45.85391" lon="3.54624">
        <ele>376</ele>
        <time>2024-04-30T17:02:07.000Z</time>
      </trkpt>
      <trkpt lat="45.85391" lon="3.54625">
        <ele>376.20001220703</ele>
        <time>2024-04-30T17:02:08.000Z</time>
      </trkpt>
      <trkpt lat="45.85392" lon="3.54627">
        <ele>376.39999389648</ele>
        <time>2024-04-30T17:02:09.000Z</time>
      </trkpt>
      <trkpt lat="45.85393" lon="3.54628">
        <ele>376.60000610352</ele>
        <time>2024-04-30T17:02:10.000Z</time>
      </trkpt>
      <trkpt lat="45.85394" lon="3.54629">
        <ele>376.79998779297</ele>
        <time>2024-04-30T17:02:11.000Z</time>
      </trkpt>
      <trkpt lat="45.85393" lon="3.54628">
        <ele>377</ele>
        <time>2024-04-30T17:02:12.000Z</time>
      </trkpt>
      <trkpt lat="45.85394" lon="3.54629">
        <ele>377.20001220703</ele>
        <time>2024-04-30T17:02:13.000Z</time>
      </trkpt>
      <trkpt lat="45.85394" lon="3.54631">
        <ele>377.60000610352</ele>
        <time>2024-04-30T17:02:14.000Z</time>
      </trkpt>
      <trkpt lat="45.85395" lon="3.54632">
        <ele>378</ele>
        <time>2024-04-30T17:02:15.000Z</time>
      </trkpt>
      <trkpt lat="45.85395" lon="3.54633">
        <ele>378.20001220703</ele>
        <time>2024-04-30T17:02:16.000Z</time>
      </trkpt>
      <trkpt lat="45.85395" lon="3.54633">
        <ele>378.39999389648</ele>
        <time>2024-04-30T17:02:17.000Z</time>
      </trkpt>
      <trkpt lat="45.85395" lon="3.54634">
        <ele>378.79998779297</ele>
        <time>2024-04-30T17:02:18.000Z</time>
      </trkpt>
      <trkpt lat="45.85395" lon="3.54634">
        <ele>378.79998779297</ele>
        <time>2024-04-30T17:02:19.000Z</time>
      </trkpt>
      <trkpt lat="45.85397" lon="3.54636">
        <ele>379</ele>
        <time>2024-04-30T17:02:20.000Z</time>
      </trkpt>
      <trkpt lat="45.85398" lon="3.54637">
        <ele>379.20001220703</ele>
        <time>2024-04-30T17:02:21.000Z</time>
      </trkpt>
      <trkpt lat="45.85398" lon="3.54639">
        <ele>379.39999389648</ele>
        <time>2024-04-30T17:02:22.000Z</time>
      </trkpt>
      <trkpt lat="45.85399" lon="3.54639">
        <ele>379.60000610352</ele>
        <time>2024-04-30T17:02:23.000Z</time>
      </trkpt>
      <trkpt lat="45.85398" lon="3.54638">
        <ele>379.79998779297</ele>
        <time>2024-04-30T17:02:24.000Z</time>
      </trkpt>
      <trkpt lat="45.85399" lon="3.54641">
        <ele>380</ele>
        <time>2024-04-30T17:02:25.000Z</time>
      </trkpt>
      <trkpt lat="45.85399" lon="3.54641">
        <ele>380.39999389648</ele>
        <time>2024-04-30T17:02:26.000Z</time>
      </trkpt>
      <trkpt lat="45.85399" lon="3.54641">
        <ele>380.79998779297</ele>
        <time>2024-04-30T17:02:27.000Z</time>
      </trkpt>
      <trkpt lat="45.854" lon="3.54641">
        <ele>381</ele>
        <time>2024-04-30T17:02:28.000Z</time>
      </trkpt>
      <trkpt lat="45.854" lon="3.54643">
        <ele>381.20001220703</ele>
        <time>2024-04-30T17:02:29.000Z</time>
      </trkpt>
      <trkpt lat="45.854" lon="3.54643">
        <ele>381.39999389648</ele>
        <time>2024-04-30T17:02:30.000Z</time>
      </trkpt>
      <trkpt lat="45.854" lon="3.54643">
        <ele>381.60000610352</ele>
        <time>2024-04-30T17:02:31.000Z</time>
      </trkpt>
      <trkpt lat="45.85401" lon="3.54644">
        <ele>381.60000610352</ele>
        <time>2024-04-30T17:02:32.000Z</time>
      </trkpt>
      <trkpt lat="45.85401" lon="3.54644">
        <ele>382</ele>
        <time>2024-04-30T17:02:33.000Z</time>
      </trkpt>
      <trkpt lat="45.85401" lon="3.54643">
        <ele>382.20001220703</ele>
        <time>2024-04-30T17:02:34.000Z</time>
      </trkpt>
      <trkpt lat="45.85402" lon="3.54645">
        <ele>382.39999389648</ele>
        <time>2024-04-30T17:02:35.000Z</time>
      </trkpt>
      <trkpt lat="45.85402" lon="3.54647">
        <ele>382.79998779297</ele>
        <time>2024-04-30T17:02:36.000Z</time>
      </trkpt>
      <trkpt lat="45.85402" lon="3.54647">
        <ele>383</ele>
        <time>2024-04-30T17:02:37.000Z</time>
      </trkpt>
      <trkpt lat="45.85402" lon="3.54648">
        <ele>383.20001220703</ele>
        <time>2024-04-30T17:02:38.000Z</time>
      </trkpt>
      <trkpt lat="45.85403" lon="3.5465">
        <ele>383.60000610352</ele>
        <time>2024-04-30T17:02:39.000Z</time>
      </trkpt>
      <trkpt lat="45.85405" lon="3.54651">
        <ele>383.79998779297</ele>
        <time>2024-04-30T17:02:40.000Z</time>
      </trkpt>
      <trkpt lat="45.85406" lon="3.54652">
        <ele>383.79998779297</ele>
        <time>2024-04-30T17:02:41.000Z</time>
      </trkpt>
      <trkpt lat="45.85406" lon="3.54653">
        <ele>384</ele>
        <time>2024-04-30T17:02:42.000Z</time>
      </trkpt>
      <trkpt lat="45.85406" lon="3.54653">
        <ele>384.39999389648</ele>
        <time>2024-04-30T17:02:43.000Z</time>
      </trkpt>
      <trkpt lat="45.85406" lon="3.54654">
        <ele>384.60000610352</ele>
        <time>2024-04-30T17:02:44.000Z</time>
      </trkpt>
      <trkpt lat="45.85408" lon="3.54654">
        <ele>384.79998779297</ele>
        <time>2024-04-30T17:02:45.000Z</time>
      </trkpt>
      <trkpt lat="45.85411" lon="3.54657">
        <ele>385</ele>
        <time>2024-04-30T17:02:46.000Z</time>
      </trkpt>
      <trkpt lat="45.85412" lon="3.54658">
        <ele>385.20001220703</ele>
        <time>2024-04-30T17:02:47.000Z</time>
      </trkpt>
      <trkpt lat="45.85413" lon="3.5466">
        <ele>385.39999389648</ele>
        <time>2024-04-30T17:02:48.000Z</time>
      </trkpt>
      <trkpt lat="45.85414" lon="3.5466">
        <ele>385.79998779297</ele>
        <time>2024-04-30T17:02:49.000Z</time>
      </trkpt>
      <trkpt lat="45.85413" lon="3.5466">
        <ele>386</ele>
        <time>2024-04-30T17:02:50.000Z</time>
      </trkpt>
      <trkpt lat="45.85415" lon="3.54663">
        <ele>386.39999389648</ele>
        <time>2024-04-30T17:02:51.000Z</time>
      </trkpt>
      <trkpt lat="45.85415" lon="3.54664">
        <ele>386.60000610352</ele>
        <time>2024-04-30T17:02:52.000Z</time>
      </trkpt>
      <trkpt lat="45.85414" lon="3.54663">
        <ele>387</ele>
        <time>2024-04-30T17:02:53.000Z</time>
      </trkpt>
      <trkpt lat="45.85415" lon="3.54662">
        <ele>387.20001220703</ele>
        <time>2024-04-30T17:02:54.000Z</time>
      </trkpt>
      <trkpt lat="45.85416" lon="3.54667">
        <ele>387.39999389648</ele>
        <time>2024-04-30T17:02:55.000Z</time>
      </trkpt>
      <trkpt lat="45.85416" lon="3.54667">
        <ele>387.60000610352</ele>
        <time>2024-04-30T17:02:56.000Z</time>
      </trkpt>
      <trkpt lat="45.85418" lon="3.54665">
        <ele>387.60000610352</ele>
        <time>2024-04-30T17:02:57.000Z</time>
      </trkpt>
      <trkpt lat="45.85419" lon="3.54664">
        <ele>387.79998779297</ele>
        <time>2024-04-30T17:02:58.000Z</time>
      </trkpt>
      <trkpt lat="45.85422" lon="3.54663">
        <ele>387.79998779297</ele>
        <time>2024-04-30T17:02:59.000Z</time>
      </trkpt>
      <trkpt lat="45.85425" lon="3.54662">
        <ele>387.79998779297</ele>
        <time>2024-04-30T17:03:00.000Z</time>
      </trkpt>
      <trkpt lat="45.85428" lon="3.5466">
        <ele>387.79998779297</ele>
        <time>2024-04-30T17:03:01.000Z</time>
      </trkpt>
      <trkpt lat="45.85428" lon="3.54657">
        <ele>388</ele>
        <time>2024-04-30T17:03:02.000Z</time>
      </trkpt>
      <trkpt lat="45.85429" lon="3.54655">
        <ele>388.39999389648</ele>
        <time>2024-04-30T17:03:03.000Z</time>
      </trkpt>
      <trkpt lat="45.8543" lon="3.54651">
        <ele>388.39999389648</ele>
        <time>2024-04-30T17:03:04.000Z</time>
      </trkpt>
      <trkpt lat="45.85431" lon="3.54648">
        <ele>388.39999389648</ele>
        <time>2024-04-30T17:03:05.000Z</time>
      </trkpt>
      <trkpt lat="45.85433" lon="3.54646">
        <ele>388.60000610352</ele>
        <time>2024-04-30T17:03:06.000Z</time>
      </trkpt>
      <trkpt lat="45.85434" lon="3.54643">
        <ele>388.60000610352</ele>
        <time>2024-04-30T17:03:07.000Z</time>
      </trkpt>
      <trkpt lat="45.85434" lon="3.54641">
        <ele>388.39999389648</ele>
        <time>2024-04-30T17:03:08.000Z</time>
      </trkpt>
      <trkpt lat="45.85436" lon="3.5464">
        <ele>388.60000610352</ele>
        <time>2024-04-30T17:03:09.000Z</time>
      </trkpt>
      <trkpt lat="45.85438" lon="3.54639">
        <ele>388.79998779297</ele>
        <time>2024-04-30T17:03:10.000Z</time>
      </trkpt>
      <trkpt lat="45.85441" lon="3.54638">
        <ele>388.60000610352</ele>
        <time>2024-04-30T17:03:11.000Z</time>
      </trkpt>
      <trkpt lat="45.85443" lon="3.54637">
        <ele>388.79998779297</ele>
        <time>2024-04-30T17:03:12.000Z</time>
      </trkpt>
      <trkpt lat="45.85447" lon="3.54637">
        <ele>389</ele>
        <time>2024-04-30T17:03:13.000Z</time>
      </trkpt>
      <trkpt lat="45.85449" lon="3.54636">
        <ele>389</ele>
        <time>2024-04-30T17:03:14.000Z</time>
      </trkpt>
      <trkpt lat="45.85451" lon="3.54635">
        <ele>388.79998779297</ele>
        <time>2024-04-30T17:03:15.000Z</time>
      </trkpt>
      <trkpt lat="45.85454" lon="3.54634">
        <ele>389</ele>
        <time>2024-04-30T17:03:16.000Z</time>
      </trkpt>
      <trkpt lat="45.85456" lon="3.54634">
        <ele>389</ele>
        <time>2024-04-30T17:03:17.000Z</time>
      </trkpt>
      <trkpt lat="45.85458" lon="3.54632">
        <ele>388.79998779297</ele>
        <time>2024-04-30T17:03:18.000Z</time>
      </trkpt>
      <trkpt lat="45.8546" lon="3.54631">
        <ele>388.60000610352</ele>
        <time>2024-04-30T17:03:19.000Z</time>
      </trkpt>
      <trkpt lat="45.85462" lon="3.5463">
        <ele>388.39999389648</ele>
        <time>2024-04-30T17:03:20.000Z</time>
      </trkpt>
      <trkpt lat="45.85466" lon="3.54629">
        <ele>388</ele>
        <time>2024-04-30T17:03:21.000Z</time>
      </trkpt>
      <trkpt lat="45.85468" lon="3.54628">
        <ele>387.60000610352</ele>
        <time>2024-04-30T17:03:22.000Z</time>
      </trkpt>
      <trkpt lat="45.8547" lon="3.54627">
        <ele>387.20001220703</ele>
        <time>2024-04-30T17:03:23.000Z</time>
      </trkpt>
      <trkpt lat="45.85472" lon="3.54627">
        <ele>386.79998779297</ele>
        <time>2024-04-30T17:03:24.000Z</time>
      </trkpt>
      <trkpt lat="45.85474" lon="3.54626">
        <ele>386.20001220703</ele>
        <time>2024-04-30T17:03:25.000Z</time>
      </trkpt>
      <trkpt lat="45.85477" lon="3.54625">
        <ele>385.79998779297</ele>
        <time>2024-04-30T17:03:26.000Z</time>
      </trkpt>
      <trkpt lat="45.85481" lon="3.54625">
        <ele>385.39999389648</ele>
        <time>2024-04-30T17:03:27.000Z</time>
      </trkpt>
      <trkpt lat="45.85483" lon="3.54624">
        <ele>385.20001220703</ele>
        <time>2024-04-30T17:03:28.000Z</time>
      </trkpt>
      <trkpt lat="45.85485" lon="3.54622">
        <ele>384.79998779297</ele>
        <time>2024-04-30T17:03:29.000Z</time>
      </trkpt>
      <trkpt lat="45.85488" lon="3.54622">
        <ele>384.60000610352</ele>
        <time>2024-04-30T17:03:30.000Z</time>
      </trkpt>
      <trkpt lat="45.8549" lon="3.5462">
        <ele>384.20001220703</ele>
        <time>2024-04-30T17:03:31.000Z</time>
      </trkpt>
      <trkpt lat="45.85493" lon="3.5462">
        <ele>384</ele>
        <time>2024-04-30T17:03:32.000Z</time>
      </trkpt>
      <trkpt lat="45.85495" lon="3.54618">
        <ele>383.79998779297</ele>
        <time>2024-04-30T17:03:33.000Z</time>
      </trkpt>
      <trkpt lat="45.85495" lon="3.54615">
        <ele>383.60000610352</ele>
        <time>2024-04-30T17:03:34.000Z</time>
      </trkpt>
      <trkpt lat="45.85496" lon="3.54612">
        <ele>383</ele>
        <time>2024-04-30T17:03:35.000Z</time>
      </trkpt>
      <trkpt lat="45.85499" lon="3.5461">
        <ele>383</ele>
        <time>2024-04-30T17:03:36.000Z</time>
      </trkpt>
      <trkpt lat="45.855" lon="3.54608">
        <ele>382.60000610352</ele>
        <time>2024-04-30T17:03:37.000Z</time>
      </trkpt>
      <trkpt lat="45.85502" lon="3.54605">
        <ele>381.79998779297</ele>
        <time>2024-04-30T17:03:38.000Z</time>
      </trkpt>
      <trkpt lat="45.85503" lon="3.54602">
        <ele>381.60000610352</ele>
        <time>2024-04-30T17:03:39.000Z</time>
      </trkpt>
      <trkpt lat="45.85504" lon="3.54599">
        <ele>381.20001220703</ele>
        <time>2024-04-30T17:03:40.000Z</time>
      </trkpt>
      <trkpt lat="45.85506" lon="3.54595">
        <ele>380.79998779297</ele>
        <time>2024-04-30T17:03:41.000Z</time>
      </trkpt>
      <trkpt lat="45.85507" lon="3.54593">
        <ele>380.60000610352</ele>
        <time>2024-04-30T17:03:42.000Z</time>
      </trkpt>
      <trkpt lat="45.85508" lon="3.54588">
        <ele>380.20001220703</ele>
        <time>2024-04-30T17:03:43.000Z</time>
      </trkpt>
      <trkpt lat="45.85509" lon="3.54586">
        <ele>379.79998779297</ele>
        <time>2024-04-30T17:03:44.000Z</time>
      </trkpt>
      <trkpt lat="45.85509" lon="3.54583">
        <ele>379.60000610352</ele>
        <time>2024-04-30T17:03:45.000Z</time>
      </trkpt>
      <trkpt lat="45.85512" lon="3.5458">
        <ele>379.39999389648</ele>
        <time>2024-04-30T17:03:46.000Z</time>
      </trkpt>
      <trkpt lat="45.85513" lon="3.54576">
        <ele>378.79998779297</ele>
        <time>2024-04-30T17:03:47.000Z</time>
      </trkpt>
      <trkpt lat="45.85515" lon="3.54573">
        <ele>378.39999389648</ele>
        <time>2024-04-30T17:03:48.000Z</time>
      </trkpt>
      <trkpt lat="45.85516" lon="3.54569">
        <ele>378</ele>
        <time>2024-04-30T17:03:49.000Z</time>
      </trkpt>
      <trkpt lat="45.85518" lon="3.54566">
        <ele>377.60000610352</ele>
        <time>2024-04-30T17:03:50.000Z</time>
      </trkpt>
      <trkpt lat="45.85519" lon="3.54562">
        <ele>376.79998779297</ele>
        <time>2024-04-30T17:03:51.000Z</time>
      </trkpt>
      <trkpt lat="45.8552" lon="3.54558">
        <ele>376.39999389648</ele>
        <time>2024-04-30T17:03:52.000Z</time>
      </trkpt>
      <trkpt lat="45.85521" lon="3.54554">
        <ele>376</ele>
        <time>2024-04-30T17:03:53.000Z</time>
      </trkpt>
      <trkpt lat="45.85521" lon="3.54551">
        <ele>375.79998779297</ele>
        <time>2024-04-30T17:03:54.000Z</time>
      </trkpt>
      <trkpt lat="45.85522" lon="3.54547">
        <ele>375.20001220703</ele>
        <time>2024-04-30T17:03:55.000Z</time>
      </trkpt>
      <trkpt lat="45.85523" lon="3.54543">
        <ele>375</ele>
        <time>2024-04-30T17:03:56.000Z</time>
      </trkpt>
      <trkpt lat="45.85523" lon="3.54539">
        <ele>374.79998779297</ele>
        <time>2024-04-30T17:03:57.000Z</time>
      </trkpt>
      <trkpt lat="45.85524" lon="3.54535">
        <ele>374.60000610352</ele>
        <time>2024-04-30T17:03:58.000Z</time>
      </trkpt>
      <trkpt lat="45.85524" lon="3.54532">
        <ele>374.20001220703</ele>
        <time>2024-04-30T17:03:59.000Z</time>
      </trkpt>
      <trkpt lat="45.85525" lon="3.54528">
        <ele>373.79998779297</ele>
        <time>2024-04-30T17:04:00.000Z</time>
      </trkpt>
      <trkpt lat="45.85526" lon="3.54524">
        <ele>373.39999389648</ele>
        <time>2024-04-30T17:04:01.000Z</time>
      </trkpt>
      <trkpt lat="45.85527" lon="3.5452">
        <ele>373</ele>
        <time>2024-04-30T17:04:02.000Z</time>
      </trkpt>
      <trkpt lat="45.85527" lon="3.54517">
        <ele>372.39999389648</ele>
        <time>2024-04-30T17:04:03.000Z</time>
      </trkpt>
      <trkpt lat="45.85528" lon="3.54514">
        <ele>371.79998779297</ele>
        <time>2024-04-30T17:04:04.000Z</time>
      </trkpt>
      <trkpt lat="45.85531" lon="3.5451">
        <ele>371.39999389648</ele>
        <time>2024-04-30T17:04:05.000Z</time>
      </trkpt>
      <trkpt lat="45.85532" lon="3.54507">
        <ele>371</ele>
        <time>2024-04-30T17:04:06.000Z</time>
      </trkpt>
      <trkpt lat="45.85533" lon="3.54503">
        <ele>370.60000610352</ele>
        <time>2024-04-30T17:04:07.000Z</time>
      </trkpt>
      <trkpt lat="45.85534" lon="3.545">
        <ele>370.20001220703</ele>
        <time>2024-04-30T17:04:08.000Z</time>
      </trkpt>
      <trkpt lat="45.85536" lon="3.54498">
        <ele>369.79998779297</ele>
        <time>2024-04-30T17:04:09.000Z</time>
      </trkpt>
      <trkpt lat="45.85537" lon="3.54494">
        <ele>369.39999389648</ele>
        <time>2024-04-30T17:04:10.000Z</time>
      </trkpt>
      <trkpt lat="45.85539" lon="3.5449">
        <ele>369</ele>
        <time>2024-04-30T17:04:11.000Z</time>
      </trkpt>
      <trkpt lat="45.8554" lon="3.54487">
        <ele>368.60000610352</ele>
        <time>2024-04-30T17:04:12.000Z</time>
      </trkpt>
      <trkpt lat="45.85541" lon="3.54484">
        <ele>368.39999389648</ele>
        <time>2024-04-30T17:04:13.000Z</time>
      </trkpt>
      <trkpt lat="45.85542" lon="3.5448">
        <ele>368.39999389648</ele>
        <time>2024-04-30T17:04:14.000Z</time>
      </trkpt>
      <trkpt lat="45.85544" lon="3.54478">
        <ele>368</ele>
        <time>2024-04-30T17:04:15.000Z</time>
      </trkpt>
      <trkpt lat="45.85546" lon="3.54474">
        <ele>367.60000610352</ele>
        <time>2024-04-30T17:04:16.000Z</time>
      </trkpt>
      <trkpt lat="45.85547" lon="3.54472">
        <ele>367.39999389648</ele>
        <time>2024-04-30T17:04:17.000Z</time>
      </trkpt>
      <trkpt lat="45.85549" lon="3.54468">
        <ele>367</ele>
        <time>2024-04-30T17:04:18.000Z</time>
      </trkpt>
      <trkpt lat="45.8555" lon="3.54465">
        <ele>366.60000610352</ele>
        <time>2024-04-30T17:04:19.000Z</time>
      </trkpt>
      <trkpt lat="45.85551" lon="3.5446">
        <ele>366.39999389648</ele>
        <time>2024-04-30T17:04:20.000Z</time>
      </trkpt>
      <trkpt lat="45.85552" lon="3.54457">
        <ele>366.20001220703</ele>
        <time>2024-04-30T17:04:21.000Z</time>
      </trkpt>
      <trkpt lat="45.85552" lon="3.54453">
        <ele>366</ele>
        <time>2024-04-30T17:04:22.000Z</time>
      </trkpt>
      <trkpt lat="45.85553" lon="3.54449">
        <ele>365.60000610352</ele>
        <time>2024-04-30T17:04:23.000Z</time>
      </trkpt>
      <trkpt lat="45.85554" lon="3.54445">
        <ele>365.20001220703</ele>
        <time>2024-04-30T17:04:24.000Z</time>
      </trkpt>
      <trkpt lat="45.85554" lon="3.54442">
        <ele>364.79998779297</ele>
        <time>2024-04-30T17:04:25.000Z</time>
      </trkpt>
      <trkpt lat="45.85555" lon="3.54438">
        <ele>364.39999389648</ele>
        <time>2024-04-30T17:04:26.000Z</time>
      </trkpt>
      <trkpt lat="45.85556" lon="3.54434">
        <ele>364</ele>
        <time>2024-04-30T17:04:27.000Z</time>
      </trkpt>
      <trkpt lat="45.85558" lon="3.54431">
        <ele>363.79998779297</ele>
        <time>2024-04-30T17:04:28.000Z</time>
      </trkpt>
      <trkpt lat="45.8556" lon="3.54428">
        <ele>363.39999389648</ele>
        <time>2024-04-30T17:04:29.000Z</time>
      </trkpt>
      <trkpt lat="45.85561" lon="3.54424">
        <ele>363.20001220703</ele>
        <time>2024-04-30T17:04:30.000Z</time>
      </trkpt>
      <trkpt lat="45.85563" lon="3.54421">
        <ele>363.20001220703</ele>
        <time>2024-04-30T17:04:31.000Z</time>
      </trkpt>
      <trkpt lat="45.85565" lon="3.54418">
        <ele>363</ele>
        <time>2024-04-30T17:04:32.000Z</time>
      </trkpt>
      <trkpt lat="45.85566" lon="3.54414">
        <ele>362.79998779297</ele>
        <time>2024-04-30T17:04:33.000Z</time>
      </trkpt>
      <trkpt lat="45.85567" lon="3.54412">
        <ele>362.79998779297</ele>
        <time>2024-04-30T17:04:34.000Z</time>
      </trkpt>
      <trkpt lat="45.8557" lon="3.54408">
        <ele>362.60000610352</ele>
        <time>2024-04-30T17:04:35.000Z</time>
      </trkpt>
      <trkpt lat="45.85573" lon="3.54406">
        <ele>362.39999389648</ele>
        <time>2024-04-30T17:04:36.000Z</time>
      </trkpt>
      <trkpt lat="45.85574" lon="3.54405">
        <ele>362.20001220703</ele>
        <time>2024-04-30T17:04:37.000Z</time>
      </trkpt>
      <trkpt lat="45.85576" lon="3.54404">
        <ele>361.79998779297</ele>
        <time>2024-04-30T17:04:38.000Z</time>
      </trkpt>
      <trkpt lat="45.85576" lon="3.54402">
        <ele>361.79998779297</ele>
        <time>2024-04-30T17:04:39.000Z</time>
      </trkpt>
      <trkpt lat="45.85579" lon="3.54401">
        <ele>361.79998779297</ele>
        <time>2024-04-30T17:04:40.000Z</time>
      </trkpt>
      <trkpt lat="45.8558" lon="3.544">
        <ele>361.60000610352</ele>
        <time>2024-04-30T17:04:41.000Z</time>
      </trkpt>
      <trkpt lat="45.85582" lon="3.54398">
        <ele>361.79998779297</ele>
        <time>2024-04-30T17:04:42.000Z</time>
      </trkpt>
      <trkpt lat="45.85584" lon="3.54397">
        <ele>362.20001220703</ele>
        <time>2024-04-30T17:04:43.000Z</time>
      </trkpt>
      <trkpt lat="45.85585" lon="3.54395">
        <ele>362.20001220703</ele>
        <time>2024-04-30T17:04:44.000Z</time>
      </trkpt>
      <trkpt lat="45.85586" lon="3.54393">
        <ele>362.20001220703</ele>
        <time>2024-04-30T17:04:45.000Z</time>
      </trkpt>
      <trkpt lat="45.85588" lon="3.54392">
        <ele>362.20001220703</ele>
        <time>2024-04-30T17:04:46.000Z</time>
      </trkpt>
      <trkpt lat="45.85592" lon="3.54392">
        <ele>362.39999389648</ele>
        <time>2024-04-30T17:04:47.000Z</time>
      </trkpt>
      <trkpt lat="45.85593" lon="3.5439">
        <ele>362.39999389648</ele>
        <time>2024-04-30T17:04:48.000Z</time>
      </trkpt>
      <trkpt lat="45.85594" lon="3.5439">
        <ele>362.39999389648</ele>
        <time>2024-04-30T17:04:49.000Z</time>
      </trkpt>
      <trkpt lat="45.85597" lon="3.54389">
        <ele>362.60000610352</ele>
        <time>2024-04-30T17:04:50.000Z</time>
      </trkpt>
      <trkpt lat="45.85598" lon="3.54388">
        <ele>363</ele>
        <time>2024-04-30T17:04:51.000Z</time>
      </trkpt>
      <trkpt lat="45.85599" lon="3.54387">
        <ele>363.20001220703</ele>
        <time>2024-04-30T17:04:52.000Z</time>
      </trkpt>
      <trkpt lat="45.85601" lon="3.54385">
        <ele>363.39999389648</ele>
        <time>2024-04-30T17:04:53.000Z</time>
      </trkpt>
      <trkpt lat="45.85602" lon="3.54383">
        <ele>363.60000610352</ele>
        <time>2024-04-30T17:04:54.000Z</time>
      </trkpt>
      <trkpt lat="45.85602" lon="3.5438">
        <ele>364</ele>
        <time>2024-04-30T17:04:55.000Z</time>
      </trkpt>
      <trkpt lat="45.85603" lon="3.54377">
        <ele>364.39999389648</ele>
        <time>2024-04-30T17:04:56.000Z</time>
      </trkpt>
      <trkpt lat="45.85603" lon="3.54374">
        <ele>364.79998779297</ele>
        <time>2024-04-30T17:04:57.000Z</time>
      </trkpt>
      <trkpt lat="45.85605" lon="3.54373">
        <ele>365</ele>
        <time>2024-04-30T17:04:58.000Z</time>
      </trkpt>
      <trkpt lat="45.85604" lon="3.5437">
        <ele>365.39999389648</ele>
        <time>2024-04-30T17:04:59.000Z</time>
      </trkpt>
      <trkpt lat="45.85605" lon="3.54367">
        <ele>365.79998779297</ele>
        <time>2024-04-30T17:05:00.000Z</time>
      </trkpt>
      <trkpt lat="45.85605" lon="3.54365">
        <ele>366</ele>
        <time>2024-04-30T17:05:01.000Z</time>
      </trkpt>
      <trkpt lat="45.85605" lon="3.54362">
        <ele>366.20001220703</ele>
        <time>2024-04-30T17:05:02.000Z</time>
      </trkpt>
      <trkpt lat="45.85604" lon="3.5436">
        <ele>366.39999389648</ele>
        <time>2024-04-30T17:05:03.000Z</time>
      </trkpt>
      <trkpt lat="45.85604" lon="3.54357">
        <ele>366.79998779297</ele>
        <time>2024-04-30T17:05:04.000Z</time>
      </trkpt>
      <trkpt lat="45.85604" lon="3.54356">
        <ele>367</ele>
        <time>2024-04-30T17:05:05.000Z</time>
      </trkpt>
      <trkpt lat="45.85604" lon="3.54353">
        <ele>367</ele>
        <time>2024-04-30T17:05:06.000Z</time>
      </trkpt>
      <trkpt lat="45.85605" lon="3.5435">
        <ele>367.39999389648</ele>
        <time>2024-04-30T17:05:07.000Z</time>
      </trkpt>
      <trkpt lat="45.85606" lon="3.54348">
        <ele>367.60000610352</ele>
        <time>2024-04-30T17:05:08.000Z</time>
      </trkpt>
      <trkpt lat="45.85606" lon="3.54346">
        <ele>367.79998779297</ele>
        <time>2024-04-30T17:05:09.000Z</time>
      </trkpt>
      <trkpt lat="45.85607" lon="3.54343">
        <ele>367.79998779297</ele>
        <time>2024-04-30T17:05:10.000Z</time>
      </trkpt>
      <trkpt lat="45.85606" lon="3.5434">
        <ele>368</ele>
        <time>2024-04-30T17:05:11.000Z</time>
      </trkpt>
      <trkpt lat="45.85607" lon="3.54337">
        <ele>368.20001220703</ele>
        <time>2024-04-30T17:05:12.000Z</time>
      </trkpt>
      <trkpt lat="45.85607" lon="3.54335">
        <ele>368.39999389648</ele>
        <time>2024-04-30T17:05:13.000Z</time>
      </trkpt>
      <trkpt lat="45.85607" lon="3.54332">
        <ele>368.79998779297</ele>
        <time>2024-04-30T17:05:14.000Z</time>
      </trkpt>
      <trkpt lat="45.85608" lon="3.5433">
        <ele>368.79998779297</ele>
        <time>2024-04-30T17:05:15.000Z</time>
      </trkpt>
      <trkpt lat="45.85609" lon="3.54327">
        <ele>369</ele>
        <time>2024-04-30T17:05:16.000Z</time>
      </trkpt>
      <trkpt lat="45.85611" lon="3.54325">
        <ele>369.20001220703</ele>
        <time>2024-04-30T17:05:17.000Z</time>
      </trkpt>
      <trkpt lat="45.85611" lon="3.54322">
        <ele>369.60000610352</ele>
        <time>2024-04-30T17:05:18.000Z</time>
      </trkpt>
      <trkpt lat="45.85613" lon="3.5432">
        <ele>369.79998779297</ele>
        <time>2024-04-30T17:05:19.000Z</time>
      </trkpt>
      <trkpt lat="45.85616" lon="3.54318">
        <ele>370</ele>
        <time>2024-04-30T17:05:20.000Z</time>
      </trkpt>
      <trkpt lat="45.85617" lon="3.54316">
        <ele>370.39999389648</ele>
        <time>2024-04-30T17:05:21.000Z</time>
      </trkpt>
      <trkpt lat="45.85618" lon="3.54314">
        <ele>370.60000610352</ele>
        <time>2024-04-30T17:05:22.000Z</time>
      </trkpt>
      <trkpt lat="45.8562" lon="3.54313">
        <ele>371</ele>
        <time>2024-04-30T17:05:23.000Z</time>
      </trkpt>
      <trkpt lat="45.85621" lon="3.54311">
        <ele>371</ele>
        <time>2024-04-30T17:05:24.000Z</time>
      </trkpt>
      <trkpt lat="45.85622" lon="3.5431">
        <ele>371.39999389648</ele>
        <time>2024-04-30T17:05:25.000Z</time>
      </trkpt>
      <trkpt lat="45.85624" lon="3.54308">
        <ele>371.60000610352</ele>
        <time>2024-04-30T17:05:26.000Z</time>
      </trkpt>
      <trkpt lat="45.85626" lon="3.54307">
        <ele>371.79998779297</ele>
        <time>2024-04-30T17:05:27.000Z</time>
      </trkpt>
      <trkpt lat="45.85627" lon="3.54306">
        <ele>371.79998779297</ele>
        <time>2024-04-30T17:05:28.000Z</time>
      </trkpt>
      <trkpt lat="45.85629" lon="3.54306">
        <ele>372</ele>
        <time>2024-04-30T17:05:29.000Z</time>
      </trkpt>
      <trkpt lat="45.85631" lon="3.54304">
        <ele>372.39999389648</ele>
        <time>2024-04-30T17:05:30.000Z</time>
      </trkpt>
      <trkpt lat="45.85632" lon="3.54303">
        <ele>372.79998779297</ele>
        <time>2024-04-30T17:05:31.000Z</time>
      </trkpt>
      <trkpt lat="45.85633" lon="3.54302">
        <ele>373</ele>
        <time>2024-04-30T17:05:32.000Z</time>
      </trkpt>
      <trkpt lat="45.85634" lon="3.54302">
        <ele>373</ele>
        <time>2024-04-30T17:05:33.000Z</time>
      </trkpt>
      <trkpt lat="45.85636" lon="3.54302">
        <ele>373.39999389648</ele>
        <time>2024-04-30T17:05:34.000Z</time>
      </trkpt>
      <trkpt lat="45.85639" lon="3.54303">
        <ele>373.39999389648</ele>
        <time>2024-04-30T17:05:35.000Z</time>
      </trkpt>
      <trkpt lat="45.85641" lon="3.54303">
        <ele>373.79998779297</ele>
        <time>2024-04-30T17:05:36.000Z</time>
      </trkpt>
      <trkpt lat="45.85643" lon="3.54303">
        <ele>373.79998779297</ele>
        <time>2024-04-30T17:05:37.000Z</time>
      </trkpt>
      <trkpt lat="45.85645" lon="3.54304">
        <ele>374</ele>
        <time>2024-04-30T17:05:38.000Z</time>
      </trkpt>
      <trkpt lat="45.85647" lon="3.54304">
        <ele>374.39999389648</ele>
        <time>2024-04-30T17:05:39.000Z</time>
      </trkpt>
      <trkpt lat="45.8565" lon="3.54306">
        <ele>374.60000610352</ele>
        <time>2024-04-30T17:05:40.000Z</time>
      </trkpt>
      <trkpt lat="45.85652" lon="3.54309">
        <ele>374.79998779297</ele>
        <time>2024-04-30T17:05:41.000Z</time>
      </trkpt>
      <trkpt lat="45.85653" lon="3.54309">
        <ele>375</ele>
        <time>2024-04-30T17:05:42.000Z</time>
      </trkpt>
      <trkpt lat="45.85655" lon="3.5431">
        <ele>375.39999389648</ele>
        <time>2024-04-30T17:05:43.000Z</time>
      </trkpt>
      <trkpt lat="45.85656" lon="3.54312">
        <ele>375.60000610352</ele>
        <time>2024-04-30T17:05:44.000Z</time>
      </trkpt>
      <trkpt lat="45.85658" lon="3.54312">
        <ele>375.79998779297</ele>
        <time>2024-04-30T17:05:45.000Z</time>
      </trkpt>
      <trkpt lat="45.85661" lon="3.54314">
        <ele>375.60000610352</ele>
        <time>2024-04-30T17:05:46.000Z</time>
      </trkpt>
      <trkpt lat="45.85662" lon="3.54315">
        <ele>376</ele>
        <time>2024-04-30T17:05:47.000Z</time>
      </trkpt>
      <trkpt lat="45.85664" lon="3.54316">
        <ele>376.20001220703</ele>
        <time>2024-04-30T17:05:48.000Z</time>
      </trkpt>
      <trkpt lat="45.85665" lon="3.54317">
        <ele>376.39999389648</ele>
        <time>2024-04-30T17:05:49.000Z</time>
      </trkpt>
      <trkpt lat="45.85667" lon="3.54319">
        <ele>376.60000610352</ele>
        <time>2024-04-30T17:05:50.000Z</time>
      </trkpt>
      <trkpt lat="45.85668" lon="3.5432">
        <ele>376.60000610352</ele>
        <time>2024-04-30T17:05:51.000Z</time>
      </trkpt>
      <trkpt lat="45.8567" lon="3.54322">
        <ele>377</ele>
        <time>2024-04-30T17:05:53.000Z</time>
      </trkpt>
      <trkpt lat="45.85671" lon="3.54324">
        <ele>377</ele>
        <time>2024-04-30T17:05:54.000Z</time>
      </trkpt>
      <trkpt lat="45.85673" lon="3.54327">
        <ele>377.20001220703</ele>
        <time>2024-04-30T17:05:55.000Z</time>
      </trkpt>
      <trkpt lat="45.85674" lon="3.54328">
        <ele>377.60000610352</ele>
        <time>2024-04-30T17:05:56.000Z</time>
      </trkpt>
      <trkpt lat="45.85675" lon="3.5433">
        <ele>377.79998779297</ele>
        <time>2024-04-30T17:05:57.000Z</time>
      </trkpt>
      <trkpt lat="45.85676" lon="3.54332">
        <ele>378</ele>
        <time>2024-04-30T17:05:58.000Z</time>
      </trkpt>
      <trkpt lat="45.85677" lon="3.54334">
        <ele>378.20001220703</ele>
        <time>2024-04-30T17:05:59.000Z</time>
      </trkpt>
      <trkpt lat="45.85678" lon="3.54336">
        <ele>378.39999389648</ele>
        <time>2024-04-30T17:06:00.000Z</time>
      </trkpt>
      <trkpt lat="45.8568" lon="3.54338">
        <ele>378.79998779297</ele>
        <time>2024-04-30T17:06:01.000Z</time>
      </trkpt>
      <trkpt lat="45.85681" lon="3.5434">
        <ele>379</ele>
        <time>2024-04-30T17:06:02.000Z</time>
      </trkpt>
      <trkpt lat="45.85683" lon="3.54342">
        <ele>379.20001220703</ele>
        <time>2024-04-30T17:06:03.000Z</time>
      </trkpt>
      <trkpt lat="45.85684" lon="3.54344">
        <ele>379.39999389648</ele>
        <time>2024-04-30T17:06:04.000Z</time>
      </trkpt>
      <trkpt lat="45.85685" lon="3.54347">
        <ele>379.79998779297</ele>
        <time>2024-04-30T17:06:05.000Z</time>
      </trkpt>
      <trkpt lat="45.85686" lon="3.54349">
        <ele>380</ele>
        <time>2024-04-30T17:06:06.000Z</time>
      </trkpt>
      <trkpt lat="45.85686" lon="3.54351">
        <ele>380</ele>
        <time>2024-04-30T17:06:07.000Z</time>
      </trkpt>
      <trkpt lat="45.85687" lon="3.54353">
        <ele>380.20001220703</ele>
        <time>2024-04-30T17:06:08.000Z</time>
      </trkpt>
      <trkpt lat="45.85688" lon="3.54355">
        <ele>380.39999389648</ele>
        <time>2024-04-30T17:06:09.000Z</time>
      </trkpt>
      <trkpt lat="45.85688" lon="3.54358">
        <ele>380.39999389648</ele>
        <time>2024-04-30T17:06:10.000Z</time>
      </trkpt>
      <trkpt lat="45.85688" lon="3.54361">
        <ele>380.60000610352</ele>
        <time>2024-04-30T17:06:11.000Z</time>
      </trkpt>
      <trkpt lat="45.85689" lon="3.54364">
        <ele>380.79998779297</ele>
        <time>2024-04-30T17:06:12.000Z</time>
      </trkpt>
      <trkpt lat="45.85691" lon="3.54366">
        <ele>381.20001220703</ele>
        <time>2024-04-30T17:06:13.000Z</time>
      </trkpt>
      <trkpt lat="45.85691" lon="3.54369">
        <ele>381.39999389648</ele>
        <time>2024-04-30T17:06:14.000Z</time>
      </trkpt>
      <trkpt lat="45.85692" lon="3.54372">
        <ele>381.60000610352</ele>
        <time>2024-04-30T17:06:15.000Z</time>
      </trkpt>
      <trkpt lat="45.85693" lon="3.54374">
        <ele>381.60000610352</ele>
        <time>2024-04-30T17:06:16.000Z</time>
      </trkpt>
      <trkpt lat="45.85694" lon="3.54377">
        <ele>381.60000610352</ele>
        <time>2024-04-30T17:06:17.000Z</time>
      </trkpt>
      <trkpt lat="45.85695" lon="3.54378">
        <ele>382</ele>
        <time>2024-04-30T17:06:18.000Z</time>
      </trkpt>
      <trkpt lat="45.85696" lon="3.54381">
        <ele>382.20001220703</ele>
        <time>2024-04-30T17:06:19.000Z</time>
      </trkpt>
      <trkpt lat="45.85697" lon="3.54384">
        <ele>382.60000610352</ele>
        <time>2024-04-30T17:06:20.000Z</time>
      </trkpt>
      <trkpt lat="45.85698" lon="3.54386">
        <ele>382.79998779297</ele>
        <time>2024-04-30T17:06:21.000Z</time>
      </trkpt>
      <trkpt lat="45.857" lon="3.54389">
        <ele>383</ele>
        <time>2024-04-30T17:06:22.000Z</time>
      </trkpt>
      <trkpt lat="45.85701" lon="3.54391">
        <ele>383.20001220703</ele>
        <time>2024-04-30T17:06:23.000Z</time>
      </trkpt>
      <trkpt lat="45.85702" lon="3.54393">
        <ele>383.39999389648</ele>
        <time>2024-04-30T17:06:24.000Z</time>
      </trkpt>
      <trkpt lat="45.85702" lon="3.54395">
        <ele>383.39999389648</ele>
        <time>2024-04-30T17:06:25.000Z</time>
      </trkpt>
      <trkpt lat="45.85703" lon="3.54398">
        <ele>383.60000610352</ele>
        <time>2024-04-30T17:06:26.000Z</time>
      </trkpt>
      <trkpt lat="45.85704" lon="3.54399">
        <ele>383.79998779297</ele>
        <time>2024-04-30T17:06:27.000Z</time>
      </trkpt>
      <trkpt lat="45.85705" lon="3.54402">
        <ele>384</ele>
        <time>2024-04-30T17:06:28.000Z</time>
      </trkpt>
      <trkpt lat="45.85706" lon="3.54404">
        <ele>384</ele>
        <time>2024-04-30T17:06:29.000Z</time>
      </trkpt>
      <trkpt lat="45.85707" lon="3.54406">
        <ele>384.39999389648</ele>
        <time>2024-04-30T17:06:30.000Z</time>
      </trkpt>
      <trkpt lat="45.85708" lon="3.54407">
        <ele>384.60000610352</ele>
        <time>2024-04-30T17:06:31.000Z</time>
      </trkpt>
      <trkpt lat="45.85709" lon="3.5441">
        <ele>384.79998779297</ele>
        <time>2024-04-30T17:06:32.000Z</time>
      </trkpt>
      <trkpt lat="45.85709" lon="3.54414">
        <ele>385</ele>
        <time>2024-04-30T17:06:33.000Z</time>
      </trkpt>
      <trkpt lat="45.8571" lon="3.54416">
        <ele>385.20001220703</ele>
        <time>2024-04-30T17:06:34.000Z</time>
      </trkpt>
      <trkpt lat="45.85711" lon="3.5442">
        <ele>385.39999389648</ele>
        <time>2024-04-30T17:06:35.000Z</time>
      </trkpt>
      <trkpt lat="45.85713" lon="3.54423">
        <ele>385.60000610352</ele>
        <time>2024-04-30T17:06:36.000Z</time>
      </trkpt>
      <trkpt lat="45.85715" lon="3.54426">
        <ele>385.79998779297</ele>
        <time>2024-04-30T17:06:37.000Z</time>
      </trkpt>
      <trkpt lat="45.85715" lon="3.54429">
        <ele>386</ele>
        <time>2024-04-30T17:06:38.000Z</time>
      </trkpt>
      <trkpt lat="45.85716" lon="3.54433">
        <ele>386.20001220703</ele>
        <time>2024-04-30T17:06:39.000Z</time>
      </trkpt>
      <trkpt lat="45.85717" lon="3.54436">
        <ele>386.39999389648</ele>
        <time>2024-04-30T17:06:40.000Z</time>
      </trkpt>
      <trkpt lat="45.85717" lon="3.54438">
        <ele>386.60000610352</ele>
        <time>2024-04-30T17:06:41.000Z</time>
      </trkpt>
      <trkpt lat="45.85716" lon="3.54441">
        <ele>386.79998779297</ele>
        <time>2024-04-30T17:06:42.000Z</time>
      </trkpt>
      <trkpt lat="45.85716" lon="3.54444">
        <ele>387.20001220703</ele>
        <time>2024-04-30T17:06:43.000Z</time>
      </trkpt>
      <trkpt lat="45.85716" lon="3.54446">
        <ele>387.60000610352</ele>
        <time>2024-04-30T17:06:44.000Z</time>
      </trkpt>
      <trkpt lat="45.85717" lon="3.5445">
        <ele>387.79998779297</ele>
        <time>2024-04-30T17:06:45.000Z</time>
      </trkpt>
      <trkpt lat="45.85717" lon="3.54451">
        <ele>387.79998779297</ele>
        <time>2024-04-30T17:06:46.000Z</time>
      </trkpt>
      <trkpt lat="45.85716" lon="3.54453">
        <ele>388.20001220703</ele>
        <time>2024-04-30T17:06:47.000Z</time>
      </trkpt>
      <trkpt lat="45.85717" lon="3.54455">
        <ele>388.39999389648</ele>
        <time>2024-04-30T17:06:48.000Z</time>
      </trkpt>
      <trkpt lat="45.85716" lon="3.54458">
        <ele>388.79998779297</ele>
        <time>2024-04-30T17:06:49.000Z</time>
      </trkpt>
      <trkpt lat="45.85716" lon="3.54461">
        <ele>389.20001220703</ele>
        <time>2024-04-30T17:06:50.000Z</time>
      </trkpt>
      <trkpt lat="45.85715" lon="3.54463">
        <ele>389.60000610352</ele>
        <time>2024-04-30T17:06:51.000Z</time>
      </trkpt>
      <trkpt lat="45.85714" lon="3.54467">
        <ele>389.79998779297</ele>
        <time>2024-04-30T17:06:52.000Z</time>
      </trkpt>
      <trkpt lat="45.85713" lon="3.5447">
        <ele>390.20001220703</ele>
        <time>2024-04-30T17:06:53.000Z</time>
      </trkpt>
      <trkpt lat="45.85712" lon="3.54473">
        <ele>390.60000610352</ele>
        <time>2024-04-30T17:06:54.000Z</time>
      </trkpt>
      <trkpt lat="45.8571" lon="3.54475">
        <ele>391</ele>
        <time>2024-04-30T17:06:55.000Z</time>
      </trkpt>
      <trkpt lat="45.85709" lon="3.54479">
        <ele>391</ele>
        <time>2024-04-30T17:06:56.000Z</time>
      </trkpt>
      <trkpt lat="45.85707" lon="3.54481">
        <ele>391.39999389648</ele>
        <time>2024-04-30T17:06:57.000Z</time>
      </trkpt>
      <trkpt lat="45.85705" lon="3.54483">
        <ele>391.60000610352</ele>
        <time>2024-04-30T17:06:58.000Z</time>
      </trkpt>
      <trkpt lat="45.85704" lon="3.54486">
        <ele>391.79998779297</ele>
        <time>2024-04-30T17:06:59.000Z</time>
      </trkpt>
      <trkpt lat="45.85702" lon="3.54489">
        <ele>391.79998779297</ele>
        <time>2024-04-30T17:07:00.000Z</time>
      </trkpt>
      <trkpt lat="45.85701" lon="3.54491">
        <ele>392</ele>
        <time>2024-04-30T17:07:01.000Z</time>
      </trkpt>
      <trkpt lat="45.857" lon="3.54493">
        <ele>392.20001220703</ele>
        <time>2024-04-30T17:07:02.000Z</time>
      </trkpt>
      <trkpt lat="45.85699" lon="3.54494">
        <ele>392.39999389648</ele>
        <time>2024-04-30T17:07:03.000Z</time>
      </trkpt>
      <trkpt lat="45.85698" lon="3.54496">
        <ele>392.39999389648</ele>
        <time>2024-04-30T17:07:04.000Z</time>
      </trkpt>
      <trkpt lat="45.85697" lon="3.54499">
        <ele>392.60000610352</ele>
        <time>2024-04-30T17:07:05.000Z</time>
      </trkpt>
      <trkpt lat="45.85697" lon="3.54502">
        <ele>392.79998779297</ele>
        <time>2024-04-30T17:07:06.000Z</time>
      </trkpt>
      <trkpt lat="45.85696" lon="3.54505">
        <ele>393.20001220703</ele>
        <time>2024-04-30T17:07:07.000Z</time>
      </trkpt>
      <trkpt lat="45.85695" lon="3.54508">
        <ele>393.39999389648</ele>
        <time>2024-04-30T17:07:08.000Z</time>
      </trkpt>
      <trkpt lat="45.85694" lon="3.54509">
        <ele>393.79998779297</ele>
        <time>2024-04-30T17:07:09.000Z</time>
      </trkpt>
      <trkpt lat="45.85693" lon="3.54512">
        <ele>394</ele>
        <time>2024-04-30T17:07:10.000Z</time>
      </trkpt>
      <trkpt lat="45.85692" lon="3.54514">
        <ele>394.20001220703</ele>
        <time>2024-04-30T17:07:11.000Z</time>
      </trkpt>
      <trkpt lat="45.85692" lon="3.54518">
        <ele>394.39999389648</ele>
        <time>2024-04-30T17:07:12.000Z</time>
      </trkpt>
      <trkpt lat="45.85692" lon="3.5452">
        <ele>394.60000610352</ele>
        <time>2024-04-30T17:07:13.000Z</time>
      </trkpt>
      <trkpt lat="45.85692" lon="3.54523">
        <ele>394.79998779297</ele>
        <time>2024-04-30T17:07:14.000Z</time>
      </trkpt>
      <trkpt lat="45.85692" lon="3.54525">
        <ele>395</ele>
        <time>2024-04-30T17:07:15.000Z</time>
      </trkpt>
      <trkpt lat="45.85692" lon="3.54527">
        <ele>395.20001220703</ele>
        <time>2024-04-30T17:07:16.000Z</time>
      </trkpt>
      <trkpt lat="45.85693" lon="3.54529">
        <ele>395.60000610352</ele>
        <time>2024-04-30T17:07:17.000Z</time>
      </trkpt>
      <trkpt lat="45.85694" lon="3.54532">
        <ele>395.79998779297</ele>
        <time>2024-04-30T17:07:18.000Z</time>
      </trkpt>
      <trkpt lat="45.85694" lon="3.54534">
        <ele>396</ele>
        <time>2024-04-30T17:07:19.000Z</time>
      </trkpt>
      <trkpt lat="45.85696" lon="3.54536">
        <ele>396.20001220703</ele>
        <time>2024-04-30T17:07:20.000Z</time>
      </trkpt>
      <trkpt lat="45.85696" lon="3.54539">
        <ele>396.39999389648</ele>
        <time>2024-04-30T17:07:21.000Z</time>
      </trkpt>
      <trkpt lat="45.85697" lon="3.54541">
        <ele>396.60000610352</ele>
        <time>2024-04-30T17:07:22.000Z</time>
      </trkpt>
      <trkpt lat="45.85698" lon="3.54543">
        <ele>396.79998779297</ele>
        <time>2024-04-30T17:07:23.000Z</time>
      </trkpt>
      <trkpt lat="45.85699" lon="3.54546">
        <ele>397</ele>
        <time>2024-04-30T17:07:24.000Z</time>
      </trkpt>
      <trkpt lat="45.85699" lon="3.54549">
        <ele>397.20001220703</ele>
        <time>2024-04-30T17:07:25.000Z</time>
      </trkpt>
      <trkpt lat="45.85699" lon="3.54552">
        <ele>397.39999389648</ele>
        <time>2024-04-30T17:07:26.000Z</time>
      </trkpt>
      <trkpt lat="45.857" lon="3.54554">
        <ele>397.60000610352</ele>
        <time>2024-04-30T17:07:27.000Z</time>
      </trkpt>
      <trkpt lat="45.857" lon="3.54556">
        <ele>398</ele>
        <time>2024-04-30T17:07:28.000Z</time>
      </trkpt>
      <trkpt lat="45.85699" lon="3.54557">
        <ele>398</ele>
        <time>2024-04-30T17:07:29.000Z</time>
      </trkpt>
      <trkpt lat="45.85699" lon="3.54559">
        <ele>398.20001220703</ele>
        <time>2024-04-30T17:07:30.000Z</time>
      </trkpt>
      <trkpt lat="45.85698" lon="3.5456">
        <ele>398.60000610352</ele>
        <time>2024-04-30T17:07:31.000Z</time>
      </trkpt>
      <trkpt lat="45.85697" lon="3.54562">
        <ele>398.79998779297</ele>
        <time>2024-04-30T17:07:32.000Z</time>
      </trkpt>
      <trkpt lat="45.85695" lon="3.54564">
        <ele>399</ele>
        <time>2024-04-30T17:07:33.000Z</time>
      </trkpt>
      <trkpt lat="45.85693" lon="3.54566">
        <ele>399</ele>
        <time>2024-04-30T17:07:34.000Z</time>
      </trkpt>
      <trkpt lat="45.85691" lon="3.54567">
        <ele>399.20001220703</ele>
        <time>2024-04-30T17:07:35.000Z</time>
      </trkpt>
      <trkpt lat="45.8569" lon="3.54569">
        <ele>399.39999389648</ele>
        <time>2024-04-30T17:07:36.000Z</time>
      </trkpt>
      <trkpt lat="45.85688" lon="3.5457">
        <ele>399.39999389648</ele>
        <time>2024-04-30T17:07:37.000Z</time>
      </trkpt>
      <trkpt lat="45.85687" lon="3.54572">
        <ele>399.79998779297</ele>
        <time>2024-04-30T17:07:38.000Z</time>
      </trkpt>
      <trkpt lat="45.85687" lon="3.54573">
        <ele>399.79998779297</ele>
        <time>2024-04-30T17:07:39.000Z</time>
      </trkpt>
      <trkpt lat="45.85687" lon="3.54574">
        <ele>400</ele>
        <time>2024-04-30T17:07:40.000Z</time>
      </trkpt>
      <trkpt lat="45.85685" lon="3.54575">
        <ele>400.20001220703</ele>
        <time>2024-04-30T17:07:41.000Z</time>
      </trkpt>
      <trkpt lat="45.85683" lon="3.54575">
        <ele>400.20001220703</ele>
        <time>2024-04-30T17:07:42.000Z</time>
      </trkpt>
      <trkpt lat="45.8568" lon="3.54577">
        <ele>400.39999389648</ele>
        <time>2024-04-30T17:07:43.000Z</time>
      </trkpt>
      <trkpt lat="45.85678" lon="3.54578">
        <ele>400.60000610352</ele>
        <time>2024-04-30T17:07:44.000Z</time>
      </trkpt>
      <trkpt lat="45.85676" lon="3.54579">
        <ele>400.60000610352</ele>
        <time>2024-04-30T17:07:45.000Z</time>
      </trkpt>
      <trkpt lat="45.85675" lon="3.5458">
        <ele>400.79998779297</ele>
        <time>2024-04-30T17:07:46.000Z</time>
      </trkpt>
      <trkpt lat="45.85673" lon="3.54581">
        <ele>401</ele>
        <time>2024-04-30T17:07:47.000Z</time>
      </trkpt>
      <trkpt lat="45.85672" lon="3.54581">
        <ele>401</ele>
        <time>2024-04-30T17:07:48.000Z</time>
      </trkpt>
      <trkpt lat="45.8567" lon="3.54583">
        <ele>400.79998779297</ele>
        <time>2024-04-30T17:07:49.000Z</time>
      </trkpt>
      <trkpt lat="45.85667" lon="3.54583">
        <ele>401</ele>
        <time>2024-04-30T17:07:50.000Z</time>
      </trkpt>
      <trkpt lat="45.85665" lon="3.54585">
        <ele>401.20001220703</ele>
        <time>2024-04-30T17:07:51.000Z</time>
      </trkpt>
      <trkpt lat="45.85661" lon="3.54587">
        <ele>401.39999389648</ele>
        <time>2024-04-30T17:07:52.000Z</time>
      </trkpt>
      <trkpt lat="45.85658" lon="3.54588">
        <ele>401.39999389648</ele>
        <time>2024-04-30T17:07:53.000Z</time>
      </trkpt>
      <trkpt lat="45.85656" lon="3.54589">
        <ele>401.79998779297</ele>
        <time>2024-04-30T17:07:54.000Z</time>
      </trkpt>
      <trkpt lat="45.85655" lon="3.5459">
        <ele>401.79998779297</ele>
        <time>2024-04-30T17:07:55.000Z</time>
      </trkpt>
      <trkpt lat="45.85653" lon="3.5459">
        <ele>401.79998779297</ele>
        <time>2024-04-30T17:07:56.000Z</time>
      </trkpt>
      <trkpt lat="45.8565" lon="3.54591">
        <ele>402</ele>
        <time>2024-04-30T17:07:57.000Z</time>
      </trkpt>
      <trkpt lat="45.85648" lon="3.54592">
        <ele>402.20001220703</ele>
        <time>2024-04-30T17:07:58.000Z</time>
      </trkpt>
      <trkpt lat="45.85644" lon="3.54593">
        <ele>402.39999389648</ele>
        <time>2024-04-30T17:07:59.000Z</time>
      </trkpt>
      <trkpt lat="45.85642" lon="3.54595">
        <ele>402.60000610352</ele>
        <time>2024-04-30T17:08:00.000Z</time>
      </trkpt>
      <trkpt lat="45.8564" lon="3.54596">
        <ele>402.79998779297</ele>
        <time>2024-04-30T17:08:01.000Z</time>
      </trkpt>
      <trkpt lat="45.85638" lon="3.54597">
        <ele>402.60000610352</ele>
        <time>2024-04-30T17:08:02.000Z</time>
      </trkpt>
      <trkpt lat="45.85637" lon="3.54598">
        <ele>402.79998779297</ele>
        <time>2024-04-30T17:08:03.000Z</time>
      </trkpt>
      <trkpt lat="45.85636" lon="3.54598">
        <ele>402.79998779297</ele>
        <time>2024-04-30T17:08:04.000Z</time>
      </trkpt>
      <trkpt lat="45.85634" lon="3.546">
        <ele>402.79998779297</ele>
        <time>2024-04-30T17:08:05.000Z</time>
      </trkpt>
      <trkpt lat="45.85631" lon="3.54602">
        <ele>403</ele>
        <time>2024-04-30T17:08:06.000Z</time>
      </trkpt>
      <trkpt lat="45.85628" lon="3.54603">
        <ele>403.20001220703</ele>
        <time>2024-04-30T17:08:07.000Z</time>
      </trkpt>
      <trkpt lat="45.85626" lon="3.54605">
        <ele>403.20001220703</ele>
        <time>2024-04-30T17:08:08.000Z</time>
      </trkpt>
      <trkpt lat="45.85624" lon="3.54607">
        <ele>403.20001220703</ele>
        <time>2024-04-30T17:08:09.000Z</time>
      </trkpt>
      <trkpt lat="45.85621" lon="3.5461">
        <ele>403.60000610352</ele>
        <time>2024-04-30T17:08:10.000Z</time>
      </trkpt>
      <trkpt lat="45.85619" lon="3.54613">
        <ele>403.60000610352</ele>
        <time>2024-04-30T17:08:11.000Z</time>
      </trkpt>
      <trkpt lat="45.85616" lon="3.54617">
        <ele>403.60000610352</ele>
        <time>2024-04-30T17:08:12.000Z</time>
      </trkpt>
      <trkpt lat="45.85614" lon="3.54618">
        <ele>403.79998779297</ele>
        <time>2024-04-30T17:08:13.000Z</time>
      </trkpt>
      <trkpt lat="45.85612" lon="3.54619">
        <ele>404.20001220703</ele>
        <time>2024-04-30T17:08:14.000Z</time>
      </trkpt>
      <trkpt lat="45.85611" lon="3.54623">
        <ele>404</ele>
        <time>2024-04-30T17:08:15.000Z</time>
      </trkpt>
      <trkpt lat="45.85609" lon="3.54625">
        <ele>404.20001220703</ele>
        <time>2024-04-30T17:08:16.000Z</time>
      </trkpt>
      <trkpt lat="45.85606" lon="3.54626">
        <ele>404.39999389648</ele>
        <time>2024-04-30T17:08:17.000Z</time>
      </trkpt>
      <trkpt lat="45.85604" lon="3.54626">
        <ele>404.60000610352</ele>
        <time>2024-04-30T17:08:18.000Z</time>
      </trkpt>
      <trkpt lat="45.85602" lon="3.54627">
        <ele>404.60000610352</ele>
        <time>2024-04-30T17:08:19.000Z</time>
      </trkpt>
      <trkpt lat="45.856" lon="3.54627">
        <ele>404.79998779297</ele>
        <time>2024-04-30T17:08:20.000Z</time>
      </trkpt>
      <trkpt lat="45.85597" lon="3.54628">
        <ele>405</ele>
        <time>2024-04-30T17:08:21.000Z</time>
      </trkpt>
      <trkpt lat="45.85595" lon="3.54629">
        <ele>405</ele>
        <time>2024-04-30T17:08:22.000Z</time>
      </trkpt>
      <trkpt lat="45.85593" lon="3.5463">
        <ele>405</ele>
        <time>2024-04-30T17:08:23.000Z</time>
      </trkpt>
      <trkpt lat="45.85592" lon="3.5463">
        <ele>405.20001220703</ele>
        <time>2024-04-30T17:08:24.000Z</time>
      </trkpt>
      <trkpt lat="45.8559" lon="3.54632">
        <ele>405.20001220703</ele>
        <time>2024-04-30T17:08:25.000Z</time>
      </trkpt>
      <trkpt lat="45.85587" lon="3.54633">
        <ele>405.20001220703</ele>
        <time>2024-04-30T17:08:26.000Z</time>
      </trkpt>
      <trkpt lat="45.85583" lon="3.54635">
        <ele>405.20001220703</ele>
        <time>2024-04-30T17:08:27.000Z</time>
      </trkpt>
      <trkpt lat="45.85579" lon="3.54639">
        <ele>405.20001220703</ele>
        <time>2024-04-30T17:08:28.000Z</time>
      </trkpt>
      <trkpt lat="45.85575" lon="3.54641">
        <ele>405.20001220703</ele>
        <time>2024-04-30T17:08:29.000Z</time>
      </trkpt>
      <trkpt lat="45.8557" lon="3.54641">
        <ele>405.39999389648</ele>
        <time>2024-04-30T17:08:30.000Z</time>
      </trkpt>
      <trkpt lat="45.85567" lon="3.54641">
        <ele>405.39999389648</ele>
        <time>2024-04-30T17:08:31.000Z</time>
      </trkpt>
      <trkpt lat="45.85563" lon="3.5464">
        <ele>405.39999389648</ele>
        <time>2024-04-30T17:08:32.000Z</time>
      </trkpt>
      <trkpt lat="45.85559" lon="3.54639">
        <ele>405.60000610352</ele>
        <time>2024-04-30T17:08:33.000Z</time>
      </trkpt>
      <trkpt lat="45.85555" lon="3.54638">
        <ele>405.60000610352</ele>
        <time>2024-04-30T17:08:34.000Z</time>
      </trkpt>
      <trkpt lat="45.85551" lon="3.54638">
        <ele>405.39999389648</ele>
        <time>2024-04-30T17:08:35.000Z</time>
      </trkpt>
      <trkpt lat="45.85548" lon="3.54639">
        <ele>405.20001220703</ele>
        <time>2024-04-30T17:08:36.000Z</time>
      </trkpt>
      <trkpt lat="45.85546" lon="3.5464">
        <ele>405.20001220703</ele>
        <time>2024-04-30T17:08:37.000Z</time>
      </trkpt>
      <trkpt lat="45.85544" lon="3.54642">
        <ele>404.79998779297</ele>
        <time>2024-04-30T17:08:38.000Z</time>
      </trkpt>
      <trkpt lat="45.85541" lon="3.54644">
        <ele>404.60000610352</ele>
        <time>2024-04-30T17:08:39.000Z</time>
      </trkpt>
      <trkpt lat="45.85539" lon="3.54646">
        <ele>404.20001220703</ele>
        <time>2024-04-30T17:08:40.000Z</time>
      </trkpt>
      <trkpt lat="45.85537" lon="3.54648">
        <ele>403.79998779297</ele>
        <time>2024-04-30T17:08:41.000Z</time>
      </trkpt>
      <trkpt lat="45.85535" lon="3.5465">
        <ele>403.20001220703</ele>
        <time>2024-04-30T17:08:42.000Z</time>
      </trkpt>
      <trkpt lat="45.85532" lon="3.54653">
        <ele>403</ele>
        <time>2024-04-30T17:08:43.000Z</time>
      </trkpt>
      <trkpt lat="45.85531" lon="3.54655">
        <ele>402.60000610352</ele>
        <time>2024-04-30T17:08:44.000Z</time>
      </trkpt>
      <trkpt lat="45.85528" lon="3.54656">
        <ele>402.39999389648</ele>
        <time>2024-04-30T17:08:45.000Z</time>
      </trkpt>
      <trkpt lat="45.85525" lon="3.54658">
        <ele>402.20001220703</ele>
        <time>2024-04-30T17:08:46.000Z</time>
      </trkpt>
      <trkpt lat="45.85523" lon="3.54659">
        <ele>401.79998779297</ele>
        <time>2024-04-30T17:08:47.000Z</time>
      </trkpt>
      <trkpt lat="45.8552" lon="3.5466">
        <ele>401.79998779297</ele>
        <time>2024-04-30T17:08:48.000Z</time>
      </trkpt>
      <trkpt lat="45.85518" lon="3.54661">
        <ele>401.39999389648</ele>
        <time>2024-04-30T17:08:49.000Z</time>
      </trkpt>
      <trkpt lat="45.85515" lon="3.54663">
        <ele>401.20001220703</ele>
        <time>2024-04-30T17:08:50.000Z</time>
      </trkpt>
      <trkpt lat="45.85513" lon="3.54665">
        <ele>400.79998779297</ele>
        <time>2024-04-30T17:08:51.000Z</time>
      </trkpt>
      <trkpt lat="45.8551" lon="3.54667">
        <ele>400.39999389648</ele>
        <time>2024-04-30T17:08:52.000Z</time>
      </trkpt>
      <trkpt lat="45.85508" lon="3.54669">
        <ele>400</ele>
        <time>2024-04-30T17:08:53.000Z</time>
      </trkpt>
      <trkpt lat="45.85505" lon="3.5467">
        <ele>399.60000610352</ele>
        <time>2024-04-30T17:08:54.000Z</time>
      </trkpt>
      <trkpt lat="45.85503" lon="3.54672">
        <ele>399.20001220703</ele>
        <time>2024-04-30T17:08:55.000Z</time>
      </trkpt>
      <trkpt lat="45.855" lon="3.54674">
        <ele>399</ele>
        <time>2024-04-30T17:08:56.000Z</time>
      </trkpt>
      <trkpt lat="45.85499" lon="3.54677">
        <ele>398.39999389648</ele>
        <time>2024-04-30T17:08:57.000Z</time>
      </trkpt>
      <trkpt lat="45.85497" lon="3.5468">
        <ele>398</ele>
        <time>2024-04-30T17:08:58.000Z</time>
      </trkpt>
      <trkpt lat="45.85495" lon="3.54682">
        <ele>397.79998779297</ele>
        <time>2024-04-30T17:08:59.000Z</time>
      </trkpt>
      <trkpt lat="45.85493" lon="3.54685">
        <ele>397.79998779297</ele>
        <time>2024-04-30T17:09:00.000Z</time>
      </trkpt>
      <trkpt lat="45.85491" lon="3.54687">
        <ele>397.60000610352</ele>
        <time>2024-04-30T17:09:01.000Z</time>
      </trkpt>
      <trkpt lat="45.85489" lon="3.54688">
        <ele>397.79998779297</ele>
        <time>2024-04-30T17:09:02.000Z</time>
      </trkpt>
      <trkpt lat="45.85488" lon="3.5469">
        <ele>397.60000610352</ele>
        <time>2024-04-30T17:09:03.000Z</time>
      </trkpt>
      <trkpt lat="45.85486" lon="3.54691">
        <ele>397.60000610352</ele>
        <time>2024-04-30T17:09:04.000Z</time>
      </trkpt>
      <trkpt lat="45.85486" lon="3.54693">
        <ele>397.79998779297</ele>
        <time>2024-04-30T17:09:05.000Z</time>
      </trkpt>
      <trkpt lat="45.85486" lon="3.54695">
        <ele>398.20001220703</ele>
        <time>2024-04-30T17:09:06.000Z</time>
      </trkpt>
      <trkpt lat="45.85486" lon="3.54697">
        <ele>398</ele>
        <time>2024-04-30T17:09:07.000Z</time>
      </trkpt>
      <trkpt lat="45.85485" lon="3.54698">
        <ele>398.39999389648</ele>
        <time>2024-04-30T17:09:08.000Z</time>
      </trkpt>
      <trkpt lat="45.85485" lon="3.547">
        <ele>398.60000610352</ele>
        <time>2024-04-30T17:09:09.000Z</time>
      </trkpt>
      <trkpt lat="45.85485" lon="3.54701">
        <ele>398.60000610352</ele>
        <time>2024-04-30T17:09:10.000Z</time>
      </trkpt>
      <trkpt lat="45.85484" lon="3.54703">
        <ele>398.39999389648</ele>
        <time>2024-04-30T17:09:11.000Z</time>
      </trkpt>
      <trkpt lat="45.85484" lon="3.54705">
        <ele>398.79998779297</ele>
        <time>2024-04-30T17:09:12.000Z</time>
      </trkpt>
      <trkpt lat="45.85483" lon="3.54707">
        <ele>399</ele>
        <time>2024-04-30T17:09:13.000Z</time>
      </trkpt>
      <trkpt lat="45.85483" lon="3.54709">
        <ele>399</ele>
        <time>2024-04-30T17:09:14.000Z</time>
      </trkpt>
      <trkpt lat="45.85481" lon="3.54711">
        <ele>399</ele>
        <time>2024-04-30T17:09:15.000Z</time>
      </trkpt>
      <trkpt lat="45.85479" lon="3.54713">
        <ele>399.39999389648</ele>
        <time>2024-04-30T17:09:16.000Z</time>
      </trkpt>
      <trkpt lat="45.85477" lon="3.54713">
        <ele>399.20001220703</ele>
        <time>2024-04-30T17:09:17.000Z</time>
      </trkpt>
      <trkpt lat="45.85476" lon="3.54713">
        <ele>399.20001220703</ele>
        <time>2024-04-30T17:09:18.000Z</time>
      </trkpt>
      <trkpt lat="45.85474" lon="3.54714">
        <ele>399.60000610352</ele>
        <time>2024-04-30T17:09:19.000Z</time>
      </trkpt>
      <trkpt lat="45.85473" lon="3.54713">
        <ele>399.79998779297</ele>
        <time>2024-04-30T17:09:20.000Z</time>
      </trkpt>
      <trkpt lat="45.85471" lon="3.54712">
        <ele>399.79998779297</ele>
        <time>2024-04-30T17:09:21.000Z</time>
      </trkpt>
      <trkpt lat="45.85469" lon="3.54709">
        <ele>400.20001220703</ele>
        <time>2024-04-30T17:09:22.000Z</time>
      </trkpt>
      <trkpt lat="45.85467" lon="3.54705">
        <ele>400</ele>
        <time>2024-04-30T17:09:23.000Z</time>
      </trkpt>
      <trkpt lat="45.85465" lon="3.54702">
        <ele>399.79998779297</ele>
        <time>2024-04-30T17:09:24.000Z</time>
      </trkpt>
      <trkpt lat="45.85463" lon="3.54698">
        <ele>399.60000610352</ele>
        <time>2024-04-30T17:09:25.000Z</time>
      </trkpt>
      <trkpt lat="45.85462" lon="3.54697">
        <ele>399.39999389648</ele>
        <time>2024-04-30T17:09:26.000Z</time>
      </trkpt>
      <trkpt lat="45.85461" lon="3.54697">
        <ele>398.79998779297</ele>
        <time>2024-04-30T17:09:27.000Z</time>
      </trkpt>
      <trkpt lat="45.8546" lon="3.54696">
        <ele>398.20001220703</ele>
        <time>2024-04-30T17:09:28.000Z</time>
      </trkpt>
      <trkpt lat="45.85459" lon="3.54695">
        <ele>398</ele>
        <time>2024-04-30T17:09:29.000Z</time>
      </trkpt>
      <trkpt lat="45.85459" lon="3.54695">
        <ele>397.60000610352</ele>
        <time>2024-04-30T17:09:30.000Z</time>
      </trkpt>
      <trkpt lat="45.85459" lon="3.54695">
        <ele>397.20001220703</ele>
        <time>2024-04-30T17:09:31.000Z</time>
      </trkpt>
      <trkpt lat="45.85459" lon="3.54695">
        <ele>397</ele>
        <time>2024-04-30T17:09:32.000Z</time>
      </trkpt>
      <trkpt lat="45.85458" lon="3.54696">
        <ele>396.79998779297</ele>
        <time>2024-04-30T17:09:33.000Z</time>
      </trkpt>
      <trkpt lat="45.85457" lon="3.54697">
        <ele>396.60000610352</ele>
        <time>2024-04-30T17:09:34.000Z</time>
      </trkpt>
      <trkpt lat="45.85456" lon="3.547">
        <ele>396.39999389648</ele>
        <time>2024-04-30T17:09:35.000Z</time>
      </trkpt>
      <trkpt lat="45.85452" lon="3.54701">
        <ele>395.60000610352</ele>
        <time>2024-04-30T17:09:36.000Z</time>
      </trkpt>
      <trkpt lat="45.85448" lon="3.54704">
        <ele>395.20001220703</ele>
        <time>2024-04-30T17:09:37.000Z</time>
      </trkpt>
      <trkpt lat="45.85444" lon="3.54708">
        <ele>395.20001220703</ele>
        <time>2024-04-30T17:09:38.000Z</time>
      </trkpt>
      <trkpt lat="45.85442" lon="3.5471">
        <ele>395</ele>
        <time>2024-04-30T17:09:39.000Z</time>
      </trkpt>
      <trkpt lat="45.85439" lon="3.54713">
        <ele>394.79998779297</ele>
        <time>2024-04-30T17:09:40.000Z</time>
      </trkpt>
      <trkpt lat="45.85438" lon="3.54714">
        <ele>394.79998779297</ele>
        <time>2024-04-30T17:09:41.000Z</time>
      </trkpt>
      <trkpt lat="45.85436" lon="3.54717">
        <ele>395</ele>
        <time>2024-04-30T17:09:42.000Z</time>
      </trkpt>
      <trkpt lat="45.85434" lon="3.5472">
        <ele>395</ele>
        <time>2024-04-30T17:09:43.000Z</time>
      </trkpt>
      <trkpt lat="45.85432" lon="3.54723">
        <ele>395.60000610352</ele>
        <time>2024-04-30T17:09:44.000Z</time>
      </trkpt>
      <trkpt lat="45.85431" lon="3.54727">
        <ele>396</ele>
        <time>2024-04-30T17:09:45.000Z</time>
      </trkpt>
      <trkpt lat="45.85431" lon="3.5473">
        <ele>396.39999389648</ele>
        <time>2024-04-30T17:09:46.000Z</time>
      </trkpt>
      <trkpt lat="45.8543" lon="3.54733">
        <ele>396.79998779297</ele>
        <time>2024-04-30T17:09:47.000Z</time>
      </trkpt>
      <trkpt lat="45.8543" lon="3.54734">
        <ele>397</ele>
        <time>2024-04-30T17:09:48.000Z</time>
      </trkpt>
      <trkpt lat="45.8543" lon="3.54733">
        <ele>397.39999389648</ele>
        <time>2024-04-30T17:09:49.000Z</time>
      </trkpt>
      <trkpt lat="45.85428" lon="3.54734">
        <ele>397.79998779297</ele>
        <time>2024-04-30T17:09:50.000Z</time>
      </trkpt>
      <trkpt lat="45.85429" lon="3.54738">
        <ele>398.20001220703</ele>
        <time>2024-04-30T17:09:51.000Z</time>
      </trkpt>
      <trkpt lat="45.85427" lon="3.54739">
        <ele>398.39999389648</ele>
        <time>2024-04-30T17:09:52.000Z</time>
      </trkpt>
      <trkpt lat="45.85424" lon="3.54741">
        <ele>398.79998779297</ele>
        <time>2024-04-30T17:09:53.000Z</time>
      </trkpt>
      <trkpt lat="45.85423" lon="3.54745">
        <ele>398.79998779297</ele>
        <time>2024-04-30T17:09:54.000Z</time>
      </trkpt>
      <trkpt lat="45.8542" lon="3.54748">
        <ele>399.20001220703</ele>
        <time>2024-04-30T17:09:55.000Z</time>
      </trkpt>
      <trkpt lat="45.85419" lon="3.54753">
        <ele>399</ele>
        <time>2024-04-30T17:09:56.000Z</time>
      </trkpt>
      <trkpt lat="45.85417" lon="3.54758">
        <ele>398.79998779297</ele>
        <time>2024-04-30T17:09:57.000Z</time>
      </trkpt>
      <trkpt lat="45.85417" lon="3.54762">
        <ele>398.79998779297</ele>
        <time>2024-04-30T17:09:58.000Z</time>
      </trkpt>
      <trkpt lat="45.85418" lon="3.54762">
        <ele>398.79998779297</ele>
        <time>2024-04-30T17:09:59.000Z</time>
      </trkpt>
      <trkpt lat="45.85417" lon="3.5476">
        <ele>398.60000610352</ele>
        <time>2024-04-30T17:10:00.000Z</time>
      </trkpt>
      <trkpt lat="45.85418" lon="3.54759">
        <ele>398.79998779297</ele>
        <time>2024-04-30T17:10:01.000Z</time>
      </trkpt>
      <trkpt lat="45.85417" lon="3.54763">
        <ele>399</ele>
        <time>2024-04-30T17:10:02.000Z</time>
      </trkpt>
      <trkpt lat="45.85422" lon="3.54767">
        <ele>399.20001220703</ele>
        <time>2024-04-30T17:10:03.000Z</time>
      </trkpt>
      <trkpt lat="45.85421" lon="3.54766">
        <ele>399.60000610352</ele>
        <time>2024-04-30T17:10:04.000Z</time>
      </trkpt>
      <trkpt lat="45.85421" lon="3.54766">
        <ele>399.79998779297</ele>
        <time>2024-04-30T17:10:05.000Z</time>
      </trkpt>
      <trkpt lat="45.85419" lon="3.54765">
        <ele>400</ele>
        <time>2024-04-30T17:10:06.000Z</time>
      </trkpt>
      <trkpt lat="45.85418" lon="3.54765">
        <ele>400.39999389648</ele>
        <time>2024-04-30T17:10:07.000Z</time>
      </trkpt>
      <trkpt lat="45.85417" lon="3.54764">
        <ele>400.60000610352</ele>
        <time>2024-04-30T17:10:08.000Z</time>
      </trkpt>
      <trkpt lat="45.85434" lon="3.54772">
        <ele>402.60000610352</ele>
        <time>2024-04-30T17:10:15.000Z</time>
      </trkpt>
      <trkpt lat="45.85435" lon="3.54772">
        <ele>403</ele>
        <time>2024-04-30T17:10:16.000Z</time>
      </trkpt>
      <trkpt lat="45.85444" lon="3.54772">
        <ele>403.60000610352</ele>
        <time>2024-04-30T17:10:18.000Z</time>
      </trkpt>
      <trkpt lat="45.85447" lon="3.54771">
        <ele>404</ele>
        <time>2024-04-30T17:10:19.000Z</time>
      </trkpt>
      <trkpt lat="45.8545" lon="3.5477">
        <ele>404</ele>
        <time>2024-04-30T17:10:20.000Z</time>
      </trkpt>
      <trkpt lat="45.85453" lon="3.54771">
        <ele>404.39999389648</ele>
        <time>2024-04-30T17:10:21.000Z</time>
      </trkpt>
      <trkpt lat="45.85456" lon="3.54773">
        <ele>404.79998779297</ele>
        <time>2024-04-30T17:10:22.000Z</time>
      </trkpt>
      <trkpt lat="45.85459" lon="3.54775">
        <ele>405</ele>
        <time>2024-04-30T17:10:23.000Z</time>
      </trkpt>
      <trkpt lat="45.85461" lon="3.54776">
        <ele>405</ele>
        <time>2024-04-30T17:10:24.000Z</time>
      </trkpt>
      <trkpt lat="45.85464" lon="3.54777">
        <ele>405.39999389648</ele>
        <time>2024-04-30T17:10:25.000Z</time>
      </trkpt>
      <trkpt lat="45.85466" lon="3.54777">
        <ele>405.60000610352</ele>
        <time>2024-04-30T17:10:26.000Z</time>
      </trkpt>
      <trkpt lat="45.85468" lon="3.54779">
        <ele>405.79998779297</ele>
        <time>2024-04-30T17:10:27.000Z</time>
      </trkpt>
      <trkpt lat="45.8547" lon="3.54778">
        <ele>406</ele>
        <time>2024-04-30T17:10:28.000Z</time>
      </trkpt>
      <trkpt lat="45.85472" lon="3.54779">
        <ele>406.39999389648</ele>
        <time>2024-04-30T17:10:29.000Z</time>
      </trkpt>
      <trkpt lat="45.85474" lon="3.54778">
        <ele>406.39999389648</ele>
        <time>2024-04-30T17:10:30.000Z</time>
      </trkpt>
      <trkpt lat="45.85476" lon="3.54778">
        <ele>406.60000610352</ele>
        <time>2024-04-30T17:10:31.000Z</time>
      </trkpt>
      <trkpt lat="45.85476" lon="3.54779">
        <ele>406.79998779297</ele>
        <time>2024-04-30T17:10:32.000Z</time>
      </trkpt>
      <trkpt lat="45.85475" lon="3.54781">
        <ele>407</ele>
        <time>2024-04-30T17:10:33.000Z</time>
      </trkpt>
      <trkpt lat="45.85475" lon="3.54778">
        <ele>407</ele>
        <time>2024-04-30T17:10:34.000Z</time>
      </trkpt>
      <trkpt lat="45.85479" lon="3.54779">
        <ele>407.39999389648</ele>
        <time>2024-04-30T17:10:35.000Z</time>
      </trkpt>
      <trkpt lat="45.8548" lon="3.54777">
        <ele>407.39999389648</ele>
        <time>2024-04-30T17:10:36.000Z</time>
      </trkpt>
      <trkpt lat="45.8548" lon="3.54776">
        <ele>407.39999389648</ele>
        <time>2024-04-30T17:10:37.000Z</time>
      </trkpt>
      <trkpt lat="45.85483" lon="3.54774">
        <ele>407.79998779297</ele>
        <time>2024-04-30T17:10:38.000Z</time>
      </trkpt>
      <trkpt lat="45.85486" lon="3.54774">
        <ele>408</ele>
        <time>2024-04-30T17:10:39.000Z</time>
      </trkpt>
      <trkpt lat="45.85489" lon="3.54773">
        <ele>408</ele>
        <time>2024-04-30T17:10:40.000Z</time>
      </trkpt>
      <trkpt lat="45.85494" lon="3.54773">
        <ele>408.20001220703</ele>
        <time>2024-04-30T17:10:41.000Z</time>
      </trkpt>
      <trkpt lat="45.85493" lon="3.54774">
        <ele>408.39999389648</ele>
        <time>2024-04-30T17:10:42.000Z</time>
      </trkpt>
      <trkpt lat="45.85496" lon="3.54777">
        <ele>408.20001220703</ele>
        <time>2024-04-30T17:10:43.000Z</time>
      </trkpt>
      <trkpt lat="45.85498" lon="3.5478">
        <ele>408.20001220703</ele>
        <time>2024-04-30T17:10:44.000Z</time>
      </trkpt>
      <trkpt lat="45.85499" lon="3.54783">
        <ele>408.20001220703</ele>
        <time>2024-04-30T17:10:45.000Z</time>
      </trkpt>
      <trkpt lat="45.85501" lon="3.54785">
        <ele>408</ele>
        <time>2024-04-30T17:10:46.000Z</time>
      </trkpt>
      <trkpt lat="45.85502" lon="3.54787">
        <ele>408</ele>
        <time>2024-04-30T17:10:47.000Z</time>
      </trkpt>
      <trkpt lat="45.85504" lon="3.54789">
        <ele>408.20001220703</ele>
        <time>2024-04-30T17:10:48.000Z</time>
      </trkpt>
      <trkpt lat="45.85506" lon="3.54792">
        <ele>408.39999389648</ele>
        <time>2024-04-30T17:10:49.000Z</time>
      </trkpt>
      <trkpt lat="45.85507" lon="3.54796">
        <ele>408.39999389648</ele>
        <time>2024-04-30T17:10:50.000Z</time>
      </trkpt>
      <trkpt lat="45.85508" lon="3.54799">
        <ele>408.60000610352</ele>
        <time>2024-04-30T17:10:51.000Z</time>
      </trkpt>
      <trkpt lat="45.85508" lon="3.54803">
        <ele>408.79998779297</ele>
        <time>2024-04-30T17:10:52.000Z</time>
      </trkpt>
      <trkpt lat="45.85508" lon="3.54807">
        <ele>408.79998779297</ele>
        <time>2024-04-30T17:10:53.000Z</time>
      </trkpt>
      <trkpt lat="45.85507" lon="3.5481">
        <ele>408.79998779297</ele>
        <time>2024-04-30T17:10:54.000Z</time>
      </trkpt>
      <trkpt lat="45.85505" lon="3.54813">
        <ele>409</ele>
        <time>2024-04-30T17:10:55.000Z</time>
      </trkpt>
      <trkpt lat="45.85503" lon="3.54816">
        <ele>409.20001220703</ele>
        <time>2024-04-30T17:10:56.000Z</time>
      </trkpt>
      <trkpt lat="45.85502" lon="3.54819">
        <ele>408.79998779297</ele>
        <time>2024-04-30T17:10:57.000Z</time>
      </trkpt>
      <trkpt lat="45.855" lon="3.54821">
        <ele>408.60000610352</ele>
        <time>2024-04-30T17:10:58.000Z</time>
      </trkpt>
      <trkpt lat="45.85498" lon="3.54826">
        <ele>408.39999389648</ele>
        <time>2024-04-30T17:10:59.000Z</time>
      </trkpt>
      <trkpt lat="45.85496" lon="3.54829">
        <ele>408</ele>
        <time>2024-04-30T17:11:00.000Z</time>
      </trkpt>
      <trkpt lat="45.85496" lon="3.54832">
        <ele>407.60000610352</ele>
        <time>2024-04-30T17:11:01.000Z</time>
      </trkpt>
      <trkpt lat="45.85496" lon="3.54834">
        <ele>407.39999389648</ele>
        <time>2024-04-30T17:11:02.000Z</time>
      </trkpt>
      <trkpt lat="45.85496" lon="3.54833">
        <ele>407</ele>
        <time>2024-04-30T17:11:03.000Z</time>
      </trkpt>
      <trkpt lat="45.85495" lon="3.54835">
        <ele>406.60000610352</ele>
        <time>2024-04-30T17:11:04.000Z</time>
      </trkpt>
      <trkpt lat="45.85494" lon="3.54837">
        <ele>406.39999389648</ele>
        <time>2024-04-30T17:11:05.000Z</time>
      </trkpt>
      <trkpt lat="45.85492" lon="3.5484">
        <ele>405.79998779297</ele>
        <time>2024-04-30T17:11:06.000Z</time>
      </trkpt>
      <trkpt lat="45.85491" lon="3.54843">
        <ele>405.20001220703</ele>
        <time>2024-04-30T17:11:07.000Z</time>
      </trkpt>
      <trkpt lat="45.85489" lon="3.54846">
        <ele>404.79998779297</ele>
        <time>2024-04-30T17:11:08.000Z</time>
      </trkpt>
      <trkpt lat="45.85486" lon="3.54847">
        <ele>404.39999389648</ele>
        <time>2024-04-30T17:11:09.000Z</time>
      </trkpt>
      <trkpt lat="45.85482" lon="3.54846">
        <ele>403.79998779297</ele>
        <time>2024-04-30T17:11:10.000Z</time>
      </trkpt>
      <trkpt lat="45.8548" lon="3.54847">
        <ele>403.60000610352</ele>
        <time>2024-04-30T17:11:11.000Z</time>
      </trkpt>
      <trkpt lat="45.85476" lon="3.54851">
        <ele>403.20001220703</ele>
        <time>2024-04-30T17:11:12.000Z</time>
      </trkpt>
      <trkpt lat="45.85473" lon="3.54853">
        <ele>402.79998779297</ele>
        <time>2024-04-30T17:11:13.000Z</time>
      </trkpt>
      <trkpt lat="45.8547" lon="3.54854">
        <ele>402.39999389648</ele>
        <time>2024-04-30T17:11:14.000Z</time>
      </trkpt>
      <trkpt lat="45.85467" lon="3.54855">
        <ele>402.39999389648</ele>
        <time>2024-04-30T17:11:15.000Z</time>
      </trkpt>
      <trkpt lat="45.85464" lon="3.54855">
        <ele>402</ele>
        <time>2024-04-30T17:11:16.000Z</time>
      </trkpt>
      <trkpt lat="45.85462" lon="3.54853">
        <ele>401.60000610352</ele>
        <time>2024-04-30T17:11:17.000Z</time>
      </trkpt>
      <trkpt lat="45.85459" lon="3.54853">
        <ele>401.20001220703</ele>
        <time>2024-04-30T17:11:18.000Z</time>
      </trkpt>
      <trkpt lat="45.85457" lon="3.54853">
        <ele>400.79998779297</ele>
        <time>2024-04-30T17:11:19.000Z</time>
      </trkpt>
      <trkpt lat="45.85453" lon="3.54855">
        <ele>400.39999389648</ele>
        <time>2024-04-30T17:11:20.000Z</time>
      </trkpt>
      <trkpt lat="45.8545" lon="3.54856">
        <ele>400</ele>
        <time>2024-04-30T17:11:21.000Z</time>
      </trkpt>
      <trkpt lat="45.85447" lon="3.54856">
        <ele>399.79998779297</ele>
        <time>2024-04-30T17:11:22.000Z</time>
      </trkpt>
      <trkpt lat="45.85444" lon="3.54856">
        <ele>399.60000610352</ele>
        <time>2024-04-30T17:11:23.000Z</time>
      </trkpt>
      <trkpt lat="45.85442" lon="3.54856">
        <ele>399.20001220703</ele>
        <time>2024-04-30T17:11:24.000Z</time>
      </trkpt>
      <trkpt lat="45.85439" lon="3.54855">
        <ele>398.79998779297</ele>
        <time>2024-04-30T17:11:25.000Z</time>
      </trkpt>
      <trkpt lat="45.85436" lon="3.54854">
        <ele>398.60000610352</ele>
        <time>2024-04-30T17:11:26.000Z</time>
      </trkpt>
      <trkpt lat="45.85433" lon="3.54853">
        <ele>398.20001220703</ele>
        <time>2024-04-30T17:11:27.000Z</time>
      </trkpt>
      <trkpt lat="45.8543" lon="3.54854">
        <ele>397.79998779297</ele>
        <time>2024-04-30T17:11:28.000Z</time>
      </trkpt>
      <trkpt lat="45.85429" lon="3.54856">
        <ele>397.60000610352</ele>
        <time>2024-04-30T17:11:29.000Z</time>
      </trkpt>
      <trkpt lat="45.85428" lon="3.5486">
        <ele>397.20001220703</ele>
        <time>2024-04-30T17:11:30.000Z</time>
      </trkpt>
      <trkpt lat="45.85429" lon="3.54864">
        <ele>397</ele>
        <time>2024-04-30T17:11:31.000Z</time>
      </trkpt>
      <trkpt lat="45.85433" lon="3.54869">
        <ele>397</ele>
        <time>2024-04-30T17:11:32.000Z</time>
      </trkpt>
      <trkpt lat="45.85435" lon="3.54873">
        <ele>396.60000610352</ele>
        <time>2024-04-30T17:11:33.000Z</time>
      </trkpt>
      <trkpt lat="45.85436" lon="3.54877">
        <ele>396.39999389648</ele>
        <time>2024-04-30T17:11:34.000Z</time>
      </trkpt>
      <trkpt lat="45.85438" lon="3.5488">
        <ele>396</ele>
        <time>2024-04-30T17:11:35.000Z</time>
      </trkpt>
      <trkpt lat="45.8544" lon="3.54883">
        <ele>395.39999389648</ele>
        <time>2024-04-30T17:11:36.000Z</time>
      </trkpt>
      <trkpt lat="45.85442" lon="3.54886">
        <ele>394.79998779297</ele>
        <time>2024-04-30T17:11:37.000Z</time>
      </trkpt>
      <trkpt lat="45.85443" lon="3.5489">
        <ele>394.20001220703</ele>
        <time>2024-04-30T17:11:38.000Z</time>
      </trkpt>
      <trkpt lat="45.85444" lon="3.54894">
        <ele>394</ele>
        <time>2024-04-30T17:11:39.000Z</time>
      </trkpt>
      <trkpt lat="45.85446" lon="3.54898">
        <ele>393.60000610352</ele>
        <time>2024-04-30T17:11:40.000Z</time>
      </trkpt>
      <trkpt lat="45.85448" lon="3.549">
        <ele>393.39999389648</ele>
        <time>2024-04-30T17:11:41.000Z</time>
      </trkpt>
      <trkpt lat="45.85449" lon="3.549">
        <ele>393</ele>
        <time>2024-04-30T17:11:42.000Z</time>
      </trkpt>
      <trkpt lat="45.85451" lon="3.54901">
        <ele>392.60000610352</ele>
        <time>2024-04-30T17:11:43.000Z</time>
      </trkpt>
      <trkpt lat="45.85452" lon="3.549">
        <ele>392.39999389648</ele>
        <time>2024-04-30T17:11:44.000Z</time>
      </trkpt>
      <trkpt lat="45.85454" lon="3.54899">
        <ele>392.39999389648</ele>
        <time>2024-04-30T17:11:45.000Z</time>
      </trkpt>
      <trkpt lat="45.85456" lon="3.54897">
        <ele>392.60000610352</ele>
        <time>2024-04-30T17:11:46.000Z</time>
      </trkpt>
      <trkpt lat="45.85458" lon="3.54895">
        <ele>393</ele>
        <time>2024-04-30T17:11:47.000Z</time>
      </trkpt>
      <trkpt lat="45.8546" lon="3.54894">
        <ele>393.39999389648</ele>
        <time>2024-04-30T17:11:48.000Z</time>
      </trkpt>
      <trkpt lat="45.85462" lon="3.54894">
        <ele>393.60000610352</ele>
        <time>2024-04-30T17:11:49.000Z</time>
      </trkpt>
      <trkpt lat="45.85463" lon="3.54893">
        <ele>394</ele>
        <time>2024-04-30T17:11:50.000Z</time>
      </trkpt>
      <trkpt lat="45.85465" lon="3.54893">
        <ele>394.39999389648</ele>
        <time>2024-04-30T17:11:51.000Z</time>
      </trkpt>
      <trkpt lat="45.85467" lon="3.54892">
        <ele>394.60000610352</ele>
        <time>2024-04-30T17:11:52.000Z</time>
      </trkpt>
      <trkpt lat="45.85469" lon="3.5489">
        <ele>395</ele>
        <time>2024-04-30T17:11:53.000Z</time>
      </trkpt>
      <trkpt lat="45.85471" lon="3.5489">
        <ele>395.20001220703</ele>
        <time>2024-04-30T17:11:54.000Z</time>
      </trkpt>
      <trkpt lat="45.85473" lon="3.54889">
        <ele>395.20001220703</ele>
        <time>2024-04-30T17:11:55.000Z</time>
      </trkpt>
      <trkpt lat="45.85475" lon="3.54888">
        <ele>395.60000610352</ele>
        <time>2024-04-30T17:11:56.000Z</time>
      </trkpt>
      <trkpt lat="45.85477" lon="3.54887">
        <ele>395.79998779297</ele>
        <time>2024-04-30T17:11:57.000Z</time>
      </trkpt>
      <trkpt lat="45.85479" lon="3.54886">
        <ele>396</ele>
        <time>2024-04-30T17:11:58.000Z</time>
      </trkpt>
      <trkpt lat="45.85481" lon="3.54885">
        <ele>396.39999389648</ele>
        <time>2024-04-30T17:11:59.000Z</time>
      </trkpt>
      <trkpt lat="45.85483" lon="3.54884">
        <ele>396.60000610352</ele>
        <time>2024-04-30T17:12:00.000Z</time>
      </trkpt>
      <trkpt lat="45.85485" lon="3.54883">
        <ele>397</ele>
        <time>2024-04-30T17:12:01.000Z</time>
      </trkpt>
      <trkpt lat="45.85486" lon="3.54882">
        <ele>397.20001220703</ele>
        <time>2024-04-30T17:12:02.000Z</time>
      </trkpt>
      <trkpt lat="45.85487" lon="3.54882">
        <ele>397.39999389648</ele>
        <time>2024-04-30T17:12:03.000Z</time>
      </trkpt>
      <trkpt lat="45.85489" lon="3.54881">
        <ele>397.79998779297</ele>
        <time>2024-04-30T17:12:04.000Z</time>
      </trkpt>
      <trkpt lat="45.8549" lon="3.5488">
        <ele>398.20001220703</ele>
        <time>2024-04-30T17:12:05.000Z</time>
      </trkpt>
      <trkpt lat="45.85491" lon="3.54879">
        <ele>398.39999389648</ele>
        <time>2024-04-30T17:12:06.000Z</time>
      </trkpt>
      <trkpt lat="45.85493" lon="3.54879">
        <ele>398.79998779297</ele>
        <time>2024-04-30T17:12:07.000Z</time>
      </trkpt>
      <trkpt lat="45.85494" lon="3.54878">
        <ele>399.39999389648</ele>
        <time>2024-04-30T17:12:08.000Z</time>
      </trkpt>
      <trkpt lat="45.85494" lon="3.54877">
        <ele>399.79998779297</ele>
        <time>2024-04-30T17:12:09.000Z</time>
      </trkpt>
      <trkpt lat="45.85495" lon="3.54876">
        <ele>400</ele>
        <time>2024-04-30T17:12:10.000Z</time>
      </trkpt>
      <trkpt lat="45.85497" lon="3.54876">
        <ele>400.60000610352</ele>
        <time>2024-04-30T17:12:11.000Z</time>
      </trkpt>
      <trkpt lat="45.85498" lon="3.54875">
        <ele>400.79998779297</ele>
        <time>2024-04-30T17:12:12.000Z</time>
      </trkpt>
      <trkpt lat="45.85499" lon="3.54874">
        <ele>401</ele>
        <time>2024-04-30T17:12:13.000Z</time>
      </trkpt>
      <trkpt lat="45.85499" lon="3.54874">
        <ele>401.20001220703</ele>
        <time>2024-04-30T17:12:14.000Z</time>
      </trkpt>
      <trkpt lat="45.85499" lon="3.54873">
        <ele>401.20001220703</ele>
        <time>2024-04-30T17:12:15.000Z</time>
      </trkpt>
      <trkpt lat="45.85499" lon="3.54872">
        <ele>401.39999389648</ele>
        <time>2024-04-30T17:12:16.000Z</time>
      </trkpt>
      <trkpt lat="45.85499" lon="3.54871">
        <ele>401.39999389648</ele>
        <time>2024-04-30T17:12:17.000Z</time>
      </trkpt>
      <trkpt lat="45.855" lon="3.54871">
        <ele>401.60000610352</ele>
        <time>2024-04-30T17:12:18.000Z</time>
      </trkpt>
      <trkpt lat="45.85501" lon="3.54871">
        <ele>401.79998779297</ele>
        <time>2024-04-30T17:12:19.000Z</time>
      </trkpt>
      <trkpt lat="45.85502" lon="3.5487">
        <ele>402</ele>
        <time>2024-04-30T17:12:20.000Z</time>
      </trkpt>
      <trkpt lat="45.85503" lon="3.54869">
        <ele>402.39999389648</ele>
        <time>2024-04-30T17:12:21.000Z</time>
      </trkpt>
      <trkpt lat="45.85503" lon="3.54871">
        <ele>402.79998779297</ele>
        <time>2024-04-30T17:12:22.000Z</time>
      </trkpt>
      <trkpt lat="45.85503" lon="3.54873">
        <ele>403</ele>
        <time>2024-04-30T17:12:23.000Z</time>
      </trkpt>
      <trkpt lat="45.85503" lon="3.54875">
        <ele>403.20001220703</ele>
        <time>2024-04-30T17:12:24.000Z</time>
      </trkpt>
      <trkpt lat="45.85504" lon="3.54877">
        <ele>403.39999389648</ele>
        <time>2024-04-30T17:12:25.000Z</time>
      </trkpt>
      <trkpt lat="45.85505" lon="3.54876">
        <ele>403.60000610352</ele>
        <time>2024-04-30T17:12:26.000Z</time>
      </trkpt>
      <trkpt lat="45.85506" lon="3.54874">
        <ele>403.79998779297</ele>
        <time>2024-04-30T17:12:27.000Z</time>
      </trkpt>
      <trkpt lat="45.85506" lon="3.54874">
        <ele>404</ele>
        <time>2024-04-30T17:12:28.000Z</time>
      </trkpt>
      <trkpt lat="45.85505" lon="3.54875">
        <ele>404.39999389648</ele>
        <time>2024-04-30T17:12:29.000Z</time>
      </trkpt>
      <trkpt lat="45.85506" lon="3.54873">
        <ele>404.79998779297</ele>
        <time>2024-04-30T17:12:30.000Z</time>
      </trkpt>
      <trkpt lat="45.85507" lon="3.54874">
        <ele>405.20001220703</ele>
        <time>2024-04-30T17:12:31.000Z</time>
      </trkpt>
      <trkpt lat="45.85507" lon="3.54874">
        <ele>405.60000610352</ele>
        <time>2024-04-30T17:12:32.000Z</time>
      </trkpt>
      <trkpt lat="45.85508" lon="3.54874">
        <ele>405.79998779297</ele>
        <time>2024-04-30T17:12:33.000Z</time>
      </trkpt>
      <trkpt lat="45.85509" lon="3.54875">
        <ele>406.20001220703</ele>
        <time>2024-04-30T17:12:34.000Z</time>
      </trkpt>
      <trkpt lat="45.8551" lon="3.54875">
        <ele>406.39999389648</ele>
        <time>2024-04-30T17:12:35.000Z</time>
      </trkpt>
      <trkpt lat="45.85511" lon="3.54874">
        <ele>406.60000610352</ele>
        <time>2024-04-30T17:12:36.000Z</time>
      </trkpt>
      <trkpt lat="45.85512" lon="3.54874">
        <ele>406.79998779297</ele>
        <time>2024-04-30T17:12:37.000Z</time>
      </trkpt>
      <trkpt lat="45.85513" lon="3.54874">
        <ele>407</ele>
        <time>2024-04-30T17:12:38.000Z</time>
      </trkpt>
      <trkpt lat="45.85514" lon="3.54874">
        <ele>407.20001220703</ele>
        <time>2024-04-30T17:12:39.000Z</time>
      </trkpt>
      <trkpt lat="45.85515" lon="3.54874">
        <ele>407.39999389648</ele>
        <time>2024-04-30T17:12:40.000Z</time>
      </trkpt>
      <trkpt lat="45.85516" lon="3.54873">
        <ele>407.60000610352</ele>
        <time>2024-04-30T17:12:41.000Z</time>
      </trkpt>
      <trkpt lat="45.85517" lon="3.54873">
        <ele>407.79998779297</ele>
        <time>2024-04-30T17:12:42.000Z</time>
      </trkpt>
      <trkpt lat="45.85517" lon="3.54873">
        <ele>408.20001220703</ele>
        <time>2024-04-30T17:12:43.000Z</time>
      </trkpt>
      <trkpt lat="45.85517" lon="3.54873">
        <ele>408.60000610352</ele>
        <time>2024-04-30T17:12:44.000Z</time>
      </trkpt>
      <trkpt lat="45.8552" lon="3.54872">
        <ele>409</ele>
        <time>2024-04-30T17:12:45.000Z</time>
      </trkpt>
      <trkpt lat="45.85522" lon="3.54871">
        <ele>409.39999389648</ele>
        <time>2024-04-30T17:12:46.000Z</time>
      </trkpt>
      <trkpt lat="45.85524" lon="3.5487">
        <ele>409.60000610352</ele>
        <time>2024-04-30T17:12:47.000Z</time>
      </trkpt>
      <trkpt lat="45.85526" lon="3.54868">
        <ele>409.79998779297</ele>
        <time>2024-04-30T17:12:48.000Z</time>
      </trkpt>
      <trkpt lat="45.85528" lon="3.54866">
        <ele>410</ele>
        <time>2024-04-30T17:12:49.000Z</time>
      </trkpt>
      <trkpt lat="45.85529" lon="3.54864">
        <ele>410.20001220703</ele>
        <time>2024-04-30T17:12:50.000Z</time>
      </trkpt>
      <trkpt lat="45.8553" lon="3.54862">
        <ele>410.20001220703</ele>
        <time>2024-04-30T17:12:51.000Z</time>
      </trkpt>
      <trkpt lat="45.85532" lon="3.54861">
        <ele>410.20001220703</ele>
        <time>2024-04-30T17:12:52.000Z</time>
      </trkpt>
      <trkpt lat="45.85532" lon="3.5486">
        <ele>410.20001220703</ele>
        <time>2024-04-30T17:12:53.000Z</time>
      </trkpt>
      <trkpt lat="45.85533" lon="3.54858">
        <ele>410.20001220703</ele>
        <time>2024-04-30T17:12:54.000Z</time>
      </trkpt>
      <trkpt lat="45.85533" lon="3.54857">
        <ele>410.20001220703</ele>
        <time>2024-04-30T17:12:55.000Z</time>
      </trkpt>
      <trkpt lat="45.85533" lon="3.54855">
        <ele>410.20001220703</ele>
        <time>2024-04-30T17:12:56.000Z</time>
      </trkpt>
      <trkpt lat="45.85534" lon="3.54854">
        <ele>410.20001220703</ele>
        <time>2024-04-30T17:12:57.000Z</time>
      </trkpt>
      <trkpt lat="45.85534" lon="3.54852">
        <ele>410.20001220703</ele>
        <time>2024-04-30T17:12:58.000Z</time>
      </trkpt>
      <trkpt lat="45.85534" lon="3.54851">
        <ele>410.20001220703</ele>
        <time>2024-04-30T17:12:59.000Z</time>
      </trkpt>
      <trkpt lat="45.85535" lon="3.54851">
        <ele>410.20001220703</ele>
        <time>2024-04-30T17:13:00.000Z</time>
      </trkpt>
      <trkpt lat="45.85536" lon="3.5485">
        <ele>410.20001220703</ele>
        <time>2024-04-30T17:13:01.000Z</time>
      </trkpt>
      <trkpt lat="45.85535" lon="3.5485">
        <ele>410.20001220703</ele>
        <time>2024-04-30T17:13:02.000Z</time>
      </trkpt>
      <trkpt lat="45.85536" lon="3.54849">
        <ele>410</ele>
        <time>2024-04-30T17:13:03.000Z</time>
      </trkpt>
      <trkpt lat="45.85536" lon="3.54847">
        <ele>410</ele>
        <time>2024-04-30T17:13:04.000Z</time>
      </trkpt>
      <trkpt lat="45.85537" lon="3.54845">
        <ele>410</ele>
        <time>2024-04-30T17:13:05.000Z</time>
      </trkpt>
      <trkpt lat="45.85537" lon="3.54842">
        <ele>410</ele>
        <time>2024-04-30T17:13:06.000Z</time>
      </trkpt>
      <trkpt lat="45.85537" lon="3.5484">
        <ele>410.20001220703</ele>
        <time>2024-04-30T17:13:07.000Z</time>
      </trkpt>
      <trkpt lat="45.85538" lon="3.54839">
        <ele>410.60000610352</ele>
        <time>2024-04-30T17:13:08.000Z</time>
      </trkpt>
      <trkpt lat="45.85539" lon="3.54839">
        <ele>410.60000610352</ele>
        <time>2024-04-30T17:13:09.000Z</time>
      </trkpt>
      <trkpt lat="45.85541" lon="3.54838">
        <ele>410.79998779297</ele>
        <time>2024-04-30T17:13:10.000Z</time>
      </trkpt>
      <trkpt lat="45.85544" lon="3.5484">
        <ele>410.79998779297</ele>
        <time>2024-04-30T17:13:11.000Z</time>
      </trkpt>
      <trkpt lat="45.85547" lon="3.54841">
        <ele>410.79998779297</ele>
        <time>2024-04-30T17:13:12.000Z</time>
      </trkpt>
      <trkpt lat="45.85549" lon="3.54841">
        <ele>411</ele>
        <time>2024-04-30T17:13:13.000Z</time>
      </trkpt>
      <trkpt lat="45.85551" lon="3.54841">
        <ele>410.79998779297</ele>
        <time>2024-04-30T17:13:14.000Z</time>
      </trkpt>
      <trkpt lat="45.85553" lon="3.5484">
        <ele>411</ele>
        <time>2024-04-30T17:13:15.000Z</time>
      </trkpt>
      <trkpt lat="45.85553" lon="3.5484">
        <ele>411</ele>
        <time>2024-04-30T17:13:16.000Z</time>
      </trkpt>
      <trkpt lat="45.85554" lon="3.54841">
        <ele>411.20001220703</ele>
        <time>2024-04-30T17:13:17.000Z</time>
      </trkpt>
      <trkpt lat="45.85556" lon="3.54842">
        <ele>411.20001220703</ele>
        <time>2024-04-30T17:13:18.000Z</time>
      </trkpt>
      <trkpt lat="45.85558" lon="3.54843">
        <ele>411.39999389648</ele>
        <time>2024-04-30T17:13:19.000Z</time>
      </trkpt>
      <trkpt lat="45.85562" lon="3.54844">
        <ele>411.39999389648</ele>
        <time>2024-04-30T17:13:20.000Z</time>
      </trkpt>
      <trkpt lat="45.85564" lon="3.54844">
        <ele>411.60000610352</ele>
        <time>2024-04-30T17:13:21.000Z</time>
      </trkpt>
      <trkpt lat="45.85566" lon="3.54844">
        <ele>411.60000610352</ele>
        <time>2024-04-30T17:13:22.000Z</time>
      </trkpt>
      <trkpt lat="45.85567" lon="3.54843">
        <ele>411.79998779297</ele>
        <time>2024-04-30T17:13:23.000Z</time>
      </trkpt>
      <trkpt lat="45.85569" lon="3.5484">
        <ele>412</ele>
        <time>2024-04-30T17:13:24.000Z</time>
      </trkpt>
      <trkpt lat="45.85571" lon="3.54838">
        <ele>412.20001220703</ele>
        <time>2024-04-30T17:13:25.000Z</time>
      </trkpt>
      <trkpt lat="45.85573" lon="3.54838">
        <ele>412.39999389648</ele>
        <time>2024-04-30T17:13:26.000Z</time>
      </trkpt>
      <trkpt lat="45.85576" lon="3.54837">
        <ele>412.79998779297</ele>
        <time>2024-04-30T17:13:27.000Z</time>
      </trkpt>
      <trkpt lat="45.85578" lon="3.54835">
        <ele>412.79998779297</ele>
        <time>2024-04-30T17:13:28.000Z</time>
      </trkpt>
      <trkpt lat="45.85579" lon="3.54833">
        <ele>413</ele>
        <time>2024-04-30T17:13:29.000Z</time>
      </trkpt>
      <trkpt lat="45.85583" lon="3.54833">
        <ele>413.20001220703</ele>
        <time>2024-04-30T17:13:30.000Z</time>
      </trkpt>
      <trkpt lat="45.85585" lon="3.54834">
        <ele>413.60000610352</ele>
        <time>2024-04-30T17:13:31.000Z</time>
      </trkpt>
      <trkpt lat="45.85586" lon="3.54834">
        <ele>413.39999389648</ele>
        <time>2024-04-30T17:13:32.000Z</time>
      </trkpt>
      <trkpt lat="45.85586" lon="3.54835">
        <ele>413.79998779297</ele>
        <time>2024-04-30T17:13:33.000Z</time>
      </trkpt>
      <trkpt lat="45.85586" lon="3.54835">
        <ele>413.79998779297</ele>
        <time>2024-04-30T17:13:34.000Z</time>
      </trkpt>
      <trkpt lat="45.85587" lon="3.54834">
        <ele>414.20001220703</ele>
        <time>2024-04-30T17:13:35.000Z</time>
      </trkpt>
      <trkpt lat="45.85587" lon="3.54832">
        <ele>414.39999389648</ele>
        <time>2024-04-30T17:13:36.000Z</time>
      </trkpt>
      <trkpt lat="45.85588" lon="3.54832">
        <ele>414.79998779297</ele>
        <time>2024-04-30T17:13:37.000Z</time>
      </trkpt>
      <trkpt lat="45.85589" lon="3.5483">
        <ele>415.20001220703</ele>
        <time>2024-04-30T17:13:38.000Z</time>
      </trkpt>
      <trkpt lat="45.8559" lon="3.54828">
        <ele>415.39999389648</ele>
        <time>2024-04-30T17:13:39.000Z</time>
      </trkpt>
      <trkpt lat="45.85592" lon="3.54826">
        <ele>415.60000610352</ele>
        <time>2024-04-30T17:13:40.000Z</time>
      </trkpt>
      <trkpt lat="45.85593" lon="3.54823">
        <ele>416</ele>
        <time>2024-04-30T17:13:41.000Z</time>
      </trkpt>
      <trkpt lat="45.85596" lon="3.54822">
        <ele>416.20001220703</ele>
        <time>2024-04-30T17:13:42.000Z</time>
      </trkpt>
      <trkpt lat="45.856" lon="3.54822">
        <ele>416.39999389648</ele>
        <time>2024-04-30T17:13:43.000Z</time>
      </trkpt>
      <trkpt lat="45.85603" lon="3.54819">
        <ele>416.79998779297</ele>
        <time>2024-04-30T17:13:44.000Z</time>
      </trkpt>
      <trkpt lat="45.85604" lon="3.54817">
        <ele>417.20001220703</ele>
        <time>2024-04-30T17:13:45.000Z</time>
      </trkpt>
      <trkpt lat="45.85606" lon="3.54815">
        <ele>417.39999389648</ele>
        <time>2024-04-30T17:13:46.000Z</time>
      </trkpt>
      <trkpt lat="45.85608" lon="3.54813">
        <ele>417.79998779297</ele>
        <time>2024-04-30T17:13:47.000Z</time>
      </trkpt>
      <trkpt lat="45.85609" lon="3.54811">
        <ele>418</ele>
        <time>2024-04-30T17:13:48.000Z</time>
      </trkpt>
      <trkpt lat="45.85611" lon="3.5481">
        <ele>418.39999389648</ele>
        <time>2024-04-30T17:13:49.000Z</time>
      </trkpt>
      <trkpt lat="45.85612" lon="3.54808">
        <ele>418.79998779297</ele>
        <time>2024-04-30T17:13:50.000Z</time>
      </trkpt>
      <trkpt lat="45.85614" lon="3.54805">
        <ele>419</ele>
        <time>2024-04-30T17:13:51.000Z</time>
      </trkpt>
      <trkpt lat="45.85615" lon="3.54803">
        <ele>419.39999389648</ele>
        <time>2024-04-30T17:13:52.000Z</time>
      </trkpt>
      <trkpt lat="45.85618" lon="3.54801">
        <ele>419.60000610352</ele>
        <time>2024-04-30T17:13:53.000Z</time>
      </trkpt>
      <trkpt lat="45.85618" lon="3.54798">
        <ele>419.79998779297</ele>
        <time>2024-04-30T17:13:54.000Z</time>
      </trkpt>
      <trkpt lat="45.85621" lon="3.54797">
        <ele>420.20001220703</ele>
        <time>2024-04-30T17:13:55.000Z</time>
      </trkpt>
      <trkpt lat="45.85622" lon="3.54797">
        <ele>420.20001220703</ele>
        <time>2024-04-30T17:13:56.000Z</time>
      </trkpt>
      <trkpt lat="45.85624" lon="3.54798">
        <ele>420.60000610352</ele>
        <time>2024-04-30T17:13:57.000Z</time>
      </trkpt>
      <trkpt lat="45.85627" lon="3.54799">
        <ele>421</ele>
        <time>2024-04-30T17:13:58.000Z</time>
      </trkpt>
      <trkpt lat="45.8563" lon="3.54798">
        <ele>421.39999389648</ele>
        <time>2024-04-30T17:13:59.000Z</time>
      </trkpt>
      <trkpt lat="45.85633" lon="3.54797">
        <ele>421.79998779297</ele>
        <time>2024-04-30T17:14:00.000Z</time>
      </trkpt>
      <trkpt lat="45.85635" lon="3.54796">
        <ele>422.20001220703</ele>
        <time>2024-04-30T17:14:01.000Z</time>
      </trkpt>
      <trkpt lat="45.85636" lon="3.54794">
        <ele>422.60000610352</ele>
        <time>2024-04-30T17:14:02.000Z</time>
      </trkpt>
      <trkpt lat="45.85638" lon="3.54793">
        <ele>422.79998779297</ele>
        <time>2024-04-30T17:14:03.000Z</time>
      </trkpt>
      <trkpt lat="45.8564" lon="3.54791">
        <ele>423</ele>
        <time>2024-04-30T17:14:04.000Z</time>
      </trkpt>
      <trkpt lat="45.85642" lon="3.54787">
        <ele>423.39999389648</ele>
        <time>2024-04-30T17:14:05.000Z</time>
      </trkpt>
      <trkpt lat="45.85644" lon="3.54785">
        <ele>423.79998779297</ele>
        <time>2024-04-30T17:14:06.000Z</time>
      </trkpt>
      <trkpt lat="45.85644" lon="3.54785">
        <ele>424</ele>
        <time>2024-04-30T17:14:07.000Z</time>
      </trkpt>
      <trkpt lat="45.8565" lon="3.54785">
        <ele>424.39999389648</ele>
        <time>2024-04-30T17:14:08.000Z</time>
      </trkpt>
      <trkpt lat="45.85652" lon="3.54783">
        <ele>424.39999389648</ele>
        <time>2024-04-30T17:14:09.000Z</time>
      </trkpt>
      <trkpt lat="45.85653" lon="3.5478">
        <ele>424.60000610352</ele>
        <time>2024-04-30T17:14:10.000Z</time>
      </trkpt>
      <trkpt lat="45.85653" lon="3.54776">
        <ele>424.79998779297</ele>
        <time>2024-04-30T17:14:11.000Z</time>
      </trkpt>
      <trkpt lat="45.85655" lon="3.54774">
        <ele>424.79998779297</ele>
        <time>2024-04-30T17:14:12.000Z</time>
      </trkpt>
      <trkpt lat="45.85656" lon="3.54771">
        <ele>425</ele>
        <time>2024-04-30T17:14:13.000Z</time>
      </trkpt>
      <trkpt lat="45.85657" lon="3.54768">
        <ele>425</ele>
        <time>2024-04-30T17:14:14.000Z</time>
      </trkpt>
      <trkpt lat="45.85658" lon="3.54766">
        <ele>425</ele>
        <time>2024-04-30T17:14:15.000Z</time>
      </trkpt>
      <trkpt lat="45.8566" lon="3.54765">
        <ele>425.20001220703</ele>
        <time>2024-04-30T17:14:16.000Z</time>
      </trkpt>
      <trkpt lat="45.85661" lon="3.54763">
        <ele>425.39999389648</ele>
        <time>2024-04-30T17:14:17.000Z</time>
      </trkpt>
      <trkpt lat="45.85662" lon="3.54761">
        <ele>425.39999389648</ele>
        <time>2024-04-30T17:14:18.000Z</time>
      </trkpt>
      <trkpt lat="45.85662" lon="3.54759">
        <ele>425.39999389648</ele>
        <time>2024-04-30T17:14:19.000Z</time>
      </trkpt>
      <trkpt lat="45.85663" lon="3.54757">
        <ele>425.60000610352</ele>
        <time>2024-04-30T17:14:20.000Z</time>
      </trkpt>
      <trkpt lat="45.85664" lon="3.54755">
        <ele>425.60000610352</ele>
        <time>2024-04-30T17:14:21.000Z</time>
      </trkpt>
      <trkpt lat="45.85665" lon="3.54753">
        <ele>425.39999389648</ele>
        <time>2024-04-30T17:14:22.000Z</time>
      </trkpt>
      <trkpt lat="45.85666" lon="3.54751">
        <ele>425.39999389648</ele>
        <time>2024-04-30T17:14:23.000Z</time>
      </trkpt>
      <trkpt lat="45.85667" lon="3.54749">
        <ele>425.39999389648</ele>
        <time>2024-04-30T17:14:24.000Z</time>
      </trkpt>
      <trkpt lat="45.85668" lon="3.54748">
        <ele>425.20001220703</ele>
        <time>2024-04-30T17:14:25.000Z</time>
      </trkpt>
      <trkpt lat="45.85668" lon="3.54746">
        <ele>425.20001220703</ele>
        <time>2024-04-30T17:14:26.000Z</time>
      </trkpt>
      <trkpt lat="45.85669" lon="3.54746">
        <ele>425.20001220703</ele>
        <time>2024-04-30T17:14:27.000Z</time>
      </trkpt>
      <trkpt lat="45.85671" lon="3.54745">
        <ele>425.39999389648</ele>
        <time>2024-04-30T17:14:28.000Z</time>
      </trkpt>
      <trkpt lat="45.85671" lon="3.54746">
        <ele>425.39999389648</ele>
        <time>2024-04-30T17:14:29.000Z</time>
      </trkpt>
      <trkpt lat="45.85671" lon="3.54747">
        <ele>425.39999389648</ele>
        <time>2024-04-30T17:14:30.000Z</time>
      </trkpt>
      <trkpt lat="45.85672" lon="3.54748">
        <ele>425.60000610352</ele>
        <time>2024-04-30T17:14:31.000Z</time>
      </trkpt>
      <trkpt lat="45.8567" lon="3.54745">
        <ele>425.60000610352</ele>
        <time>2024-04-30T17:14:32.000Z</time>
      </trkpt>
      <trkpt lat="45.85674" lon="3.54748">
        <ele>425.79998779297</ele>
        <time>2024-04-30T17:14:33.000Z</time>
      </trkpt>
      <trkpt lat="45.85675" lon="3.54748">
        <ele>426</ele>
        <time>2024-04-30T17:14:34.000Z</time>
      </trkpt>
      <trkpt lat="45.85675" lon="3.54748">
        <ele>426.20001220703</ele>
        <time>2024-04-30T17:14:35.000Z</time>
      </trkpt>
      <trkpt lat="45.85676" lon="3.54749">
        <ele>426.39999389648</ele>
        <time>2024-04-30T17:14:36.000Z</time>
      </trkpt>
      <trkpt lat="45.85676" lon="3.5475">
        <ele>426.60000610352</ele>
        <time>2024-04-30T17:14:37.000Z</time>
      </trkpt>
      <trkpt lat="45.85677" lon="3.54751">
        <ele>426.79998779297</ele>
        <time>2024-04-30T17:14:38.000Z</time>
      </trkpt>
      <trkpt lat="45.85678" lon="3.54752">
        <ele>427</ele>
        <time>2024-04-30T17:14:39.000Z</time>
      </trkpt>
      <trkpt lat="45.85679" lon="3.54754">
        <ele>427.20001220703</ele>
        <time>2024-04-30T17:14:40.000Z</time>
      </trkpt>
      <trkpt lat="45.8568" lon="3.54756">
        <ele>427.39999389648</ele>
        <time>2024-04-30T17:14:41.000Z</time>
      </trkpt>
      <trkpt lat="45.8568" lon="3.54758">
        <ele>427.60000610352</ele>
        <time>2024-04-30T17:14:42.000Z</time>
      </trkpt>
      <trkpt lat="45.8568" lon="3.54759">
        <ele>427.79998779297</ele>
        <time>2024-04-30T17:14:43.000Z</time>
      </trkpt>
      <trkpt lat="45.85681" lon="3.54761">
        <ele>428</ele>
        <time>2024-04-30T17:14:44.000Z</time>
      </trkpt>
      <trkpt lat="45.85682" lon="3.54763">
        <ele>428.20001220703</ele>
        <time>2024-04-30T17:14:45.000Z</time>
      </trkpt>
      <trkpt lat="45.85682" lon="3.54764">
        <ele>428.39999389648</ele>
        <time>2024-04-30T17:14:46.000Z</time>
      </trkpt>
      <trkpt lat="45.85682" lon="3.54765">
        <ele>428.60000610352</ele>
        <time>2024-04-30T17:14:47.000Z</time>
      </trkpt>
      <trkpt lat="45.85682" lon="3.54766">
        <ele>428.79998779297</ele>
        <time>2024-04-30T17:14:48.000Z</time>
      </trkpt>
      <trkpt lat="45.85682" lon="3.54767">
        <ele>429.20001220703</ele>
        <time>2024-04-30T17:14:49.000Z</time>
      </trkpt>
      <trkpt lat="45.85683" lon="3.54768">
        <ele>429.60000610352</ele>
        <time>2024-04-30T17:14:50.000Z</time>
      </trkpt>
      <trkpt lat="45.85684" lon="3.54769">
        <ele>429.79998779297</ele>
        <time>2024-04-30T17:14:51.000Z</time>
      </trkpt>
      <trkpt lat="45.85684" lon="3.54769">
        <ele>430</ele>
        <time>2024-04-30T17:14:52.000Z</time>
      </trkpt>
      <trkpt lat="45.85684" lon="3.54769">
        <ele>430.20001220703</ele>
        <time>2024-04-30T17:14:53.000Z</time>
      </trkpt>
      <trkpt lat="45.85687" lon="3.54771">
        <ele>430.20001220703</ele>
        <time>2024-04-30T17:14:54.000Z</time>
      </trkpt>
      <trkpt lat="45.85687" lon="3.5477">
        <ele>430.39999389648</ele>
        <time>2024-04-30T17:14:55.000Z</time>
      </trkpt>
      <trkpt lat="45.85687" lon="3.54769">
        <ele>430.60000610352</ele>
        <time>2024-04-30T17:14:56.000Z</time>
      </trkpt>
      <trkpt lat="45.85689" lon="3.54768">
        <ele>430.79998779297</ele>
        <time>2024-04-30T17:14:57.000Z</time>
      </trkpt>
      <trkpt lat="45.8569" lon="3.54768">
        <ele>430.79998779297</ele>
        <time>2024-04-30T17:14:58.000Z</time>
      </trkpt>
      <trkpt lat="45.85691" lon="3.54767">
        <ele>431</ele>
        <time>2024-04-30T17:14:59.000Z</time>
      </trkpt>
      <trkpt lat="45.85691" lon="3.54766">
        <ele>431</ele>
        <time>2024-04-30T17:15:00.000Z</time>
      </trkpt>
      <trkpt lat="45.85693" lon="3.54766">
        <ele>431</ele>
        <time>2024-04-30T17:15:01.000Z</time>
      </trkpt>
      <trkpt lat="45.85694" lon="3.54764">
        <ele>431</ele>
        <time>2024-04-30T17:15:02.000Z</time>
      </trkpt>
      <trkpt lat="45.85695" lon="3.54763">
        <ele>431</ele>
        <time>2024-04-30T17:15:03.000Z</time>
      </trkpt>
      <trkpt lat="45.85696" lon="3.54762">
        <ele>431.20001220703</ele>
        <time>2024-04-30T17:15:04.000Z</time>
      </trkpt>
      <trkpt lat="45.85697" lon="3.5476">
        <ele>431.20001220703</ele>
        <time>2024-04-30T17:15:05.000Z</time>
      </trkpt>
      <trkpt lat="45.85698" lon="3.54759">
        <ele>431.20001220703</ele>
        <time>2024-04-30T17:15:06.000Z</time>
      </trkpt>
      <trkpt lat="45.85699" lon="3.54758">
        <ele>431.20001220703</ele>
        <time>2024-04-30T17:15:07.000Z</time>
      </trkpt>
      <trkpt lat="45.85701" lon="3.54756">
        <ele>431.20001220703</ele>
        <time>2024-04-30T17:15:08.000Z</time>
      </trkpt>
      <trkpt lat="45.85703" lon="3.54756">
        <ele>431.20001220703</ele>
        <time>2024-04-30T17:15:09.000Z</time>
      </trkpt>
      <trkpt lat="45.85704" lon="3.54755">
        <ele>431.39999389648</ele>
        <time>2024-04-30T17:15:10.000Z</time>
      </trkpt>
      <trkpt lat="45.85705" lon="3.54755">
        <ele>431.60000610352</ele>
        <time>2024-04-30T17:15:11.000Z</time>
      </trkpt>
      <trkpt lat="45.85707" lon="3.54755">
        <ele>431.60000610352</ele>
        <time>2024-04-30T17:15:12.000Z</time>
      </trkpt>
      <trkpt lat="45.85709" lon="3.54756">
        <ele>431.60000610352</ele>
        <time>2024-04-30T17:15:13.000Z</time>
      </trkpt>
      <trkpt lat="45.85709" lon="3.54756">
        <ele>431.79998779297</ele>
        <time>2024-04-30T17:15:14.000Z</time>
      </trkpt>
      <trkpt lat="45.8571" lon="3.54757">
        <ele>432</ele>
        <time>2024-04-30T17:15:15.000Z</time>
      </trkpt>
      <trkpt lat="45.8571" lon="3.54757">
        <ele>432.39999389648</ele>
        <time>2024-04-30T17:15:16.000Z</time>
      </trkpt>
      <trkpt lat="45.85711" lon="3.54757">
        <ele>432.79998779297</ele>
        <time>2024-04-30T17:15:17.000Z</time>
      </trkpt>
      <trkpt lat="45.85712" lon="3.54758">
        <ele>433.20001220703</ele>
        <time>2024-04-30T17:15:18.000Z</time>
      </trkpt>
      <trkpt lat="45.85713" lon="3.54759">
        <ele>433.39999389648</ele>
        <time>2024-04-30T17:15:19.000Z</time>
      </trkpt>
      <trkpt lat="45.85715" lon="3.5476">
        <ele>433.79998779297</ele>
        <time>2024-04-30T17:15:20.000Z</time>
      </trkpt>
      <trkpt lat="45.85717" lon="3.54762">
        <ele>433.79998779297</ele>
        <time>2024-04-30T17:15:21.000Z</time>
      </trkpt>
      <trkpt lat="45.85719" lon="3.54765">
        <ele>434</ele>
        <time>2024-04-30T17:15:22.000Z</time>
      </trkpt>
      <trkpt lat="45.8572" lon="3.54767">
        <ele>434.20001220703</ele>
        <time>2024-04-30T17:15:23.000Z</time>
      </trkpt>
      <trkpt lat="45.85721" lon="3.5477">
        <ele>434.60000610352</ele>
        <time>2024-04-30T17:15:24.000Z</time>
      </trkpt>
      <trkpt lat="45.85722" lon="3.54772">
        <ele>434.79998779297</ele>
        <time>2024-04-30T17:15:25.000Z</time>
      </trkpt>
      <trkpt lat="45.85723" lon="3.54774">
        <ele>435</ele>
        <time>2024-04-30T17:15:26.000Z</time>
      </trkpt>
      <trkpt lat="45.85724" lon="3.54776">
        <ele>435.20001220703</ele>
        <time>2024-04-30T17:15:27.000Z</time>
      </trkpt>
      <trkpt lat="45.85724" lon="3.54778">
        <ele>435.39999389648</ele>
        <time>2024-04-30T17:15:28.000Z</time>
      </trkpt>
      <trkpt lat="45.85725" lon="3.54779">
        <ele>435.60000610352</ele>
        <time>2024-04-30T17:15:29.000Z</time>
      </trkpt>
      <trkpt lat="45.85726" lon="3.54781">
        <ele>435.60000610352</ele>
        <time>2024-04-30T17:15:30.000Z</time>
      </trkpt>
      <trkpt lat="45.85726" lon="3.54783">
        <ele>435.79998779297</ele>
        <time>2024-04-30T17:15:31.000Z</time>
      </trkpt>
      <trkpt lat="45.85727" lon="3.54785">
        <ele>435.79998779297</ele>
        <time>2024-04-30T17:15:32.000Z</time>
      </trkpt>
      <trkpt lat="45.85727" lon="3.54787">
        <ele>436</ele>
        <time>2024-04-30T17:15:33.000Z</time>
      </trkpt>
      <trkpt lat="45.85728" lon="3.54789">
        <ele>436.20001220703</ele>
        <time>2024-04-30T17:15:34.000Z</time>
      </trkpt>
      <trkpt lat="45.85729" lon="3.54791">
        <ele>436.60000610352</ele>
        <time>2024-04-30T17:15:35.000Z</time>
      </trkpt>
      <trkpt lat="45.85729" lon="3.54792">
        <ele>436.79998779297</ele>
        <time>2024-04-30T17:15:36.000Z</time>
      </trkpt>
      <trkpt lat="45.85729" lon="3.54793">
        <ele>437</ele>
        <time>2024-04-30T17:15:37.000Z</time>
      </trkpt>
      <trkpt lat="45.85729" lon="3.54794">
        <ele>437.20001220703</ele>
        <time>2024-04-30T17:15:38.000Z</time>
      </trkpt>
      <trkpt lat="45.85729" lon="3.54796">
        <ele>437.60000610352</ele>
        <time>2024-04-30T17:15:39.000Z</time>
      </trkpt>
      <trkpt lat="45.8573" lon="3.54798">
        <ele>437.60000610352</ele>
        <time>2024-04-30T17:15:40.000Z</time>
      </trkpt>
      <trkpt lat="45.85731" lon="3.548">
        <ele>437.60000610352</ele>
        <time>2024-04-30T17:15:41.000Z</time>
      </trkpt>
      <trkpt lat="45.85733" lon="3.54802">
        <ele>438</ele>
        <time>2024-04-30T17:15:42.000Z</time>
      </trkpt>
      <trkpt lat="45.85734" lon="3.54804">
        <ele>438.20001220703</ele>
        <time>2024-04-30T17:15:43.000Z</time>
      </trkpt>
      <trkpt lat="45.85734" lon="3.54805">
        <ele>438.20001220703</ele>
        <time>2024-04-30T17:15:44.000Z</time>
      </trkpt>
      <trkpt lat="45.85735" lon="3.54807">
        <ele>438.39999389648</ele>
        <time>2024-04-30T17:15:45.000Z</time>
      </trkpt>
      <trkpt lat="45.85735" lon="3.54807">
        <ele>438.60000610352</ele>
        <time>2024-04-30T17:15:46.000Z</time>
      </trkpt>
      <trkpt lat="45.85736" lon="3.54809">
        <ele>438.79998779297</ele>
        <time>2024-04-30T17:15:47.000Z</time>
      </trkpt>
      <trkpt lat="45.85737" lon="3.5481">
        <ele>438.79998779297</ele>
        <time>2024-04-30T17:15:48.000Z</time>
      </trkpt>
      <trkpt lat="45.85737" lon="3.54811">
        <ele>439</ele>
        <time>2024-04-30T17:15:49.000Z</time>
      </trkpt>
      <trkpt lat="45.85737" lon="3.54812">
        <ele>439.20001220703</ele>
        <time>2024-04-30T17:15:50.000Z</time>
      </trkpt>
      <trkpt lat="45.85737" lon="3.54814">
        <ele>439.20001220703</ele>
        <time>2024-04-30T17:15:51.000Z</time>
      </trkpt>
      <trkpt lat="45.85737" lon="3.54814">
        <ele>439.39999389648</ele>
        <time>2024-04-30T17:15:52.000Z</time>
      </trkpt>
      <trkpt lat="45.85738" lon="3.54816">
        <ele>439.60000610352</ele>
        <time>2024-04-30T17:15:53.000Z</time>
      </trkpt>
      <trkpt lat="45.8574" lon="3.54818">
        <ele>439.60000610352</ele>
        <time>2024-04-30T17:15:54.000Z</time>
      </trkpt>
      <trkpt lat="45.8574" lon="3.54819">
        <ele>439.60000610352</ele>
        <time>2024-04-30T17:15:55.000Z</time>
      </trkpt>
      <trkpt lat="45.85741" lon="3.54822">
        <ele>440</ele>
        <time>2024-04-30T17:15:56.000Z</time>
      </trkpt>
      <trkpt lat="45.85742" lon="3.54825">
        <ele>440.20001220703</ele>
        <time>2024-04-30T17:15:57.000Z</time>
      </trkpt>
      <trkpt lat="45.85743" lon="3.54827">
        <ele>440.39999389648</ele>
        <time>2024-04-30T17:15:58.000Z</time>
      </trkpt>
      <trkpt lat="45.85745" lon="3.54829">
        <ele>440.60000610352</ele>
        <time>2024-04-30T17:15:59.000Z</time>
      </trkpt>
      <trkpt lat="45.85746" lon="3.54831">
        <ele>440.60000610352</ele>
        <time>2024-04-30T17:16:00.000Z</time>
      </trkpt>
      <trkpt lat="45.85747" lon="3.54833">
        <ele>440.60000610352</ele>
        <time>2024-04-30T17:16:01.000Z</time>
      </trkpt>
      <trkpt lat="45.85748" lon="3.54835">
        <ele>440.60000610352</ele>
        <time>2024-04-30T17:16:02.000Z</time>
      </trkpt>
      <trkpt lat="45.85749" lon="3.54837">
        <ele>440.60000610352</ele>
        <time>2024-04-30T17:16:03.000Z</time>
      </trkpt>
      <trkpt lat="45.8575" lon="3.54838">
        <ele>440.79998779297</ele>
        <time>2024-04-30T17:16:04.000Z</time>
      </trkpt>
      <trkpt lat="45.85752" lon="3.5484">
        <ele>441</ele>
        <time>2024-04-30T17:16:05.000Z</time>
      </trkpt>
      <trkpt lat="45.85753" lon="3.54841">
        <ele>441.20001220703</ele>
        <time>2024-04-30T17:16:06.000Z</time>
      </trkpt>
      <trkpt lat="45.85755" lon="3.54843">
        <ele>441.20001220703</ele>
        <time>2024-04-30T17:16:07.000Z</time>
      </trkpt>
      <trkpt lat="45.85756" lon="3.54844">
        <ele>441.39999389648</ele>
        <time>2024-04-30T17:16:08.000Z</time>
      </trkpt>
      <trkpt lat="45.85758" lon="3.54846">
        <ele>441.60000610352</ele>
        <time>2024-04-30T17:16:09.000Z</time>
      </trkpt>
      <trkpt lat="45.85759" lon="3.54847">
        <ele>441.79998779297</ele>
        <time>2024-04-30T17:16:10.000Z</time>
      </trkpt>
      <trkpt lat="45.8576" lon="3.54849">
        <ele>442</ele>
        <time>2024-04-30T17:16:11.000Z</time>
      </trkpt>
      <trkpt lat="45.8576" lon="3.5485">
        <ele>442</ele>
        <time>2024-04-30T17:16:12.000Z</time>
      </trkpt>
      <trkpt lat="45.85761" lon="3.54851">
        <ele>442.20001220703</ele>
        <time>2024-04-30T17:16:13.000Z</time>
      </trkpt>
      <trkpt lat="45.85762" lon="3.54853">
        <ele>442.39999389648</ele>
        <time>2024-04-30T17:16:14.000Z</time>
      </trkpt>
      <trkpt lat="45.85763" lon="3.54854">
        <ele>442.60000610352</ele>
        <time>2024-04-30T17:16:15.000Z</time>
      </trkpt>
      <trkpt lat="45.85764" lon="3.54856">
        <ele>443.20001220703</ele>
        <time>2024-04-30T17:16:16.000Z</time>
      </trkpt>
      <trkpt lat="45.85765" lon="3.54858">
        <ele>444.20001220703</ele>
        <time>2024-04-30T17:16:17.000Z</time>
      </trkpt>
      <trkpt lat="45.85766" lon="3.54859">
        <ele>444.60000610352</ele>
        <time>2024-04-30T17:16:18.000Z</time>
      </trkpt>
      <trkpt lat="45.85767" lon="3.5486">
        <ele>444.79998779297</ele>
        <time>2024-04-30T17:16:19.000Z</time>
      </trkpt>
      <trkpt lat="45.85769" lon="3.54862">
        <ele>445</ele>
        <time>2024-04-30T17:16:20.000Z</time>
      </trkpt>
      <trkpt lat="45.8577" lon="3.54864">
        <ele>444.79998779297</ele>
        <time>2024-04-30T17:16:21.000Z</time>
      </trkpt>
      <trkpt lat="45.85771" lon="3.54865">
        <ele>444.20001220703</ele>
        <time>2024-04-30T17:16:22.000Z</time>
      </trkpt>
      <trkpt lat="45.85772" lon="3.54866">
        <ele>444.20001220703</ele>
        <time>2024-04-30T17:16:23.000Z</time>
      </trkpt>
      <trkpt lat="45.85773" lon="3.54867">
        <ele>444.39999389648</ele>
        <time>2024-04-30T17:16:24.000Z</time>
      </trkpt>
      <trkpt lat="45.85773" lon="3.54868">
        <ele>444.60000610352</ele>
        <time>2024-04-30T17:16:25.000Z</time>
      </trkpt>
      <trkpt lat="45.85774" lon="3.54868">
        <ele>444.79998779297</ele>
        <time>2024-04-30T17:16:26.000Z</time>
      </trkpt>
      <trkpt lat="45.85775" lon="3.5487">
        <ele>445</ele>
        <time>2024-04-30T17:16:27.000Z</time>
      </trkpt>
      <trkpt lat="45.85776" lon="3.54871">
        <ele>445.20001220703</ele>
        <time>2024-04-30T17:16:28.000Z</time>
      </trkpt>
      <trkpt lat="45.85777" lon="3.54871">
        <ele>445.39999389648</ele>
        <time>2024-04-30T17:16:29.000Z</time>
      </trkpt>
      <trkpt lat="45.85778" lon="3.54872">
        <ele>445.60000610352</ele>
        <time>2024-04-30T17:16:30.000Z</time>
      </trkpt>
      <trkpt lat="45.85779" lon="3.54873">
        <ele>445.79998779297</ele>
        <time>2024-04-30T17:16:31.000Z</time>
      </trkpt>
      <trkpt lat="45.8578" lon="3.54873">
        <ele>446</ele>
        <time>2024-04-30T17:16:32.000Z</time>
      </trkpt>
      <trkpt lat="45.85781" lon="3.54874">
        <ele>446.20001220703</ele>
        <time>2024-04-30T17:16:33.000Z</time>
      </trkpt>
      <trkpt lat="45.85782" lon="3.54875">
        <ele>446.39999389648</ele>
        <time>2024-04-30T17:16:34.000Z</time>
      </trkpt>
      <trkpt lat="45.85784" lon="3.54876">
        <ele>446.39999389648</ele>
        <time>2024-04-30T17:16:35.000Z</time>
      </trkpt>
      <trkpt lat="45.85785" lon="3.54877">
        <ele>446.39999389648</ele>
        <time>2024-04-30T17:16:36.000Z</time>
      </trkpt>
      <trkpt lat="45.85787" lon="3.54878">
        <ele>446.39999389648</ele>
        <time>2024-04-30T17:16:37.000Z</time>
      </trkpt>
      <trkpt lat="45.85789" lon="3.54879">
        <ele>446.60000610352</ele>
        <time>2024-04-30T17:16:38.000Z</time>
      </trkpt>
      <trkpt lat="45.8579" lon="3.54879">
        <ele>446.79998779297</ele>
        <time>2024-04-30T17:16:39.000Z</time>
      </trkpt>
      <trkpt lat="45.85791" lon="3.5488">
        <ele>447.20001220703</ele>
        <time>2024-04-30T17:16:40.000Z</time>
      </trkpt>
      <trkpt lat="45.85792" lon="3.54881">
        <ele>447.39999389648</ele>
        <time>2024-04-30T17:16:41.000Z</time>
      </trkpt>
      <trkpt lat="45.85794" lon="3.54882">
        <ele>447.60000610352</ele>
        <time>2024-04-30T17:16:42.000Z</time>
      </trkpt>
      <trkpt lat="45.85795" lon="3.54882">
        <ele>447.60000610352</ele>
        <time>2024-04-30T17:16:43.000Z</time>
      </trkpt>
      <trkpt lat="45.85797" lon="3.54882">
        <ele>447.79998779297</ele>
        <time>2024-04-30T17:16:44.000Z</time>
      </trkpt>
      <trkpt lat="45.85799" lon="3.54882">
        <ele>448</ele>
        <time>2024-04-30T17:16:45.000Z</time>
      </trkpt>
      <trkpt lat="45.858" lon="3.54882">
        <ele>448.20001220703</ele>
        <time>2024-04-30T17:16:46.000Z</time>
      </trkpt>
      <trkpt lat="45.85801" lon="3.54883">
        <ele>448.39999389648</ele>
        <time>2024-04-30T17:16:47.000Z</time>
      </trkpt>
      <trkpt lat="45.85803" lon="3.54883">
        <ele>448.60000610352</ele>
        <time>2024-04-30T17:16:48.000Z</time>
      </trkpt>
      <trkpt lat="45.85804" lon="3.54883">
        <ele>449</ele>
        <time>2024-04-30T17:16:49.000Z</time>
      </trkpt>
      <trkpt lat="45.85806" lon="3.54883">
        <ele>449.20001220703</ele>
        <time>2024-04-30T17:16:50.000Z</time>
      </trkpt>
      <trkpt lat="45.85807" lon="3.54882">
        <ele>449.39999389648</ele>
        <time>2024-04-30T17:16:51.000Z</time>
      </trkpt>
      <trkpt lat="45.85808" lon="3.54882">
        <ele>449.79998779297</ele>
        <time>2024-04-30T17:16:52.000Z</time>
      </trkpt>
      <trkpt lat="45.85809" lon="3.54881">
        <ele>450</ele>
        <time>2024-04-30T17:16:53.000Z</time>
      </trkpt>
      <trkpt lat="45.85811" lon="3.54881">
        <ele>450.39999389648</ele>
        <time>2024-04-30T17:16:54.000Z</time>
      </trkpt>
      <trkpt lat="45.85813" lon="3.54879">
        <ele>450.60000610352</ele>
        <time>2024-04-30T17:16:55.000Z</time>
      </trkpt>
      <trkpt lat="45.85814" lon="3.54879">
        <ele>450.79998779297</ele>
        <time>2024-04-30T17:16:56.000Z</time>
      </trkpt>
      <trkpt lat="45.85815" lon="3.54879">
        <ele>451</ele>
        <time>2024-04-30T17:16:57.000Z</time>
      </trkpt>
      <trkpt lat="45.85817" lon="3.54878">
        <ele>451.39999389648</ele>
        <time>2024-04-30T17:16:58.000Z</time>
      </trkpt>
      <trkpt lat="45.85819" lon="3.54878">
        <ele>451.60000610352</ele>
        <time>2024-04-30T17:16:59.000Z</time>
      </trkpt>
      <trkpt lat="45.8582" lon="3.54877">
        <ele>451.79998779297</ele>
        <time>2024-04-30T17:17:00.000Z</time>
      </trkpt>
      <trkpt lat="45.8582" lon="3.54875">
        <ele>452</ele>
        <time>2024-04-30T17:17:01.000Z</time>
      </trkpt>
      <trkpt lat="45.85821" lon="3.54874">
        <ele>452.20001220703</ele>
        <time>2024-04-30T17:17:02.000Z</time>
      </trkpt>
      <trkpt lat="45.85822" lon="3.54872">
        <ele>452.39999389648</ele>
        <time>2024-04-30T17:17:03.000Z</time>
      </trkpt>
      <trkpt lat="45.85824" lon="3.54872">
        <ele>452.39999389648</ele>
        <time>2024-04-30T17:17:04.000Z</time>
      </trkpt>
      <trkpt lat="45.85827" lon="3.54872">
        <ele>452.79998779297</ele>
        <time>2024-04-30T17:17:05.000Z</time>
      </trkpt>
      <trkpt lat="45.85828" lon="3.54872">
        <ele>453</ele>
        <time>2024-04-30T17:17:06.000Z</time>
      </trkpt>
      <trkpt lat="45.8583" lon="3.54871">
        <ele>453</ele>
        <time>2024-04-30T17:17:07.000Z</time>
      </trkpt>
      <trkpt lat="45.85831" lon="3.5487">
        <ele>453.20001220703</ele>
        <time>2024-04-30T17:17:08.000Z</time>
      </trkpt>
      <trkpt lat="45.85833" lon="3.54869">
        <ele>453.39999389648</ele>
        <time>2024-04-30T17:17:09.000Z</time>
      </trkpt>
      <trkpt lat="45.85834" lon="3.54866">
        <ele>453.79998779297</ele>
        <time>2024-04-30T17:17:10.000Z</time>
      </trkpt>
      <trkpt lat="45.85836" lon="3.54865">
        <ele>454</ele>
        <time>2024-04-30T17:17:11.000Z</time>
      </trkpt>
      <trkpt lat="45.85839" lon="3.54864">
        <ele>454</ele>
        <time>2024-04-30T17:17:12.000Z</time>
      </trkpt>
      <trkpt lat="45.8584" lon="3.54864">
        <ele>454.39999389648</ele>
        <time>2024-04-30T17:17:13.000Z</time>
      </trkpt>
      <trkpt lat="45.85842" lon="3.54863">
        <ele>454.79998779297</ele>
        <time>2024-04-30T17:17:14.000Z</time>
      </trkpt>
      <trkpt lat="45.85843" lon="3.54862">
        <ele>454.79998779297</ele>
        <time>2024-04-30T17:17:15.000Z</time>
      </trkpt>
      <trkpt lat="45.85845" lon="3.54861">
        <ele>455</ele>
        <time>2024-04-30T17:17:16.000Z</time>
      </trkpt>
      <trkpt lat="45.85847" lon="3.54861">
        <ele>455.39999389648</ele>
        <time>2024-04-30T17:17:17.000Z</time>
      </trkpt>
      <trkpt lat="45.85848" lon="3.5486">
        <ele>455.60000610352</ele>
        <time>2024-04-30T17:17:18.000Z</time>
      </trkpt>
      <trkpt lat="45.85849" lon="3.54859">
        <ele>455.60000610352</ele>
        <time>2024-04-30T17:17:19.000Z</time>
      </trkpt>
      <trkpt lat="45.85851" lon="3.54858">
        <ele>456</ele>
        <time>2024-04-30T17:17:20.000Z</time>
      </trkpt>
      <trkpt lat="45.85854" lon="3.54858">
        <ele>456.20001220703</ele>
        <time>2024-04-30T17:17:21.000Z</time>
      </trkpt>
      <trkpt lat="45.85856" lon="3.54857">
        <ele>456.39999389648</ele>
        <time>2024-04-30T17:17:22.000Z</time>
      </trkpt>
      <trkpt lat="45.85858" lon="3.54856">
        <ele>456.39999389648</ele>
        <time>2024-04-30T17:17:23.000Z</time>
      </trkpt>
      <trkpt lat="45.85859" lon="3.54855">
        <ele>456.79998779297</ele>
        <time>2024-04-30T17:17:24.000Z</time>
      </trkpt>
      <trkpt lat="45.85862" lon="3.54855">
        <ele>457</ele>
        <time>2024-04-30T17:17:25.000Z</time>
      </trkpt>
      <trkpt lat="45.85864" lon="3.54853">
        <ele>457.20001220703</ele>
        <time>2024-04-30T17:17:26.000Z</time>
      </trkpt>
      <trkpt lat="45.85866" lon="3.54853">
        <ele>457.39999389648</ele>
        <time>2024-04-30T17:17:27.000Z</time>
      </trkpt>
      <trkpt lat="45.85868" lon="3.54852">
        <ele>457.60000610352</ele>
        <time>2024-04-30T17:17:28.000Z</time>
      </trkpt>
      <trkpt lat="45.8587" lon="3.54852">
        <ele>457.79998779297</ele>
        <time>2024-04-30T17:17:29.000Z</time>
      </trkpt>
      <trkpt lat="45.85872" lon="3.54851">
        <ele>458</ele>
        <time>2024-04-30T17:17:30.000Z</time>
      </trkpt>
      <trkpt lat="45.85874" lon="3.54851">
        <ele>458.20001220703</ele>
        <time>2024-04-30T17:17:31.000Z</time>
      </trkpt>
      <trkpt lat="45.85876" lon="3.54851">
        <ele>458.39999389648</ele>
        <time>2024-04-30T17:17:32.000Z</time>
      </trkpt>
      <trkpt lat="45.85879" lon="3.54849">
        <ele>458.79998779297</ele>
        <time>2024-04-30T17:17:33.000Z</time>
      </trkpt>
      <trkpt lat="45.85881" lon="3.54849">
        <ele>458.79998779297</ele>
        <time>2024-04-30T17:17:34.000Z</time>
      </trkpt>
      <trkpt lat="45.85883" lon="3.54848">
        <ele>459.20001220703</ele>
        <time>2024-04-30T17:17:35.000Z</time>
      </trkpt>
      <trkpt lat="45.85886" lon="3.54847">
        <ele>459.60000610352</ele>
        <time>2024-04-30T17:17:36.000Z</time>
      </trkpt>
      <trkpt lat="45.85888" lon="3.54847">
        <ele>460</ele>
        <time>2024-04-30T17:17:37.000Z</time>
      </trkpt>
      <trkpt lat="45.85891" lon="3.54847">
        <ele>460.20001220703</ele>
        <time>2024-04-30T17:17:38.000Z</time>
      </trkpt>
      <trkpt lat="45.85893" lon="3.54847">
        <ele>460.39999389648</ele>
        <time>2024-04-30T17:17:39.000Z</time>
      </trkpt>
      <trkpt lat="45.85896" lon="3.54847">
        <ele>460.60000610352</ele>
        <time>2024-04-30T17:17:40.000Z</time>
      </trkpt>
      <trkpt lat="45.85898" lon="3.54846">
        <ele>460.60000610352</ele>
        <time>2024-04-30T17:17:41.000Z</time>
      </trkpt>
      <trkpt lat="45.859" lon="3.54846">
        <ele>460.79998779297</ele>
        <time>2024-04-30T17:17:42.000Z</time>
      </trkpt>
      <trkpt lat="45.85902" lon="3.54845">
        <ele>461</ele>
        <time>2024-04-30T17:17:43.000Z</time>
      </trkpt>
      <trkpt lat="45.85904" lon="3.54845">
        <ele>461.39999389648</ele>
        <time>2024-04-30T17:17:44.000Z</time>
      </trkpt>
      <trkpt lat="45.85905" lon="3.54845">
        <ele>461.60000610352</ele>
        <time>2024-04-30T17:17:45.000Z</time>
      </trkpt>
      <trkpt lat="45.85908" lon="3.54844">
        <ele>461.79998779297</ele>
        <time>2024-04-30T17:17:46.000Z</time>
      </trkpt>
      <trkpt lat="45.8591" lon="3.54844">
        <ele>462.20001220703</ele>
        <time>2024-04-30T17:17:47.000Z</time>
      </trkpt>
      <trkpt lat="45.85912" lon="3.54844">
        <ele>462.39999389648</ele>
        <time>2024-04-30T17:17:48.000Z</time>
      </trkpt>
      <trkpt lat="45.85915" lon="3.54843">
        <ele>462.60000610352</ele>
        <time>2024-04-30T17:17:49.000Z</time>
      </trkpt>
      <trkpt lat="45.85917" lon="3.54843">
        <ele>463</ele>
        <time>2024-04-30T17:17:50.000Z</time>
      </trkpt>
      <trkpt lat="45.85919" lon="3.54843">
        <ele>463.20001220703</ele>
        <time>2024-04-30T17:17:51.000Z</time>
      </trkpt>
      <trkpt lat="45.85921" lon="3.54842">
        <ele>463.39999389648</ele>
        <time>2024-04-30T17:17:52.000Z</time>
      </trkpt>
      <trkpt lat="45.85923" lon="3.54842">
        <ele>463.79998779297</ele>
        <time>2024-04-30T17:17:53.000Z</time>
      </trkpt>
      <trkpt lat="45.85925" lon="3.54842">
        <ele>464</ele>
        <time>2024-04-30T17:17:54.000Z</time>
      </trkpt>
      <trkpt lat="45.85927" lon="3.54842">
        <ele>464.20001220703</ele>
        <time>2024-04-30T17:17:55.000Z</time>
      </trkpt>
      <trkpt lat="45.85929" lon="3.54843">
        <ele>464.60000610352</ele>
        <time>2024-04-30T17:17:56.000Z</time>
      </trkpt>
      <trkpt lat="45.85931" lon="3.54843">
        <ele>464.79998779297</ele>
        <time>2024-04-30T17:17:57.000Z</time>
      </trkpt>
      <trkpt lat="45.85933" lon="3.54844">
        <ele>465</ele>
        <time>2024-04-30T17:17:58.000Z</time>
      </trkpt>
      <trkpt lat="45.85935" lon="3.54844">
        <ele>465.39999389648</ele>
        <time>2024-04-30T17:17:59.000Z</time>
      </trkpt>
      <trkpt lat="45.85937" lon="3.54844">
        <ele>465.60000610352</ele>
        <time>2024-04-30T17:18:00.000Z</time>
      </trkpt>
      <trkpt lat="45.8594" lon="3.54845">
        <ele>465.60000610352</ele>
        <time>2024-04-30T17:18:01.000Z</time>
      </trkpt>
      <trkpt lat="45.85942" lon="3.54846">
        <ele>465.79998779297</ele>
        <time>2024-04-30T17:18:02.000Z</time>
      </trkpt>
      <trkpt lat="45.85944" lon="3.54847">
        <ele>466.20001220703</ele>
        <time>2024-04-30T17:18:03.000Z</time>
      </trkpt>
      <trkpt lat="45.85946" lon="3.54848">
        <ele>466.39999389648</ele>
        <time>2024-04-30T17:18:04.000Z</time>
      </trkpt>
      <trkpt lat="45.85948" lon="3.54849">
        <ele>466.60000610352</ele>
        <time>2024-04-30T17:18:05.000Z</time>
      </trkpt>
      <trkpt lat="45.8595" lon="3.54849">
        <ele>467</ele>
        <time>2024-04-30T17:18:06.000Z</time>
      </trkpt>
      <trkpt lat="45.85951" lon="3.5485">
        <ele>467.20001220703</ele>
        <time>2024-04-30T17:18:07.000Z</time>
      </trkpt>
      <trkpt lat="45.85953" lon="3.54851">
        <ele>467.39999389648</ele>
        <time>2024-04-30T17:18:08.000Z</time>
      </trkpt>
      <trkpt lat="45.85956" lon="3.54851">
        <ele>467.79998779297</ele>
        <time>2024-04-30T17:18:09.000Z</time>
      </trkpt>
      <trkpt lat="45.85958" lon="3.54852">
        <ele>468</ele>
        <time>2024-04-30T17:18:10.000Z</time>
      </trkpt>
      <trkpt lat="45.85959" lon="3.54851">
        <ele>468.20001220703</ele>
        <time>2024-04-30T17:18:11.000Z</time>
      </trkpt>
      <trkpt lat="45.85961" lon="3.54848">
        <ele>468.60000610352</ele>
        <time>2024-04-30T17:18:12.000Z</time>
      </trkpt>
      <trkpt lat="45.85963" lon="3.54846">
        <ele>469</ele>
        <time>2024-04-30T17:18:13.000Z</time>
      </trkpt>
      <trkpt lat="45.85964" lon="3.54843">
        <ele>469.20001220703</ele>
        <time>2024-04-30T17:18:14.000Z</time>
      </trkpt>
      <trkpt lat="45.85966" lon="3.5484">
        <ele>469.60000610352</ele>
        <time>2024-04-30T17:18:15.000Z</time>
      </trkpt>
      <trkpt lat="45.8597" lon="3.54838">
        <ele>469.79998779297</ele>
        <time>2024-04-30T17:18:16.000Z</time>
      </trkpt>
      <trkpt lat="45.85972" lon="3.54835">
        <ele>469.79998779297</ele>
        <time>2024-04-30T17:18:17.000Z</time>
      </trkpt>
      <trkpt lat="45.85974" lon="3.54833">
        <ele>469.79998779297</ele>
        <time>2024-04-30T17:18:18.000Z</time>
      </trkpt>
      <trkpt lat="45.85977" lon="3.5483">
        <ele>469.79998779297</ele>
        <time>2024-04-30T17:18:19.000Z</time>
      </trkpt>
      <trkpt lat="45.85979" lon="3.54827">
        <ele>470</ele>
        <time>2024-04-30T17:18:20.000Z</time>
      </trkpt>
      <trkpt lat="45.8598" lon="3.54824">
        <ele>470</ele>
        <time>2024-04-30T17:18:21.000Z</time>
      </trkpt>
      <trkpt lat="45.85983" lon="3.54821">
        <ele>470.20001220703</ele>
        <time>2024-04-30T17:18:22.000Z</time>
      </trkpt>
      <trkpt lat="45.85985" lon="3.54819">
        <ele>470.20001220703</ele>
        <time>2024-04-30T17:18:23.000Z</time>
      </trkpt>
      <trkpt lat="45.85986" lon="3.54816">
        <ele>470.39999389648</ele>
        <time>2024-04-30T17:18:24.000Z</time>
      </trkpt>
      <trkpt lat="45.85988" lon="3.54813">
        <ele>470.20001220703</ele>
        <time>2024-04-30T17:18:25.000Z</time>
      </trkpt>
      <trkpt lat="45.85989" lon="3.54809">
        <ele>470.39999389648</ele>
        <time>2024-04-30T17:18:26.000Z</time>
      </trkpt>
      <trkpt lat="45.85991" lon="3.54806">
        <ele>470.60000610352</ele>
        <time>2024-04-30T17:18:27.000Z</time>
      </trkpt>
      <trkpt lat="45.85992" lon="3.54803">
        <ele>470.60000610352</ele>
        <time>2024-04-30T17:18:28.000Z</time>
      </trkpt>
      <trkpt lat="45.85991" lon="3.54798">
        <ele>470.39999389648</ele>
        <time>2024-04-30T17:18:29.000Z</time>
      </trkpt>
      <trkpt lat="45.85992" lon="3.54795">
        <ele>470.39999389648</ele>
        <time>2024-04-30T17:18:30.000Z</time>
      </trkpt>
      <trkpt lat="45.85992" lon="3.54791">
        <ele>470.60000610352</ele>
        <time>2024-04-30T17:18:31.000Z</time>
      </trkpt>
      <trkpt lat="45.85993" lon="3.54788">
        <ele>470.60000610352</ele>
        <time>2024-04-30T17:18:32.000Z</time>
      </trkpt>
      <trkpt lat="45.85994" lon="3.54784">
        <ele>470.39999389648</ele>
        <time>2024-04-30T17:18:33.000Z</time>
      </trkpt>
      <trkpt lat="45.85995" lon="3.54781">
        <ele>470.39999389648</ele>
        <time>2024-04-30T17:18:34.000Z</time>
      </trkpt>
      <trkpt lat="45.85996" lon="3.54777">
        <ele>470.20001220703</ele>
        <time>2024-04-30T17:18:35.000Z</time>
      </trkpt>
      <trkpt lat="45.85997" lon="3.54774">
        <ele>470</ele>
        <time>2024-04-30T17:18:36.000Z</time>
      </trkpt>
      <trkpt lat="45.85999" lon="3.54771">
        <ele>470</ele>
        <time>2024-04-30T17:18:37.000Z</time>
      </trkpt>
      <trkpt lat="45.86" lon="3.54768">
        <ele>470</ele>
        <time>2024-04-30T17:18:38.000Z</time>
      </trkpt>
      <trkpt lat="45.86002" lon="3.54765">
        <ele>469.60000610352</ele>
        <time>2024-04-30T17:18:39.000Z</time>
      </trkpt>
      <trkpt lat="45.86004" lon="3.54762">
        <ele>469.60000610352</ele>
        <time>2024-04-30T17:18:40.000Z</time>
      </trkpt>
      <trkpt lat="45.86006" lon="3.5476">
        <ele>469.20001220703</ele>
        <time>2024-04-30T17:18:41.000Z</time>
      </trkpt>
      <trkpt lat="45.86007" lon="3.54758">
        <ele>469</ele>
        <time>2024-04-30T17:18:42.000Z</time>
      </trkpt>
      <trkpt lat="45.8601" lon="3.54757">
        <ele>468.79998779297</ele>
        <time>2024-04-30T17:18:43.000Z</time>
      </trkpt>
      <trkpt lat="45.86011" lon="3.54755">
        <ele>468.60000610352</ele>
        <time>2024-04-30T17:18:44.000Z</time>
      </trkpt>
      <trkpt lat="45.86012" lon="3.54753">
        <ele>468.20001220703</ele>
        <time>2024-04-30T17:18:45.000Z</time>
      </trkpt>
      <trkpt lat="45.86013" lon="3.54752">
        <ele>468.39999389648</ele>
        <time>2024-04-30T17:18:46.000Z</time>
      </trkpt>
      <trkpt lat="45.86014" lon="3.5475">
        <ele>468</ele>
        <time>2024-04-30T17:18:47.000Z</time>
      </trkpt>
      <trkpt lat="45.86016" lon="3.54749">
        <ele>467.79998779297</ele>
        <time>2024-04-30T17:18:48.000Z</time>
      </trkpt>
      <trkpt lat="45.86018" lon="3.54748">
        <ele>467.79998779297</ele>
        <time>2024-04-30T17:18:49.000Z</time>
      </trkpt>
      <trkpt lat="45.8602" lon="3.54746">
        <ele>467.39999389648</ele>
        <time>2024-04-30T17:18:50.000Z</time>
      </trkpt>
      <trkpt lat="45.86022" lon="3.54745">
        <ele>467</ele>
        <time>2024-04-30T17:18:51.000Z</time>
      </trkpt>
      <trkpt lat="45.86023" lon="3.54744">
        <ele>467.20001220703</ele>
        <time>2024-04-30T17:18:52.000Z</time>
      </trkpt>
      <trkpt lat="45.86025" lon="3.54742">
        <ele>466.60000610352</ele>
        <time>2024-04-30T17:18:53.000Z</time>
      </trkpt>
      <trkpt lat="45.86027" lon="3.54741">
        <ele>466.39999389648</ele>
        <time>2024-04-30T17:18:54.000Z</time>
      </trkpt>
      <trkpt lat="45.86029" lon="3.5474">
        <ele>466.39999389648</ele>
        <time>2024-04-30T17:18:55.000Z</time>
      </trkpt>
      <trkpt lat="45.86031" lon="3.54739">
        <ele>466</ele>
        <time>2024-04-30T17:18:56.000Z</time>
      </trkpt>
      <trkpt lat="45.86033" lon="3.54737">
        <ele>465.60000610352</ele>
        <time>2024-04-30T17:18:57.000Z</time>
      </trkpt>
      <trkpt lat="45.86036" lon="3.54736">
        <ele>465.60000610352</ele>
        <time>2024-04-30T17:18:58.000Z</time>
      </trkpt>
      <trkpt lat="45.86038" lon="3.54735">
        <ele>465.60000610352</ele>
        <time>2024-04-30T17:18:59.000Z</time>
      </trkpt>
      <trkpt lat="45.86041" lon="3.54734">
        <ele>465.39999389648</ele>
        <time>2024-04-30T17:19:00.000Z</time>
      </trkpt>
      <trkpt lat="45.86044" lon="3.54734">
        <ele>465.20001220703</ele>
        <time>2024-04-30T17:19:01.000Z</time>
      </trkpt>
      <trkpt lat="45.86046" lon="3.54733">
        <ele>465.20001220703</ele>
        <time>2024-04-30T17:19:02.000Z</time>
      </trkpt>
      <trkpt lat="45.86049" lon="3.54732">
        <ele>465</ele>
        <time>2024-04-30T17:19:03.000Z</time>
      </trkpt>
      <trkpt lat="45.86051" lon="3.54731">
        <ele>464.79998779297</ele>
        <time>2024-04-30T17:19:04.000Z</time>
      </trkpt>
      <trkpt lat="45.86054" lon="3.5473">
        <ele>464.20001220703</ele>
        <time>2024-04-30T17:19:05.000Z</time>
      </trkpt>
      <trkpt lat="45.86056" lon="3.54728">
        <ele>464.20001220703</ele>
        <time>2024-04-30T17:19:06.000Z</time>
      </trkpt>
      <trkpt lat="45.86059" lon="3.54726">
        <ele>463.79998779297</ele>
        <time>2024-04-30T17:19:07.000Z</time>
      </trkpt>
      <trkpt lat="45.86061" lon="3.54724">
        <ele>463.60000610352</ele>
        <time>2024-04-30T17:19:08.000Z</time>
      </trkpt>
      <trkpt lat="45.86064" lon="3.54724">
        <ele>463.39999389648</ele>
        <time>2024-04-30T17:19:09.000Z</time>
      </trkpt>
      <trkpt lat="45.86067" lon="3.54723">
        <ele>463.39999389648</ele>
        <time>2024-04-30T17:19:10.000Z</time>
      </trkpt>
      <trkpt lat="45.8607" lon="3.54721">
        <ele>463</ele>
        <time>2024-04-30T17:19:11.000Z</time>
      </trkpt>
      <trkpt lat="45.86073" lon="3.5472">
        <ele>462.79998779297</ele>
        <time>2024-04-30T17:19:12.000Z</time>
      </trkpt>
      <trkpt lat="45.86074" lon="3.54718">
        <ele>462.60000610352</ele>
        <time>2024-04-30T17:19:13.000Z</time>
      </trkpt>
      <trkpt lat="45.86076" lon="3.54717">
        <ele>462.39999389648</ele>
        <time>2024-04-30T17:19:14.000Z</time>
      </trkpt>
      <trkpt lat="45.86078" lon="3.54716">
        <ele>462.20001220703</ele>
        <time>2024-04-30T17:19:15.000Z</time>
      </trkpt>
      <trkpt lat="45.86079" lon="3.54714">
        <ele>462</ele>
        <time>2024-04-30T17:19:16.000Z</time>
      </trkpt>
      <trkpt lat="45.8608" lon="3.54713">
        <ele>461.79998779297</ele>
        <time>2024-04-30T17:19:17.000Z</time>
      </trkpt>
      <trkpt lat="45.86081" lon="3.54711">
        <ele>461.60000610352</ele>
        <time>2024-04-30T17:19:18.000Z</time>
      </trkpt>
      <trkpt lat="45.86083" lon="3.5471">
        <ele>461.60000610352</ele>
        <time>2024-04-30T17:19:19.000Z</time>
      </trkpt>
      <trkpt lat="45.86085" lon="3.54709">
        <ele>461.39999389648</ele>
        <time>2024-04-30T17:19:20.000Z</time>
      </trkpt>
      <trkpt lat="45.86088" lon="3.54708">
        <ele>461</ele>
        <time>2024-04-30T17:19:21.000Z</time>
      </trkpt>
      <trkpt lat="45.8609" lon="3.54706">
        <ele>461</ele>
        <time>2024-04-30T17:19:22.000Z</time>
      </trkpt>
      <trkpt lat="45.86092" lon="3.54704">
        <ele>460.60000610352</ele>
        <time>2024-04-30T17:19:23.000Z</time>
      </trkpt>
      <trkpt lat="45.86095" lon="3.54703">
        <ele>460.60000610352</ele>
        <time>2024-04-30T17:19:24.000Z</time>
      </trkpt>
      <trkpt lat="45.86098" lon="3.54702">
        <ele>460.39999389648</ele>
        <time>2024-04-30T17:19:25.000Z</time>
      </trkpt>
      <trkpt lat="45.861" lon="3.54701">
        <ele>460</ele>
        <time>2024-04-30T17:19:26.000Z</time>
      </trkpt>
      <trkpt lat="45.86103" lon="3.547">
        <ele>459.60000610352</ele>
        <time>2024-04-30T17:19:27.000Z</time>
      </trkpt>
      <trkpt lat="45.86105" lon="3.54699">
        <ele>459.60000610352</ele>
        <time>2024-04-30T17:19:28.000Z</time>
      </trkpt>
      <trkpt lat="45.86108" lon="3.54698">
        <ele>459.60000610352</ele>
        <time>2024-04-30T17:19:29.000Z</time>
      </trkpt>
      <trkpt lat="45.8611" lon="3.54697">
        <ele>459.20001220703</ele>
        <time>2024-04-30T17:19:30.000Z</time>
      </trkpt>
      <trkpt lat="45.86113" lon="3.54696">
        <ele>459.20001220703</ele>
        <time>2024-04-30T17:19:31.000Z</time>
      </trkpt>
      <trkpt lat="45.86116" lon="3.54695">
        <ele>459.20001220703</ele>
        <time>2024-04-30T17:19:32.000Z</time>
      </trkpt>
      <trkpt lat="45.86118" lon="3.54694">
        <ele>458.79998779297</ele>
        <time>2024-04-30T17:19:33.000Z</time>
      </trkpt>
      <trkpt lat="45.86121" lon="3.54694">
        <ele>458.79998779297</ele>
        <time>2024-04-30T17:19:34.000Z</time>
      </trkpt>
      <trkpt lat="45.86124" lon="3.54693">
        <ele>458.79998779297</ele>
        <time>2024-04-30T17:19:35.000Z</time>
      </trkpt>
      <trkpt lat="45.86127" lon="3.54691">
        <ele>458.39999389648</ele>
        <time>2024-04-30T17:19:36.000Z</time>
      </trkpt>
      <trkpt lat="45.86128" lon="3.54689">
        <ele>458.20001220703</ele>
        <time>2024-04-30T17:19:37.000Z</time>
      </trkpt>
      <trkpt lat="45.86131" lon="3.54688">
        <ele>458.20001220703</ele>
        <time>2024-04-30T17:19:38.000Z</time>
      </trkpt>
      <trkpt lat="45.86133" lon="3.54687">
        <ele>458</ele>
        <time>2024-04-30T17:19:39.000Z</time>
      </trkpt>
      <trkpt lat="45.86136" lon="3.54686">
        <ele>457.79998779297</ele>
        <time>2024-04-30T17:19:40.000Z</time>
      </trkpt>
      <trkpt lat="45.8614" lon="3.54685">
        <ele>457.60000610352</ele>
        <time>2024-04-30T17:19:41.000Z</time>
      </trkpt>
      <trkpt lat="45.86143" lon="3.54683">
        <ele>457.39999389648</ele>
        <time>2024-04-30T17:19:42.000Z</time>
      </trkpt>
      <trkpt lat="45.86146" lon="3.54681">
        <ele>457.20001220703</ele>
        <time>2024-04-30T17:19:43.000Z</time>
      </trkpt>
      <trkpt lat="45.8615" lon="3.5468">
        <ele>457</ele>
        <time>2024-04-30T17:19:44.000Z</time>
      </trkpt>
      <trkpt lat="45.86153" lon="3.54678">
        <ele>456.79998779297</ele>
        <time>2024-04-30T17:19:45.000Z</time>
      </trkpt>
      <trkpt lat="45.86157" lon="3.54677">
        <ele>456.39999389648</ele>
        <time>2024-04-30T17:19:46.000Z</time>
      </trkpt>
      <trkpt lat="45.86161" lon="3.54675">
        <ele>456.60000610352</ele>
        <time>2024-04-30T17:19:47.000Z</time>
      </trkpt>
      <trkpt lat="45.86163" lon="3.54672">
        <ele>456.20001220703</ele>
        <time>2024-04-30T17:19:48.000Z</time>
      </trkpt>
      <trkpt lat="45.86165" lon="3.54668">
        <ele>455.79998779297</ele>
        <time>2024-04-30T17:19:49.000Z</time>
      </trkpt>
      <trkpt lat="45.86167" lon="3.54664">
        <ele>455.79998779297</ele>
        <time>2024-04-30T17:19:50.000Z</time>
      </trkpt>
      <trkpt lat="45.86169" lon="3.54661">
        <ele>455.39999389648</ele>
        <time>2024-04-30T17:19:51.000Z</time>
      </trkpt>
      <trkpt lat="45.8617" lon="3.54657">
        <ele>455</ele>
        <time>2024-04-30T17:19:52.000Z</time>
      </trkpt>
      <trkpt lat="45.86171" lon="3.54653">
        <ele>455</ele>
        <time>2024-04-30T17:19:53.000Z</time>
      </trkpt>
      <trkpt lat="45.8617" lon="3.54649">
        <ele>454.79998779297</ele>
        <time>2024-04-30T17:19:54.000Z</time>
      </trkpt>
      <trkpt lat="45.86168" lon="3.54644">
        <ele>454.60000610352</ele>
        <time>2024-04-30T17:19:55.000Z</time>
      </trkpt>
      <trkpt lat="45.86167" lon="3.54641">
        <ele>454.39999389648</ele>
        <time>2024-04-30T17:19:56.000Z</time>
      </trkpt>
      <trkpt lat="45.86166" lon="3.54638">
        <ele>454.20001220703</ele>
        <time>2024-04-30T17:19:57.000Z</time>
      </trkpt>
      <trkpt lat="45.86163" lon="3.54635">
        <ele>454</ele>
        <time>2024-04-30T17:19:58.000Z</time>
      </trkpt>
      <trkpt lat="45.86161" lon="3.54633">
        <ele>454</ele>
        <time>2024-04-30T17:19:59.000Z</time>
      </trkpt>
      <trkpt lat="45.86158" lon="3.54629">
        <ele>453.79998779297</ele>
        <time>2024-04-30T17:20:00.000Z</time>
      </trkpt>
      <trkpt lat="45.86155" lon="3.54626">
        <ele>453.60000610352</ele>
        <time>2024-04-30T17:20:01.000Z</time>
      </trkpt>
      <trkpt lat="45.86152" lon="3.54623">
        <ele>453.39999389648</ele>
        <time>2024-04-30T17:20:02.000Z</time>
      </trkpt>
      <trkpt lat="45.86149" lon="3.54621">
        <ele>453.20001220703</ele>
        <time>2024-04-30T17:20:03.000Z</time>
      </trkpt>
      <trkpt lat="45.86148" lon="3.54619">
        <ele>453</ele>
        <time>2024-04-30T17:20:04.000Z</time>
      </trkpt>
      <trkpt lat="45.86146" lon="3.54618">
        <ele>452.60000610352</ele>
        <time>2024-04-30T17:20:05.000Z</time>
      </trkpt>
      <trkpt lat="45.86143" lon="3.54617">
        <ele>452.60000610352</ele>
        <time>2024-04-30T17:20:06.000Z</time>
      </trkpt>
      <trkpt lat="45.86141" lon="3.54616">
        <ele>452.39999389648</ele>
        <time>2024-04-30T17:20:07.000Z</time>
      </trkpt>
      <trkpt lat="45.86139" lon="3.54614">
        <ele>452.20001220703</ele>
        <time>2024-04-30T17:20:08.000Z</time>
      </trkpt>
      <trkpt lat="45.86136" lon="3.54612">
        <ele>451.79998779297</ele>
        <time>2024-04-30T17:20:09.000Z</time>
      </trkpt>
      <trkpt lat="45.86133" lon="3.54609">
        <ele>451.79998779297</ele>
        <time>2024-04-30T17:20:10.000Z</time>
      </trkpt>
      <trkpt lat="45.86131" lon="3.54606">
        <ele>451.39999389648</ele>
        <time>2024-04-30T17:20:11.000Z</time>
      </trkpt>
      <trkpt lat="45.86128" lon="3.54603">
        <ele>451</ele>
        <time>2024-04-30T17:20:12.000Z</time>
      </trkpt>
      <trkpt lat="45.86125" lon="3.54601">
        <ele>451</ele>
        <time>2024-04-30T17:20:13.000Z</time>
      </trkpt>
      <trkpt lat="45.86123" lon="3.54598">
        <ele>450.60000610352</ele>
        <time>2024-04-30T17:20:14.000Z</time>
      </trkpt>
      <trkpt lat="45.8612" lon="3.54595">
        <ele>450.39999389648</ele>
        <time>2024-04-30T17:20:15.000Z</time>
      </trkpt>
      <trkpt lat="45.86118" lon="3.54592">
        <ele>450.20001220703</ele>
        <time>2024-04-30T17:20:16.000Z</time>
      </trkpt>
      <trkpt lat="45.86117" lon="3.5459">
        <ele>450</ele>
        <time>2024-04-30T17:20:17.000Z</time>
      </trkpt>
      <trkpt lat="45.86115" lon="3.54587">
        <ele>449.79998779297</ele>
        <time>2024-04-30T17:20:18.000Z</time>
      </trkpt>
      <trkpt lat="45.86114" lon="3.54585">
        <ele>449.60000610352</ele>
        <time>2024-04-30T17:20:19.000Z</time>
      </trkpt>
      <trkpt lat="45.86113" lon="3.54582">
        <ele>449.39999389648</ele>
        <time>2024-04-30T17:20:20.000Z</time>
      </trkpt>
      <trkpt lat="45.86112" lon="3.54579">
        <ele>449.20001220703</ele>
        <time>2024-04-30T17:20:21.000Z</time>
      </trkpt>
      <trkpt lat="45.8611" lon="3.54576">
        <ele>448.79998779297</ele>
        <time>2024-04-30T17:20:22.000Z</time>
      </trkpt>
      <trkpt lat="45.86108" lon="3.54572">
        <ele>448.60000610352</ele>
        <time>2024-04-30T17:20:23.000Z</time>
      </trkpt>
      <trkpt lat="45.86107" lon="3.54569">
        <ele>448.39999389648</ele>
        <time>2024-04-30T17:20:24.000Z</time>
      </trkpt>
      <trkpt lat="45.86107" lon="3.54565">
        <ele>448</ele>
        <time>2024-04-30T17:20:25.000Z</time>
      </trkpt>
      <trkpt lat="45.86106" lon="3.54562">
        <ele>447.60000610352</ele>
        <time>2024-04-30T17:20:26.000Z</time>
      </trkpt>
      <trkpt lat="45.86106" lon="3.5456">
        <ele>447.39999389648</ele>
        <time>2024-04-30T17:20:27.000Z</time>
      </trkpt>
      <trkpt lat="45.86105" lon="3.54557">
        <ele>447.20001220703</ele>
        <time>2024-04-30T17:20:28.000Z</time>
      </trkpt>
      <trkpt lat="45.86104" lon="3.54553">
        <ele>446.79998779297</ele>
        <time>2024-04-30T17:20:29.000Z</time>
      </trkpt>
      <trkpt lat="45.86103" lon="3.54549">
        <ele>446.60000610352</ele>
        <time>2024-04-30T17:20:30.000Z</time>
      </trkpt>
      <trkpt lat="45.86101" lon="3.54545">
        <ele>446.60000610352</ele>
        <time>2024-04-30T17:20:31.000Z</time>
      </trkpt>
      <trkpt lat="45.86099" lon="3.54541">
        <ele>446</ele>
        <time>2024-04-30T17:20:32.000Z</time>
      </trkpt>
      <trkpt lat="45.86098" lon="3.54537">
        <ele>446</ele>
        <time>2024-04-30T17:20:33.000Z</time>
      </trkpt>
      <trkpt lat="45.86097" lon="3.54534">
        <ele>446</ele>
        <time>2024-04-30T17:20:34.000Z</time>
      </trkpt>
      <trkpt lat="45.86096" lon="3.54531">
        <ele>445.79998779297</ele>
        <time>2024-04-30T17:20:35.000Z</time>
      </trkpt>
      <trkpt lat="45.86095" lon="3.54526">
        <ele>445.60000610352</ele>
        <time>2024-04-30T17:20:36.000Z</time>
      </trkpt>
      <trkpt lat="45.86094" lon="3.54522">
        <ele>445.20001220703</ele>
        <time>2024-04-30T17:20:37.000Z</time>
      </trkpt>
      <trkpt lat="45.86091" lon="3.54518">
        <ele>445.20001220703</ele>
        <time>2024-04-30T17:20:38.000Z</time>
      </trkpt>
      <trkpt lat="45.86089" lon="3.54515">
        <ele>444.79998779297</ele>
        <time>2024-04-30T17:20:39.000Z</time>
      </trkpt>
      <trkpt lat="45.86085" lon="3.54511">
        <ele>444.60000610352</ele>
        <time>2024-04-30T17:20:40.000Z</time>
      </trkpt>
      <trkpt lat="45.86082" lon="3.54509">
        <ele>444.39999389648</ele>
        <time>2024-04-30T17:20:41.000Z</time>
      </trkpt>
      <trkpt lat="45.8608" lon="3.54507">
        <ele>444.39999389648</ele>
        <time>2024-04-30T17:20:42.000Z</time>
      </trkpt>
      <trkpt lat="45.86077" lon="3.54504">
        <ele>444</ele>
        <time>2024-04-30T17:20:43.000Z</time>
      </trkpt>
      <trkpt lat="45.86074" lon="3.54502">
        <ele>444</ele>
        <time>2024-04-30T17:20:44.000Z</time>
      </trkpt>
      <trkpt lat="45.86071" lon="3.545">
        <ele>443.79998779297</ele>
        <time>2024-04-30T17:20:45.000Z</time>
      </trkpt>
      <trkpt lat="45.86069" lon="3.54498">
        <ele>443.79998779297</ele>
        <time>2024-04-30T17:20:46.000Z</time>
      </trkpt>
      <trkpt lat="45.86067" lon="3.54496">
        <ele>443.39999389648</ele>
        <time>2024-04-30T17:20:47.000Z</time>
      </trkpt>
      <trkpt lat="45.86064" lon="3.54493">
        <ele>443.39999389648</ele>
        <time>2024-04-30T17:20:48.000Z</time>
      </trkpt>
      <trkpt lat="45.86062" lon="3.54491">
        <ele>443.39999389648</ele>
        <time>2024-04-30T17:20:49.000Z</time>
      </trkpt>
      <trkpt lat="45.86059" lon="3.54489">
        <ele>444.79998779297</ele>
        <time>2024-04-30T17:20:50.000Z</time>
      </trkpt>
      <trkpt lat="45.86057" lon="3.54488">
        <ele>445.20001220703</ele>
        <time>2024-04-30T17:20:51.000Z</time>
      </trkpt>
      <trkpt lat="45.86054" lon="3.54486">
        <ele>445.20001220703</ele>
        <time>2024-04-30T17:20:52.000Z</time>
      </trkpt>
      <trkpt lat="45.86052" lon="3.54485">
        <ele>445.39999389648</ele>
        <time>2024-04-30T17:20:53.000Z</time>
      </trkpt>
      <trkpt lat="45.86049" lon="3.54483">
        <ele>445.20001220703</ele>
        <time>2024-04-30T17:20:54.000Z</time>
      </trkpt>
      <trkpt lat="45.86046" lon="3.54481">
        <ele>445.20001220703</ele>
        <time>2024-04-30T17:20:55.000Z</time>
      </trkpt>
      <trkpt lat="45.86044" lon="3.54479">
        <ele>444.60000610352</ele>
        <time>2024-04-30T17:20:56.000Z</time>
      </trkpt>
      <trkpt lat="45.86042" lon="3.54477">
        <ele>444.20001220703</ele>
        <time>2024-04-30T17:20:57.000Z</time>
      </trkpt>
      <trkpt lat="45.8604" lon="3.54474">
        <ele>443.60000610352</ele>
        <time>2024-04-30T17:20:58.000Z</time>
      </trkpt>
      <trkpt lat="45.86039" lon="3.54471">
        <ele>442.79998779297</ele>
        <time>2024-04-30T17:20:59.000Z</time>
      </trkpt>
      <trkpt lat="45.86038" lon="3.54467">
        <ele>442.39999389648</ele>
        <time>2024-04-30T17:21:00.000Z</time>
      </trkpt>
      <trkpt lat="45.86038" lon="3.54463">
        <ele>442</ele>
        <time>2024-04-30T17:21:01.000Z</time>
      </trkpt>
      <trkpt lat="45.86038" lon="3.54459">
        <ele>441.20001220703</ele>
        <time>2024-04-30T17:21:02.000Z</time>
      </trkpt>
      <trkpt lat="45.86037" lon="3.54455">
        <ele>440.60000610352</ele>
        <time>2024-04-30T17:21:03.000Z</time>
      </trkpt>
      <trkpt lat="45.86037" lon="3.54451">
        <ele>440.20001220703</ele>
        <time>2024-04-30T17:21:04.000Z</time>
      </trkpt>
      <trkpt lat="45.86037" lon="3.54446">
        <ele>440</ele>
        <time>2024-04-30T17:21:05.000Z</time>
      </trkpt>
      <trkpt lat="45.86037" lon="3.54443">
        <ele>439.60000610352</ele>
        <time>2024-04-30T17:21:06.000Z</time>
      </trkpt>
      <trkpt lat="45.86037" lon="3.54438">
        <ele>439.39999389648</ele>
        <time>2024-04-30T17:21:07.000Z</time>
      </trkpt>
      <trkpt lat="45.86036" lon="3.54434">
        <ele>439.20001220703</ele>
        <time>2024-04-30T17:21:08.000Z</time>
      </trkpt>
      <trkpt lat="45.86036" lon="3.5443">
        <ele>439</ele>
        <time>2024-04-30T17:21:09.000Z</time>
      </trkpt>
      <trkpt lat="45.86036" lon="3.54425">
        <ele>438.79998779297</ele>
        <time>2024-04-30T17:21:10.000Z</time>
      </trkpt>
      <trkpt lat="45.86036" lon="3.54421">
        <ele>438.79998779297</ele>
        <time>2024-04-30T17:21:11.000Z</time>
      </trkpt>
      <trkpt lat="45.86036" lon="3.54417">
        <ele>438.60000610352</ele>
        <time>2024-04-30T17:21:12.000Z</time>
      </trkpt>
      <trkpt lat="45.86036" lon="3.54413">
        <ele>438.60000610352</ele>
        <time>2024-04-30T17:21:13.000Z</time>
      </trkpt>
      <trkpt lat="45.86035" lon="3.54409">
        <ele>438.60000610352</ele>
        <time>2024-04-30T17:21:14.000Z</time>
      </trkpt>
      <trkpt lat="45.86035" lon="3.54405">
        <ele>438.39999389648</ele>
        <time>2024-04-30T17:21:15.000Z</time>
      </trkpt>
      <trkpt lat="45.86035" lon="3.544">
        <ele>438.20001220703</ele>
        <time>2024-04-30T17:21:16.000Z</time>
      </trkpt>
      <trkpt lat="45.86035" lon="3.54395">
        <ele>438</ele>
        <time>2024-04-30T17:21:17.000Z</time>
      </trkpt>
      <trkpt lat="45.86035" lon="3.5439">
        <ele>437.60000610352</ele>
        <time>2024-04-30T17:21:18.000Z</time>
      </trkpt>
      <trkpt lat="45.86035" lon="3.54386">
        <ele>437.39999389648</ele>
        <time>2024-04-30T17:21:19.000Z</time>
      </trkpt>
      <trkpt lat="45.86035" lon="3.54382">
        <ele>437.39999389648</ele>
        <time>2024-04-30T17:21:20.000Z</time>
      </trkpt>
      <trkpt lat="45.86035" lon="3.54377">
        <ele>437.39999389648</ele>
        <time>2024-04-30T17:21:21.000Z</time>
      </trkpt>
      <trkpt lat="45.86035" lon="3.54373">
        <ele>437.39999389648</ele>
        <time>2024-04-30T17:21:22.000Z</time>
      </trkpt>
      <trkpt lat="45.86036" lon="3.5437">
        <ele>437.20001220703</ele>
        <time>2024-04-30T17:21:23.000Z</time>
      </trkpt>
      <trkpt lat="45.86036" lon="3.54366">
        <ele>437.20001220703</ele>
        <time>2024-04-30T17:21:24.000Z</time>
      </trkpt>
      <trkpt lat="45.86037" lon="3.54361">
        <ele>437.39999389648</ele>
        <time>2024-04-30T17:21:25.000Z</time>
      </trkpt>
      <trkpt lat="45.86038" lon="3.54356">
        <ele>437.39999389648</ele>
        <time>2024-04-30T17:21:26.000Z</time>
      </trkpt>
      <trkpt lat="45.86039" lon="3.54353">
        <ele>437.39999389648</ele>
        <time>2024-04-30T17:21:27.000Z</time>
      </trkpt>
      <trkpt lat="45.8604" lon="3.5435">
        <ele>437.60000610352</ele>
        <time>2024-04-30T17:21:28.000Z</time>
      </trkpt>
      <trkpt lat="45.86042" lon="3.54346">
        <ele>437.60000610352</ele>
        <time>2024-04-30T17:21:29.000Z</time>
      </trkpt>
      <trkpt lat="45.86044" lon="3.54343">
        <ele>437.79998779297</ele>
        <time>2024-04-30T17:21:30.000Z</time>
      </trkpt>
      <trkpt lat="45.86045" lon="3.54339">
        <ele>438</ele>
        <time>2024-04-30T17:21:31.000Z</time>
      </trkpt>
      <trkpt lat="45.86047" lon="3.54336">
        <ele>438</ele>
        <time>2024-04-30T17:21:32.000Z</time>
      </trkpt>
      <trkpt lat="45.86049" lon="3.54333">
        <ele>438</ele>
        <time>2024-04-30T17:21:33.000Z</time>
      </trkpt>
      <trkpt lat="45.8605" lon="3.54329">
        <ele>437.79998779297</ele>
        <time>2024-04-30T17:21:34.000Z</time>
      </trkpt>
      <trkpt lat="45.86052" lon="3.54325">
        <ele>437.79998779297</ele>
        <time>2024-04-30T17:21:35.000Z</time>
      </trkpt>
      <trkpt lat="45.86054" lon="3.54322">
        <ele>437.79998779297</ele>
        <time>2024-04-30T17:21:36.000Z</time>
      </trkpt>
      <trkpt lat="45.86056" lon="3.54319">
        <ele>438</ele>
        <time>2024-04-30T17:21:37.000Z</time>
      </trkpt>
      <trkpt lat="45.86058" lon="3.54316">
        <ele>438</ele>
        <time>2024-04-30T17:21:38.000Z</time>
      </trkpt>
      <trkpt lat="45.8606" lon="3.54313">
        <ele>437.60000610352</ele>
        <time>2024-04-30T17:21:39.000Z</time>
      </trkpt>
      <trkpt lat="45.86062" lon="3.54311">
        <ele>437.39999389648</ele>
        <time>2024-04-30T17:21:40.000Z</time>
      </trkpt>
      <trkpt lat="45.86064" lon="3.54308">
        <ele>437</ele>
        <time>2024-04-30T17:21:41.000Z</time>
      </trkpt>
      <trkpt lat="45.86066" lon="3.54306">
        <ele>437</ele>
        <time>2024-04-30T17:21:42.000Z</time>
      </trkpt>
      <trkpt lat="45.86069" lon="3.54304">
        <ele>437</ele>
        <time>2024-04-30T17:21:43.000Z</time>
      </trkpt>
      <trkpt lat="45.8607" lon="3.54301">
        <ele>436.60000610352</ele>
        <time>2024-04-30T17:21:44.000Z</time>
      </trkpt>
      <trkpt lat="45.86072" lon="3.54298">
        <ele>436.60000610352</ele>
        <time>2024-04-30T17:21:45.000Z</time>
      </trkpt>
      <trkpt lat="45.86074" lon="3.54296">
        <ele>436.60000610352</ele>
        <time>2024-04-30T17:21:46.000Z</time>
      </trkpt>
      <trkpt lat="45.86076" lon="3.54293">
        <ele>436.39999389648</ele>
        <time>2024-04-30T17:21:47.000Z</time>
      </trkpt>
      <trkpt lat="45.86079" lon="3.54292">
        <ele>436</ele>
        <time>2024-04-30T17:21:48.000Z</time>
      </trkpt>
      <trkpt lat="45.86081" lon="3.5429">
        <ele>436</ele>
        <time>2024-04-30T17:21:49.000Z</time>
      </trkpt>
      <trkpt lat="45.86084" lon="3.54287">
        <ele>436.20001220703</ele>
        <time>2024-04-30T17:21:50.000Z</time>
      </trkpt>
      <trkpt lat="45.86086" lon="3.54285">
        <ele>436</ele>
        <time>2024-04-30T17:21:51.000Z</time>
      </trkpt>
      <trkpt lat="45.86088" lon="3.54283">
        <ele>436</ele>
        <time>2024-04-30T17:21:52.000Z</time>
      </trkpt>
      <trkpt lat="45.8609" lon="3.54282">
        <ele>436.20001220703</ele>
        <time>2024-04-30T17:21:53.000Z</time>
      </trkpt>
      <trkpt lat="45.86092" lon="3.5428">
        <ele>436.20001220703</ele>
        <time>2024-04-30T17:21:54.000Z</time>
      </trkpt>
      <trkpt lat="45.86094" lon="3.54277">
        <ele>436</ele>
        <time>2024-04-30T17:21:55.000Z</time>
      </trkpt>
      <trkpt lat="45.86096" lon="3.54275">
        <ele>436</ele>
        <time>2024-04-30T17:21:56.000Z</time>
      </trkpt>
      <trkpt lat="45.86097" lon="3.54273">
        <ele>436.20001220703</ele>
        <time>2024-04-30T17:21:57.000Z</time>
      </trkpt>
      <trkpt lat="45.86099" lon="3.54269">
        <ele>436.20001220703</ele>
        <time>2024-04-30T17:21:58.000Z</time>
      </trkpt>
      <trkpt lat="45.861" lon="3.54266">
        <ele>436</ele>
        <time>2024-04-30T17:21:59.000Z</time>
      </trkpt>
      <trkpt lat="45.86102" lon="3.54262">
        <ele>436.20001220703</ele>
        <time>2024-04-30T17:22:00.000Z</time>
      </trkpt>
      <trkpt lat="45.86104" lon="3.5426">
        <ele>436.20001220703</ele>
        <time>2024-04-30T17:22:01.000Z</time>
      </trkpt>
      <trkpt lat="45.86107" lon="3.54257">
        <ele>436</ele>
        <time>2024-04-30T17:22:02.000Z</time>
      </trkpt>
      <trkpt lat="45.86108" lon="3.54252">
        <ele>435.79998779297</ele>
        <time>2024-04-30T17:22:03.000Z</time>
      </trkpt>
      <trkpt lat="45.86108" lon="3.54248">
        <ele>435.39999389648</ele>
        <time>2024-04-30T17:22:04.000Z</time>
      </trkpt>
      <trkpt lat="45.86108" lon="3.54242">
        <ele>435</ele>
        <time>2024-04-30T17:22:05.000Z</time>
      </trkpt>
      <trkpt lat="45.86106" lon="3.54238">
        <ele>435</ele>
        <time>2024-04-30T17:22:06.000Z</time>
      </trkpt>
      <trkpt lat="45.86105" lon="3.54233">
        <ele>435</ele>
        <time>2024-04-30T17:22:07.000Z</time>
      </trkpt>
      <trkpt lat="45.86102" lon="3.54229">
        <ele>434.60000610352</ele>
        <time>2024-04-30T17:22:08.000Z</time>
      </trkpt>
      <trkpt lat="45.861" lon="3.54226">
        <ele>435</ele>
        <time>2024-04-30T17:22:09.000Z</time>
      </trkpt>
      <trkpt lat="45.86098" lon="3.54223">
        <ele>435</ele>
        <time>2024-04-30T17:22:10.000Z</time>
      </trkpt>
      <trkpt lat="45.86095" lon="3.54221">
        <ele>434.79998779297</ele>
        <time>2024-04-30T17:22:11.000Z</time>
      </trkpt>
      <trkpt lat="45.86091" lon="3.5422">
        <ele>434.60000610352</ele>
        <time>2024-04-30T17:22:12.000Z</time>
      </trkpt>
      <trkpt lat="45.86088" lon="3.54219">
        <ele>434.60000610352</ele>
        <time>2024-04-30T17:22:13.000Z</time>
      </trkpt>
      <trkpt lat="45.86085" lon="3.54219">
        <ele>434.20001220703</ele>
        <time>2024-04-30T17:22:14.000Z</time>
      </trkpt>
      <trkpt lat="45.86082" lon="3.54221">
        <ele>433.79998779297</ele>
        <time>2024-04-30T17:22:15.000Z</time>
      </trkpt>
      <trkpt lat="45.86079" lon="3.54222">
        <ele>433.39999389648</ele>
        <time>2024-04-30T17:22:16.000Z</time>
      </trkpt>
      <trkpt lat="45.86077" lon="3.54225">
        <ele>433</ele>
        <time>2024-04-30T17:22:17.000Z</time>
      </trkpt>
      <trkpt lat="45.86075" lon="3.54228">
        <ele>432.79998779297</ele>
        <time>2024-04-30T17:22:18.000Z</time>
      </trkpt>
      <trkpt lat="45.86072" lon="3.5423">
        <ele>432.60000610352</ele>
        <time>2024-04-30T17:22:19.000Z</time>
      </trkpt>
      <trkpt lat="45.8607" lon="3.54233">
        <ele>432.20001220703</ele>
        <time>2024-04-30T17:22:20.000Z</time>
      </trkpt>
      <trkpt lat="45.86068" lon="3.54235">
        <ele>432.20001220703</ele>
        <time>2024-04-30T17:22:21.000Z</time>
      </trkpt>
      <trkpt lat="45.86066" lon="3.54238">
        <ele>432</ele>
        <time>2024-04-30T17:22:22.000Z</time>
      </trkpt>
      <trkpt lat="45.86064" lon="3.54241">
        <ele>431.79998779297</ele>
        <time>2024-04-30T17:22:23.000Z</time>
      </trkpt>
      <trkpt lat="45.86063" lon="3.54244">
        <ele>431.60000610352</ele>
        <time>2024-04-30T17:22:24.000Z</time>
      </trkpt>
      <trkpt lat="45.86061" lon="3.54247">
        <ele>431.39999389648</ele>
        <time>2024-04-30T17:22:25.000Z</time>
      </trkpt>
      <trkpt lat="45.8606" lon="3.5425">
        <ele>431</ele>
        <time>2024-04-30T17:22:26.000Z</time>
      </trkpt>
      <trkpt lat="45.86059" lon="3.54254">
        <ele>431</ele>
        <time>2024-04-30T17:22:27.000Z</time>
      </trkpt>
      <trkpt lat="45.86058" lon="3.54257">
        <ele>430.79998779297</ele>
        <time>2024-04-30T17:22:28.000Z</time>
      </trkpt>
      <trkpt lat="45.86058" lon="3.54261">
        <ele>430.60000610352</ele>
        <time>2024-04-30T17:22:29.000Z</time>
      </trkpt>
      <trkpt lat="45.86059" lon="3.54267">
        <ele>430.60000610352</ele>
        <time>2024-04-30T17:22:30.000Z</time>
      </trkpt>
      <trkpt lat="45.86059" lon="3.54271">
        <ele>430.60000610352</ele>
        <time>2024-04-30T17:22:31.000Z</time>
      </trkpt>
      <trkpt lat="45.86059" lon="3.54274">
        <ele>430.79998779297</ele>
        <time>2024-04-30T17:22:32.000Z</time>
      </trkpt>
      <trkpt lat="45.86058" lon="3.54277">
        <ele>430.60000610352</ele>
        <time>2024-04-30T17:22:33.000Z</time>
      </trkpt>
      <trkpt lat="45.86057" lon="3.54281">
        <ele>430.39999389648</ele>
        <time>2024-04-30T17:22:34.000Z</time>
      </trkpt>
      <trkpt lat="45.86055" lon="3.54285">
        <ele>430.20001220703</ele>
        <time>2024-04-30T17:22:35.000Z</time>
      </trkpt>
      <trkpt lat="45.86055" lon="3.5429">
        <ele>430</ele>
        <time>2024-04-30T17:22:36.000Z</time>
      </trkpt>
      <trkpt lat="45.86055" lon="3.54294">
        <ele>429.60000610352</ele>
        <time>2024-04-30T17:22:37.000Z</time>
      </trkpt>
      <trkpt lat="45.86054" lon="3.54298">
        <ele>429.20001220703</ele>
        <time>2024-04-30T17:22:38.000Z</time>
      </trkpt>
      <trkpt lat="45.86054" lon="3.54302">
        <ele>429.20001220703</ele>
        <time>2024-04-30T17:22:39.000Z</time>
      </trkpt>
      <trkpt lat="45.86053" lon="3.54306">
        <ele>428.79998779297</ele>
        <time>2024-04-30T17:22:40.000Z</time>
      </trkpt>
      <trkpt lat="45.86052" lon="3.5431">
        <ele>429</ele>
        <time>2024-04-30T17:22:41.000Z</time>
      </trkpt>
      <trkpt lat="45.86051" lon="3.54314">
        <ele>428.60000610352</ele>
        <time>2024-04-30T17:22:42.000Z</time>
      </trkpt>
      <trkpt lat="45.8605" lon="3.54318">
        <ele>428.39999389648</ele>
        <time>2024-04-30T17:22:43.000Z</time>
      </trkpt>
      <trkpt lat="45.86048" lon="3.54321">
        <ele>428.39999389648</ele>
        <time>2024-04-30T17:22:44.000Z</time>
      </trkpt>
      <trkpt lat="45.86046" lon="3.54325">
        <ele>428</ele>
        <time>2024-04-30T17:22:45.000Z</time>
      </trkpt>
      <trkpt lat="45.86045" lon="3.54328">
        <ele>427.79998779297</ele>
        <time>2024-04-30T17:22:46.000Z</time>
      </trkpt>
      <trkpt lat="45.86043" lon="3.54331">
        <ele>427.79998779297</ele>
        <time>2024-04-30T17:22:47.000Z</time>
      </trkpt>
      <trkpt lat="45.86043" lon="3.54336">
        <ele>427.60000610352</ele>
        <time>2024-04-30T17:22:48.000Z</time>
      </trkpt>
      <trkpt lat="45.86041" lon="3.5434">
        <ele>427.60000610352</ele>
        <time>2024-04-30T17:22:49.000Z</time>
      </trkpt>
      <trkpt lat="45.86041" lon="3.54345">
        <ele>427.60000610352</ele>
        <time>2024-04-30T17:22:50.000Z</time>
      </trkpt>
      <trkpt lat="45.86043" lon="3.5435">
        <ele>427.39999389648</ele>
        <time>2024-04-30T17:22:51.000Z</time>
      </trkpt>
      <trkpt lat="45.86044" lon="3.54355">
        <ele>427.20001220703</ele>
        <time>2024-04-30T17:22:52.000Z</time>
      </trkpt>
      <trkpt lat="45.86044" lon="3.5436">
        <ele>427.20001220703</ele>
        <time>2024-04-30T17:22:53.000Z</time>
      </trkpt>
      <trkpt lat="45.86044" lon="3.54364">
        <ele>427</ele>
        <time>2024-04-30T17:22:54.000Z</time>
      </trkpt>
      <trkpt lat="45.86041" lon="3.54367">
        <ele>426.79998779297</ele>
        <time>2024-04-30T17:22:55.000Z</time>
      </trkpt>
      <trkpt lat="45.86036" lon="3.54368">
        <ele>426.79998779297</ele>
        <time>2024-04-30T17:22:56.000Z</time>
      </trkpt>
      <trkpt lat="45.86034" lon="3.54371">
        <ele>426.79998779297</ele>
        <time>2024-04-30T17:22:57.000Z</time>
      </trkpt>
      <trkpt lat="45.86033" lon="3.54375">
        <ele>426.60000610352</ele>
        <time>2024-04-30T17:22:58.000Z</time>
      </trkpt>
      <trkpt lat="45.86032" lon="3.54379">
        <ele>426.20001220703</ele>
        <time>2024-04-30T17:22:59.000Z</time>
      </trkpt>
      <trkpt lat="45.8603" lon="3.54384">
        <ele>426.39999389648</ele>
        <time>2024-04-30T17:23:00.000Z</time>
      </trkpt>
      <trkpt lat="45.86029" lon="3.54387">
        <ele>426</ele>
        <time>2024-04-30T17:23:01.000Z</time>
      </trkpt>
      <trkpt lat="45.86028" lon="3.54392">
        <ele>425.79998779297</ele>
        <time>2024-04-30T17:23:02.000Z</time>
      </trkpt>
      <trkpt lat="45.86026" lon="3.54395">
        <ele>425.79998779297</ele>
        <time>2024-04-30T17:23:03.000Z</time>
      </trkpt>
      <trkpt lat="45.86025" lon="3.54399">
        <ele>425.60000610352</ele>
        <time>2024-04-30T17:23:04.000Z</time>
      </trkpt>
      <trkpt lat="45.86025" lon="3.54402">
        <ele>425.20001220703</ele>
        <time>2024-04-30T17:23:05.000Z</time>
      </trkpt>
      <trkpt lat="45.86024" lon="3.54405">
        <ele>425</ele>
        <time>2024-04-30T17:23:06.000Z</time>
      </trkpt>
      <trkpt lat="45.86023" lon="3.5441">
        <ele>424.79998779297</ele>
        <time>2024-04-30T17:23:07.000Z</time>
      </trkpt>
      <trkpt lat="45.86022" lon="3.54414">
        <ele>424.60000610352</ele>
        <time>2024-04-30T17:23:08.000Z</time>
      </trkpt>
      <trkpt lat="45.86021" lon="3.54417">
        <ele>424.60000610352</ele>
        <time>2024-04-30T17:23:09.000Z</time>
      </trkpt>
      <trkpt lat="45.8602" lon="3.54421">
        <ele>424.60000610352</ele>
        <time>2024-04-30T17:23:10.000Z</time>
      </trkpt>
      <trkpt lat="45.8602" lon="3.54425">
        <ele>424.39999389648</ele>
        <time>2024-04-30T17:23:11.000Z</time>
      </trkpt>
      <trkpt lat="45.86019" lon="3.54429">
        <ele>424.20001220703</ele>
        <time>2024-04-30T17:23:12.000Z</time>
      </trkpt>
      <trkpt lat="45.86018" lon="3.54433">
        <ele>424.20001220703</ele>
        <time>2024-04-30T17:23:13.000Z</time>
      </trkpt>
      <trkpt lat="45.86018" lon="3.54437">
        <ele>424.20001220703</ele>
        <time>2024-04-30T17:23:14.000Z</time>
      </trkpt>
      <trkpt lat="45.86018" lon="3.54442">
        <ele>424</ele>
        <time>2024-04-30T17:23:15.000Z</time>
      </trkpt>
      <trkpt lat="45.86019" lon="3.54446">
        <ele>423.79998779297</ele>
        <time>2024-04-30T17:23:16.000Z</time>
      </trkpt>
      <trkpt lat="45.86019" lon="3.5445">
        <ele>423.60000610352</ele>
        <time>2024-04-30T17:23:17.000Z</time>
      </trkpt>
      <trkpt lat="45.86019" lon="3.54453">
        <ele>423.39999389648</ele>
        <time>2024-04-30T17:23:18.000Z</time>
      </trkpt>
      <trkpt lat="45.86018" lon="3.54458">
        <ele>423.39999389648</ele>
        <time>2024-04-30T17:23:19.000Z</time>
      </trkpt>
      <trkpt lat="45.86017" lon="3.54461">
        <ele>423</ele>
        <time>2024-04-30T17:23:20.000Z</time>
      </trkpt>
      <trkpt lat="45.86016" lon="3.54465">
        <ele>422.79998779297</ele>
        <time>2024-04-30T17:23:21.000Z</time>
      </trkpt>
      <trkpt lat="45.86017" lon="3.54469">
        <ele>422.79998779297</ele>
        <time>2024-04-30T17:23:22.000Z</time>
      </trkpt>
      <trkpt lat="45.86016" lon="3.54472">
        <ele>422.60000610352</ele>
        <time>2024-04-30T17:23:23.000Z</time>
      </trkpt>
      <trkpt lat="45.86015" lon="3.54475">
        <ele>422.39999389648</ele>
        <time>2024-04-30T17:23:24.000Z</time>
      </trkpt>
      <trkpt lat="45.86014" lon="3.54479">
        <ele>422.39999389648</ele>
        <time>2024-04-30T17:23:25.000Z</time>
      </trkpt>
      <trkpt lat="45.86014" lon="3.54481">
        <ele>422</ele>
        <time>2024-04-30T17:23:26.000Z</time>
      </trkpt>
      <trkpt lat="45.86014" lon="3.54484">
        <ele>421.79998779297</ele>
        <time>2024-04-30T17:23:27.000Z</time>
      </trkpt>
      <trkpt lat="45.86014" lon="3.54486">
        <ele>421.79998779297</ele>
        <time>2024-04-30T17:23:28.000Z</time>
      </trkpt>
      <trkpt lat="45.86014" lon="3.54489">
        <ele>421.60000610352</ele>
        <time>2024-04-30T17:23:29.000Z</time>
      </trkpt>
      <trkpt lat="45.86013" lon="3.54494">
        <ele>421.39999389648</ele>
        <time>2024-04-30T17:23:30.000Z</time>
      </trkpt>
      <trkpt lat="45.86012" lon="3.54497">
        <ele>421</ele>
        <time>2024-04-30T17:23:31.000Z</time>
      </trkpt>
      <trkpt lat="45.86012" lon="3.54501">
        <ele>421</ele>
        <time>2024-04-30T17:23:32.000Z</time>
      </trkpt>
      <trkpt lat="45.86012" lon="3.54506">
        <ele>420.79998779297</ele>
        <time>2024-04-30T17:23:33.000Z</time>
      </trkpt>
      <trkpt lat="45.86012" lon="3.5451">
        <ele>420.60000610352</ele>
        <time>2024-04-30T17:23:34.000Z</time>
      </trkpt>
      <trkpt lat="45.86013" lon="3.54515">
        <ele>420.60000610352</ele>
        <time>2024-04-30T17:23:35.000Z</time>
      </trkpt>
      <trkpt lat="45.86014" lon="3.54519">
        <ele>420.39999389648</ele>
        <time>2024-04-30T17:23:36.000Z</time>
      </trkpt>
      <trkpt lat="45.86014" lon="3.54523">
        <ele>420.20001220703</ele>
        <time>2024-04-30T17:23:37.000Z</time>
      </trkpt>
      <trkpt lat="45.86014" lon="3.54527">
        <ele>420.20001220703</ele>
        <time>2024-04-30T17:23:38.000Z</time>
      </trkpt>
      <trkpt lat="45.86013" lon="3.54531">
        <ele>420</ele>
        <time>2024-04-30T17:23:39.000Z</time>
      </trkpt>
      <trkpt lat="45.86013" lon="3.54534">
        <ele>419.79998779297</ele>
        <time>2024-04-30T17:23:40.000Z</time>
      </trkpt>
      <trkpt lat="45.86013" lon="3.54537">
        <ele>419.79998779297</ele>
        <time>2024-04-30T17:23:41.000Z</time>
      </trkpt>
      <trkpt lat="45.86013" lon="3.54541">
        <ele>419.60000610352</ele>
        <time>2024-04-30T17:23:42.000Z</time>
      </trkpt>
      <trkpt lat="45.86013" lon="3.54546">
        <ele>419.20001220703</ele>
        <time>2024-04-30T17:23:43.000Z</time>
      </trkpt>
      <trkpt lat="45.86013" lon="3.5455">
        <ele>419</ele>
        <time>2024-04-30T17:23:44.000Z</time>
      </trkpt>
      <trkpt lat="45.86012" lon="3.54554">
        <ele>419</ele>
        <time>2024-04-30T17:23:45.000Z</time>
      </trkpt>
      <trkpt lat="45.86011" lon="3.54558">
        <ele>419</ele>
        <time>2024-04-30T17:23:46.000Z</time>
      </trkpt>
      <trkpt lat="45.8601" lon="3.54559">
        <ele>419</ele>
        <time>2024-04-30T17:23:47.000Z</time>
      </trkpt>
      <trkpt lat="45.8601" lon="3.54562">
        <ele>419</ele>
        <time>2024-04-30T17:23:48.000Z</time>
      </trkpt>
      <trkpt lat="45.8601" lon="3.54564">
        <ele>419</ele>
        <time>2024-04-30T17:23:49.000Z</time>
      </trkpt>
      <trkpt lat="45.8601" lon="3.54563">
        <ele>418.60000610352</ele>
        <time>2024-04-30T17:23:50.000Z</time>
      </trkpt>
      <trkpt lat="45.86009" lon="3.54559">
        <ele>418.60000610352</ele>
        <time>2024-04-30T17:23:51.000Z</time>
      </trkpt>
      <trkpt lat="45.86008" lon="3.54555">
        <ele>418.39999389648</ele>
        <time>2024-04-30T17:23:52.000Z</time>
      </trkpt>
      <trkpt lat="45.86007" lon="3.54551">
        <ele>418.20001220703</ele>
        <time>2024-04-30T17:23:53.000Z</time>
      </trkpt>
      <trkpt lat="45.86005" lon="3.54547">
        <ele>417.79998779297</ele>
        <time>2024-04-30T17:23:54.000Z</time>
      </trkpt>
      <trkpt lat="45.86004" lon="3.54541">
        <ele>417.60000610352</ele>
        <time>2024-04-30T17:23:55.000Z</time>
      </trkpt>
      <trkpt lat="45.86002" lon="3.54535">
        <ele>417.39999389648</ele>
        <time>2024-04-30T17:23:56.000Z</time>
      </trkpt>
      <trkpt lat="45.86001" lon="3.5453">
        <ele>417.20001220703</ele>
        <time>2024-04-30T17:23:57.000Z</time>
      </trkpt>
      <trkpt lat="45.85999" lon="3.54525">
        <ele>417</ele>
        <time>2024-04-30T17:23:58.000Z</time>
      </trkpt>
      <trkpt lat="45.85998" lon="3.54521">
        <ele>417</ele>
        <time>2024-04-30T17:23:59.000Z</time>
      </trkpt>
      <trkpt lat="45.85997" lon="3.54517">
        <ele>416.79998779297</ele>
        <time>2024-04-30T17:24:00.000Z</time>
      </trkpt>
      <trkpt lat="45.85995" lon="3.54513">
        <ele>416.60000610352</ele>
        <time>2024-04-30T17:24:01.000Z</time>
      </trkpt>
      <trkpt lat="45.85993" lon="3.54507">
        <ele>416.60000610352</ele>
        <time>2024-04-30T17:24:02.000Z</time>
      </trkpt>
      <trkpt lat="45.85991" lon="3.54502">
        <ele>416.60000610352</ele>
        <time>2024-04-30T17:24:03.000Z</time>
      </trkpt>
      <trkpt lat="45.8599" lon="3.54498">
        <ele>416.20001220703</ele>
        <time>2024-04-30T17:24:04.000Z</time>
      </trkpt>
      <trkpt lat="45.85988" lon="3.54493">
        <ele>416</ele>
        <time>2024-04-30T17:24:05.000Z</time>
      </trkpt>
      <trkpt lat="45.85987" lon="3.5449">
        <ele>416</ele>
        <time>2024-04-30T17:24:06.000Z</time>
      </trkpt>
      <trkpt lat="45.85987" lon="3.54487">
        <ele>415.79998779297</ele>
        <time>2024-04-30T17:24:07.000Z</time>
      </trkpt>
      <trkpt lat="45.85986" lon="3.54484">
        <ele>415.60000610352</ele>
        <time>2024-04-30T17:24:08.000Z</time>
      </trkpt>
      <trkpt lat="45.85985" lon="3.5448">
        <ele>415.60000610352</ele>
        <time>2024-04-30T17:24:09.000Z</time>
      </trkpt>
      <trkpt lat="45.85983" lon="3.54476">
        <ele>415.60000610352</ele>
        <time>2024-04-30T17:24:10.000Z</time>
      </trkpt>
      <trkpt lat="45.85982" lon="3.54471">
        <ele>415.60000610352</ele>
        <time>2024-04-30T17:24:11.000Z</time>
      </trkpt>
      <trkpt lat="45.8598" lon="3.54466">
        <ele>415.39999389648</ele>
        <time>2024-04-30T17:24:12.000Z</time>
      </trkpt>
      <trkpt lat="45.85979" lon="3.54462">
        <ele>415.39999389648</ele>
        <time>2024-04-30T17:24:13.000Z</time>
      </trkpt>
      <trkpt lat="45.85977" lon="3.54458">
        <ele>415.39999389648</ele>
        <time>2024-04-30T17:24:14.000Z</time>
      </trkpt>
      <trkpt lat="45.85975" lon="3.54454">
        <ele>415.20001220703</ele>
        <time>2024-04-30T17:24:15.000Z</time>
      </trkpt>
      <trkpt lat="45.85973" lon="3.5445">
        <ele>415</ele>
        <time>2024-04-30T17:24:16.000Z</time>
      </trkpt>
      <trkpt lat="45.85972" lon="3.54445">
        <ele>415</ele>
        <time>2024-04-30T17:24:17.000Z</time>
      </trkpt>
      <trkpt lat="45.85971" lon="3.54441">
        <ele>414.60000610352</ele>
        <time>2024-04-30T17:24:18.000Z</time>
      </trkpt>
      <trkpt lat="45.8597" lon="3.54437">
        <ele>414.39999389648</ele>
        <time>2024-04-30T17:24:19.000Z</time>
      </trkpt>
      <trkpt lat="45.85969" lon="3.54433">
        <ele>414.39999389648</ele>
        <time>2024-04-30T17:24:20.000Z</time>
      </trkpt>
      <trkpt lat="45.85969" lon="3.5443">
        <ele>414.39999389648</ele>
        <time>2024-04-30T17:24:21.000Z</time>
      </trkpt>
      <trkpt lat="45.85968" lon="3.54426">
        <ele>414</ele>
        <time>2024-04-30T17:24:22.000Z</time>
      </trkpt>
      <trkpt lat="45.85967" lon="3.54421">
        <ele>414</ele>
        <time>2024-04-30T17:24:23.000Z</time>
      </trkpt>
      <trkpt lat="45.85966" lon="3.54418">
        <ele>414</ele>
        <time>2024-04-30T17:24:24.000Z</time>
      </trkpt>
      <trkpt lat="45.85964" lon="3.54413">
        <ele>413.79998779297</ele>
        <time>2024-04-30T17:24:25.000Z</time>
      </trkpt>
      <trkpt lat="45.85963" lon="3.5441">
        <ele>413.79998779297</ele>
        <time>2024-04-30T17:24:26.000Z</time>
      </trkpt>
      <trkpt lat="45.85961" lon="3.54406">
        <ele>413.79998779297</ele>
        <time>2024-04-30T17:24:27.000Z</time>
      </trkpt>
      <trkpt lat="45.85961" lon="3.54402">
        <ele>413.60000610352</ele>
        <time>2024-04-30T17:24:28.000Z</time>
      </trkpt>
      <trkpt lat="45.85959" lon="3.54398">
        <ele>413.39999389648</ele>
        <time>2024-04-30T17:24:29.000Z</time>
      </trkpt>
      <trkpt lat="45.85958" lon="3.54394">
        <ele>413.39999389648</ele>
        <time>2024-04-30T17:24:30.000Z</time>
      </trkpt>
      <trkpt lat="45.85957" lon="3.5439">
        <ele>413.39999389648</ele>
        <time>2024-04-30T17:24:31.000Z</time>
      </trkpt>
      <trkpt lat="45.85956" lon="3.54386">
        <ele>413.39999389648</ele>
        <time>2024-04-30T17:24:32.000Z</time>
      </trkpt>
      <trkpt lat="45.85955" lon="3.54383">
        <ele>413.39999389648</ele>
        <time>2024-04-30T17:24:33.000Z</time>
      </trkpt>
      <trkpt lat="45.85954" lon="3.54379">
        <ele>413.20001220703</ele>
        <time>2024-04-30T17:24:34.000Z</time>
      </trkpt>
      <trkpt lat="45.85953" lon="3.54375">
        <ele>413</ele>
        <time>2024-04-30T17:24:35.000Z</time>
      </trkpt>
      <trkpt lat="45.85952" lon="3.54371">
        <ele>412.79998779297</ele>
        <time>2024-04-30T17:24:36.000Z</time>
      </trkpt>
      <trkpt lat="45.85951" lon="3.54367">
        <ele>412.60000610352</ele>
        <time>2024-04-30T17:24:37.000Z</time>
      </trkpt>
      <trkpt lat="45.8595" lon="3.54364">
        <ele>412.39999389648</ele>
        <time>2024-04-30T17:24:38.000Z</time>
      </trkpt>
      <trkpt lat="45.85949" lon="3.5436">
        <ele>412.20001220703</ele>
        <time>2024-04-30T17:24:39.000Z</time>
      </trkpt>
      <trkpt lat="45.85948" lon="3.54357">
        <ele>412.39999389648</ele>
        <time>2024-04-30T17:24:40.000Z</time>
      </trkpt>
      <trkpt lat="45.85948" lon="3.54354">
        <ele>412.20001220703</ele>
        <time>2024-04-30T17:24:41.000Z</time>
      </trkpt>
      <trkpt lat="45.85947" lon="3.54351">
        <ele>412</ele>
        <time>2024-04-30T17:24:42.000Z</time>
      </trkpt>
      <trkpt lat="45.85947" lon="3.54349">
        <ele>412</ele>
        <time>2024-04-30T17:24:43.000Z</time>
      </trkpt>
      <trkpt lat="45.85947" lon="3.54346">
        <ele>412.20001220703</ele>
        <time>2024-04-30T17:24:44.000Z</time>
      </trkpt>
      <trkpt lat="45.85946" lon="3.54344">
        <ele>412</ele>
        <time>2024-04-30T17:24:45.000Z</time>
      </trkpt>
      <trkpt lat="45.85944" lon="3.54342">
        <ele>412</ele>
        <time>2024-04-30T17:24:46.000Z</time>
      </trkpt>
      <trkpt lat="45.85942" lon="3.54342">
        <ele>412</ele>
        <time>2024-04-30T17:24:47.000Z</time>
      </trkpt>
      <trkpt lat="45.85941" lon="3.54344">
        <ele>411.79998779297</ele>
        <time>2024-04-30T17:24:48.000Z</time>
      </trkpt>
      <trkpt lat="45.8594" lon="3.54348">
        <ele>412</ele>
        <time>2024-04-30T17:24:49.000Z</time>
      </trkpt>
      <trkpt lat="45.85939" lon="3.54352">
        <ele>411.79998779297</ele>
        <time>2024-04-30T17:24:50.000Z</time>
      </trkpt>
      <trkpt lat="45.85938" lon="3.54357">
        <ele>411.39999389648</ele>
        <time>2024-04-30T17:24:51.000Z</time>
      </trkpt>
      <trkpt lat="45.85937" lon="3.54361">
        <ele>411</ele>
        <time>2024-04-30T17:24:52.000Z</time>
      </trkpt>
      <trkpt lat="45.85936" lon="3.54364">
        <ele>410.39999389648</ele>
        <time>2024-04-30T17:24:53.000Z</time>
      </trkpt>
      <trkpt lat="45.85935" lon="3.5437">
        <ele>409.79998779297</ele>
        <time>2024-04-30T17:24:54.000Z</time>
      </trkpt>
      <trkpt lat="45.85935" lon="3.54375">
        <ele>409.20001220703</ele>
        <time>2024-04-30T17:24:55.000Z</time>
      </trkpt>
      <trkpt lat="45.85934" lon="3.54379">
        <ele>408.79998779297</ele>
        <time>2024-04-30T17:24:56.000Z</time>
      </trkpt>
      <trkpt lat="45.85933" lon="3.54383">
        <ele>408.20001220703</ele>
        <time>2024-04-30T17:24:57.000Z</time>
      </trkpt>
      <trkpt lat="45.85932" lon="3.54388">
        <ele>407.79998779297</ele>
        <time>2024-04-30T17:24:58.000Z</time>
      </trkpt>
      <trkpt lat="45.85932" lon="3.54391">
        <ele>407.39999389648</ele>
        <time>2024-04-30T17:24:59.000Z</time>
      </trkpt>
      <trkpt lat="45.85931" lon="3.54397">
        <ele>406.79998779297</ele>
        <time>2024-04-30T17:25:00.000Z</time>
      </trkpt>
      <trkpt lat="45.8593" lon="3.54401">
        <ele>406.39999389648</ele>
        <time>2024-04-30T17:25:01.000Z</time>
      </trkpt>
      <trkpt lat="45.85929" lon="3.54406">
        <ele>406</ele>
        <time>2024-04-30T17:25:02.000Z</time>
      </trkpt>
      <trkpt lat="45.85929" lon="3.5441">
        <ele>405.60000610352</ele>
        <time>2024-04-30T17:25:03.000Z</time>
      </trkpt>
      <trkpt lat="45.85928" lon="3.54413">
        <ele>405.39999389648</ele>
        <time>2024-04-30T17:25:04.000Z</time>
      </trkpt>
      <trkpt lat="45.85927" lon="3.54418">
        <ele>405</ele>
        <time>2024-04-30T17:25:05.000Z</time>
      </trkpt>
      <trkpt lat="45.85927" lon="3.54423">
        <ele>404.60000610352</ele>
        <time>2024-04-30T17:25:06.000Z</time>
      </trkpt>
      <trkpt lat="45.85927" lon="3.54427">
        <ele>404.39999389648</ele>
        <time>2024-04-30T17:25:07.000Z</time>
      </trkpt>
      <trkpt lat="45.85927" lon="3.54431">
        <ele>404.20001220703</ele>
        <time>2024-04-30T17:25:08.000Z</time>
      </trkpt>
      <trkpt lat="45.85927" lon="3.54435">
        <ele>403.79998779297</ele>
        <time>2024-04-30T17:25:09.000Z</time>
      </trkpt>
      <trkpt lat="45.85928" lon="3.5444">
        <ele>403.60000610352</ele>
        <time>2024-04-30T17:25:10.000Z</time>
      </trkpt>
      <trkpt lat="45.85928" lon="3.54444">
        <ele>403.60000610352</ele>
        <time>2024-04-30T17:25:11.000Z</time>
      </trkpt>
      <trkpt lat="45.85929" lon="3.54449">
        <ele>403.20001220703</ele>
        <time>2024-04-30T17:25:12.000Z</time>
      </trkpt>
      <trkpt lat="45.85929" lon="3.54453">
        <ele>402.79998779297</ele>
        <time>2024-04-30T17:25:13.000Z</time>
      </trkpt>
      <trkpt lat="45.85928" lon="3.54457">
        <ele>402.60000610352</ele>
        <time>2024-04-30T17:25:14.000Z</time>
      </trkpt>
      <trkpt lat="45.85927" lon="3.54461">
        <ele>402.20001220703</ele>
        <time>2024-04-30T17:25:15.000Z</time>
      </trkpt>
      <trkpt lat="45.85925" lon="3.54465">
        <ele>401.79998779297</ele>
        <time>2024-04-30T17:25:16.000Z</time>
      </trkpt>
      <trkpt lat="45.85924" lon="3.5447">
        <ele>401.79998779297</ele>
        <time>2024-04-30T17:25:17.000Z</time>
      </trkpt>
      <trkpt lat="45.85923" lon="3.54473">
        <ele>401.39999389648</ele>
        <time>2024-04-30T17:25:18.000Z</time>
      </trkpt>
      <trkpt lat="45.85921" lon="3.54477">
        <ele>401.20001220703</ele>
        <time>2024-04-30T17:25:19.000Z</time>
      </trkpt>
      <trkpt lat="45.85921" lon="3.54481">
        <ele>401</ele>
        <time>2024-04-30T17:25:20.000Z</time>
      </trkpt>
      <trkpt lat="45.85919" lon="3.54485">
        <ele>400.79998779297</ele>
        <time>2024-04-30T17:25:21.000Z</time>
      </trkpt>
      <trkpt lat="45.85915" lon="3.54488">
        <ele>400.39999389648</ele>
        <time>2024-04-30T17:25:22.000Z</time>
      </trkpt>
      <trkpt lat="45.85913" lon="3.54491">
        <ele>400.39999389648</ele>
        <time>2024-04-30T17:25:23.000Z</time>
      </trkpt>
      <trkpt lat="45.8591" lon="3.54494">
        <ele>400.20001220703</ele>
        <time>2024-04-30T17:25:24.000Z</time>
      </trkpt>
      <trkpt lat="45.85908" lon="3.54495">
        <ele>400</ele>
        <time>2024-04-30T17:25:25.000Z</time>
      </trkpt>
      <trkpt lat="45.85905" lon="3.54495">
        <ele>400</ele>
        <time>2024-04-30T17:25:26.000Z</time>
      </trkpt>
      <trkpt lat="45.85902" lon="3.54494">
        <ele>400.20001220703</ele>
        <time>2024-04-30T17:25:27.000Z</time>
      </trkpt>
      <trkpt lat="45.85899" lon="3.54494">
        <ele>400.20001220703</ele>
        <time>2024-04-30T17:25:28.000Z</time>
      </trkpt>
      <trkpt lat="45.85896" lon="3.54493">
        <ele>400</ele>
        <time>2024-04-30T17:25:29.000Z</time>
      </trkpt>
      <trkpt lat="45.85893" lon="3.54492">
        <ele>400</ele>
        <time>2024-04-30T17:25:30.000Z</time>
      </trkpt>
      <trkpt lat="45.85891" lon="3.54491">
        <ele>400</ele>
        <time>2024-04-30T17:25:31.000Z</time>
      </trkpt>
      <trkpt lat="45.85888" lon="3.54491">
        <ele>400.20001220703</ele>
        <time>2024-04-30T17:25:32.000Z</time>
      </trkpt>
      <trkpt lat="45.85887" lon="3.54491">
        <ele>400.20001220703</ele>
        <time>2024-04-30T17:25:33.000Z</time>
      </trkpt>
      <trkpt lat="45.85884" lon="3.54489">
        <ele>400.20001220703</ele>
        <time>2024-04-30T17:25:34.000Z</time>
      </trkpt>
      <trkpt lat="45.85881" lon="3.54487">
        <ele>400.20001220703</ele>
        <time>2024-04-30T17:25:35.000Z</time>
      </trkpt>
      <trkpt lat="45.85879" lon="3.54487">
        <ele>400.20001220703</ele>
        <time>2024-04-30T17:25:36.000Z</time>
      </trkpt>
      <trkpt lat="45.85876" lon="3.54486">
        <ele>400.20001220703</ele>
        <time>2024-04-30T17:25:37.000Z</time>
      </trkpt>
      <trkpt lat="45.85873" lon="3.54485">
        <ele>400.39999389648</ele>
        <time>2024-04-30T17:25:38.000Z</time>
      </trkpt>
      <trkpt lat="45.8587" lon="3.54485">
        <ele>400.60000610352</ele>
        <time>2024-04-30T17:25:39.000Z</time>
      </trkpt>
      <trkpt lat="45.85867" lon="3.54485">
        <ele>400.39999389648</ele>
        <time>2024-04-30T17:25:40.000Z</time>
      </trkpt>
      <trkpt lat="45.85865" lon="3.54485">
        <ele>400.60000610352</ele>
        <time>2024-04-30T17:25:41.000Z</time>
      </trkpt>
      <trkpt lat="45.85862" lon="3.54485">
        <ele>400.60000610352</ele>
        <time>2024-04-30T17:25:42.000Z</time>
      </trkpt>
      <trkpt lat="45.8586" lon="3.54485">
        <ele>400.79998779297</ele>
        <time>2024-04-30T17:25:43.000Z</time>
      </trkpt>
      <trkpt lat="45.85859" lon="3.54486">
        <ele>400.79998779297</ele>
        <time>2024-04-30T17:25:44.000Z</time>
      </trkpt>
      <trkpt lat="45.85858" lon="3.54488">
        <ele>400.79998779297</ele>
        <time>2024-04-30T17:25:45.000Z</time>
      </trkpt>
      <trkpt lat="45.85856" lon="3.54489">
        <ele>401</ele>
        <time>2024-04-30T17:25:46.000Z</time>
      </trkpt>
      <trkpt lat="45.85854" lon="3.54489">
        <ele>401.20001220703</ele>
        <time>2024-04-30T17:25:47.000Z</time>
      </trkpt>
      <trkpt lat="45.85853" lon="3.54491">
        <ele>401</ele>
        <time>2024-04-30T17:25:48.000Z</time>
      </trkpt>
      <trkpt lat="45.85852" lon="3.54491">
        <ele>401</ele>
        <time>2024-04-30T17:25:49.000Z</time>
      </trkpt>
      <trkpt lat="45.85849" lon="3.54493">
        <ele>401</ele>
        <time>2024-04-30T17:25:50.000Z</time>
      </trkpt>
      <trkpt lat="45.85846" lon="3.54494">
        <ele>401.20001220703</ele>
        <time>2024-04-30T17:25:51.000Z</time>
      </trkpt>
      <trkpt lat="45.85844" lon="3.54495">
        <ele>401.20001220703</ele>
        <time>2024-04-30T17:25:52.000Z</time>
      </trkpt>
      <trkpt lat="45.85841" lon="3.54498">
        <ele>401.39999389648</ele>
        <time>2024-04-30T17:25:53.000Z</time>
      </trkpt>
      <trkpt lat="45.85839" lon="3.545">
        <ele>401.60000610352</ele>
        <time>2024-04-30T17:25:54.000Z</time>
      </trkpt>
      <trkpt lat="45.85836" lon="3.54502">
        <ele>401.60000610352</ele>
        <time>2024-04-30T17:25:55.000Z</time>
      </trkpt>
      <trkpt lat="45.85834" lon="3.54504">
        <ele>401.79998779297</ele>
        <time>2024-04-30T17:25:56.000Z</time>
      </trkpt>
      <trkpt lat="45.85832" lon="3.54506">
        <ele>402</ele>
        <time>2024-04-30T17:25:57.000Z</time>
      </trkpt>
      <trkpt lat="45.8583" lon="3.54508">
        <ele>402.20001220703</ele>
        <time>2024-04-30T17:25:58.000Z</time>
      </trkpt>
      <trkpt lat="45.85828" lon="3.5451">
        <ele>402.39999389648</ele>
        <time>2024-04-30T17:25:59.000Z</time>
      </trkpt>
      <trkpt lat="45.85826" lon="3.54513">
        <ele>402.39999389648</ele>
        <time>2024-04-30T17:26:00.000Z</time>
      </trkpt>
      <trkpt lat="45.85825" lon="3.54515">
        <ele>402.60000610352</ele>
        <time>2024-04-30T17:26:01.000Z</time>
      </trkpt>
      <trkpt lat="45.85824" lon="3.54519">
        <ele>402.60000610352</ele>
        <time>2024-04-30T17:26:02.000Z</time>
      </trkpt>
      <trkpt lat="45.85823" lon="3.54522">
        <ele>402.79998779297</ele>
        <time>2024-04-30T17:26:03.000Z</time>
      </trkpt>
      <trkpt lat="45.85821" lon="3.54524">
        <ele>403</ele>
        <time>2024-04-30T17:26:04.000Z</time>
      </trkpt>
      <trkpt lat="45.85819" lon="3.54526">
        <ele>403</ele>
        <time>2024-04-30T17:26:05.000Z</time>
      </trkpt>
      <trkpt lat="45.85818" lon="3.54529">
        <ele>403</ele>
        <time>2024-04-30T17:26:06.000Z</time>
      </trkpt>
      <trkpt lat="45.85817" lon="3.54532">
        <ele>403.20001220703</ele>
        <time>2024-04-30T17:26:07.000Z</time>
      </trkpt>
      <trkpt lat="45.85815" lon="3.54533">
        <ele>403.39999389648</ele>
        <time>2024-04-30T17:26:08.000Z</time>
      </trkpt>
      <trkpt lat="45.85813" lon="3.54535">
        <ele>403.39999389648</ele>
        <time>2024-04-30T17:26:09.000Z</time>
      </trkpt>
      <trkpt lat="45.85812" lon="3.54538">
        <ele>403.60000610352</ele>
        <time>2024-04-30T17:26:10.000Z</time>
      </trkpt>
      <trkpt lat="45.85811" lon="3.5454">
        <ele>404</ele>
        <time>2024-04-30T17:26:11.000Z</time>
      </trkpt>
      <trkpt lat="45.85809" lon="3.54542">
        <ele>404</ele>
        <time>2024-04-30T17:26:12.000Z</time>
      </trkpt>
      <trkpt lat="45.85807" lon="3.54544">
        <ele>404.20001220703</ele>
        <time>2024-04-30T17:26:13.000Z</time>
      </trkpt>
      <trkpt lat="45.85806" lon="3.54546">
        <ele>404.39999389648</ele>
        <time>2024-04-30T17:26:14.000Z</time>
      </trkpt>
      <trkpt lat="45.85805" lon="3.54548">
        <ele>404.39999389648</ele>
        <time>2024-04-30T17:26:15.000Z</time>
      </trkpt>
      <trkpt lat="45.85804" lon="3.5455">
        <ele>404.39999389648</ele>
        <time>2024-04-30T17:26:16.000Z</time>
      </trkpt>
      <trkpt lat="45.85802" lon="3.54551">
        <ele>404.60000610352</ele>
        <time>2024-04-30T17:26:17.000Z</time>
      </trkpt>
      <trkpt lat="45.858" lon="3.54553">
        <ele>404.79998779297</ele>
        <time>2024-04-30T17:26:18.000Z</time>
      </trkpt>
      <trkpt lat="45.85799" lon="3.54555">
        <ele>405</ele>
        <time>2024-04-30T17:26:19.000Z</time>
      </trkpt>
      <trkpt lat="45.85797" lon="3.54558">
        <ele>405.20001220703</ele>
        <time>2024-04-30T17:26:20.000Z</time>
      </trkpt>
      <trkpt lat="45.85796" lon="3.54559">
        <ele>405.60000610352</ele>
        <time>2024-04-30T17:26:21.000Z</time>
      </trkpt>
      <trkpt lat="45.85795" lon="3.5456">
        <ele>405.79998779297</ele>
        <time>2024-04-30T17:26:22.000Z</time>
      </trkpt>
      <trkpt lat="45.85794" lon="3.54562">
        <ele>406.20001220703</ele>
        <time>2024-04-30T17:26:23.000Z</time>
      </trkpt>
      <trkpt lat="45.85792" lon="3.54564">
        <ele>406.20001220703</ele>
        <time>2024-04-30T17:26:24.000Z</time>
      </trkpt>
      <trkpt lat="45.85791" lon="3.54566">
        <ele>406.20001220703</ele>
        <time>2024-04-30T17:26:25.000Z</time>
      </trkpt>
      <trkpt lat="45.85789" lon="3.54567">
        <ele>406.39999389648</ele>
        <time>2024-04-30T17:26:26.000Z</time>
      </trkpt>
      <trkpt lat="45.85788" lon="3.54569">
        <ele>406.60000610352</ele>
        <time>2024-04-30T17:26:27.000Z</time>
      </trkpt>
      <trkpt lat="45.85787" lon="3.54571">
        <ele>406.79998779297</ele>
        <time>2024-04-30T17:26:28.000Z</time>
      </trkpt>
      <trkpt lat="45.85785" lon="3.54572">
        <ele>406.79998779297</ele>
        <time>2024-04-30T17:26:29.000Z</time>
      </trkpt>
      <trkpt lat="45.85784" lon="3.54575">
        <ele>407</ele>
        <time>2024-04-30T17:26:30.000Z</time>
      </trkpt>
      <trkpt lat="45.85782" lon="3.54577">
        <ele>407.39999389648</ele>
        <time>2024-04-30T17:26:31.000Z</time>
      </trkpt>
      <trkpt lat="45.85781" lon="3.5458">
        <ele>407.60000610352</ele>
        <time>2024-04-30T17:26:32.000Z</time>
      </trkpt>
      <trkpt lat="45.85779" lon="3.54582">
        <ele>407.60000610352</ele>
        <time>2024-04-30T17:26:33.000Z</time>
      </trkpt>
      <trkpt lat="45.85778" lon="3.54584">
        <ele>408</ele>
        <time>2024-04-30T17:26:34.000Z</time>
      </trkpt>
      <trkpt lat="45.85776" lon="3.54586">
        <ele>408.20001220703</ele>
        <time>2024-04-30T17:26:35.000Z</time>
      </trkpt>
      <trkpt lat="45.85775" lon="3.54588">
        <ele>408.39999389648</ele>
        <time>2024-04-30T17:26:36.000Z</time>
      </trkpt>
      <trkpt lat="45.85774" lon="3.5459">
        <ele>408.60000610352</ele>
        <time>2024-04-30T17:26:37.000Z</time>
      </trkpt>
      <trkpt lat="45.85773" lon="3.54592">
        <ele>408.79998779297</ele>
        <time>2024-04-30T17:26:38.000Z</time>
      </trkpt>
      <trkpt lat="45.85772" lon="3.54594">
        <ele>409</ele>
        <time>2024-04-30T17:26:39.000Z</time>
      </trkpt>
      <trkpt lat="45.85771" lon="3.54597">
        <ele>409.20001220703</ele>
        <time>2024-04-30T17:26:40.000Z</time>
      </trkpt>
      <trkpt lat="45.8577" lon="3.54599">
        <ele>409.39999389648</ele>
        <time>2024-04-30T17:26:41.000Z</time>
      </trkpt>
      <trkpt lat="45.85769" lon="3.54602">
        <ele>409.60000610352</ele>
        <time>2024-04-30T17:26:42.000Z</time>
      </trkpt>
      <trkpt lat="45.85768" lon="3.54604">
        <ele>409.79998779297</ele>
        <time>2024-04-30T17:26:43.000Z</time>
      </trkpt>
      <trkpt lat="45.85767" lon="3.54606">
        <ele>409.79998779297</ele>
        <time>2024-04-30T17:26:44.000Z</time>
      </trkpt>
      <trkpt lat="45.85766" lon="3.54608">
        <ele>409.79998779297</ele>
        <time>2024-04-30T17:26:45.000Z</time>
      </trkpt>
      <trkpt lat="45.85765" lon="3.54609">
        <ele>410</ele>
        <time>2024-04-30T17:26:46.000Z</time>
      </trkpt>
      <trkpt lat="45.85764" lon="3.54612">
        <ele>410.20001220703</ele>
        <time>2024-04-30T17:26:47.000Z</time>
      </trkpt>
      <trkpt lat="45.85763" lon="3.54614">
        <ele>410.39999389648</ele>
        <time>2024-04-30T17:26:48.000Z</time>
      </trkpt>
      <trkpt lat="45.85762" lon="3.54616">
        <ele>410.60000610352</ele>
        <time>2024-04-30T17:26:49.000Z</time>
      </trkpt>
      <trkpt lat="45.8576" lon="3.54617">
        <ele>410.79998779297</ele>
        <time>2024-04-30T17:26:50.000Z</time>
      </trkpt>
      <trkpt lat="45.85759" lon="3.54619">
        <ele>411.20001220703</ele>
        <time>2024-04-30T17:26:51.000Z</time>
      </trkpt>
      <trkpt lat="45.85757" lon="3.54621">
        <ele>411.39999389648</ele>
        <time>2024-04-30T17:26:52.000Z</time>
      </trkpt>
      <trkpt lat="45.85755" lon="3.54623">
        <ele>411.60000610352</ele>
        <time>2024-04-30T17:26:53.000Z</time>
      </trkpt>
      <trkpt lat="45.85754" lon="3.54625">
        <ele>411.79998779297</ele>
        <time>2024-04-30T17:26:54.000Z</time>
      </trkpt>
      <trkpt lat="45.85752" lon="3.54627">
        <ele>412</ele>
        <time>2024-04-30T17:26:55.000Z</time>
      </trkpt>
      <trkpt lat="45.85751" lon="3.54628">
        <ele>412.39999389648</ele>
        <time>2024-04-30T17:26:56.000Z</time>
      </trkpt>
      <trkpt lat="45.85749" lon="3.54631">
        <ele>412.39999389648</ele>
        <time>2024-04-30T17:26:57.000Z</time>
      </trkpt>
      <trkpt lat="45.85748" lon="3.54632">
        <ele>412.79998779297</ele>
        <time>2024-04-30T17:26:58.000Z</time>
      </trkpt>
      <trkpt lat="45.85747" lon="3.54634">
        <ele>413.20001220703</ele>
        <time>2024-04-30T17:26:59.000Z</time>
      </trkpt>
      <trkpt lat="45.85745" lon="3.54635">
        <ele>413.20001220703</ele>
        <time>2024-04-30T17:27:00.000Z</time>
      </trkpt>
      <trkpt lat="45.85744" lon="3.54637">
        <ele>413.39999389648</ele>
        <time>2024-04-30T17:27:01.000Z</time>
      </trkpt>
      <trkpt lat="45.85743" lon="3.54639">
        <ele>413.60000610352</ele>
        <time>2024-04-30T17:27:02.000Z</time>
      </trkpt>
      <trkpt lat="45.85741" lon="3.5464">
        <ele>413.79998779297</ele>
        <time>2024-04-30T17:27:03.000Z</time>
      </trkpt>
      <trkpt lat="45.85741" lon="3.54642">
        <ele>414</ele>
        <time>2024-04-30T17:27:04.000Z</time>
      </trkpt>
      <trkpt lat="45.8574" lon="3.54644">
        <ele>414.20001220703</ele>
        <time>2024-04-30T17:27:05.000Z</time>
      </trkpt>
      <trkpt lat="45.85738" lon="3.54645">
        <ele>414.39999389648</ele>
        <time>2024-04-30T17:27:06.000Z</time>
      </trkpt>
      <trkpt lat="45.85737" lon="3.54646">
        <ele>414.79998779297</ele>
        <time>2024-04-30T17:27:07.000Z</time>
      </trkpt>
      <trkpt lat="45.85735" lon="3.54648">
        <ele>415</ele>
        <time>2024-04-30T17:27:08.000Z</time>
      </trkpt>
      <trkpt lat="45.85734" lon="3.54648">
        <ele>415.20001220703</ele>
        <time>2024-04-30T17:27:09.000Z</time>
      </trkpt>
      <trkpt lat="45.85732" lon="3.54649">
        <ele>415.39999389648</ele>
        <time>2024-04-30T17:27:10.000Z</time>
      </trkpt>
      <trkpt lat="45.85729" lon="3.5465">
        <ele>415.79998779297</ele>
        <time>2024-04-30T17:27:11.000Z</time>
      </trkpt>
      <trkpt lat="45.85727" lon="3.54651">
        <ele>416</ele>
        <time>2024-04-30T17:27:12.000Z</time>
      </trkpt>
      <trkpt lat="45.85725" lon="3.54652">
        <ele>416.20001220703</ele>
        <time>2024-04-30T17:27:13.000Z</time>
      </trkpt>
      <trkpt lat="45.85723" lon="3.54654">
        <ele>416.39999389648</ele>
        <time>2024-04-30T17:27:14.000Z</time>
      </trkpt>
      <trkpt lat="45.8572" lon="3.54655">
        <ele>416.60000610352</ele>
        <time>2024-04-30T17:27:15.000Z</time>
      </trkpt>
      <trkpt lat="45.85719" lon="3.54657">
        <ele>417</ele>
        <time>2024-04-30T17:27:16.000Z</time>
      </trkpt>
      <trkpt lat="45.85718" lon="3.54659">
        <ele>417</ele>
        <time>2024-04-30T17:27:17.000Z</time>
      </trkpt>
      <trkpt lat="45.85716" lon="3.5466">
        <ele>417.20001220703</ele>
        <time>2024-04-30T17:27:18.000Z</time>
      </trkpt>
      <trkpt lat="45.85713" lon="3.54662">
        <ele>417.60000610352</ele>
        <time>2024-04-30T17:27:19.000Z</time>
      </trkpt>
      <trkpt lat="45.85711" lon="3.54663">
        <ele>417.79998779297</ele>
        <time>2024-04-30T17:27:20.000Z</time>
      </trkpt>
      <trkpt lat="45.85709" lon="3.54665">
        <ele>418</ele>
        <time>2024-04-30T17:27:21.000Z</time>
      </trkpt>
      <trkpt lat="45.85707" lon="3.54666">
        <ele>418.20001220703</ele>
        <time>2024-04-30T17:27:22.000Z</time>
      </trkpt>
      <trkpt lat="45.85705" lon="3.54667">
        <ele>418.39999389648</ele>
        <time>2024-04-30T17:27:23.000Z</time>
      </trkpt>
      <trkpt lat="45.85704" lon="3.54669">
        <ele>418.60000610352</ele>
        <time>2024-04-30T17:27:24.000Z</time>
      </trkpt>
      <trkpt lat="45.85702" lon="3.5467">
        <ele>418.60000610352</ele>
        <time>2024-04-30T17:27:25.000Z</time>
      </trkpt>
      <trkpt lat="45.85702" lon="3.54674">
        <ele>418.79998779297</ele>
        <time>2024-04-30T17:27:26.000Z</time>
      </trkpt>
      <trkpt lat="45.85702" lon="3.54676">
        <ele>419.20001220703</ele>
        <time>2024-04-30T17:27:27.000Z</time>
      </trkpt>
      <trkpt lat="45.85703" lon="3.54677">
        <ele>419.60000610352</ele>
        <time>2024-04-30T17:27:28.000Z</time>
      </trkpt>
      <trkpt lat="45.85703" lon="3.54678">
        <ele>419.79998779297</ele>
        <time>2024-04-30T17:27:29.000Z</time>
      </trkpt>
      <trkpt lat="45.85704" lon="3.5468">
        <ele>420</ele>
        <time>2024-04-30T17:27:30.000Z</time>
      </trkpt>
      <trkpt lat="45.85705" lon="3.54682">
        <ele>420.39999389648</ele>
        <time>2024-04-30T17:27:31.000Z</time>
      </trkpt>
      <trkpt lat="45.85705" lon="3.54683">
        <ele>420.60000610352</ele>
        <time>2024-04-30T17:27:32.000Z</time>
      </trkpt>
      <trkpt lat="45.85703" lon="3.54684">
        <ele>420.79998779297</ele>
        <time>2024-04-30T17:27:33.000Z</time>
      </trkpt>
      <trkpt lat="45.85701" lon="3.54685">
        <ele>421.20001220703</ele>
        <time>2024-04-30T17:27:34.000Z</time>
      </trkpt>
      <trkpt lat="45.85697" lon="3.54686">
        <ele>421.39999389648</ele>
        <time>2024-04-30T17:27:35.000Z</time>
      </trkpt>
      <trkpt lat="45.85694" lon="3.54687">
        <ele>421.60000610352</ele>
        <time>2024-04-30T17:27:36.000Z</time>
      </trkpt>
      <trkpt lat="45.85691" lon="3.54687">
        <ele>421.79998779297</ele>
        <time>2024-04-30T17:27:37.000Z</time>
      </trkpt>
      <trkpt lat="45.85688" lon="3.54685">
        <ele>422</ele>
        <time>2024-04-30T17:27:38.000Z</time>
      </trkpt>
      <trkpt lat="45.85685" lon="3.54684">
        <ele>422</ele>
        <time>2024-04-30T17:27:39.000Z</time>
      </trkpt>
      <trkpt lat="45.85682" lon="3.54683">
        <ele>422.20001220703</ele>
        <time>2024-04-30T17:27:40.000Z</time>
      </trkpt>
      <trkpt lat="45.85679" lon="3.54681">
        <ele>422.20001220703</ele>
        <time>2024-04-30T17:27:41.000Z</time>
      </trkpt>
      <trkpt lat="45.85675" lon="3.54679">
        <ele>422</ele>
        <time>2024-04-30T17:27:42.000Z</time>
      </trkpt>
      <trkpt lat="45.85671" lon="3.54677">
        <ele>421.79998779297</ele>
        <time>2024-04-30T17:27:43.000Z</time>
      </trkpt>
      <trkpt lat="45.85667" lon="3.54676">
        <ele>421.79998779297</ele>
        <time>2024-04-30T17:27:44.000Z</time>
      </trkpt>
      <trkpt lat="45.85664" lon="3.54674">
        <ele>421.60000610352</ele>
        <time>2024-04-30T17:27:45.000Z</time>
      </trkpt>
      <trkpt lat="45.8566" lon="3.54672">
        <ele>421.20001220703</ele>
        <time>2024-04-30T17:27:46.000Z</time>
      </trkpt>
      <trkpt lat="45.85656" lon="3.54672">
        <ele>420.79998779297</ele>
        <time>2024-04-30T17:27:47.000Z</time>
      </trkpt>
      <trkpt lat="45.85653" lon="3.54672">
        <ele>420.20001220703</ele>
        <time>2024-04-30T17:27:48.000Z</time>
      </trkpt>
      <trkpt lat="45.85651" lon="3.54673">
        <ele>419.39999389648</ele>
        <time>2024-04-30T17:27:49.000Z</time>
      </trkpt>
      <trkpt lat="45.85648" lon="3.54674">
        <ele>419</ele>
        <time>2024-04-30T17:27:50.000Z</time>
      </trkpt>
      <trkpt lat="45.85646" lon="3.54675">
        <ele>418.60000610352</ele>
        <time>2024-04-30T17:27:51.000Z</time>
      </trkpt>
      <trkpt lat="45.85643" lon="3.54675">
        <ele>418</ele>
        <time>2024-04-30T17:27:52.000Z</time>
      </trkpt>
      <trkpt lat="45.85641" lon="3.54676">
        <ele>418</ele>
        <time>2024-04-30T17:27:53.000Z</time>
      </trkpt>
      <trkpt lat="45.85638" lon="3.54677">
        <ele>417.79998779297</ele>
        <time>2024-04-30T17:27:54.000Z</time>
      </trkpt>
      <trkpt lat="45.85635" lon="3.54677">
        <ele>417.79998779297</ele>
        <time>2024-04-30T17:27:55.000Z</time>
      </trkpt>
      <trkpt lat="45.85632" lon="3.54677">
        <ele>417.60000610352</ele>
        <time>2024-04-30T17:27:56.000Z</time>
      </trkpt>
      <trkpt lat="45.8563" lon="3.54679">
        <ele>417.79998779297</ele>
        <time>2024-04-30T17:27:57.000Z</time>
      </trkpt>
      <trkpt lat="45.85627" lon="3.5468">
        <ele>418</ele>
        <time>2024-04-30T17:27:58.000Z</time>
      </trkpt>
      <trkpt lat="45.85625" lon="3.54681">
        <ele>417.79998779297</ele>
        <time>2024-04-30T17:27:59.000Z</time>
      </trkpt>
      <trkpt lat="45.85622" lon="3.54683">
        <ele>417.79998779297</ele>
        <time>2024-04-30T17:28:00.000Z</time>
      </trkpt>
      <trkpt lat="45.85619" lon="3.54684">
        <ele>418</ele>
        <time>2024-04-30T17:28:01.000Z</time>
      </trkpt>
      <trkpt lat="45.85617" lon="3.54685">
        <ele>418</ele>
        <time>2024-04-30T17:28:02.000Z</time>
      </trkpt>
      <trkpt lat="45.85614" lon="3.54687">
        <ele>417.79998779297</ele>
        <time>2024-04-30T17:28:03.000Z</time>
      </trkpt>
      <trkpt lat="45.85611" lon="3.54688">
        <ele>417.79998779297</ele>
        <time>2024-04-30T17:28:04.000Z</time>
      </trkpt>
      <trkpt lat="45.85609" lon="3.54688">
        <ele>417.79998779297</ele>
        <time>2024-04-30T17:28:05.000Z</time>
      </trkpt>
      <trkpt lat="45.85606" lon="3.54687">
        <ele>418</ele>
        <time>2024-04-30T17:28:06.000Z</time>
      </trkpt>
      <trkpt lat="45.85605" lon="3.54687">
        <ele>417.79998779297</ele>
        <time>2024-04-30T17:28:07.000Z</time>
      </trkpt>
      <trkpt lat="45.85605" lon="3.54688">
        <ele>417.79998779297</ele>
        <time>2024-04-30T17:28:08.000Z</time>
      </trkpt>
      <trkpt lat="45.85603" lon="3.54684">
        <ele>417.79998779297</ele>
        <time>2024-04-30T17:28:09.000Z</time>
      </trkpt>
      <trkpt lat="45.85602" lon="3.54681">
        <ele>417.60000610352</ele>
        <time>2024-04-30T17:28:10.000Z</time>
      </trkpt>
      <trkpt lat="45.85601" lon="3.54679">
        <ele>417</ele>
        <time>2024-04-30T17:28:11.000Z</time>
      </trkpt>
      <trkpt lat="45.856" lon="3.54678">
        <ele>416.60000610352</ele>
        <time>2024-04-30T17:28:12.000Z</time>
      </trkpt>
      <trkpt lat="45.85597" lon="3.54676">
        <ele>416.20001220703</ele>
        <time>2024-04-30T17:28:13.000Z</time>
      </trkpt>
      <trkpt lat="45.85594" lon="3.54674">
        <ele>415.60000610352</ele>
        <time>2024-04-30T17:28:14.000Z</time>
      </trkpt>
      <trkpt lat="45.85591" lon="3.54673">
        <ele>415.20001220703</ele>
        <time>2024-04-30T17:28:15.000Z</time>
      </trkpt>
      <trkpt lat="45.8559" lon="3.54674">
        <ele>414.79998779297</ele>
        <time>2024-04-30T17:28:16.000Z</time>
      </trkpt>
      <trkpt lat="45.85588" lon="3.54675">
        <ele>414.60000610352</ele>
        <time>2024-04-30T17:28:17.000Z</time>
      </trkpt>
      <trkpt lat="45.85585" lon="3.54676">
        <ele>414.20001220703</ele>
        <time>2024-04-30T17:28:18.000Z</time>
      </trkpt>
      <trkpt lat="45.85583" lon="3.54678">
        <ele>414.20001220703</ele>
        <time>2024-04-30T17:28:19.000Z</time>
      </trkpt>
      <trkpt lat="45.8558" lon="3.54678">
        <ele>414.20001220703</ele>
        <time>2024-04-30T17:28:20.000Z</time>
      </trkpt>
      <trkpt lat="45.85576" lon="3.54678">
        <ele>414</ele>
        <time>2024-04-30T17:28:21.000Z</time>
      </trkpt>
      <trkpt lat="45.85573" lon="3.54681">
        <ele>413.60000610352</ele>
        <time>2024-04-30T17:28:22.000Z</time>
      </trkpt>
      <trkpt lat="45.85569" lon="3.54681">
        <ele>413.39999389648</ele>
        <time>2024-04-30T17:28:23.000Z</time>
      </trkpt>
      <trkpt lat="45.85566" lon="3.54682">
        <ele>413.20001220703</ele>
        <time>2024-04-30T17:28:24.000Z</time>
      </trkpt>
      <trkpt lat="45.85563" lon="3.54683">
        <ele>412.79998779297</ele>
        <time>2024-04-30T17:28:25.000Z</time>
      </trkpt>
      <trkpt lat="45.8556" lon="3.54684">
        <ele>412.60000610352</ele>
        <time>2024-04-30T17:28:26.000Z</time>
      </trkpt>
      <trkpt lat="45.85557" lon="3.54685">
        <ele>412.39999389648</ele>
        <time>2024-04-30T17:28:27.000Z</time>
      </trkpt>
      <trkpt lat="45.85555" lon="3.54686">
        <ele>411.79998779297</ele>
        <time>2024-04-30T17:28:28.000Z</time>
      </trkpt>
      <trkpt lat="45.85553" lon="3.54686">
        <ele>411.60000610352</ele>
        <time>2024-04-30T17:28:29.000Z</time>
      </trkpt>
      <trkpt lat="45.85551" lon="3.54687">
        <ele>411.20001220703</ele>
        <time>2024-04-30T17:28:30.000Z</time>
      </trkpt>
      <trkpt lat="45.85548" lon="3.54687">
        <ele>410.79998779297</ele>
        <time>2024-04-30T17:28:31.000Z</time>
      </trkpt>
      <trkpt lat="45.85546" lon="3.54688">
        <ele>410.39999389648</ele>
        <time>2024-04-30T17:28:32.000Z</time>
      </trkpt>
      <trkpt lat="45.85545" lon="3.5469">
        <ele>410.20001220703</ele>
        <time>2024-04-30T17:28:33.000Z</time>
      </trkpt>
      <trkpt lat="45.85544" lon="3.54692">
        <ele>410</ele>
        <time>2024-04-30T17:28:34.000Z</time>
      </trkpt>
      <trkpt lat="45.85542" lon="3.54692">
        <ele>409.39999389648</ele>
        <time>2024-04-30T17:28:35.000Z</time>
      </trkpt>
      <trkpt lat="45.85538" lon="3.54691">
        <ele>409.20001220703</ele>
        <time>2024-04-30T17:28:36.000Z</time>
      </trkpt>
      <trkpt lat="45.85534" lon="3.54691">
        <ele>409</ele>
        <time>2024-04-30T17:28:37.000Z</time>
      </trkpt>
      <trkpt lat="45.8553" lon="3.54691">
        <ele>408.60000610352</ele>
        <time>2024-04-30T17:28:38.000Z</time>
      </trkpt>
      <trkpt lat="45.85527" lon="3.54693">
        <ele>408.20001220703</ele>
        <time>2024-04-30T17:28:39.000Z</time>
      </trkpt>
      <trkpt lat="45.85523" lon="3.54693">
        <ele>408</ele>
        <time>2024-04-30T17:28:40.000Z</time>
      </trkpt>
      <trkpt lat="45.85519" lon="3.54695">
        <ele>407.79998779297</ele>
        <time>2024-04-30T17:28:41.000Z</time>
      </trkpt>
      <trkpt lat="45.85515" lon="3.54697">
        <ele>407.60000610352</ele>
        <time>2024-04-30T17:28:42.000Z</time>
      </trkpt>
      <trkpt lat="45.85512" lon="3.54698">
        <ele>407.39999389648</ele>
        <time>2024-04-30T17:28:43.000Z</time>
      </trkpt>
      <trkpt lat="45.85509" lon="3.54696">
        <ele>407.39999389648</ele>
        <time>2024-04-30T17:28:44.000Z</time>
      </trkpt>
      <trkpt lat="45.85508" lon="3.54692">
        <ele>407</ele>
        <time>2024-04-30T17:28:45.000Z</time>
      </trkpt>
      <trkpt lat="45.85508" lon="3.54687">
        <ele>406.60000610352</ele>
        <time>2024-04-30T17:28:46.000Z</time>
      </trkpt>
      <trkpt lat="45.85509" lon="3.54683">
        <ele>406.20001220703</ele>
        <time>2024-04-30T17:28:47.000Z</time>
      </trkpt>
      <trkpt lat="45.85512" lon="3.5468">
        <ele>406</ele>
        <time>2024-04-30T17:28:48.000Z</time>
      </trkpt>
      <trkpt lat="45.85515" lon="3.54678">
        <ele>405.79998779297</ele>
        <time>2024-04-30T17:28:49.000Z</time>
      </trkpt>
      <trkpt lat="45.85517" lon="3.54676">
        <ele>405.60000610352</ele>
        <time>2024-04-30T17:28:50.000Z</time>
      </trkpt>
      <trkpt lat="45.8552" lon="3.54673">
        <ele>405.79998779297</ele>
        <time>2024-04-30T17:28:51.000Z</time>
      </trkpt>
      <trkpt lat="45.85521" lon="3.5467">
        <ele>405.60000610352</ele>
        <time>2024-04-30T17:28:52.000Z</time>
      </trkpt>
      <trkpt lat="45.85523" lon="3.54668">
        <ele>405.60000610352</ele>
        <time>2024-04-30T17:28:53.000Z</time>
      </trkpt>
      <trkpt lat="45.85526" lon="3.54668">
        <ele>405.60000610352</ele>
        <time>2024-04-30T17:28:54.000Z</time>
      </trkpt>
      <trkpt lat="45.85529" lon="3.54666">
        <ele>405.60000610352</ele>
        <time>2024-04-30T17:28:55.000Z</time>
      </trkpt>
      <trkpt lat="45.85533" lon="3.54663">
        <ele>405.39999389648</ele>
        <time>2024-04-30T17:28:56.000Z</time>
      </trkpt>
      <trkpt lat="45.85536" lon="3.54661">
        <ele>405.39999389648</ele>
        <time>2024-04-30T17:28:57.000Z</time>
      </trkpt>
      <trkpt lat="45.85539" lon="3.54657">
        <ele>405.20001220703</ele>
        <time>2024-04-30T17:28:58.000Z</time>
      </trkpt>
      <trkpt lat="45.85541" lon="3.54655">
        <ele>405.20001220703</ele>
        <time>2024-04-30T17:28:59.000Z</time>
      </trkpt>
      <trkpt lat="45.85543" lon="3.54653">
        <ele>405.20001220703</ele>
        <time>2024-04-30T17:29:00.000Z</time>
      </trkpt>
      <trkpt lat="45.85546" lon="3.54651">
        <ele>405.20001220703</ele>
        <time>2024-04-30T17:29:01.000Z</time>
      </trkpt>
      <trkpt lat="45.85548" lon="3.54649">
        <ele>405.39999389648</ele>
        <time>2024-04-30T17:29:02.000Z</time>
      </trkpt>
      <trkpt lat="45.8555" lon="3.54647">
        <ele>405.20001220703</ele>
        <time>2024-04-30T17:29:03.000Z</time>
      </trkpt>
      <trkpt lat="45.85552" lon="3.54645">
        <ele>405.20001220703</ele>
        <time>2024-04-30T17:29:04.000Z</time>
      </trkpt>
      <trkpt lat="45.85555" lon="3.54644">
        <ele>405.39999389648</ele>
        <time>2024-04-30T17:29:05.000Z</time>
      </trkpt>
      <trkpt lat="45.85558" lon="3.54642">
        <ele>405.39999389648</ele>
        <time>2024-04-30T17:29:06.000Z</time>
      </trkpt>
      <trkpt lat="45.85561" lon="3.5464">
        <ele>405.20001220703</ele>
        <time>2024-04-30T17:29:07.000Z</time>
      </trkpt>
      <trkpt lat="45.85563" lon="3.54639">
        <ele>405.20001220703</ele>
        <time>2024-04-30T17:29:08.000Z</time>
      </trkpt>
      <trkpt lat="45.85566" lon="3.54637">
        <ele>405.20001220703</ele>
        <time>2024-04-30T17:29:09.000Z</time>
      </trkpt>
      <trkpt lat="45.85569" lon="3.54636">
        <ele>405.20001220703</ele>
        <time>2024-04-30T17:29:10.000Z</time>
      </trkpt>
      <trkpt lat="45.85572" lon="3.54634">
        <ele>405.20001220703</ele>
        <time>2024-04-30T17:29:11.000Z</time>
      </trkpt>
      <trkpt lat="45.85574" lon="3.54634">
        <ele>405.20001220703</ele>
        <time>2024-04-30T17:29:12.000Z</time>
      </trkpt>
      <trkpt lat="45.85576" lon="3.54631">
        <ele>405.20001220703</ele>
        <time>2024-04-30T17:29:13.000Z</time>
      </trkpt>
      <trkpt lat="45.85578" lon="3.54629">
        <ele>404.79998779297</ele>
        <time>2024-04-30T17:29:14.000Z</time>
      </trkpt>
      <trkpt lat="45.85581" lon="3.54629">
        <ele>405</ele>
        <time>2024-04-30T17:29:15.000Z</time>
      </trkpt>
      <trkpt lat="45.85584" lon="3.54629">
        <ele>405</ele>
        <time>2024-04-30T17:29:16.000Z</time>
      </trkpt>
      <trkpt lat="45.85588" lon="3.54628">
        <ele>405</ele>
        <time>2024-04-30T17:29:17.000Z</time>
      </trkpt>
      <trkpt lat="45.8559" lon="3.54627">
        <ele>405</ele>
        <time>2024-04-30T17:29:18.000Z</time>
      </trkpt>
      <trkpt lat="45.85593" lon="3.54626">
        <ele>404.79998779297</ele>
        <time>2024-04-30T17:29:19.000Z</time>
      </trkpt>
      <trkpt lat="45.85595" lon="3.54625">
        <ele>405</ele>
        <time>2024-04-30T17:29:20.000Z</time>
      </trkpt>
      <trkpt lat="45.85598" lon="3.54624">
        <ele>405</ele>
        <time>2024-04-30T17:29:21.000Z</time>
      </trkpt>
      <trkpt lat="45.85601" lon="3.54621">
        <ele>404.79998779297</ele>
        <time>2024-04-30T17:29:22.000Z</time>
      </trkpt>
      <trkpt lat="45.85602" lon="3.5462">
        <ele>404.60000610352</ele>
        <time>2024-04-30T17:29:23.000Z</time>
      </trkpt>
      <trkpt lat="45.85605" lon="3.54619">
        <ele>404.39999389648</ele>
        <time>2024-04-30T17:29:24.000Z</time>
      </trkpt>
      <trkpt lat="45.85609" lon="3.54619">
        <ele>404.39999389648</ele>
        <time>2024-04-30T17:29:25.000Z</time>
      </trkpt>
      <trkpt lat="45.85612" lon="3.54617">
        <ele>404</ele>
        <time>2024-04-30T17:29:26.000Z</time>
      </trkpt>
      <trkpt lat="45.85614" lon="3.54615">
        <ele>403.79998779297</ele>
        <time>2024-04-30T17:29:27.000Z</time>
      </trkpt>
      <trkpt lat="45.85615" lon="3.54612">
        <ele>403.79998779297</ele>
        <time>2024-04-30T17:29:28.000Z</time>
      </trkpt>
      <trkpt lat="45.85616" lon="3.5461">
        <ele>403.60000610352</ele>
        <time>2024-04-30T17:29:29.000Z</time>
      </trkpt>
      <trkpt lat="45.85618" lon="3.54607">
        <ele>403.39999389648</ele>
        <time>2024-04-30T17:29:30.000Z</time>
      </trkpt>
      <trkpt lat="45.8562" lon="3.54606">
        <ele>403.20001220703</ele>
        <time>2024-04-30T17:29:31.000Z</time>
      </trkpt>
      <trkpt lat="45.85622" lon="3.54605">
        <ele>403</ele>
        <time>2024-04-30T17:29:32.000Z</time>
      </trkpt>
      <trkpt lat="45.85623" lon="3.54603">
        <ele>402.60000610352</ele>
        <time>2024-04-30T17:29:33.000Z</time>
      </trkpt>
      <trkpt lat="45.85624" lon="3.54602">
        <ele>402.60000610352</ele>
        <time>2024-04-30T17:29:34.000Z</time>
      </trkpt>
      <trkpt lat="45.85626" lon="3.54601">
        <ele>402.39999389648</ele>
        <time>2024-04-30T17:29:35.000Z</time>
      </trkpt>
      <trkpt lat="45.85627" lon="3.546">
        <ele>402.20001220703</ele>
        <time>2024-04-30T17:29:36.000Z</time>
      </trkpt>
      <trkpt lat="45.85627" lon="3.54599">
        <ele>402.20001220703</ele>
        <time>2024-04-30T17:29:37.000Z</time>
      </trkpt>
      <trkpt lat="45.85629" lon="3.54598">
        <ele>402</ele>
        <time>2024-04-30T17:29:38.000Z</time>
      </trkpt>
      <trkpt lat="45.8563" lon="3.54597">
        <ele>401.79998779297</ele>
        <time>2024-04-30T17:29:39.000Z</time>
      </trkpt>
      <trkpt lat="45.85632" lon="3.54594">
        <ele>401.60000610352</ele>
        <time>2024-04-30T17:29:40.000Z</time>
      </trkpt>
      <trkpt lat="45.85633" lon="3.54592">
        <ele>401.79998779297</ele>
        <time>2024-04-30T17:29:41.000Z</time>
      </trkpt>
      <trkpt lat="45.85634" lon="3.54589">
        <ele>401.79998779297</ele>
        <time>2024-04-30T17:29:42.000Z</time>
      </trkpt>
      <trkpt lat="45.85636" lon="3.54587">
        <ele>401.79998779297</ele>
        <time>2024-04-30T17:29:43.000Z</time>
      </trkpt>
      <trkpt lat="45.85638" lon="3.54585">
        <ele>401.39999389648</ele>
        <time>2024-04-30T17:29:44.000Z</time>
      </trkpt>
      <trkpt lat="45.85642" lon="3.54583">
        <ele>401.20001220703</ele>
        <time>2024-04-30T17:29:45.000Z</time>
      </trkpt>
      <trkpt lat="45.85644" lon="3.54581">
        <ele>401.20001220703</ele>
        <time>2024-04-30T17:29:46.000Z</time>
      </trkpt>
      <trkpt lat="45.85652" lon="3.54583">
        <ele>400.79998779297</ele>
        <time>2024-04-30T17:29:47.000Z</time>
      </trkpt>
      <trkpt lat="45.85655" lon="3.54583">
        <ele>400.60000610352</ele>
        <time>2024-04-30T17:29:48.000Z</time>
      </trkpt>
      <trkpt lat="45.85659" lon="3.54584">
        <ele>400.60000610352</ele>
        <time>2024-04-30T17:29:49.000Z</time>
      </trkpt>
      <trkpt lat="45.85665" lon="3.54582">
        <ele>400.39999389648</ele>
        <time>2024-04-30T17:29:50.000Z</time>
      </trkpt>
      <trkpt lat="45.85668" lon="3.54581">
        <ele>400.39999389648</ele>
        <time>2024-04-30T17:29:51.000Z</time>
      </trkpt>
      <trkpt lat="45.85674" lon="3.5458">
        <ele>400.20001220703</ele>
        <time>2024-04-30T17:29:52.000Z</time>
      </trkpt>
      <trkpt lat="45.85678" lon="3.54578">
        <ele>400</ele>
        <time>2024-04-30T17:29:53.000Z</time>
      </trkpt>
      <trkpt lat="45.85681" lon="3.54577">
        <ele>400</ele>
        <time>2024-04-30T17:29:54.000Z</time>
      </trkpt>
      <trkpt lat="45.85686" lon="3.54576">
        <ele>399.60000610352</ele>
        <time>2024-04-30T17:29:55.000Z</time>
      </trkpt>
      <trkpt lat="45.85689" lon="3.54574">
        <ele>399.39999389648</ele>
        <time>2024-04-30T17:29:56.000Z</time>
      </trkpt>
      <trkpt lat="45.85692" lon="3.54572">
        <ele>399.20001220703</ele>
        <time>2024-04-30T17:29:57.000Z</time>
      </trkpt>
      <trkpt lat="45.85694" lon="3.54569">
        <ele>399.20001220703</ele>
        <time>2024-04-30T17:29:58.000Z</time>
      </trkpt>
      <trkpt lat="45.85697" lon="3.54566">
        <ele>399</ele>
        <time>2024-04-30T17:29:59.000Z</time>
      </trkpt>
      <trkpt lat="45.85699" lon="3.54562">
        <ele>398.79998779297</ele>
        <time>2024-04-30T17:30:00.000Z</time>
      </trkpt>
      <trkpt lat="45.85701" lon="3.54559">
        <ele>398.60000610352</ele>
        <time>2024-04-30T17:30:01.000Z</time>
      </trkpt>
      <trkpt lat="45.85704" lon="3.54556">
        <ele>398.60000610352</ele>
        <time>2024-04-30T17:30:02.000Z</time>
      </trkpt>
      <trkpt lat="45.85705" lon="3.54552">
        <ele>398.20001220703</ele>
        <time>2024-04-30T17:30:03.000Z</time>
      </trkpt>
      <trkpt lat="45.85707" lon="3.54549">
        <ele>397.79998779297</ele>
        <time>2024-04-30T17:30:04.000Z</time>
      </trkpt>
      <trkpt lat="45.85709" lon="3.54545">
        <ele>397.79998779297</ele>
        <time>2024-04-30T17:30:05.000Z</time>
      </trkpt>
      <trkpt lat="45.85711" lon="3.54542">
        <ele>397.79998779297</ele>
        <time>2024-04-30T17:30:06.000Z</time>
      </trkpt>
      <trkpt lat="45.85713" lon="3.54538">
        <ele>397.60000610352</ele>
        <time>2024-04-30T17:30:07.000Z</time>
      </trkpt>
      <trkpt lat="45.85715" lon="3.54534">
        <ele>397.39999389648</ele>
        <time>2024-04-30T17:30:08.000Z</time>
      </trkpt>
      <trkpt lat="45.85716" lon="3.54531">
        <ele>397.39999389648</ele>
        <time>2024-04-30T17:30:09.000Z</time>
      </trkpt>
      <trkpt lat="45.85718" lon="3.54527">
        <ele>397.39999389648</ele>
        <time>2024-04-30T17:30:10.000Z</time>
      </trkpt>
      <trkpt lat="45.85719" lon="3.54523">
        <ele>397.20001220703</ele>
        <time>2024-04-30T17:30:11.000Z</time>
      </trkpt>
      <trkpt lat="45.8572" lon="3.54519">
        <ele>396.79998779297</ele>
        <time>2024-04-30T17:30:12.000Z</time>
      </trkpt>
      <trkpt lat="45.85722" lon="3.54516">
        <ele>396.79998779297</ele>
        <time>2024-04-30T17:30:13.000Z</time>
      </trkpt>
      <trkpt lat="45.85724" lon="3.54513">
        <ele>396.79998779297</ele>
        <time>2024-04-30T17:30:14.000Z</time>
      </trkpt>
      <trkpt lat="45.85726" lon="3.5451">
        <ele>396.79998779297</ele>
        <time>2024-04-30T17:30:15.000Z</time>
      </trkpt>
      <trkpt lat="45.85728" lon="3.54507">
        <ele>396.60000610352</ele>
        <time>2024-04-30T17:30:16.000Z</time>
      </trkpt>
      <trkpt lat="45.8573" lon="3.54504">
        <ele>396.39999389648</ele>
        <time>2024-04-30T17:30:17.000Z</time>
      </trkpt>
      <trkpt lat="45.85731" lon="3.545">
        <ele>396.39999389648</ele>
        <time>2024-04-30T17:30:18.000Z</time>
      </trkpt>
      <trkpt lat="45.85732" lon="3.54498">
        <ele>396.39999389648</ele>
        <time>2024-04-30T17:30:19.000Z</time>
      </trkpt>
      <trkpt lat="45.85734" lon="3.54494">
        <ele>396.20001220703</ele>
        <time>2024-04-30T17:30:20.000Z</time>
      </trkpt>
      <trkpt lat="45.85735" lon="3.54491">
        <ele>396</ele>
        <time>2024-04-30T17:30:21.000Z</time>
      </trkpt>
      <trkpt lat="45.85738" lon="3.54488">
        <ele>396</ele>
        <time>2024-04-30T17:30:22.000Z</time>
      </trkpt>
      <trkpt lat="45.8574" lon="3.54485">
        <ele>395.79998779297</ele>
        <time>2024-04-30T17:30:23.000Z</time>
      </trkpt>
      <trkpt lat="45.85742" lon="3.54483">
        <ele>395.39999389648</ele>
        <time>2024-04-30T17:30:24.000Z</time>
      </trkpt>
      <trkpt lat="45.85744" lon="3.54479">
        <ele>395.39999389648</ele>
        <time>2024-04-30T17:30:25.000Z</time>
      </trkpt>
      <trkpt lat="45.85746" lon="3.54476">
        <ele>395.39999389648</ele>
        <time>2024-04-30T17:30:26.000Z</time>
      </trkpt>
      <trkpt lat="45.85748" lon="3.54474">
        <ele>395.20001220703</ele>
        <time>2024-04-30T17:30:27.000Z</time>
      </trkpt>
      <trkpt lat="45.8575" lon="3.54471">
        <ele>395</ele>
        <time>2024-04-30T17:30:28.000Z</time>
      </trkpt>
      <trkpt lat="45.85751" lon="3.54468">
        <ele>395</ele>
        <time>2024-04-30T17:30:29.000Z</time>
      </trkpt>
      <trkpt lat="45.85753" lon="3.54465">
        <ele>395</ele>
        <time>2024-04-30T17:30:30.000Z</time>
      </trkpt>
      <trkpt lat="45.85757" lon="3.54462">
        <ele>395</ele>
        <time>2024-04-30T17:30:31.000Z</time>
      </trkpt>
      <trkpt lat="45.85759" lon="3.5446">
        <ele>394.79998779297</ele>
        <time>2024-04-30T17:30:32.000Z</time>
      </trkpt>
      <trkpt lat="45.85761" lon="3.54457">
        <ele>394.60000610352</ele>
        <time>2024-04-30T17:30:33.000Z</time>
      </trkpt>
      <trkpt lat="45.85762" lon="3.54454">
        <ele>394.60000610352</ele>
        <time>2024-04-30T17:30:34.000Z</time>
      </trkpt>
      <trkpt lat="45.85764" lon="3.54451">
        <ele>394.60000610352</ele>
        <time>2024-04-30T17:30:35.000Z</time>
      </trkpt>
      <trkpt lat="45.85767" lon="3.5445">
        <ele>394.39999389648</ele>
        <time>2024-04-30T17:30:36.000Z</time>
      </trkpt>
      <trkpt lat="45.85771" lon="3.54449">
        <ele>394.20001220703</ele>
        <time>2024-04-30T17:30:37.000Z</time>
      </trkpt>
      <trkpt lat="45.85774" lon="3.54447">
        <ele>394.20001220703</ele>
        <time>2024-04-30T17:30:38.000Z</time>
      </trkpt>
      <trkpt lat="45.85778" lon="3.54446">
        <ele>394.20001220703</ele>
        <time>2024-04-30T17:30:39.000Z</time>
      </trkpt>
      <trkpt lat="45.8578" lon="3.54444">
        <ele>394</ele>
        <time>2024-04-30T17:30:40.000Z</time>
      </trkpt>
      <trkpt lat="45.85783" lon="3.54442">
        <ele>394</ele>
        <time>2024-04-30T17:30:41.000Z</time>
      </trkpt>
      <trkpt lat="45.85786" lon="3.54441">
        <ele>393.79998779297</ele>
        <time>2024-04-30T17:30:42.000Z</time>
      </trkpt>
      <trkpt lat="45.85789" lon="3.54439">
        <ele>393.79998779297</ele>
        <time>2024-04-30T17:30:43.000Z</time>
      </trkpt>
      <trkpt lat="45.85792" lon="3.54438">
        <ele>393.39999389648</ele>
        <time>2024-04-30T17:30:44.000Z</time>
      </trkpt>
      <trkpt lat="45.85794" lon="3.54436">
        <ele>393.39999389648</ele>
        <time>2024-04-30T17:30:45.000Z</time>
      </trkpt>
      <trkpt lat="45.85797" lon="3.54435">
        <ele>393.39999389648</ele>
        <time>2024-04-30T17:30:46.000Z</time>
      </trkpt>
      <trkpt lat="45.85799" lon="3.54433">
        <ele>393.39999389648</ele>
        <time>2024-04-30T17:30:47.000Z</time>
      </trkpt>
      <trkpt lat="45.85801" lon="3.54431">
        <ele>393</ele>
        <time>2024-04-30T17:30:48.000Z</time>
      </trkpt>
      <trkpt lat="45.85802" lon="3.5443">
        <ele>392.79998779297</ele>
        <time>2024-04-30T17:30:49.000Z</time>
      </trkpt>
      <trkpt lat="45.85805" lon="3.54428">
        <ele>392.79998779297</ele>
        <time>2024-04-30T17:30:50.000Z</time>
      </trkpt>
      <trkpt lat="45.85806" lon="3.54427">
        <ele>392.79998779297</ele>
        <time>2024-04-30T17:30:51.000Z</time>
      </trkpt>
      <trkpt lat="45.85807" lon="3.54425">
        <ele>392.60000610352</ele>
        <time>2024-04-30T17:30:52.000Z</time>
      </trkpt>
      <trkpt lat="45.85808" lon="3.54423">
        <ele>392.39999389648</ele>
        <time>2024-04-30T17:30:53.000Z</time>
      </trkpt>
      <trkpt lat="45.8581" lon="3.54423">
        <ele>392.39999389648</ele>
        <time>2024-04-30T17:30:54.000Z</time>
      </trkpt>
      <trkpt lat="45.85812" lon="3.54422">
        <ele>392.20001220703</ele>
        <time>2024-04-30T17:30:55.000Z</time>
      </trkpt>
      <trkpt lat="45.85814" lon="3.54422">
        <ele>392</ele>
        <time>2024-04-30T17:30:56.000Z</time>
      </trkpt>
      <trkpt lat="45.85817" lon="3.54422">
        <ele>391.79998779297</ele>
        <time>2024-04-30T17:30:57.000Z</time>
      </trkpt>
      <trkpt lat="45.85818" lon="3.54421">
        <ele>391.79998779297</ele>
        <time>2024-04-30T17:30:58.000Z</time>
      </trkpt>
      <trkpt lat="45.8582" lon="3.5442">
        <ele>391.79998779297</ele>
        <time>2024-04-30T17:30:59.000Z</time>
      </trkpt>
      <trkpt lat="45.85824" lon="3.5442">
        <ele>391.60000610352</ele>
        <time>2024-04-30T17:31:00.000Z</time>
      </trkpt>
      <trkpt lat="45.85825" lon="3.54419">
        <ele>391.39999389648</ele>
        <time>2024-04-30T17:31:01.000Z</time>
      </trkpt>
      <trkpt lat="45.85827" lon="3.54418">
        <ele>391.39999389648</ele>
        <time>2024-04-30T17:31:02.000Z</time>
      </trkpt>
      <trkpt lat="45.8583" lon="3.54418">
        <ele>391.20001220703</ele>
        <time>2024-04-30T17:31:03.000Z</time>
      </trkpt>
      <trkpt lat="45.85831" lon="3.54417">
        <ele>391.20001220703</ele>
        <time>2024-04-30T17:31:04.000Z</time>
      </trkpt>
      <trkpt lat="45.85833" lon="3.54417">
        <ele>391</ele>
        <time>2024-04-30T17:31:05.000Z</time>
      </trkpt>
      <trkpt lat="45.85836" lon="3.54417">
        <ele>390.79998779297</ele>
        <time>2024-04-30T17:31:06.000Z</time>
      </trkpt>
      <trkpt lat="45.85838" lon="3.54417">
        <ele>390.60000610352</ele>
        <time>2024-04-30T17:31:07.000Z</time>
      </trkpt>
      <trkpt lat="45.8584" lon="3.54417">
        <ele>390.60000610352</ele>
        <time>2024-04-30T17:31:08.000Z</time>
      </trkpt>
      <trkpt lat="45.85842" lon="3.54417">
        <ele>390.60000610352</ele>
        <time>2024-04-30T17:31:09.000Z</time>
      </trkpt>
      <trkpt lat="45.85845" lon="3.54417">
        <ele>390.39999389648</ele>
        <time>2024-04-30T17:31:10.000Z</time>
      </trkpt>
      <trkpt lat="45.85848" lon="3.54417">
        <ele>390.39999389648</ele>
        <time>2024-04-30T17:31:11.000Z</time>
      </trkpt>
      <trkpt lat="45.85852" lon="3.54416">
        <ele>390.20001220703</ele>
        <time>2024-04-30T17:31:12.000Z</time>
      </trkpt>
      <trkpt lat="45.85855" lon="3.54414">
        <ele>390</ele>
        <time>2024-04-30T17:31:13.000Z</time>
      </trkpt>
      <trkpt lat="45.85857" lon="3.54411">
        <ele>389.79998779297</ele>
        <time>2024-04-30T17:31:14.000Z</time>
      </trkpt>
      <trkpt lat="45.85859" lon="3.54408">
        <ele>389.60000610352</ele>
        <time>2024-04-30T17:31:15.000Z</time>
      </trkpt>
      <trkpt lat="45.8586" lon="3.54406">
        <ele>389.39999389648</ele>
        <time>2024-04-30T17:31:16.000Z</time>
      </trkpt>
      <trkpt lat="45.85862" lon="3.54403">
        <ele>389.39999389648</ele>
        <time>2024-04-30T17:31:17.000Z</time>
      </trkpt>
      <trkpt lat="45.8586" lon="3.54399">
        <ele>389</ele>
        <time>2024-04-30T17:31:18.000Z</time>
      </trkpt>
      <trkpt lat="45.8586" lon="3.54396">
        <ele>389</ele>
        <time>2024-04-30T17:31:19.000Z</time>
      </trkpt>
      <trkpt lat="45.85858" lon="3.54391">
        <ele>388.60000610352</ele>
        <time>2024-04-30T17:31:20.000Z</time>
      </trkpt>
      <trkpt lat="45.85856" lon="3.54386">
        <ele>388.60000610352</ele>
        <time>2024-04-30T17:31:21.000Z</time>
      </trkpt>
      <trkpt lat="45.85853" lon="3.54383">
        <ele>388.20001220703</ele>
        <time>2024-04-30T17:31:22.000Z</time>
      </trkpt>
      <trkpt lat="45.8585" lon="3.54379">
        <ele>388.20001220703</ele>
        <time>2024-04-30T17:31:23.000Z</time>
      </trkpt>
      <trkpt lat="45.85847" lon="3.54376">
        <ele>388</ele>
        <time>2024-04-30T17:31:24.000Z</time>
      </trkpt>
      <trkpt lat="45.85844" lon="3.54372">
        <ele>388</ele>
        <time>2024-04-30T17:31:25.000Z</time>
      </trkpt>
      <trkpt lat="45.85841" lon="3.54368">
        <ele>387.79998779297</ele>
        <time>2024-04-30T17:31:26.000Z</time>
      </trkpt>
      <trkpt lat="45.8584" lon="3.54366">
        <ele>387.60000610352</ele>
        <time>2024-04-30T17:31:27.000Z</time>
      </trkpt>
      <trkpt lat="45.85838" lon="3.54363">
        <ele>387.39999389648</ele>
        <time>2024-04-30T17:31:28.000Z</time>
      </trkpt>
      <trkpt lat="45.85835" lon="3.5436">
        <ele>387.20001220703</ele>
        <time>2024-04-30T17:31:29.000Z</time>
      </trkpt>
      <trkpt lat="45.85833" lon="3.54356">
        <ele>387</ele>
        <time>2024-04-30T17:31:30.000Z</time>
      </trkpt>
      <trkpt lat="45.85832" lon="3.54353">
        <ele>386.79998779297</ele>
        <time>2024-04-30T17:31:31.000Z</time>
      </trkpt>
      <trkpt lat="45.85829" lon="3.54349">
        <ele>386.79998779297</ele>
        <time>2024-04-30T17:31:32.000Z</time>
      </trkpt>
      <trkpt lat="45.85826" lon="3.54345">
        <ele>386.79998779297</ele>
        <time>2024-04-30T17:31:33.000Z</time>
      </trkpt>
      <trkpt lat="45.85824" lon="3.54341">
        <ele>387</ele>
        <time>2024-04-30T17:31:34.000Z</time>
      </trkpt>
      <trkpt lat="45.85821" lon="3.54337">
        <ele>386.60000610352</ele>
        <time>2024-04-30T17:31:35.000Z</time>
      </trkpt>
      <trkpt lat="45.8582" lon="3.54334">
        <ele>386.39999389648</ele>
        <time>2024-04-30T17:31:36.000Z</time>
      </trkpt>
      <trkpt lat="45.85818" lon="3.54331">
        <ele>386.39999389648</ele>
        <time>2024-04-30T17:31:37.000Z</time>
      </trkpt>
      <trkpt lat="45.85816" lon="3.54329">
        <ele>386.20001220703</ele>
        <time>2024-04-30T17:31:38.000Z</time>
      </trkpt>
      <trkpt lat="45.85815" lon="3.54325">
        <ele>386</ele>
        <time>2024-04-30T17:31:39.000Z</time>
      </trkpt>
      <trkpt lat="45.85814" lon="3.54321">
        <ele>385.60000610352</ele>
        <time>2024-04-30T17:31:40.000Z</time>
      </trkpt>
      <trkpt lat="45.85812" lon="3.54317">
        <ele>385.60000610352</ele>
        <time>2024-04-30T17:31:41.000Z</time>
      </trkpt>
      <trkpt lat="45.85811" lon="3.54313">
        <ele>385.60000610352</ele>
        <time>2024-04-30T17:31:42.000Z</time>
      </trkpt>
      <trkpt lat="45.85809" lon="3.54309">
        <ele>385.20001220703</ele>
        <time>2024-04-30T17:31:43.000Z</time>
      </trkpt>
      <trkpt lat="45.85808" lon="3.54306">
        <ele>385</ele>
        <time>2024-04-30T17:31:44.000Z</time>
      </trkpt>
      <trkpt lat="45.85806" lon="3.54302">
        <ele>385</ele>
        <time>2024-04-30T17:31:45.000Z</time>
      </trkpt>
      <trkpt lat="45.85805" lon="3.54297">
        <ele>384.79998779297</ele>
        <time>2024-04-30T17:31:46.000Z</time>
      </trkpt>
      <trkpt lat="45.85805" lon="3.54294">
        <ele>384.60000610352</ele>
        <time>2024-04-30T17:31:47.000Z</time>
      </trkpt>
      <trkpt lat="45.85804" lon="3.5429">
        <ele>384.39999389648</ele>
        <time>2024-04-30T17:31:48.000Z</time>
      </trkpt>
      <trkpt lat="45.85802" lon="3.54283">
        <ele>384.39999389648</ele>
        <time>2024-04-30T17:31:49.000Z</time>
      </trkpt>
      <trkpt lat="45.85801" lon="3.54277">
        <ele>384.39999389648</ele>
        <time>2024-04-30T17:31:50.000Z</time>
      </trkpt>
      <trkpt lat="45.858" lon="3.54273">
        <ele>384</ele>
        <time>2024-04-30T17:31:51.000Z</time>
      </trkpt>
      <trkpt lat="45.85798" lon="3.5427">
        <ele>383.79998779297</ele>
        <time>2024-04-30T17:31:52.000Z</time>
      </trkpt>
      <trkpt lat="45.85797" lon="3.54265">
        <ele>383.79998779297</ele>
        <time>2024-04-30T17:31:53.000Z</time>
      </trkpt>
      <trkpt lat="45.85795" lon="3.54261">
        <ele>383.79998779297</ele>
        <time>2024-04-30T17:31:54.000Z</time>
      </trkpt>
      <trkpt lat="45.85794" lon="3.54258">
        <ele>383.60000610352</ele>
        <time>2024-04-30T17:31:55.000Z</time>
      </trkpt>
      <trkpt lat="45.85792" lon="3.54254">
        <ele>383.20001220703</ele>
        <time>2024-04-30T17:31:56.000Z</time>
      </trkpt>
      <trkpt lat="45.8579" lon="3.54251">
        <ele>383.20001220703</ele>
        <time>2024-04-30T17:31:57.000Z</time>
      </trkpt>
      <trkpt lat="45.85788" lon="3.54246">
        <ele>383.20001220703</ele>
        <time>2024-04-30T17:31:58.000Z</time>
      </trkpt>
      <trkpt lat="45.85785" lon="3.54243">
        <ele>383</ele>
        <time>2024-04-30T17:31:59.000Z</time>
      </trkpt>
      <trkpt lat="45.85784" lon="3.54239">
        <ele>382.79998779297</ele>
        <time>2024-04-30T17:32:00.000Z</time>
      </trkpt>
      <trkpt lat="45.85783" lon="3.54236">
        <ele>382.79998779297</ele>
        <time>2024-04-30T17:32:01.000Z</time>
      </trkpt>
      <trkpt lat="45.85782" lon="3.54233">
        <ele>382.60000610352</ele>
        <time>2024-04-30T17:32:02.000Z</time>
      </trkpt>
      <trkpt lat="45.85781" lon="3.54229">
        <ele>382.39999389648</ele>
        <time>2024-04-30T17:32:03.000Z</time>
      </trkpt>
      <trkpt lat="45.8578" lon="3.54226">
        <ele>382.20001220703</ele>
        <time>2024-04-30T17:32:04.000Z</time>
      </trkpt>
      <trkpt lat="45.85779" lon="3.54221">
        <ele>382.20001220703</ele>
        <time>2024-04-30T17:32:05.000Z</time>
      </trkpt>
      <trkpt lat="45.85779" lon="3.54217">
        <ele>382.39999389648</ele>
        <time>2024-04-30T17:32:06.000Z</time>
      </trkpt>
      <trkpt lat="45.85778" lon="3.54213">
        <ele>382.20001220703</ele>
        <time>2024-04-30T17:32:07.000Z</time>
      </trkpt>
      <trkpt lat="45.85777" lon="3.54209">
        <ele>382</ele>
        <time>2024-04-30T17:32:08.000Z</time>
      </trkpt>
      <trkpt lat="45.85776" lon="3.54204">
        <ele>382</ele>
        <time>2024-04-30T17:32:09.000Z</time>
      </trkpt>
      <trkpt lat="45.85774" lon="3.54199">
        <ele>382</ele>
        <time>2024-04-30T17:32:10.000Z</time>
      </trkpt>
      <trkpt lat="45.85773" lon="3.54194">
        <ele>381.79998779297</ele>
        <time>2024-04-30T17:32:11.000Z</time>
      </trkpt>
      <trkpt lat="45.85772" lon="3.5419">
        <ele>381.60000610352</ele>
        <time>2024-04-30T17:32:12.000Z</time>
      </trkpt>
      <trkpt lat="45.85773" lon="3.54185">
        <ele>381.60000610352</ele>
        <time>2024-04-30T17:32:13.000Z</time>
      </trkpt>
      <trkpt lat="45.85773" lon="3.5418">
        <ele>381.60000610352</ele>
        <time>2024-04-30T17:32:14.000Z</time>
      </trkpt>
      <trkpt lat="45.85773" lon="3.54175">
        <ele>381.20001220703</ele>
        <time>2024-04-30T17:32:15.000Z</time>
      </trkpt>
      <trkpt lat="45.85775" lon="3.54171">
        <ele>381</ele>
        <time>2024-04-30T17:32:16.000Z</time>
      </trkpt>
      <trkpt lat="45.85775" lon="3.54165">
        <ele>381</ele>
        <time>2024-04-30T17:32:17.000Z</time>
      </trkpt>
      <trkpt lat="45.85776" lon="3.54162">
        <ele>380.79998779297</ele>
        <time>2024-04-30T17:32:18.000Z</time>
      </trkpt>
      <trkpt lat="45.85776" lon="3.54158">
        <ele>380.60000610352</ele>
        <time>2024-04-30T17:32:19.000Z</time>
      </trkpt>
      <trkpt lat="45.85777" lon="3.54153">
        <ele>380.39999389648</ele>
        <time>2024-04-30T17:32:20.000Z</time>
      </trkpt>
      <trkpt lat="45.85778" lon="3.54148">
        <ele>380.39999389648</ele>
        <time>2024-04-30T17:32:21.000Z</time>
      </trkpt>
      <trkpt lat="45.85779" lon="3.54144">
        <ele>380.20001220703</ele>
        <time>2024-04-30T17:32:22.000Z</time>
      </trkpt>
      <trkpt lat="45.85781" lon="3.5414">
        <ele>380</ele>
        <time>2024-04-30T17:32:23.000Z</time>
      </trkpt>
      <trkpt lat="45.85783" lon="3.54136">
        <ele>379.79998779297</ele>
        <time>2024-04-30T17:32:24.000Z</time>
      </trkpt>
      <trkpt lat="45.85785" lon="3.54133">
        <ele>379.60000610352</ele>
        <time>2024-04-30T17:32:25.000Z</time>
      </trkpt>
      <trkpt lat="45.85788" lon="3.5413">
        <ele>379.39999389648</ele>
        <time>2024-04-30T17:32:26.000Z</time>
      </trkpt>
      <trkpt lat="45.85791" lon="3.54128">
        <ele>379.20001220703</ele>
        <time>2024-04-30T17:32:27.000Z</time>
      </trkpt>
      <trkpt lat="45.85793" lon="3.54126">
        <ele>379</ele>
        <time>2024-04-30T17:32:28.000Z</time>
      </trkpt>
      <trkpt lat="45.85795" lon="3.54122">
        <ele>379</ele>
        <time>2024-04-30T17:32:29.000Z</time>
      </trkpt>
      <trkpt lat="45.85797" lon="3.54119">
        <ele>378.79998779297</ele>
        <time>2024-04-30T17:32:30.000Z</time>
      </trkpt>
      <trkpt lat="45.858" lon="3.54117">
        <ele>378.79998779297</ele>
        <time>2024-04-30T17:32:31.000Z</time>
      </trkpt>
      <trkpt lat="45.85803" lon="3.54115">
        <ele>378.60000610352</ele>
        <time>2024-04-30T17:32:32.000Z</time>
      </trkpt>
      <trkpt lat="45.85806" lon="3.54114">
        <ele>378.39999389648</ele>
        <time>2024-04-30T17:32:33.000Z</time>
      </trkpt>
      <trkpt lat="45.85809" lon="3.54111">
        <ele>378.39999389648</ele>
        <time>2024-04-30T17:32:34.000Z</time>
      </trkpt>
      <trkpt lat="45.85812" lon="3.54108">
        <ele>378.39999389648</ele>
        <time>2024-04-30T17:32:35.000Z</time>
      </trkpt>
      <trkpt lat="45.85815" lon="3.54106">
        <ele>378.20001220703</ele>
        <time>2024-04-30T17:32:36.000Z</time>
      </trkpt>
      <trkpt lat="45.85817" lon="3.54103">
        <ele>378</ele>
        <time>2024-04-30T17:32:37.000Z</time>
      </trkpt>
      <trkpt lat="45.8582" lon="3.541">
        <ele>377.79998779297</ele>
        <time>2024-04-30T17:32:38.000Z</time>
      </trkpt>
      <trkpt lat="45.85822" lon="3.54097">
        <ele>377.79998779297</ele>
        <time>2024-04-30T17:32:39.000Z</time>
      </trkpt>
      <trkpt lat="45.85823" lon="3.54092">
        <ele>377.39999389648</ele>
        <time>2024-04-30T17:32:40.000Z</time>
      </trkpt>
      <trkpt lat="45.85825" lon="3.54089">
        <ele>377.20001220703</ele>
        <time>2024-04-30T17:32:41.000Z</time>
      </trkpt>
      <trkpt lat="45.85827" lon="3.54087">
        <ele>377.20001220703</ele>
        <time>2024-04-30T17:32:42.000Z</time>
      </trkpt>
      <trkpt lat="45.8583" lon="3.54085">
        <ele>377.20001220703</ele>
        <time>2024-04-30T17:32:43.000Z</time>
      </trkpt>
      <trkpt lat="45.85832" lon="3.54082">
        <ele>377</ele>
        <time>2024-04-30T17:32:44.000Z</time>
      </trkpt>
      <trkpt lat="45.85835" lon="3.5408">
        <ele>376.79998779297</ele>
        <time>2024-04-30T17:32:45.000Z</time>
      </trkpt>
      <trkpt lat="45.85838" lon="3.54077">
        <ele>376.79998779297</ele>
        <time>2024-04-30T17:32:46.000Z</time>
      </trkpt>
      <trkpt lat="45.85841" lon="3.54075">
        <ele>376.60000610352</ele>
        <time>2024-04-30T17:32:47.000Z</time>
      </trkpt>
      <trkpt lat="45.85844" lon="3.54072">
        <ele>376.39999389648</ele>
        <time>2024-04-30T17:32:48.000Z</time>
      </trkpt>
      <trkpt lat="45.85847" lon="3.5407">
        <ele>376.20001220703</ele>
        <time>2024-04-30T17:32:49.000Z</time>
      </trkpt>
      <trkpt lat="45.8585" lon="3.54067">
        <ele>376.20001220703</ele>
        <time>2024-04-30T17:32:50.000Z</time>
      </trkpt>
      <trkpt lat="45.85852" lon="3.54065">
        <ele>376</ele>
        <time>2024-04-30T17:32:51.000Z</time>
      </trkpt>
      <trkpt lat="45.85855" lon="3.54064">
        <ele>375.79998779297</ele>
        <time>2024-04-30T17:32:52.000Z</time>
      </trkpt>
      <trkpt lat="45.85858" lon="3.54061">
        <ele>375.60000610352</ele>
        <time>2024-04-30T17:32:53.000Z</time>
      </trkpt>
      <trkpt lat="45.85861" lon="3.54059">
        <ele>375.60000610352</ele>
        <time>2024-04-30T17:32:54.000Z</time>
      </trkpt>
      <trkpt lat="45.85863" lon="3.54057">
        <ele>375.60000610352</ele>
        <time>2024-04-30T17:32:55.000Z</time>
      </trkpt>
      <trkpt lat="45.85867" lon="3.54055">
        <ele>375.39999389648</ele>
        <time>2024-04-30T17:32:56.000Z</time>
      </trkpt>
      <trkpt lat="45.85869" lon="3.54053">
        <ele>375.20001220703</ele>
        <time>2024-04-30T17:32:57.000Z</time>
      </trkpt>
      <trkpt lat="45.85872" lon="3.5405">
        <ele>375</ele>
        <time>2024-04-30T17:32:58.000Z</time>
      </trkpt>
      <trkpt lat="45.85874" lon="3.54047">
        <ele>375</ele>
        <time>2024-04-30T17:32:59.000Z</time>
      </trkpt>
      <trkpt lat="45.85876" lon="3.54044">
        <ele>374.79998779297</ele>
        <time>2024-04-30T17:33:00.000Z</time>
      </trkpt>
      <trkpt lat="45.85879" lon="3.54041">
        <ele>374.60000610352</ele>
        <time>2024-04-30T17:33:01.000Z</time>
      </trkpt>
      <trkpt lat="45.85881" lon="3.54038">
        <ele>374.39999389648</ele>
        <time>2024-04-30T17:33:02.000Z</time>
      </trkpt>
      <trkpt lat="45.85883" lon="3.54035">
        <ele>374.39999389648</ele>
        <time>2024-04-30T17:33:03.000Z</time>
      </trkpt>
      <trkpt lat="45.85884" lon="3.54032">
        <ele>374.39999389648</ele>
        <time>2024-04-30T17:33:04.000Z</time>
      </trkpt>
      <trkpt lat="45.85886" lon="3.54029">
        <ele>374</ele>
        <time>2024-04-30T17:33:05.000Z</time>
      </trkpt>
      <trkpt lat="45.85888" lon="3.54025">
        <ele>373.79998779297</ele>
        <time>2024-04-30T17:33:06.000Z</time>
      </trkpt>
      <trkpt lat="45.85889" lon="3.54022">
        <ele>373.60000610352</ele>
        <time>2024-04-30T17:33:07.000Z</time>
      </trkpt>
      <trkpt lat="45.85892" lon="3.54019">
        <ele>373.60000610352</ele>
        <time>2024-04-30T17:33:08.000Z</time>
      </trkpt>
      <trkpt lat="45.85894" lon="3.54017">
        <ele>373.20001220703</ele>
        <time>2024-04-30T17:33:09.000Z</time>
      </trkpt>
      <trkpt lat="45.85897" lon="3.54014">
        <ele>373.20001220703</ele>
        <time>2024-04-30T17:33:10.000Z</time>
      </trkpt>
      <trkpt lat="45.85899" lon="3.54012">
        <ele>373.20001220703</ele>
        <time>2024-04-30T17:33:11.000Z</time>
      </trkpt>
      <trkpt lat="45.85901" lon="3.54009">
        <ele>373.20001220703</ele>
        <time>2024-04-30T17:33:12.000Z</time>
      </trkpt>
      <trkpt lat="45.85904" lon="3.54006">
        <ele>373.20001220703</ele>
        <time>2024-04-30T17:33:13.000Z</time>
      </trkpt>
      <trkpt lat="45.85906" lon="3.54004">
        <ele>372.79998779297</ele>
        <time>2024-04-30T17:33:14.000Z</time>
      </trkpt>
      <trkpt lat="45.85909" lon="3.54002">
        <ele>372.79998779297</ele>
        <time>2024-04-30T17:33:15.000Z</time>
      </trkpt>
      <trkpt lat="45.85911" lon="3.53999">
        <ele>372.60000610352</ele>
        <time>2024-04-30T17:33:16.000Z</time>
      </trkpt>
      <trkpt lat="45.85914" lon="3.53996">
        <ele>372.60000610352</ele>
        <time>2024-04-30T17:33:17.000Z</time>
      </trkpt>
      <trkpt lat="45.85917" lon="3.53995">
        <ele>372</ele>
        <time>2024-04-30T17:33:18.000Z</time>
      </trkpt>
      <trkpt lat="45.8592" lon="3.53993">
        <ele>372</ele>
        <time>2024-04-30T17:33:19.000Z</time>
      </trkpt>
      <trkpt lat="45.85924" lon="3.53992">
        <ele>372</ele>
        <time>2024-04-30T17:33:20.000Z</time>
      </trkpt>
      <trkpt lat="45.85927" lon="3.53989">
        <ele>372</ele>
        <time>2024-04-30T17:33:21.000Z</time>
      </trkpt>
      <trkpt lat="45.85929" lon="3.53986">
        <ele>371.60000610352</ele>
        <time>2024-04-30T17:33:22.000Z</time>
      </trkpt>
      <trkpt lat="45.85931" lon="3.53982">
        <ele>371.60000610352</ele>
        <time>2024-04-30T17:33:23.000Z</time>
      </trkpt>
      <trkpt lat="45.85932" lon="3.53979">
        <ele>371.60000610352</ele>
        <time>2024-04-30T17:33:24.000Z</time>
      </trkpt>
      <trkpt lat="45.85932" lon="3.53974">
        <ele>371.60000610352</ele>
        <time>2024-04-30T17:33:25.000Z</time>
      </trkpt>
      <trkpt lat="45.85932" lon="3.53969">
        <ele>371.20001220703</ele>
        <time>2024-04-30T17:33:26.000Z</time>
      </trkpt>
      <trkpt lat="45.85931" lon="3.53964">
        <ele>371.20001220703</ele>
        <time>2024-04-30T17:33:27.000Z</time>
      </trkpt>
      <trkpt lat="45.8593" lon="3.5396">
        <ele>371.20001220703</ele>
        <time>2024-04-30T17:33:28.000Z</time>
      </trkpt>
      <trkpt lat="45.85927" lon="3.53955">
        <ele>371</ele>
        <time>2024-04-30T17:33:29.000Z</time>
      </trkpt>
      <trkpt lat="45.85923" lon="3.53951">
        <ele>370.79998779297</ele>
        <time>2024-04-30T17:33:30.000Z</time>
      </trkpt>
      <trkpt lat="45.85917" lon="3.53948">
        <ele>370.39999389648</ele>
        <time>2024-04-30T17:33:31.000Z</time>
      </trkpt>
      <trkpt lat="45.85913" lon="3.53946">
        <ele>370.39999389648</ele>
        <time>2024-04-30T17:33:32.000Z</time>
      </trkpt>
      <trkpt lat="45.85909" lon="3.53944">
        <ele>370.20001220703</ele>
        <time>2024-04-30T17:33:33.000Z</time>
      </trkpt>
      <trkpt lat="45.85905" lon="3.53943">
        <ele>370</ele>
        <time>2024-04-30T17:33:34.000Z</time>
      </trkpt>
      <trkpt lat="45.85901" lon="3.53941">
        <ele>369.79998779297</ele>
        <time>2024-04-30T17:33:35.000Z</time>
      </trkpt>
      <trkpt lat="45.85897" lon="3.5394">
        <ele>369.39999389648</ele>
        <time>2024-04-30T17:33:36.000Z</time>
      </trkpt>
      <trkpt lat="45.85894" lon="3.53938">
        <ele>369.20001220703</ele>
        <time>2024-04-30T17:33:37.000Z</time>
      </trkpt>
      <trkpt lat="45.8589" lon="3.53936">
        <ele>369</ele>
        <time>2024-04-30T17:33:38.000Z</time>
      </trkpt>
      <trkpt lat="45.85887" lon="3.53936">
        <ele>368.79998779297</ele>
        <time>2024-04-30T17:33:39.000Z</time>
      </trkpt>
      <trkpt lat="45.85883" lon="3.53936">
        <ele>368.60000610352</ele>
        <time>2024-04-30T17:33:40.000Z</time>
      </trkpt>
      <trkpt lat="45.8588" lon="3.53937">
        <ele>368.60000610352</ele>
        <time>2024-04-30T17:33:41.000Z</time>
      </trkpt>
      <trkpt lat="45.85877" lon="3.53937">
        <ele>368.39999389648</ele>
        <time>2024-04-30T17:33:42.000Z</time>
      </trkpt>
      <trkpt lat="45.85875" lon="3.53937">
        <ele>368.39999389648</ele>
        <time>2024-04-30T17:33:43.000Z</time>
      </trkpt>
      <trkpt lat="45.85871" lon="3.53937">
        <ele>368.20001220703</ele>
        <time>2024-04-30T17:33:44.000Z</time>
      </trkpt>
      <trkpt lat="45.85867" lon="3.53938">
        <ele>368</ele>
        <time>2024-04-30T17:33:45.000Z</time>
      </trkpt>
      <trkpt lat="45.85863" lon="3.53938">
        <ele>367.79998779297</ele>
        <time>2024-04-30T17:33:46.000Z</time>
      </trkpt>
      <trkpt lat="45.8586" lon="3.53938">
        <ele>367.79998779297</ele>
        <time>2024-04-30T17:33:47.000Z</time>
      </trkpt>
      <trkpt lat="45.85857" lon="3.53938">
        <ele>367.39999389648</ele>
        <time>2024-04-30T17:33:48.000Z</time>
      </trkpt>
      <trkpt lat="45.85854" lon="3.53939">
        <ele>367.20001220703</ele>
        <time>2024-04-30T17:33:49.000Z</time>
      </trkpt>
      <trkpt lat="45.8585" lon="3.53938">
        <ele>367.20001220703</ele>
        <time>2024-04-30T17:33:50.000Z</time>
      </trkpt>
      <trkpt lat="45.85847" lon="3.53938">
        <ele>367</ele>
        <time>2024-04-30T17:33:51.000Z</time>
      </trkpt>
      <trkpt lat="45.85844" lon="3.53937">
        <ele>367</ele>
        <time>2024-04-30T17:33:52.000Z</time>
      </trkpt>
      <trkpt lat="45.85841" lon="3.53936">
        <ele>366.79998779297</ele>
        <time>2024-04-30T17:33:53.000Z</time>
      </trkpt>
      <trkpt lat="45.85838" lon="3.53935">
        <ele>366.79998779297</ele>
        <time>2024-04-30T17:33:54.000Z</time>
      </trkpt>
      <trkpt lat="45.85835" lon="3.53934">
        <ele>366.60000610352</ele>
        <time>2024-04-30T17:33:55.000Z</time>
      </trkpt>
      <trkpt lat="45.85833" lon="3.53931">
        <ele>366.60000610352</ele>
        <time>2024-04-30T17:33:56.000Z</time>
      </trkpt>
      <trkpt lat="45.8583" lon="3.53929">
        <ele>366.39999389648</ele>
        <time>2024-04-30T17:33:57.000Z</time>
      </trkpt>
      <trkpt lat="45.85828" lon="3.53926">
        <ele>366.20001220703</ele>
        <time>2024-04-30T17:33:58.000Z</time>
      </trkpt>
      <trkpt lat="45.85825" lon="3.53924">
        <ele>366</ele>
        <time>2024-04-30T17:33:59.000Z</time>
      </trkpt>
      <trkpt lat="45.85822" lon="3.53924">
        <ele>366</ele>
        <time>2024-04-30T17:34:00.000Z</time>
      </trkpt>
      <trkpt lat="45.85819" lon="3.53922">
        <ele>365.79998779297</ele>
        <time>2024-04-30T17:34:01.000Z</time>
      </trkpt>
      <trkpt lat="45.85816" lon="3.53919">
        <ele>365.79998779297</ele>
        <time>2024-04-30T17:34:02.000Z</time>
      </trkpt>
      <trkpt lat="45.85813" lon="3.53917">
        <ele>365.39999389648</ele>
        <time>2024-04-30T17:34:03.000Z</time>
      </trkpt>
      <trkpt lat="45.8581" lon="3.53915">
        <ele>365.20001220703</ele>
        <time>2024-04-30T17:34:04.000Z</time>
      </trkpt>
      <trkpt lat="45.85808" lon="3.53912">
        <ele>365.20001220703</ele>
        <time>2024-04-30T17:34:05.000Z</time>
      </trkpt>
      <trkpt lat="45.85804" lon="3.5391">
        <ele>365</ele>
        <time>2024-04-30T17:34:06.000Z</time>
      </trkpt>
      <trkpt lat="45.85801" lon="3.53908">
        <ele>364.79998779297</ele>
        <time>2024-04-30T17:34:07.000Z</time>
      </trkpt>
      <trkpt lat="45.85798" lon="3.53907">
        <ele>364.60000610352</ele>
        <time>2024-04-30T17:34:08.000Z</time>
      </trkpt>
      <trkpt lat="45.85796" lon="3.53905">
        <ele>364.60000610352</ele>
        <time>2024-04-30T17:34:09.000Z</time>
      </trkpt>
      <trkpt lat="45.85793" lon="3.53904">
        <ele>364.60000610352</ele>
        <time>2024-04-30T17:34:10.000Z</time>
      </trkpt>
      <trkpt lat="45.85791" lon="3.53903">
        <ele>364.39999389648</ele>
        <time>2024-04-30T17:34:11.000Z</time>
      </trkpt>
      <trkpt lat="45.85788" lon="3.53901">
        <ele>364.39999389648</ele>
        <time>2024-04-30T17:34:12.000Z</time>
      </trkpt>
      <trkpt lat="45.85784" lon="3.539">
        <ele>364.39999389648</ele>
        <time>2024-04-30T17:34:13.000Z</time>
      </trkpt>
      <trkpt lat="45.85782" lon="3.53899">
        <ele>364.20001220703</ele>
        <time>2024-04-30T17:34:14.000Z</time>
      </trkpt>
      <trkpt lat="45.85779" lon="3.53897">
        <ele>364.20001220703</ele>
        <time>2024-04-30T17:34:15.000Z</time>
      </trkpt>
      <trkpt lat="45.85776" lon="3.53896">
        <ele>364</ele>
        <time>2024-04-30T17:34:16.000Z</time>
      </trkpt>
      <trkpt lat="45.85773" lon="3.53895">
        <ele>363.79998779297</ele>
        <time>2024-04-30T17:34:17.000Z</time>
      </trkpt>
      <trkpt lat="45.8577" lon="3.53895">
        <ele>363.79998779297</ele>
        <time>2024-04-30T17:34:18.000Z</time>
      </trkpt>
      <trkpt lat="45.85768" lon="3.53895">
        <ele>363.79998779297</ele>
        <time>2024-04-30T17:34:19.000Z</time>
      </trkpt>
      <trkpt lat="45.85765" lon="3.53894">
        <ele>363.60000610352</ele>
        <time>2024-04-30T17:34:20.000Z</time>
      </trkpt>
      <trkpt lat="45.85762" lon="3.53894">
        <ele>363.20001220703</ele>
        <time>2024-04-30T17:34:21.000Z</time>
      </trkpt>
      <trkpt lat="45.85759" lon="3.53893">
        <ele>363.20001220703</ele>
        <time>2024-04-30T17:34:22.000Z</time>
      </trkpt>
      <trkpt lat="45.85756" lon="3.53893">
        <ele>363</ele>
        <time>2024-04-30T17:34:23.000Z</time>
      </trkpt>
      <trkpt lat="45.85754" lon="3.53893">
        <ele>362.79998779297</ele>
        <time>2024-04-30T17:34:24.000Z</time>
      </trkpt>
      <trkpt lat="45.85751" lon="3.53893">
        <ele>362.60000610352</ele>
        <time>2024-04-30T17:34:25.000Z</time>
      </trkpt>
      <trkpt lat="45.85748" lon="3.53892">
        <ele>362.60000610352</ele>
        <time>2024-04-30T17:34:26.000Z</time>
      </trkpt>
      <trkpt lat="45.85745" lon="3.53892">
        <ele>362.39999389648</ele>
        <time>2024-04-30T17:34:27.000Z</time>
      </trkpt>
      <trkpt lat="45.85743" lon="3.53892">
        <ele>362.39999389648</ele>
        <time>2024-04-30T17:34:28.000Z</time>
      </trkpt>
      <trkpt lat="45.85739" lon="3.53891">
        <ele>362.39999389648</ele>
        <time>2024-04-30T17:34:29.000Z</time>
      </trkpt>
      <trkpt lat="45.85736" lon="3.5389">
        <ele>362</ele>
        <time>2024-04-30T17:34:30.000Z</time>
      </trkpt>
      <trkpt lat="45.85732" lon="3.53889">
        <ele>362</ele>
        <time>2024-04-30T17:34:31.000Z</time>
      </trkpt>
      <trkpt lat="45.85729" lon="3.53889">
        <ele>362</ele>
        <time>2024-04-30T17:34:32.000Z</time>
      </trkpt>
      <trkpt lat="45.85727" lon="3.53888">
        <ele>361.60000610352</ele>
        <time>2024-04-30T17:34:33.000Z</time>
      </trkpt>
      <trkpt lat="45.85725" lon="3.53885">
        <ele>361.20001220703</ele>
        <time>2024-04-30T17:34:34.000Z</time>
      </trkpt>
      <trkpt lat="45.85722" lon="3.53883">
        <ele>361</ele>
        <time>2024-04-30T17:34:35.000Z</time>
      </trkpt>
      <trkpt lat="45.8572" lon="3.5388">
        <ele>361</ele>
        <time>2024-04-30T17:34:36.000Z</time>
      </trkpt>
      <trkpt lat="45.85719" lon="3.53877">
        <ele>360.79998779297</ele>
        <time>2024-04-30T17:34:37.000Z</time>
      </trkpt>
      <trkpt lat="45.85717" lon="3.53874">
        <ele>360.60000610352</ele>
        <time>2024-04-30T17:34:38.000Z</time>
      </trkpt>
      <trkpt lat="45.85715" lon="3.5387">
        <ele>360.39999389648</ele>
        <time>2024-04-30T17:34:39.000Z</time>
      </trkpt>
      <trkpt lat="45.85714" lon="3.53867">
        <ele>360.39999389648</ele>
        <time>2024-04-30T17:34:40.000Z</time>
      </trkpt>
      <trkpt lat="45.85713" lon="3.53864">
        <ele>360.20001220703</ele>
        <time>2024-04-30T17:34:41.000Z</time>
      </trkpt>
      <trkpt lat="45.85711" lon="3.53861">
        <ele>360</ele>
        <time>2024-04-30T17:34:42.000Z</time>
      </trkpt>
      <trkpt lat="45.8571" lon="3.53858">
        <ele>360</ele>
        <time>2024-04-30T17:34:43.000Z</time>
      </trkpt>
      <trkpt lat="45.85708" lon="3.53856">
        <ele>359.79998779297</ele>
        <time>2024-04-30T17:34:44.000Z</time>
      </trkpt>
      <trkpt lat="45.85706" lon="3.53852">
        <ele>359.79998779297</ele>
        <time>2024-04-30T17:34:45.000Z</time>
      </trkpt>
      <trkpt lat="45.85704" lon="3.5385">
        <ele>359.60000610352</ele>
        <time>2024-04-30T17:34:46.000Z</time>
      </trkpt>
      <trkpt lat="45.85702" lon="3.53847">
        <ele>359.60000610352</ele>
        <time>2024-04-30T17:34:47.000Z</time>
      </trkpt>
      <trkpt lat="45.85699" lon="3.53844">
        <ele>359.39999389648</ele>
        <time>2024-04-30T17:34:48.000Z</time>
      </trkpt>
      <trkpt lat="45.85697" lon="3.5384">
        <ele>359.39999389648</ele>
        <time>2024-04-30T17:34:49.000Z</time>
      </trkpt>
      <trkpt lat="45.85696" lon="3.53836">
        <ele>359.39999389648</ele>
        <time>2024-04-30T17:34:50.000Z</time>
      </trkpt>
      <trkpt lat="45.85695" lon="3.53834">
        <ele>359.20001220703</ele>
        <time>2024-04-30T17:34:51.000Z</time>
      </trkpt>
      <trkpt lat="45.85693" lon="3.53831">
        <ele>359</ele>
        <time>2024-04-30T17:34:52.000Z</time>
      </trkpt>
      <trkpt lat="45.85691" lon="3.53828">
        <ele>359</ele>
        <time>2024-04-30T17:34:53.000Z</time>
      </trkpt>
      <trkpt lat="45.8569" lon="3.53825">
        <ele>359</ele>
        <time>2024-04-30T17:34:54.000Z</time>
      </trkpt>
      <trkpt lat="45.85687" lon="3.53822">
        <ele>358.60000610352</ele>
        <time>2024-04-30T17:34:55.000Z</time>
      </trkpt>
      <trkpt lat="45.85686" lon="3.53819">
        <ele>358.39999389648</ele>
        <time>2024-04-30T17:34:56.000Z</time>
      </trkpt>
      <trkpt lat="45.85685" lon="3.53817">
        <ele>358.39999389648</ele>
        <time>2024-04-30T17:34:57.000Z</time>
      </trkpt>
      <trkpt lat="45.85683" lon="3.53814">
        <ele>358.20001220703</ele>
        <time>2024-04-30T17:34:58.000Z</time>
      </trkpt>
      <trkpt lat="45.85683" lon="3.53812">
        <ele>358</ele>
        <time>2024-04-30T17:34:59.000Z</time>
      </trkpt>
      <trkpt lat="45.85681" lon="3.53808">
        <ele>357.79998779297</ele>
        <time>2024-04-30T17:35:00.000Z</time>
      </trkpt>
      <trkpt lat="45.85681" lon="3.53805">
        <ele>357.79998779297</ele>
        <time>2024-04-30T17:35:01.000Z</time>
      </trkpt>
      <trkpt lat="45.8568" lon="3.53801">
        <ele>357.79998779297</ele>
        <time>2024-04-30T17:35:02.000Z</time>
      </trkpt>
      <trkpt lat="45.85679" lon="3.53797">
        <ele>357.60000610352</ele>
        <time>2024-04-30T17:35:03.000Z</time>
      </trkpt>
      <trkpt lat="45.85679" lon="3.53793">
        <ele>357.39999389648</ele>
        <time>2024-04-30T17:35:04.000Z</time>
      </trkpt>
      <trkpt lat="45.85678" lon="3.53788">
        <ele>357.39999389648</ele>
        <time>2024-04-30T17:35:05.000Z</time>
      </trkpt>
      <trkpt lat="45.85679" lon="3.53784">
        <ele>357.20001220703</ele>
        <time>2024-04-30T17:35:06.000Z</time>
      </trkpt>
      <trkpt lat="45.8568" lon="3.5378">
        <ele>357</ele>
        <time>2024-04-30T17:35:07.000Z</time>
      </trkpt>
      <trkpt lat="45.85682" lon="3.53776">
        <ele>356.79998779297</ele>
        <time>2024-04-30T17:35:08.000Z</time>
      </trkpt>
      <trkpt lat="45.85684" lon="3.53773">
        <ele>356.79998779297</ele>
        <time>2024-04-30T17:35:09.000Z</time>
      </trkpt>
      <trkpt lat="45.85685" lon="3.53768">
        <ele>356.60000610352</ele>
        <time>2024-04-30T17:35:10.000Z</time>
      </trkpt>
      <trkpt lat="45.85687" lon="3.53763">
        <ele>356.39999389648</ele>
        <time>2024-04-30T17:35:11.000Z</time>
      </trkpt>
      <trkpt lat="45.85688" lon="3.53758">
        <ele>356.39999389648</ele>
        <time>2024-04-30T17:35:12.000Z</time>
      </trkpt>
      <trkpt lat="45.85689" lon="3.53754">
        <ele>356.39999389648</ele>
        <time>2024-04-30T17:35:13.000Z</time>
      </trkpt>
      <trkpt lat="45.85691" lon="3.53751">
        <ele>356.20001220703</ele>
        <time>2024-04-30T17:35:14.000Z</time>
      </trkpt>
      <trkpt lat="45.85692" lon="3.53747">
        <ele>356</ele>
        <time>2024-04-30T17:35:15.000Z</time>
      </trkpt>
      <trkpt lat="45.85693" lon="3.53743">
        <ele>355.79998779297</ele>
        <time>2024-04-30T17:35:16.000Z</time>
      </trkpt>
      <trkpt lat="45.85694" lon="3.53738">
        <ele>355.60000610352</ele>
        <time>2024-04-30T17:35:17.000Z</time>
      </trkpt>
      <trkpt lat="45.85695" lon="3.53734">
        <ele>355.39999389648</ele>
        <time>2024-04-30T17:35:18.000Z</time>
      </trkpt>
      <trkpt lat="45.85694" lon="3.53728">
        <ele>355.39999389648</ele>
        <time>2024-04-30T17:35:19.000Z</time>
      </trkpt>
      <trkpt lat="45.85695" lon="3.53724">
        <ele>355.39999389648</ele>
        <time>2024-04-30T17:35:20.000Z</time>
      </trkpt>
      <trkpt lat="45.85697" lon="3.53721">
        <ele>355.20001220703</ele>
        <time>2024-04-30T17:35:21.000Z</time>
      </trkpt>
      <trkpt lat="45.85697" lon="3.53717">
        <ele>355</ele>
        <time>2024-04-30T17:35:22.000Z</time>
      </trkpt>
      <trkpt lat="45.85697" lon="3.53712">
        <ele>354.79998779297</ele>
        <time>2024-04-30T17:35:23.000Z</time>
      </trkpt>
      <trkpt lat="45.85696" lon="3.53708">
        <ele>354.60000610352</ele>
        <time>2024-04-30T17:35:24.000Z</time>
      </trkpt>
      <trkpt lat="45.85696" lon="3.53704">
        <ele>354.60000610352</ele>
        <time>2024-04-30T17:35:25.000Z</time>
      </trkpt>
      <trkpt lat="45.85696" lon="3.537">
        <ele>354.39999389648</ele>
        <time>2024-04-30T17:35:26.000Z</time>
      </trkpt>
      <trkpt lat="45.85697" lon="3.53697">
        <ele>354.20001220703</ele>
        <time>2024-04-30T17:35:27.000Z</time>
      </trkpt>
      <trkpt lat="45.85697" lon="3.53693">
        <ele>354.20001220703</ele>
        <time>2024-04-30T17:35:28.000Z</time>
      </trkpt>
      <trkpt lat="45.85697" lon="3.53689">
        <ele>354</ele>
        <time>2024-04-30T17:35:29.000Z</time>
      </trkpt>
      <trkpt lat="45.85697" lon="3.53684">
        <ele>353.79998779297</ele>
        <time>2024-04-30T17:35:30.000Z</time>
      </trkpt>
      <trkpt lat="45.85697" lon="3.53679">
        <ele>353.60000610352</ele>
        <time>2024-04-30T17:35:31.000Z</time>
      </trkpt>
      <trkpt lat="45.85698" lon="3.53676">
        <ele>353.60000610352</ele>
        <time>2024-04-30T17:35:32.000Z</time>
      </trkpt>
      <trkpt lat="45.85698" lon="3.53672">
        <ele>353.60000610352</ele>
        <time>2024-04-30T17:35:33.000Z</time>
      </trkpt>
      <trkpt lat="45.85698" lon="3.53668">
        <ele>353.39999389648</ele>
        <time>2024-04-30T17:35:34.000Z</time>
      </trkpt>
      <trkpt lat="45.85699" lon="3.53663">
        <ele>353.20001220703</ele>
        <time>2024-04-30T17:35:35.000Z</time>
      </trkpt>
      <trkpt lat="45.85699" lon="3.53659">
        <ele>353.20001220703</ele>
        <time>2024-04-30T17:35:36.000Z</time>
      </trkpt>
      <trkpt lat="45.857" lon="3.53656">
        <ele>353.20001220703</ele>
        <time>2024-04-30T17:35:37.000Z</time>
      </trkpt>
      <trkpt lat="45.85701" lon="3.53651">
        <ele>352.79998779297</ele>
        <time>2024-04-30T17:35:38.000Z</time>
      </trkpt>
      <trkpt lat="45.85702" lon="3.53648">
        <ele>352.79998779297</ele>
        <time>2024-04-30T17:35:39.000Z</time>
      </trkpt>
      <trkpt lat="45.85703" lon="3.53644">
        <ele>352.79998779297</ele>
        <time>2024-04-30T17:35:40.000Z</time>
      </trkpt>
      <trkpt lat="45.85704" lon="3.5364">
        <ele>352.39999389648</ele>
        <time>2024-04-30T17:35:41.000Z</time>
      </trkpt>
      <trkpt lat="45.85705" lon="3.53636">
        <ele>352.60000610352</ele>
        <time>2024-04-30T17:35:42.000Z</time>
      </trkpt>
      <trkpt lat="45.85706" lon="3.53632">
        <ele>352.39999389648</ele>
        <time>2024-04-30T17:35:43.000Z</time>
      </trkpt>
      <trkpt lat="45.85707" lon="3.5363">
        <ele>352.39999389648</ele>
        <time>2024-04-30T17:35:44.000Z</time>
      </trkpt>
      <trkpt lat="45.85709" lon="3.53626">
        <ele>352.20001220703</ele>
        <time>2024-04-30T17:35:45.000Z</time>
      </trkpt>
      <trkpt lat="45.8571" lon="3.53624">
        <ele>352.20001220703</ele>
        <time>2024-04-30T17:35:46.000Z</time>
      </trkpt>
      <trkpt lat="45.85712" lon="3.5362">
        <ele>352</ele>
        <time>2024-04-30T17:35:47.000Z</time>
      </trkpt>
      <trkpt lat="45.85712" lon="3.53616">
        <ele>351.39999389648</ele>
        <time>2024-04-30T17:35:48.000Z</time>
      </trkpt>
      <trkpt lat="45.85713" lon="3.53612">
        <ele>351.39999389648</ele>
        <time>2024-04-30T17:35:49.000Z</time>
      </trkpt>
      <trkpt lat="45.85713" lon="3.53607">
        <ele>351.20001220703</ele>
        <time>2024-04-30T17:35:50.000Z</time>
      </trkpt>
      <trkpt lat="45.85715" lon="3.53604">
        <ele>351.20001220703</ele>
        <time>2024-04-30T17:35:51.000Z</time>
      </trkpt>
      <trkpt lat="45.85717" lon="3.53602">
        <ele>351</ele>
        <time>2024-04-30T17:35:52.000Z</time>
      </trkpt>
      <trkpt lat="45.85718" lon="3.53598">
        <ele>351.60000610352</ele>
        <time>2024-04-30T17:35:53.000Z</time>
      </trkpt>
      <trkpt lat="45.8572" lon="3.53595">
        <ele>351.39999389648</ele>
        <time>2024-04-30T17:35:54.000Z</time>
      </trkpt>
      <trkpt lat="45.85722" lon="3.53592">
        <ele>351.20001220703</ele>
        <time>2024-04-30T17:35:55.000Z</time>
      </trkpt>
      <trkpt lat="45.85725" lon="3.5359">
        <ele>350.79998779297</ele>
        <time>2024-04-30T17:35:56.000Z</time>
      </trkpt>
      <trkpt lat="45.85727" lon="3.53588">
        <ele>350.79998779297</ele>
        <time>2024-04-30T17:35:57.000Z</time>
      </trkpt>
      <trkpt lat="45.85729" lon="3.53586">
        <ele>350</ele>
        <time>2024-04-30T17:35:58.000Z</time>
      </trkpt>
      <trkpt lat="45.85732" lon="3.53583">
        <ele>350</ele>
        <time>2024-04-30T17:35:59.000Z</time>
      </trkpt>
      <trkpt lat="45.85733" lon="3.53579">
        <ele>349.79998779297</ele>
        <time>2024-04-30T17:36:00.000Z</time>
      </trkpt>
      <trkpt lat="45.85734" lon="3.53575">
        <ele>349.60000610352</ele>
        <time>2024-04-30T17:36:01.000Z</time>
      </trkpt>
      <trkpt lat="45.85733" lon="3.53571">
        <ele>349.39999389648</ele>
        <time>2024-04-30T17:36:02.000Z</time>
      </trkpt>
      <trkpt lat="45.85732" lon="3.53568">
        <ele>349.39999389648</ele>
        <time>2024-04-30T17:36:03.000Z</time>
      </trkpt>
      <trkpt lat="45.8573" lon="3.53566">
        <ele>349.20001220703</ele>
        <time>2024-04-30T17:36:04.000Z</time>
      </trkpt>
      <trkpt lat="45.85727" lon="3.53566">
        <ele>348.79998779297</ele>
        <time>2024-04-30T17:36:05.000Z</time>
      </trkpt>
      <trkpt lat="45.85724" lon="3.53567">
        <ele>348.60000610352</ele>
        <time>2024-04-30T17:36:06.000Z</time>
      </trkpt>
      <trkpt lat="45.8572" lon="3.53569">
        <ele>348.39999389648</ele>
        <time>2024-04-30T17:36:07.000Z</time>
      </trkpt>
      <trkpt lat="45.85718" lon="3.5357">
        <ele>348</ele>
        <time>2024-04-30T17:36:08.000Z</time>
      </trkpt>
      <trkpt lat="45.85715" lon="3.53571">
        <ele>347.39999389648</ele>
        <time>2024-04-30T17:36:09.000Z</time>
      </trkpt>
      <trkpt lat="45.85712" lon="3.53573">
        <ele>347.20001220703</ele>
        <time>2024-04-30T17:36:10.000Z</time>
      </trkpt>
      <trkpt lat="45.85709" lon="3.53575">
        <ele>346.79998779297</ele>
        <time>2024-04-30T17:36:11.000Z</time>
      </trkpt>
      <trkpt lat="45.85705" lon="3.53577">
        <ele>346.60000610352</ele>
        <time>2024-04-30T17:36:12.000Z</time>
      </trkpt>
      <trkpt lat="45.85702" lon="3.53579">
        <ele>346.39999389648</ele>
        <time>2024-04-30T17:36:13.000Z</time>
      </trkpt>
      <trkpt lat="45.857" lon="3.53581">
        <ele>346.20001220703</ele>
        <time>2024-04-30T17:36:14.000Z</time>
      </trkpt>
      <trkpt lat="45.85697" lon="3.53582">
        <ele>346.20001220703</ele>
        <time>2024-04-30T17:36:15.000Z</time>
      </trkpt>
      <trkpt lat="45.85693" lon="3.53584">
        <ele>346</ele>
        <time>2024-04-30T17:36:16.000Z</time>
      </trkpt>
      <trkpt lat="45.85691" lon="3.53586">
        <ele>345.79998779297</ele>
        <time>2024-04-30T17:36:17.000Z</time>
      </trkpt>
      <trkpt lat="45.85689" lon="3.53589">
        <ele>345.79998779297</ele>
        <time>2024-04-30T17:36:18.000Z</time>
      </trkpt>
      <trkpt lat="45.85686" lon="3.53592">
        <ele>345.60000610352</ele>
        <time>2024-04-30T17:36:19.000Z</time>
      </trkpt>
      <trkpt lat="45.85684" lon="3.53596">
        <ele>345.39999389648</ele>
        <time>2024-04-30T17:36:20.000Z</time>
      </trkpt>
      <trkpt lat="45.85682" lon="3.53599">
        <ele>345.20001220703</ele>
        <time>2024-04-30T17:36:21.000Z</time>
      </trkpt>
      <trkpt lat="45.8568" lon="3.53602">
        <ele>345</ele>
        <time>2024-04-30T17:36:22.000Z</time>
      </trkpt>
      <trkpt lat="45.85678" lon="3.53606">
        <ele>345</ele>
        <time>2024-04-30T17:36:23.000Z</time>
      </trkpt>
      <trkpt lat="45.85676" lon="3.53608">
        <ele>344.79998779297</ele>
        <time>2024-04-30T17:36:24.000Z</time>
      </trkpt>
      <trkpt lat="45.85673" lon="3.53612">
        <ele>344.60000610352</ele>
        <time>2024-04-30T17:36:25.000Z</time>
      </trkpt>
      <trkpt lat="45.85671" lon="3.53615">
        <ele>344.39999389648</ele>
        <time>2024-04-30T17:36:26.000Z</time>
      </trkpt>
      <trkpt lat="45.85669" lon="3.53618">
        <ele>344.20001220703</ele>
        <time>2024-04-30T17:36:27.000Z</time>
      </trkpt>
      <trkpt lat="45.85666" lon="3.5362">
        <ele>343.79998779297</ele>
        <time>2024-04-30T17:36:28.000Z</time>
      </trkpt>
      <trkpt lat="45.85664" lon="3.53622">
        <ele>343.79998779297</ele>
        <time>2024-04-30T17:36:29.000Z</time>
      </trkpt>
      <trkpt lat="45.85661" lon="3.53626">
        <ele>343.60000610352</ele>
        <time>2024-04-30T17:36:30.000Z</time>
      </trkpt>
      <trkpt lat="45.8566" lon="3.5363">
        <ele>343.39999389648</ele>
        <time>2024-04-30T17:36:31.000Z</time>
      </trkpt>
      <trkpt lat="45.85658" lon="3.53632">
        <ele>343</ele>
        <time>2024-04-30T17:36:32.000Z</time>
      </trkpt>
      <trkpt lat="45.85655" lon="3.53635">
        <ele>343</ele>
        <time>2024-04-30T17:36:33.000Z</time>
      </trkpt>
      <trkpt lat="45.85654" lon="3.53639">
        <ele>342.79998779297</ele>
        <time>2024-04-30T17:36:34.000Z</time>
      </trkpt>
      <trkpt lat="45.85651" lon="3.53642">
        <ele>342.79998779297</ele>
        <time>2024-04-30T17:36:35.000Z</time>
      </trkpt>
      <trkpt lat="45.85649" lon="3.53645">
        <ele>342.79998779297</ele>
        <time>2024-04-30T17:36:36.000Z</time>
      </trkpt>
      <trkpt lat="45.85647" lon="3.53648">
        <ele>342.60000610352</ele>
        <time>2024-04-30T17:36:37.000Z</time>
      </trkpt>
      <trkpt lat="45.85645" lon="3.53652">
        <ele>342.20001220703</ele>
        <time>2024-04-30T17:36:38.000Z</time>
      </trkpt>
      <trkpt lat="45.85645" lon="3.53655">
        <ele>342</ele>
        <time>2024-04-30T17:36:39.000Z</time>
      </trkpt>
      <trkpt lat="45.85643" lon="3.5366">
        <ele>342</ele>
        <time>2024-04-30T17:36:40.000Z</time>
      </trkpt>
      <trkpt lat="45.85642" lon="3.53663">
        <ele>342</ele>
        <time>2024-04-30T17:36:41.000Z</time>
      </trkpt>
      <trkpt lat="45.85639" lon="3.53667">
        <ele>341.39999389648</ele>
        <time>2024-04-30T17:36:42.000Z</time>
      </trkpt>
      <trkpt lat="45.85637" lon="3.5367">
        <ele>341.39999389648</ele>
        <time>2024-04-30T17:36:43.000Z</time>
      </trkpt>
      <trkpt lat="45.85635" lon="3.53673">
        <ele>341.20001220703</ele>
        <time>2024-04-30T17:36:44.000Z</time>
      </trkpt>
      <trkpt lat="45.85634" lon="3.53677">
        <ele>341</ele>
        <time>2024-04-30T17:36:45.000Z</time>
      </trkpt>
      <trkpt lat="45.85632" lon="3.53679">
        <ele>340.79998779297</ele>
        <time>2024-04-30T17:36:46.000Z</time>
      </trkpt>
      <trkpt lat="45.8563" lon="3.53681">
        <ele>340.39999389648</ele>
        <time>2024-04-30T17:36:47.000Z</time>
      </trkpt>
      <trkpt lat="45.85629" lon="3.53683">
        <ele>340.39999389648</ele>
        <time>2024-04-30T17:36:48.000Z</time>
      </trkpt>
      <trkpt lat="45.85626" lon="3.53685">
        <ele>340.20001220703</ele>
        <time>2024-04-30T17:36:49.000Z</time>
      </trkpt>
      <trkpt lat="45.85623" lon="3.53689">
        <ele>340.20001220703</ele>
        <time>2024-04-30T17:36:50.000Z</time>
      </trkpt>
      <trkpt lat="45.85622" lon="3.53691">
        <ele>339.60000610352</ele>
        <time>2024-04-30T17:36:51.000Z</time>
      </trkpt>
      <trkpt lat="45.8562" lon="3.53694">
        <ele>339.39999389648</ele>
        <time>2024-04-30T17:36:52.000Z</time>
      </trkpt>
      <trkpt lat="45.85618" lon="3.53697">
        <ele>339.39999389648</ele>
        <time>2024-04-30T17:36:53.000Z</time>
      </trkpt>
      <trkpt lat="45.85615" lon="3.537">
        <ele>339.20001220703</ele>
        <time>2024-04-30T17:36:54.000Z</time>
      </trkpt>
      <trkpt lat="45.85612" lon="3.53702">
        <ele>339</ele>
        <time>2024-04-30T17:36:55.000Z</time>
      </trkpt>
      <trkpt lat="45.85609" lon="3.53705">
        <ele>338.79998779297</ele>
        <time>2024-04-30T17:36:56.000Z</time>
      </trkpt>
      <trkpt lat="45.85607" lon="3.53708">
        <ele>338.60000610352</ele>
        <time>2024-04-30T17:36:57.000Z</time>
      </trkpt>
      <trkpt lat="45.85604" lon="3.5371">
        <ele>338.20001220703</ele>
        <time>2024-04-30T17:36:58.000Z</time>
      </trkpt>
      <trkpt lat="45.85603" lon="3.53712">
        <ele>338.20001220703</ele>
        <time>2024-04-30T17:36:59.000Z</time>
      </trkpt>
      <trkpt lat="45.85601" lon="3.53716">
        <ele>337.79998779297</ele>
        <time>2024-04-30T17:37:00.000Z</time>
      </trkpt>
      <trkpt lat="45.85599" lon="3.53719">
        <ele>337.60000610352</ele>
        <time>2024-04-30T17:37:01.000Z</time>
      </trkpt>
      <trkpt lat="45.85596" lon="3.53721">
        <ele>337.39999389648</ele>
        <time>2024-04-30T17:37:02.000Z</time>
      </trkpt>
      <trkpt lat="45.85594" lon="3.53723">
        <ele>337.39999389648</ele>
        <time>2024-04-30T17:37:03.000Z</time>
      </trkpt>
      <trkpt lat="45.85591" lon="3.53726">
        <ele>337</ele>
        <time>2024-04-30T17:37:04.000Z</time>
      </trkpt>
      <trkpt lat="45.85587" lon="3.53727">
        <ele>336.79998779297</ele>
        <time>2024-04-30T17:37:05.000Z</time>
      </trkpt>
      <trkpt lat="45.85584" lon="3.53729">
        <ele>336.60000610352</ele>
        <time>2024-04-30T17:37:06.000Z</time>
      </trkpt>
      <trkpt lat="45.85581" lon="3.53731">
        <ele>336.39999389648</ele>
        <time>2024-04-30T17:37:07.000Z</time>
      </trkpt>
      <trkpt lat="45.85579" lon="3.53733">
        <ele>336.20001220703</ele>
        <time>2024-04-30T17:37:08.000Z</time>
      </trkpt>
      <trkpt lat="45.85576" lon="3.53735">
        <ele>336</ele>
        <time>2024-04-30T17:37:09.000Z</time>
      </trkpt>
      <trkpt lat="45.85573" lon="3.53737">
        <ele>335.79998779297</ele>
        <time>2024-04-30T17:37:10.000Z</time>
      </trkpt>
      <trkpt lat="45.85571" lon="3.5374">
        <ele>335.79998779297</ele>
        <time>2024-04-30T17:37:11.000Z</time>
      </trkpt>
      <trkpt lat="45.85568" lon="3.53742">
        <ele>335.60000610352</ele>
        <time>2024-04-30T17:37:12.000Z</time>
      </trkpt>
      <trkpt lat="45.85565" lon="3.53743">
        <ele>335.20001220703</ele>
        <time>2024-04-30T17:37:13.000Z</time>
      </trkpt>
      <trkpt lat="45.85563" lon="3.53745">
        <ele>335</ele>
        <time>2024-04-30T17:37:14.000Z</time>
      </trkpt>
      <trkpt lat="45.8556" lon="3.53747">
        <ele>334.79998779297</ele>
        <time>2024-04-30T17:37:15.000Z</time>
      </trkpt>
      <trkpt lat="45.85556" lon="3.5375">
        <ele>334.60000610352</ele>
        <time>2024-04-30T17:37:16.000Z</time>
      </trkpt>
      <trkpt lat="45.85553" lon="3.53752">
        <ele>334.39999389648</ele>
        <time>2024-04-30T17:37:17.000Z</time>
      </trkpt>
      <trkpt lat="45.8555" lon="3.53753">
        <ele>334.20001220703</ele>
        <time>2024-04-30T17:37:18.000Z</time>
      </trkpt>
      <trkpt lat="45.85547" lon="3.53755">
        <ele>334</ele>
        <time>2024-04-30T17:37:19.000Z</time>
      </trkpt>
      <trkpt lat="45.85544" lon="3.53757">
        <ele>333.79998779297</ele>
        <time>2024-04-30T17:37:20.000Z</time>
      </trkpt>
      <trkpt lat="45.8554" lon="3.53758">
        <ele>333.79998779297</ele>
        <time>2024-04-30T17:37:21.000Z</time>
      </trkpt>
      <trkpt lat="45.85537" lon="3.53759">
        <ele>333.60000610352</ele>
        <time>2024-04-30T17:37:22.000Z</time>
      </trkpt>
      <trkpt lat="45.85534" lon="3.53761">
        <ele>333.39999389648</ele>
        <time>2024-04-30T17:37:23.000Z</time>
      </trkpt>
      <trkpt lat="45.85532" lon="3.53762">
        <ele>333.20001220703</ele>
        <time>2024-04-30T17:37:24.000Z</time>
      </trkpt>
      <trkpt lat="45.85528" lon="3.53763">
        <ele>333</ele>
        <time>2024-04-30T17:37:25.000Z</time>
      </trkpt>
      <trkpt lat="45.85526" lon="3.53764">
        <ele>333</ele>
        <time>2024-04-30T17:37:26.000Z</time>
      </trkpt>
      <trkpt lat="45.85523" lon="3.53764">
        <ele>332.60000610352</ele>
        <time>2024-04-30T17:37:27.000Z</time>
      </trkpt>
      <trkpt lat="45.8552" lon="3.53765">
        <ele>332.39999389648</ele>
        <time>2024-04-30T17:37:28.000Z</time>
      </trkpt>
      <trkpt lat="45.85517" lon="3.53766">
        <ele>332.60000610352</ele>
        <time>2024-04-30T17:37:29.000Z</time>
      </trkpt>
      <trkpt lat="45.85513" lon="3.53767">
        <ele>332.60000610352</ele>
        <time>2024-04-30T17:37:30.000Z</time>
      </trkpt>
      <trkpt lat="45.8551" lon="3.53769">
        <ele>332.20001220703</ele>
        <time>2024-04-30T17:37:31.000Z</time>
      </trkpt>
      <trkpt lat="45.85507" lon="3.5377">
        <ele>332</ele>
        <time>2024-04-30T17:37:32.000Z</time>
      </trkpt>
      <trkpt lat="45.85504" lon="3.53772">
        <ele>331.79998779297</ele>
        <time>2024-04-30T17:37:33.000Z</time>
      </trkpt>
      <trkpt lat="45.85501" lon="3.53773">
        <ele>331.79998779297</ele>
        <time>2024-04-30T17:37:34.000Z</time>
      </trkpt>
      <trkpt lat="45.85498" lon="3.53774">
        <ele>331.39999389648</ele>
        <time>2024-04-30T17:37:35.000Z</time>
      </trkpt>
      <trkpt lat="45.85495" lon="3.53776">
        <ele>331.20001220703</ele>
        <time>2024-04-30T17:37:36.000Z</time>
      </trkpt>
      <trkpt lat="45.85492" lon="3.53778">
        <ele>331</ele>
        <time>2024-04-30T17:37:37.000Z</time>
      </trkpt>
      <trkpt lat="45.8549" lon="3.53778">
        <ele>331</ele>
        <time>2024-04-30T17:37:38.000Z</time>
      </trkpt>
      <trkpt lat="45.85487" lon="3.53779">
        <ele>330.79998779297</ele>
        <time>2024-04-30T17:37:39.000Z</time>
      </trkpt>
      <trkpt lat="45.85484" lon="3.5378">
        <ele>330.60000610352</ele>
        <time>2024-04-30T17:37:40.000Z</time>
      </trkpt>
      <trkpt lat="45.85481" lon="3.53781">
        <ele>330.39999389648</ele>
        <time>2024-04-30T17:37:41.000Z</time>
      </trkpt>
      <trkpt lat="45.8548" lon="3.53782">
        <ele>330.39999389648</ele>
        <time>2024-04-30T17:37:42.000Z</time>
      </trkpt>
      <trkpt lat="45.85477" lon="3.53783">
        <ele>330.20001220703</ele>
        <time>2024-04-30T17:37:43.000Z</time>
      </trkpt>
      <trkpt lat="45.85475" lon="3.53783">
        <ele>330</ele>
        <time>2024-04-30T17:37:44.000Z</time>
      </trkpt>
      <trkpt lat="45.85472" lon="3.53784">
        <ele>329.60000610352</ele>
        <time>2024-04-30T17:37:45.000Z</time>
      </trkpt>
      <trkpt lat="45.8547" lon="3.53785">
        <ele>329.39999389648</ele>
        <time>2024-04-30T17:37:46.000Z</time>
      </trkpt>
      <trkpt lat="45.85468" lon="3.53786">
        <ele>329.20001220703</ele>
        <time>2024-04-30T17:37:47.000Z</time>
      </trkpt>
      <trkpt lat="45.85465" lon="3.53787">
        <ele>329.20001220703</ele>
        <time>2024-04-30T17:37:48.000Z</time>
      </trkpt>
      <trkpt lat="45.85462" lon="3.53788">
        <ele>329</ele>
        <time>2024-04-30T17:37:49.000Z</time>
      </trkpt>
      <trkpt lat="45.85459" lon="3.5379">
        <ele>328.79998779297</ele>
        <time>2024-04-30T17:37:50.000Z</time>
      </trkpt>
      <trkpt lat="45.85457" lon="3.53791">
        <ele>328.60000610352</ele>
        <time>2024-04-30T17:37:51.000Z</time>
      </trkpt>
      <trkpt lat="45.85454" lon="3.53793">
        <ele>328.79998779297</ele>
        <time>2024-04-30T17:37:52.000Z</time>
      </trkpt>
      <trkpt lat="45.85451" lon="3.53795">
        <ele>328.20001220703</ele>
        <time>2024-04-30T17:37:53.000Z</time>
      </trkpt>
      <trkpt lat="45.85448" lon="3.53796">
        <ele>328</ele>
        <time>2024-04-30T17:37:54.000Z</time>
      </trkpt>
      <trkpt lat="45.85444" lon="3.53797">
        <ele>328</ele>
        <time>2024-04-30T17:37:55.000Z</time>
      </trkpt>
      <trkpt lat="45.85441" lon="3.53798">
        <ele>327.79998779297</ele>
        <time>2024-04-30T17:37:56.000Z</time>
      </trkpt>
      <trkpt lat="45.85439" lon="3.538">
        <ele>327.60000610352</ele>
        <time>2024-04-30T17:37:57.000Z</time>
      </trkpt>
      <trkpt lat="45.85435" lon="3.53802">
        <ele>327.39999389648</ele>
        <time>2024-04-30T17:37:58.000Z</time>
      </trkpt>
      <trkpt lat="45.85432" lon="3.53802">
        <ele>327.39999389648</ele>
        <time>2024-04-30T17:37:59.000Z</time>
      </trkpt>
      <trkpt lat="45.85429" lon="3.53803">
        <ele>327.20001220703</ele>
        <time>2024-04-30T17:38:00.000Z</time>
      </trkpt>
      <trkpt lat="45.85427" lon="3.53804">
        <ele>327.20001220703</ele>
        <time>2024-04-30T17:38:01.000Z</time>
      </trkpt>
      <trkpt lat="45.85425" lon="3.53805">
        <ele>326.79998779297</ele>
        <time>2024-04-30T17:38:02.000Z</time>
      </trkpt>
      <trkpt lat="45.85422" lon="3.53805">
        <ele>326.60000610352</ele>
        <time>2024-04-30T17:38:03.000Z</time>
      </trkpt>
      <trkpt lat="45.8542" lon="3.53806">
        <ele>326.39999389648</ele>
        <time>2024-04-30T17:38:04.000Z</time>
      </trkpt>
      <trkpt lat="45.85416" lon="3.53807">
        <ele>326.20001220703</ele>
        <time>2024-04-30T17:38:05.000Z</time>
      </trkpt>
      <trkpt lat="45.85414" lon="3.53808">
        <ele>326</ele>
        <time>2024-04-30T17:38:06.000Z</time>
      </trkpt>
      <trkpt lat="45.85411" lon="3.53809">
        <ele>325.79998779297</ele>
        <time>2024-04-30T17:38:07.000Z</time>
      </trkpt>
      <trkpt lat="45.85408" lon="3.5381">
        <ele>325.60000610352</ele>
        <time>2024-04-30T17:38:08.000Z</time>
      </trkpt>
      <trkpt lat="45.85406" lon="3.5381">
        <ele>325.39999389648</ele>
        <time>2024-04-30T17:38:09.000Z</time>
      </trkpt>
      <trkpt lat="45.85402" lon="3.53811">
        <ele>325.20001220703</ele>
        <time>2024-04-30T17:38:10.000Z</time>
      </trkpt>
      <trkpt lat="45.854" lon="3.53811">
        <ele>325</ele>
        <time>2024-04-30T17:38:11.000Z</time>
      </trkpt>
      <trkpt lat="45.85397" lon="3.53812">
        <ele>325</ele>
        <time>2024-04-30T17:38:12.000Z</time>
      </trkpt>
      <trkpt lat="45.85395" lon="3.53814">
        <ele>324.79998779297</ele>
        <time>2024-04-30T17:38:13.000Z</time>
      </trkpt>
      <trkpt lat="45.85392" lon="3.53813">
        <ele>324.60000610352</ele>
        <time>2024-04-30T17:38:14.000Z</time>
      </trkpt>
      <trkpt lat="45.8539" lon="3.53813">
        <ele>324.39999389648</ele>
        <time>2024-04-30T17:38:15.000Z</time>
      </trkpt>
      <trkpt lat="45.85387" lon="3.53814">
        <ele>324.20001220703</ele>
        <time>2024-04-30T17:38:16.000Z</time>
      </trkpt>
      <trkpt lat="45.85385" lon="3.53815">
        <ele>324.20001220703</ele>
        <time>2024-04-30T17:38:17.000Z</time>
      </trkpt>
      <trkpt lat="45.85382" lon="3.53816">
        <ele>324</ele>
        <time>2024-04-30T17:38:18.000Z</time>
      </trkpt>
      <trkpt lat="45.8538" lon="3.53817">
        <ele>323.79998779297</ele>
        <time>2024-04-30T17:38:19.000Z</time>
      </trkpt>
      <trkpt lat="45.85379" lon="3.53818">
        <ele>323.79998779297</ele>
        <time>2024-04-30T17:38:20.000Z</time>
      </trkpt>
      <trkpt lat="45.85376" lon="3.53818">
        <ele>323.60000610352</ele>
        <time>2024-04-30T17:38:21.000Z</time>
      </trkpt>
      <trkpt lat="45.85373" lon="3.53819">
        <ele>323.60000610352</ele>
        <time>2024-04-30T17:38:22.000Z</time>
      </trkpt>
      <trkpt lat="45.8537" lon="3.5382">
        <ele>323.20001220703</ele>
        <time>2024-04-30T17:38:23.000Z</time>
      </trkpt>
      <trkpt lat="45.85367" lon="3.5382">
        <ele>323</ele>
        <time>2024-04-30T17:38:24.000Z</time>
      </trkpt>
      <trkpt lat="45.85363" lon="3.53821">
        <ele>322.79998779297</ele>
        <time>2024-04-30T17:38:25.000Z</time>
      </trkpt>
      <trkpt lat="45.8536" lon="3.53823">
        <ele>322.79998779297</ele>
        <time>2024-04-30T17:38:26.000Z</time>
      </trkpt>
      <trkpt lat="45.85357" lon="3.53823">
        <ele>322.60000610352</ele>
        <time>2024-04-30T17:38:27.000Z</time>
      </trkpt>
      <trkpt lat="45.85355" lon="3.53824">
        <ele>322.60000610352</ele>
        <time>2024-04-30T17:38:28.000Z</time>
      </trkpt>
      <trkpt lat="45.85353" lon="3.53824">
        <ele>322.60000610352</ele>
        <time>2024-04-30T17:38:29.000Z</time>
      </trkpt>
      <trkpt lat="45.8535" lon="3.53824">
        <ele>322.39999389648</ele>
        <time>2024-04-30T17:38:30.000Z</time>
      </trkpt>
      <trkpt lat="45.85347" lon="3.53824">
        <ele>322.20001220703</ele>
        <time>2024-04-30T17:38:31.000Z</time>
      </trkpt>
      <trkpt lat="45.85344" lon="3.53824">
        <ele>321.79998779297</ele>
        <time>2024-04-30T17:38:32.000Z</time>
      </trkpt>
      <trkpt lat="45.85341" lon="3.53825">
        <ele>321.60000610352</ele>
        <time>2024-04-30T17:38:33.000Z</time>
      </trkpt>
      <trkpt lat="45.8534" lon="3.53825">
        <ele>321.20001220703</ele>
        <time>2024-04-30T17:38:34.000Z</time>
      </trkpt>
      <trkpt lat="45.85338" lon="3.53825">
        <ele>321</ele>
        <time>2024-04-30T17:38:35.000Z</time>
      </trkpt>
      <trkpt lat="45.85335" lon="3.53825">
        <ele>321</ele>
        <time>2024-04-30T17:38:36.000Z</time>
      </trkpt>
      <trkpt lat="45.85332" lon="3.53824">
        <ele>321</ele>
        <time>2024-04-30T17:38:37.000Z</time>
      </trkpt>
      <trkpt lat="45.85328" lon="3.53824">
        <ele>320.79998779297</ele>
        <time>2024-04-30T17:38:38.000Z</time>
      </trkpt>
      <trkpt lat="45.85325" lon="3.53824">
        <ele>320.60000610352</ele>
        <time>2024-04-30T17:38:39.000Z</time>
      </trkpt>
      <trkpt lat="45.85322" lon="3.53824">
        <ele>320.39999389648</ele>
        <time>2024-04-30T17:38:40.000Z</time>
      </trkpt>
      <trkpt lat="45.85319" lon="3.53823">
        <ele>320.39999389648</ele>
        <time>2024-04-30T17:38:41.000Z</time>
      </trkpt>
      <trkpt lat="45.85316" lon="3.53822">
        <ele>319.79998779297</ele>
        <time>2024-04-30T17:38:42.000Z</time>
      </trkpt>
      <trkpt lat="45.85313" lon="3.53821">
        <ele>319.60000610352</ele>
        <time>2024-04-30T17:38:43.000Z</time>
      </trkpt>
      <trkpt lat="45.8531" lon="3.5382">
        <ele>319.60000610352</ele>
        <time>2024-04-30T17:38:44.000Z</time>
      </trkpt>
      <trkpt lat="45.85306" lon="3.53818">
        <ele>319.39999389648</ele>
        <time>2024-04-30T17:38:45.000Z</time>
      </trkpt>
      <trkpt lat="45.85303" lon="3.53817">
        <ele>319.39999389648</ele>
        <time>2024-04-30T17:38:46.000Z</time>
      </trkpt>
      <trkpt lat="45.853" lon="3.53816">
        <ele>319.20001220703</ele>
        <time>2024-04-30T17:38:47.000Z</time>
      </trkpt>
      <trkpt lat="45.85298" lon="3.53816">
        <ele>319</ele>
        <time>2024-04-30T17:38:48.000Z</time>
      </trkpt>
      <trkpt lat="45.85295" lon="3.53814">
        <ele>319</ele>
        <time>2024-04-30T17:38:49.000Z</time>
      </trkpt>
      <trkpt lat="45.85293" lon="3.53813">
        <ele>318.79998779297</ele>
        <time>2024-04-30T17:38:50.000Z</time>
      </trkpt>
      <trkpt lat="45.8529" lon="3.53812">
        <ele>318.60000610352</ele>
        <time>2024-04-30T17:38:51.000Z</time>
      </trkpt>
      <trkpt lat="45.85287" lon="3.53811">
        <ele>318.60000610352</ele>
        <time>2024-04-30T17:38:52.000Z</time>
      </trkpt>
      <trkpt lat="45.85285" lon="3.5381">
        <ele>318.39999389648</ele>
        <time>2024-04-30T17:38:53.000Z</time>
      </trkpt>
      <trkpt lat="45.85282" lon="3.53809">
        <ele>318.39999389648</ele>
        <time>2024-04-30T17:38:54.000Z</time>
      </trkpt>
      <trkpt lat="45.85279" lon="3.53808">
        <ele>318.20001220703</ele>
        <time>2024-04-30T17:38:55.000Z</time>
      </trkpt>
      <trkpt lat="45.85277" lon="3.53807">
        <ele>318.20001220703</ele>
        <time>2024-04-30T17:38:56.000Z</time>
      </trkpt>
      <trkpt lat="45.85274" lon="3.53806">
        <ele>318</ele>
        <time>2024-04-30T17:38:57.000Z</time>
      </trkpt>
      <trkpt lat="45.85271" lon="3.53805">
        <ele>318</ele>
        <time>2024-04-30T17:38:58.000Z</time>
      </trkpt>
      <trkpt lat="45.85269" lon="3.53804">
        <ele>318</ele>
        <time>2024-04-30T17:38:59.000Z</time>
      </trkpt>
      <trkpt lat="45.85265" lon="3.53803">
        <ele>317.79998779297</ele>
        <time>2024-04-30T17:39:00.000Z</time>
      </trkpt>
      <trkpt lat="45.85262" lon="3.53802">
        <ele>317.60000610352</ele>
        <time>2024-04-30T17:39:01.000Z</time>
      </trkpt>
      <trkpt lat="45.85259" lon="3.53801">
        <ele>317.60000610352</ele>
        <time>2024-04-30T17:39:02.000Z</time>
      </trkpt>
      <trkpt lat="45.85256" lon="3.538">
        <ele>317.39999389648</ele>
        <time>2024-04-30T17:39:03.000Z</time>
      </trkpt>
      <trkpt lat="45.85254" lon="3.53799">
        <ele>317.20001220703</ele>
        <time>2024-04-30T17:39:04.000Z</time>
      </trkpt>
      <trkpt lat="45.85251" lon="3.53799">
        <ele>317</ele>
        <time>2024-04-30T17:39:05.000Z</time>
      </trkpt>
      <trkpt lat="45.85248" lon="3.53799">
        <ele>316.79998779297</ele>
        <time>2024-04-30T17:39:06.000Z</time>
      </trkpt>
      <trkpt lat="45.85245" lon="3.53798">
        <ele>316.60000610352</ele>
        <time>2024-04-30T17:39:07.000Z</time>
      </trkpt>
      <trkpt lat="45.85243" lon="3.53796">
        <ele>316.39999389648</ele>
        <time>2024-04-30T17:39:08.000Z</time>
      </trkpt>
      <trkpt lat="45.8524" lon="3.53794">
        <ele>316.20001220703</ele>
        <time>2024-04-30T17:39:09.000Z</time>
      </trkpt>
      <trkpt lat="45.85237" lon="3.53793">
        <ele>316.20001220703</ele>
        <time>2024-04-30T17:39:10.000Z</time>
      </trkpt>
      <trkpt lat="45.85233" lon="3.53792">
        <ele>316</ele>
        <time>2024-04-30T17:39:11.000Z</time>
      </trkpt>
      <trkpt lat="45.85231" lon="3.53792">
        <ele>315.79998779297</ele>
        <time>2024-04-30T17:39:12.000Z</time>
      </trkpt>
      <trkpt lat="45.85228" lon="3.53791">
        <ele>315.60000610352</ele>
        <time>2024-04-30T17:39:13.000Z</time>
      </trkpt>
      <trkpt lat="45.85225" lon="3.5379">
        <ele>315.39999389648</ele>
        <time>2024-04-30T17:39:14.000Z</time>
      </trkpt>
      <trkpt lat="45.85222" lon="3.5379">
        <ele>315.39999389648</ele>
        <time>2024-04-30T17:39:15.000Z</time>
      </trkpt>
      <trkpt lat="45.85219" lon="3.53789">
        <ele>315.20001220703</ele>
        <time>2024-04-30T17:39:16.000Z</time>
      </trkpt>
      <trkpt lat="45.85216" lon="3.53789">
        <ele>315.39999389648</ele>
        <time>2024-04-30T17:39:17.000Z</time>
      </trkpt>
      <trkpt lat="45.85213" lon="3.53787">
        <ele>315</ele>
        <time>2024-04-30T17:39:18.000Z</time>
      </trkpt>
      <trkpt lat="45.85211" lon="3.53787">
        <ele>314.79998779297</ele>
        <time>2024-04-30T17:39:19.000Z</time>
      </trkpt>
      <trkpt lat="45.85207" lon="3.53785">
        <ele>314.60000610352</ele>
        <time>2024-04-30T17:39:20.000Z</time>
      </trkpt>
      <trkpt lat="45.85205" lon="3.53784">
        <ele>314.60000610352</ele>
        <time>2024-04-30T17:39:21.000Z</time>
      </trkpt>
      <trkpt lat="45.85202" lon="3.53783">
        <ele>314.60000610352</ele>
        <time>2024-04-30T17:39:22.000Z</time>
      </trkpt>
      <trkpt lat="45.85198" lon="3.53783">
        <ele>314.39999389648</ele>
        <time>2024-04-30T17:39:23.000Z</time>
      </trkpt>
      <trkpt lat="45.85196" lon="3.53782">
        <ele>314.39999389648</ele>
        <time>2024-04-30T17:39:24.000Z</time>
      </trkpt>
      <trkpt lat="45.85193" lon="3.53781">
        <ele>314.20001220703</ele>
        <time>2024-04-30T17:39:25.000Z</time>
      </trkpt>
      <trkpt lat="45.8519" lon="3.53781">
        <ele>314.20001220703</ele>
        <time>2024-04-30T17:39:26.000Z</time>
      </trkpt>
      <trkpt lat="45.85187" lon="3.53781">
        <ele>313.79998779297</ele>
        <time>2024-04-30T17:39:27.000Z</time>
      </trkpt>
      <trkpt lat="45.85184" lon="3.53781">
        <ele>313.79998779297</ele>
        <time>2024-04-30T17:39:28.000Z</time>
      </trkpt>
      <trkpt lat="45.85182" lon="3.53781">
        <ele>313.60000610352</ele>
        <time>2024-04-30T17:39:29.000Z</time>
      </trkpt>
      <trkpt lat="45.85179" lon="3.53781">
        <ele>313.39999389648</ele>
        <time>2024-04-30T17:39:30.000Z</time>
      </trkpt>
      <trkpt lat="45.85176" lon="3.53781">
        <ele>313.20001220703</ele>
        <time>2024-04-30T17:39:31.000Z</time>
      </trkpt>
      <trkpt lat="45.85173" lon="3.53781">
        <ele>313.20001220703</ele>
        <time>2024-04-30T17:39:32.000Z</time>
      </trkpt>
      <trkpt lat="45.8517" lon="3.53782">
        <ele>313.20001220703</ele>
        <time>2024-04-30T17:39:33.000Z</time>
      </trkpt>
      <trkpt lat="45.85167" lon="3.53782">
        <ele>313</ele>
        <time>2024-04-30T17:39:34.000Z</time>
      </trkpt>
      <trkpt lat="45.85163" lon="3.53783">
        <ele>313</ele>
        <time>2024-04-30T17:39:35.000Z</time>
      </trkpt>
      <trkpt lat="45.85161" lon="3.53783">
        <ele>312.79998779297</ele>
        <time>2024-04-30T17:39:36.000Z</time>
      </trkpt>
      <trkpt lat="45.85158" lon="3.53783">
        <ele>312.79998779297</ele>
        <time>2024-04-30T17:39:37.000Z</time>
      </trkpt>
      <trkpt lat="45.85156" lon="3.53784">
        <ele>312.60000610352</ele>
        <time>2024-04-30T17:39:38.000Z</time>
      </trkpt>
      <trkpt lat="45.85153" lon="3.53785">
        <ele>312.60000610352</ele>
        <time>2024-04-30T17:39:39.000Z</time>
      </trkpt>
      <trkpt lat="45.8515" lon="3.53786">
        <ele>312.39999389648</ele>
        <time>2024-04-30T17:39:40.000Z</time>
      </trkpt>
      <trkpt lat="45.85147" lon="3.53787">
        <ele>312.20001220703</ele>
        <time>2024-04-30T17:39:41.000Z</time>
      </trkpt>
      <trkpt lat="45.85144" lon="3.53787">
        <ele>312.20001220703</ele>
        <time>2024-04-30T17:39:42.000Z</time>
      </trkpt>
      <trkpt lat="45.85141" lon="3.53787">
        <ele>312</ele>
        <time>2024-04-30T17:39:43.000Z</time>
      </trkpt>
      <trkpt lat="45.85139" lon="3.53788">
        <ele>311.79998779297</ele>
        <time>2024-04-30T17:39:44.000Z</time>
      </trkpt>
      <trkpt lat="45.85136" lon="3.53789">
        <ele>311.79998779297</ele>
        <time>2024-04-30T17:39:45.000Z</time>
      </trkpt>
      <trkpt lat="45.85133" lon="3.5379">
        <ele>311.60000610352</ele>
        <time>2024-04-30T17:39:46.000Z</time>
      </trkpt>
      <trkpt lat="45.8513" lon="3.53791">
        <ele>311.39999389648</ele>
        <time>2024-04-30T17:39:47.000Z</time>
      </trkpt>
      <trkpt lat="45.85128" lon="3.53792">
        <ele>311.20001220703</ele>
        <time>2024-04-30T17:39:48.000Z</time>
      </trkpt>
      <trkpt lat="45.85125" lon="3.53793">
        <ele>311</ele>
        <time>2024-04-30T17:39:49.000Z</time>
      </trkpt>
      <trkpt lat="45.85122" lon="3.53795">
        <ele>310.79998779297</ele>
        <time>2024-04-30T17:39:50.000Z</time>
      </trkpt>
      <trkpt lat="45.8512" lon="3.53797">
        <ele>311</ele>
        <time>2024-04-30T17:39:51.000Z</time>
      </trkpt>
      <trkpt lat="45.85118" lon="3.53799">
        <ele>310.79998779297</ele>
        <time>2024-04-30T17:39:52.000Z</time>
      </trkpt>
      <trkpt lat="45.85115" lon="3.53801">
        <ele>310.60000610352</ele>
        <time>2024-04-30T17:39:53.000Z</time>
      </trkpt>
      <trkpt lat="45.85113" lon="3.53803">
        <ele>310.39999389648</ele>
        <time>2024-04-30T17:39:54.000Z</time>
      </trkpt>
      <trkpt lat="45.85111" lon="3.53805">
        <ele>310.20001220703</ele>
        <time>2024-04-30T17:39:55.000Z</time>
      </trkpt>
      <trkpt lat="45.85109" lon="3.53808">
        <ele>310</ele>
        <time>2024-04-30T17:39:56.000Z</time>
      </trkpt>
      <trkpt lat="45.85107" lon="3.53809">
        <ele>310.20001220703</ele>
        <time>2024-04-30T17:39:57.000Z</time>
      </trkpt>
      <trkpt lat="45.85104" lon="3.53811">
        <ele>310.20001220703</ele>
        <time>2024-04-30T17:39:58.000Z</time>
      </trkpt>
      <trkpt lat="45.85102" lon="3.53812">
        <ele>310.20001220703</ele>
        <time>2024-04-30T17:39:59.000Z</time>
      </trkpt>
      <trkpt lat="45.85099" lon="3.53813">
        <ele>310.20001220703</ele>
        <time>2024-04-30T17:40:00.000Z</time>
      </trkpt>
      <trkpt lat="45.85097" lon="3.53815">
        <ele>310.20001220703</ele>
        <time>2024-04-30T17:40:01.000Z</time>
      </trkpt>
      <trkpt lat="45.85094" lon="3.53817">
        <ele>310</ele>
        <time>2024-04-30T17:40:02.000Z</time>
      </trkpt>
      <trkpt lat="45.85092" lon="3.53819">
        <ele>310.39999389648</ele>
        <time>2024-04-30T17:40:03.000Z</time>
      </trkpt>
      <trkpt lat="45.85089" lon="3.5382">
        <ele>310.39999389648</ele>
        <time>2024-04-30T17:40:04.000Z</time>
      </trkpt>
      <trkpt lat="45.85086" lon="3.53822">
        <ele>310.39999389648</ele>
        <time>2024-04-30T17:40:05.000Z</time>
      </trkpt>
      <trkpt lat="45.85084" lon="3.53823">
        <ele>310.39999389648</ele>
        <time>2024-04-30T17:40:06.000Z</time>
      </trkpt>
      <trkpt lat="45.85081" lon="3.53825">
        <ele>310.39999389648</ele>
        <time>2024-04-30T17:40:07.000Z</time>
      </trkpt>
      <trkpt lat="45.85079" lon="3.53827">
        <ele>310.39999389648</ele>
        <time>2024-04-30T17:40:08.000Z</time>
      </trkpt>
      <trkpt lat="45.85076" lon="3.53828">
        <ele>310.60000610352</ele>
        <time>2024-04-30T17:40:09.000Z</time>
      </trkpt>
      <trkpt lat="45.85074" lon="3.5383">
        <ele>310.39999389648</ele>
        <time>2024-04-30T17:40:10.000Z</time>
      </trkpt>
      <trkpt lat="45.85071" lon="3.5383">
        <ele>310.39999389648</ele>
        <time>2024-04-30T17:40:11.000Z</time>
      </trkpt>
      <trkpt lat="45.85068" lon="3.53831">
        <ele>310.39999389648</ele>
        <time>2024-04-30T17:40:12.000Z</time>
      </trkpt>
      <trkpt lat="45.85065" lon="3.53832">
        <ele>310.39999389648</ele>
        <time>2024-04-30T17:40:13.000Z</time>
      </trkpt>
      <trkpt lat="45.85062" lon="3.53832">
        <ele>310.39999389648</ele>
        <time>2024-04-30T17:40:14.000Z</time>
      </trkpt>
      <trkpt lat="45.85059" lon="3.53832">
        <ele>310.39999389648</ele>
        <time>2024-04-30T17:40:15.000Z</time>
      </trkpt>
      <trkpt lat="45.85056" lon="3.53833">
        <ele>310.20001220703</ele>
        <time>2024-04-30T17:40:16.000Z</time>
      </trkpt>
      <trkpt lat="45.85053" lon="3.53833">
        <ele>310.20001220703</ele>
        <time>2024-04-30T17:40:17.000Z</time>
      </trkpt>
      <trkpt lat="45.85051" lon="3.53832">
        <ele>310.39999389648</ele>
        <time>2024-04-30T17:40:18.000Z</time>
      </trkpt>
      <trkpt lat="45.85048" lon="3.53832">
        <ele>310.20001220703</ele>
        <time>2024-04-30T17:40:19.000Z</time>
      </trkpt>
      <trkpt lat="45.85044" lon="3.5383">
        <ele>310.20001220703</ele>
        <time>2024-04-30T17:40:20.000Z</time>
      </trkpt>
      <trkpt lat="45.85041" lon="3.53829">
        <ele>310.20001220703</ele>
        <time>2024-04-30T17:40:21.000Z</time>
      </trkpt>
      <trkpt lat="45.85038" lon="3.53827">
        <ele>310</ele>
        <time>2024-04-30T17:40:22.000Z</time>
      </trkpt>
      <trkpt lat="45.85036" lon="3.53824">
        <ele>309.79998779297</ele>
        <time>2024-04-30T17:40:23.000Z</time>
      </trkpt>
      <trkpt lat="45.85034" lon="3.53822">
        <ele>309.79998779297</ele>
        <time>2024-04-30T17:40:24.000Z</time>
      </trkpt>
      <trkpt lat="45.85031" lon="3.53818">
        <ele>309.79998779297</ele>
        <time>2024-04-30T17:40:25.000Z</time>
      </trkpt>
      <trkpt lat="45.8503" lon="3.53815">
        <ele>309.39999389648</ele>
        <time>2024-04-30T17:40:26.000Z</time>
      </trkpt>
      <trkpt lat="45.85028" lon="3.53812">
        <ele>309.20001220703</ele>
        <time>2024-04-30T17:40:27.000Z</time>
      </trkpt>
      <trkpt lat="45.85026" lon="3.53809">
        <ele>308.79998779297</ele>
        <time>2024-04-30T17:40:28.000Z</time>
      </trkpt>
      <trkpt lat="45.85024" lon="3.53807">
        <ele>308.79998779297</ele>
        <time>2024-04-30T17:40:29.000Z</time>
      </trkpt>
      <trkpt lat="45.85022" lon="3.53805">
        <ele>308.79998779297</ele>
        <time>2024-04-30T17:40:30.000Z</time>
      </trkpt>
      <trkpt lat="45.85019" lon="3.53804">
        <ele>309</ele>
        <time>2024-04-30T17:40:31.000Z</time>
      </trkpt>
      <trkpt lat="45.85016" lon="3.53802">
        <ele>309</ele>
        <time>2024-04-30T17:40:32.000Z</time>
      </trkpt>
      <trkpt lat="45.85014" lon="3.53802">
        <ele>308.79998779297</ele>
        <time>2024-04-30T17:40:33.000Z</time>
      </trkpt>
      <trkpt lat="45.85011" lon="3.53801">
        <ele>308.79998779297</ele>
        <time>2024-04-30T17:40:34.000Z</time>
      </trkpt>
      <trkpt lat="45.85008" lon="3.538">
        <ele>308.60000610352</ele>
        <time>2024-04-30T17:40:35.000Z</time>
      </trkpt>
      <trkpt lat="45.85006" lon="3.538">
        <ele>308.60000610352</ele>
        <time>2024-04-30T17:40:36.000Z</time>
      </trkpt>
      <trkpt lat="45.85003" lon="3.538">
        <ele>308.79998779297</ele>
        <time>2024-04-30T17:40:37.000Z</time>
      </trkpt>
      <trkpt lat="45.85001" lon="3.53799">
        <ele>308.60000610352</ele>
        <time>2024-04-30T17:40:38.000Z</time>
      </trkpt>
      <trkpt lat="45.84998" lon="3.53798">
        <ele>308.39999389648</ele>
        <time>2024-04-30T17:40:39.000Z</time>
      </trkpt>
      <trkpt lat="45.84996" lon="3.53795">
        <ele>308.39999389648</ele>
        <time>2024-04-30T17:40:40.000Z</time>
      </trkpt>
      <trkpt lat="45.84994" lon="3.53793">
        <ele>308.20001220703</ele>
        <time>2024-04-30T17:40:41.000Z</time>
      </trkpt>
      <trkpt lat="45.84994" lon="3.5379">
        <ele>308.20001220703</ele>
        <time>2024-04-30T17:40:42.000Z</time>
      </trkpt>
      <trkpt lat="45.84993" lon="3.53788">
        <ele>308.39999389648</ele>
        <time>2024-04-30T17:40:43.000Z</time>
      </trkpt>
      <trkpt lat="45.84992" lon="3.53785">
        <ele>308.60000610352</ele>
        <time>2024-04-30T17:40:44.000Z</time>
      </trkpt>
      <trkpt lat="45.8499" lon="3.53781">
        <ele>308.60000610352</ele>
        <time>2024-04-30T17:40:45.000Z</time>
      </trkpt>
      <trkpt lat="45.8499" lon="3.53778">
        <ele>308.60000610352</ele>
        <time>2024-04-30T17:40:46.000Z</time>
      </trkpt>
      <trkpt lat="45.84989" lon="3.53775">
        <ele>308.60000610352</ele>
        <time>2024-04-30T17:40:47.000Z</time>
      </trkpt>
      <trkpt lat="45.84988" lon="3.53772">
        <ele>308.60000610352</ele>
        <time>2024-04-30T17:40:48.000Z</time>
      </trkpt>
      <trkpt lat="45.84986" lon="3.53769">
        <ele>308.39999389648</ele>
        <time>2024-04-30T17:40:49.000Z</time>
      </trkpt>
      <trkpt lat="45.84985" lon="3.53766">
        <ele>308.39999389648</ele>
        <time>2024-04-30T17:40:50.000Z</time>
      </trkpt>
      <trkpt lat="45.84984" lon="3.53763">
        <ele>308.39999389648</ele>
        <time>2024-04-30T17:40:51.000Z</time>
      </trkpt>
      <trkpt lat="45.84983" lon="3.5376">
        <ele>308.20001220703</ele>
        <time>2024-04-30T17:40:52.000Z</time>
      </trkpt>
      <trkpt lat="45.84982" lon="3.53756">
        <ele>308.20001220703</ele>
        <time>2024-04-30T17:40:53.000Z</time>
      </trkpt>
      <trkpt lat="45.84981" lon="3.53753">
        <ele>308.20001220703</ele>
        <time>2024-04-30T17:40:54.000Z</time>
      </trkpt>
      <trkpt lat="45.8498" lon="3.53748">
        <ele>308.20001220703</ele>
        <time>2024-04-30T17:40:55.000Z</time>
      </trkpt>
      <trkpt lat="45.84978" lon="3.53744">
        <ele>308.20001220703</ele>
        <time>2024-04-30T17:40:56.000Z</time>
      </trkpt>
      <trkpt lat="45.84977" lon="3.5374">
        <ele>308.20001220703</ele>
        <time>2024-04-30T17:40:57.000Z</time>
      </trkpt>
      <trkpt lat="45.84975" lon="3.53736">
        <ele>308</ele>
        <time>2024-04-30T17:40:58.000Z</time>
      </trkpt>
      <trkpt lat="45.84974" lon="3.53732">
        <ele>308.20001220703</ele>
        <time>2024-04-30T17:40:59.000Z</time>
      </trkpt>
      <trkpt lat="45.84973" lon="3.53727">
        <ele>308.39999389648</ele>
        <time>2024-04-30T17:41:00.000Z</time>
      </trkpt>
      <trkpt lat="45.84972" lon="3.53722">
        <ele>308.20001220703</ele>
        <time>2024-04-30T17:41:01.000Z</time>
      </trkpt>
      <trkpt lat="45.84971" lon="3.53718">
        <ele>308.20001220703</ele>
        <time>2024-04-30T17:41:02.000Z</time>
      </trkpt>
      <trkpt lat="45.8497" lon="3.53714">
        <ele>308.20001220703</ele>
        <time>2024-04-30T17:41:03.000Z</time>
      </trkpt>
      <trkpt lat="45.84969" lon="3.5371">
        <ele>308</ele>
        <time>2024-04-30T17:41:04.000Z</time>
      </trkpt>
      <trkpt lat="45.84968" lon="3.53706">
        <ele>308</ele>
        <time>2024-04-30T17:41:05.000Z</time>
      </trkpt>
      <trkpt lat="45.84967" lon="3.53702">
        <ele>308.20001220703</ele>
        <time>2024-04-30T17:41:06.000Z</time>
      </trkpt>
      <trkpt lat="45.84966" lon="3.53698">
        <ele>308</ele>
        <time>2024-04-30T17:41:07.000Z</time>
      </trkpt>
      <trkpt lat="45.84965" lon="3.53694">
        <ele>308</ele>
        <time>2024-04-30T17:41:08.000Z</time>
      </trkpt>
      <trkpt lat="45.84963" lon="3.5369">
        <ele>308</ele>
        <time>2024-04-30T17:41:09.000Z</time>
      </trkpt>
      <trkpt lat="45.84962" lon="3.53686">
        <ele>308</ele>
        <time>2024-04-30T17:41:10.000Z</time>
      </trkpt>
      <trkpt lat="45.84961" lon="3.53682">
        <ele>308.20001220703</ele>
        <time>2024-04-30T17:41:11.000Z</time>
      </trkpt>
      <trkpt lat="45.84959" lon="3.53677">
        <ele>308.20001220703</ele>
        <time>2024-04-30T17:41:12.000Z</time>
      </trkpt>
      <trkpt lat="45.84958" lon="3.53673">
        <ele>308.20001220703</ele>
        <time>2024-04-30T17:41:13.000Z</time>
      </trkpt>
      <trkpt lat="45.84957" lon="3.53669">
        <ele>308.20001220703</ele>
        <time>2024-04-30T17:41:14.000Z</time>
      </trkpt>
      <trkpt lat="45.84955" lon="3.53664">
        <ele>308</ele>
        <time>2024-04-30T17:41:15.000Z</time>
      </trkpt>
      <trkpt lat="45.84954" lon="3.53661">
        <ele>307.79998779297</ele>
        <time>2024-04-30T17:41:16.000Z</time>
      </trkpt>
      <trkpt lat="45.84953" lon="3.53657">
        <ele>308</ele>
        <time>2024-04-30T17:41:17.000Z</time>
      </trkpt>
      <trkpt lat="45.84952" lon="3.53653">
        <ele>308.20001220703</ele>
        <time>2024-04-30T17:41:18.000Z</time>
      </trkpt>
      <trkpt lat="45.84952" lon="3.53649">
        <ele>308</ele>
        <time>2024-04-30T17:41:19.000Z</time>
      </trkpt>
      <trkpt lat="45.8495" lon="3.53645">
        <ele>308</ele>
        <time>2024-04-30T17:41:20.000Z</time>
      </trkpt>
      <trkpt lat="45.84949" lon="3.53641">
        <ele>308</ele>
        <time>2024-04-30T17:41:21.000Z</time>
      </trkpt>
      <trkpt lat="45.84948" lon="3.53638">
        <ele>307.79998779297</ele>
        <time>2024-04-30T17:41:22.000Z</time>
      </trkpt>
      <trkpt lat="45.84947" lon="3.53635">
        <ele>307.79998779297</ele>
        <time>2024-04-30T17:41:23.000Z</time>
      </trkpt>
      <trkpt lat="45.84946" lon="3.53632">
        <ele>307.79998779297</ele>
        <time>2024-04-30T17:41:24.000Z</time>
      </trkpt>
      <trkpt lat="45.84944" lon="3.53628">
        <ele>307.79998779297</ele>
        <time>2024-04-30T17:41:25.000Z</time>
      </trkpt>
      <trkpt lat="45.84944" lon="3.53625">
        <ele>307.79998779297</ele>
        <time>2024-04-30T17:41:26.000Z</time>
      </trkpt>
      <trkpt lat="45.84944" lon="3.53622">
        <ele>307.60000610352</ele>
        <time>2024-04-30T17:41:27.000Z</time>
      </trkpt>
      <trkpt lat="45.84943" lon="3.53619">
        <ele>307.60000610352</ele>
        <time>2024-04-30T17:41:28.000Z</time>
      </trkpt>
      <trkpt lat="45.84942" lon="3.53614">
        <ele>307.79998779297</ele>
        <time>2024-04-30T17:41:29.000Z</time>
      </trkpt>
      <trkpt lat="45.8494" lon="3.53609">
        <ele>308</ele>
        <time>2024-04-30T17:41:30.000Z</time>
      </trkpt>
      <trkpt lat="45.84939" lon="3.53605">
        <ele>307.79998779297</ele>
        <time>2024-04-30T17:41:31.000Z</time>
      </trkpt>
      <trkpt lat="45.84938" lon="3.536">
        <ele>307.79998779297</ele>
        <time>2024-04-30T17:41:32.000Z</time>
      </trkpt>
      <trkpt lat="45.84937" lon="3.53597">
        <ele>307.79998779297</ele>
        <time>2024-04-30T17:41:33.000Z</time>
      </trkpt>
      <trkpt lat="45.84936" lon="3.53594">
        <ele>307.79998779297</ele>
        <time>2024-04-30T17:41:34.000Z</time>
      </trkpt>
      <trkpt lat="45.84935" lon="3.5359">
        <ele>307.79998779297</ele>
        <time>2024-04-30T17:41:35.000Z</time>
      </trkpt>
      <trkpt lat="45.84934" lon="3.53586">
        <ele>307.79998779297</ele>
        <time>2024-04-30T17:41:36.000Z</time>
      </trkpt>
      <trkpt lat="45.84933" lon="3.53582">
        <ele>307.79998779297</ele>
        <time>2024-04-30T17:41:37.000Z</time>
      </trkpt>
      <trkpt lat="45.84932" lon="3.53579">
        <ele>307.79998779297</ele>
        <time>2024-04-30T17:41:38.000Z</time>
      </trkpt>
      <trkpt lat="45.84931" lon="3.53575">
        <ele>307.79998779297</ele>
        <time>2024-04-30T17:41:39.000Z</time>
      </trkpt>
      <trkpt lat="45.8493" lon="3.53571">
        <ele>307.79998779297</ele>
        <time>2024-04-30T17:41:40.000Z</time>
      </trkpt>
      <trkpt lat="45.84929" lon="3.53567">
        <ele>307.79998779297</ele>
        <time>2024-04-30T17:41:41.000Z</time>
      </trkpt>
      <trkpt lat="45.84928" lon="3.53564">
        <ele>307.79998779297</ele>
        <time>2024-04-30T17:41:42.000Z</time>
      </trkpt>
      <trkpt lat="45.84927" lon="3.53561">
        <ele>307.79998779297</ele>
        <time>2024-04-30T17:41:43.000Z</time>
      </trkpt>
      <trkpt lat="45.84926" lon="3.53557">
        <ele>307.79998779297</ele>
        <time>2024-04-30T17:41:44.000Z</time>
      </trkpt>
      <trkpt lat="45.84925" lon="3.53553">
        <ele>307.79998779297</ele>
        <time>2024-04-30T17:41:45.000Z</time>
      </trkpt>
      <trkpt lat="45.84924" lon="3.53549">
        <ele>308.20001220703</ele>
        <time>2024-04-30T17:41:46.000Z</time>
      </trkpt>
      <trkpt lat="45.84922" lon="3.53546">
        <ele>308</ele>
        <time>2024-04-30T17:41:47.000Z</time>
      </trkpt>
      <trkpt lat="45.84921" lon="3.53543">
        <ele>308.20001220703</ele>
        <time>2024-04-30T17:41:48.000Z</time>
      </trkpt>
      <trkpt lat="45.8492" lon="3.53539">
        <ele>308.20001220703</ele>
        <time>2024-04-30T17:41:49.000Z</time>
      </trkpt>
      <trkpt lat="45.84919" lon="3.53535">
        <ele>308</ele>
        <time>2024-04-30T17:41:50.000Z</time>
      </trkpt>
      <trkpt lat="45.84917" lon="3.53532">
        <ele>307.79998779297</ele>
        <time>2024-04-30T17:41:51.000Z</time>
      </trkpt>
      <trkpt lat="45.84916" lon="3.53528">
        <ele>308</ele>
        <time>2024-04-30T17:41:52.000Z</time>
      </trkpt>
      <trkpt lat="45.84915" lon="3.53525">
        <ele>308</ele>
        <time>2024-04-30T17:41:53.000Z</time>
      </trkpt>
      <trkpt lat="45.84914" lon="3.5352">
        <ele>308</ele>
        <time>2024-04-30T17:41:54.000Z</time>
      </trkpt>
      <trkpt lat="45.84912" lon="3.53516">
        <ele>308</ele>
        <time>2024-04-30T17:41:55.000Z</time>
      </trkpt>
      <trkpt lat="45.8491" lon="3.53512">
        <ele>307.79998779297</ele>
        <time>2024-04-30T17:41:56.000Z</time>
      </trkpt>
      <trkpt lat="45.84909" lon="3.53509">
        <ele>307.79998779297</ele>
        <time>2024-04-30T17:41:57.000Z</time>
      </trkpt>
      <trkpt lat="45.84908" lon="3.53505">
        <ele>308</ele>
        <time>2024-04-30T17:41:58.000Z</time>
      </trkpt>
      <trkpt lat="45.84907" lon="3.53501">
        <ele>308.20001220703</ele>
        <time>2024-04-30T17:41:59.000Z</time>
      </trkpt>
      <trkpt lat="45.84905" lon="3.53497">
        <ele>308.20001220703</ele>
        <time>2024-04-30T17:42:00.000Z</time>
      </trkpt>
      <trkpt lat="45.84905" lon="3.53493">
        <ele>308.20001220703</ele>
        <time>2024-04-30T17:42:01.000Z</time>
      </trkpt>
      <trkpt lat="45.84904" lon="3.53489">
        <ele>308.20001220703</ele>
        <time>2024-04-30T17:42:02.000Z</time>
      </trkpt>
      <trkpt lat="45.84902" lon="3.53484">
        <ele>308.20001220703</ele>
        <time>2024-04-30T17:42:03.000Z</time>
      </trkpt>
      <trkpt lat="45.84902" lon="3.53481">
        <ele>308</ele>
        <time>2024-04-30T17:42:04.000Z</time>
      </trkpt>
      <trkpt lat="45.84901" lon="3.53477">
        <ele>308</ele>
        <time>2024-04-30T17:42:05.000Z</time>
      </trkpt>
      <trkpt lat="45.84899" lon="3.53473">
        <ele>308</ele>
        <time>2024-04-30T17:42:06.000Z</time>
      </trkpt>
      <trkpt lat="45.84899" lon="3.53469">
        <ele>308</ele>
        <time>2024-04-30T17:42:07.000Z</time>
      </trkpt>
      <trkpt lat="45.84898" lon="3.53465">
        <ele>307.79998779297</ele>
        <time>2024-04-30T17:42:08.000Z</time>
      </trkpt>
      <trkpt lat="45.84897" lon="3.5346">
        <ele>308</ele>
        <time>2024-04-30T17:42:09.000Z</time>
      </trkpt>
      <trkpt lat="45.84896" lon="3.53456">
        <ele>308.20001220703</ele>
        <time>2024-04-30T17:42:10.000Z</time>
      </trkpt>
      <trkpt lat="45.84895" lon="3.53452">
        <ele>308.20001220703</ele>
        <time>2024-04-30T17:42:11.000Z</time>
      </trkpt>
      <trkpt lat="45.84894" lon="3.53448">
        <ele>308.20001220703</ele>
        <time>2024-04-30T17:42:12.000Z</time>
      </trkpt>
      <trkpt lat="45.84892" lon="3.53444">
        <ele>308.20001220703</ele>
        <time>2024-04-30T17:42:13.000Z</time>
      </trkpt>
      <trkpt lat="45.84891" lon="3.5344">
        <ele>308.20001220703</ele>
        <time>2024-04-30T17:42:14.000Z</time>
      </trkpt>
      <trkpt lat="45.8489" lon="3.53436">
        <ele>308</ele>
        <time>2024-04-30T17:42:15.000Z</time>
      </trkpt>
      <trkpt lat="45.84889" lon="3.53433">
        <ele>308</ele>
        <time>2024-04-30T17:42:16.000Z</time>
      </trkpt>
      <trkpt lat="45.84887" lon="3.53429">
        <ele>308</ele>
        <time>2024-04-30T17:42:17.000Z</time>
      </trkpt>
      <trkpt lat="45.84886" lon="3.53426">
        <ele>308</ele>
        <time>2024-04-30T17:42:18.000Z</time>
      </trkpt>
      <trkpt lat="45.84884" lon="3.53422">
        <ele>308</ele>
        <time>2024-04-30T17:42:19.000Z</time>
      </trkpt>
      <trkpt lat="45.84883" lon="3.53419">
        <ele>307.79998779297</ele>
        <time>2024-04-30T17:42:20.000Z</time>
      </trkpt>
      <trkpt lat="45.84882" lon="3.53416">
        <ele>308</ele>
        <time>2024-04-30T17:42:21.000Z</time>
      </trkpt>
      <trkpt lat="45.84881" lon="3.53413">
        <ele>307.79998779297</ele>
        <time>2024-04-30T17:42:22.000Z</time>
      </trkpt>
      <trkpt lat="45.84879" lon="3.53409">
        <ele>307.79998779297</ele>
        <time>2024-04-30T17:42:23.000Z</time>
      </trkpt>
      <trkpt lat="45.84878" lon="3.53406">
        <ele>307.79998779297</ele>
        <time>2024-04-30T17:42:24.000Z</time>
      </trkpt>
      <trkpt lat="45.84877" lon="3.53403">
        <ele>307.60000610352</ele>
        <time>2024-04-30T17:42:25.000Z</time>
      </trkpt>
      <trkpt lat="45.84876" lon="3.53399">
        <ele>307.79998779297</ele>
        <time>2024-04-30T17:42:26.000Z</time>
      </trkpt>
      <trkpt lat="45.84875" lon="3.53395">
        <ele>308</ele>
        <time>2024-04-30T17:42:27.000Z</time>
      </trkpt>
      <trkpt lat="45.84874" lon="3.53392">
        <ele>307.79998779297</ele>
        <time>2024-04-30T17:42:28.000Z</time>
      </trkpt>
      <trkpt lat="45.84873" lon="3.53388">
        <ele>307.79998779297</ele>
        <time>2024-04-30T17:42:29.000Z</time>
      </trkpt>
      <trkpt lat="45.84872" lon="3.53385">
        <ele>307.60000610352</ele>
        <time>2024-04-30T17:42:30.000Z</time>
      </trkpt>
      <trkpt lat="45.84871" lon="3.5338">
        <ele>307.60000610352</ele>
        <time>2024-04-30T17:42:31.000Z</time>
      </trkpt>
      <trkpt lat="45.8487" lon="3.53377">
        <ele>307.39999389648</ele>
        <time>2024-04-30T17:42:32.000Z</time>
      </trkpt>
      <trkpt lat="45.84869" lon="3.53373">
        <ele>307.60000610352</ele>
        <time>2024-04-30T17:42:33.000Z</time>
      </trkpt>
      <trkpt lat="45.84868" lon="3.5337">
        <ele>307.39999389648</ele>
        <time>2024-04-30T17:42:34.000Z</time>
      </trkpt>
      <trkpt lat="45.84867" lon="3.53366">
        <ele>307.39999389648</ele>
        <time>2024-04-30T17:42:35.000Z</time>
      </trkpt>
      <trkpt lat="45.84866" lon="3.53363">
        <ele>307.20001220703</ele>
        <time>2024-04-30T17:42:36.000Z</time>
      </trkpt>
      <trkpt lat="45.84865" lon="3.53359">
        <ele>307.20001220703</ele>
        <time>2024-04-30T17:42:37.000Z</time>
      </trkpt>
      <trkpt lat="45.84864" lon="3.53356">
        <ele>307.20001220703</ele>
        <time>2024-04-30T17:42:38.000Z</time>
      </trkpt>
      <trkpt lat="45.84863" lon="3.53352">
        <ele>307.39999389648</ele>
        <time>2024-04-30T17:42:39.000Z</time>
      </trkpt>
      <trkpt lat="45.84862" lon="3.53348">
        <ele>307.20001220703</ele>
        <time>2024-04-30T17:42:40.000Z</time>
      </trkpt>
      <trkpt lat="45.84861" lon="3.53344">
        <ele>307.39999389648</ele>
        <time>2024-04-30T17:42:41.000Z</time>
      </trkpt>
      <trkpt lat="45.8486" lon="3.53341">
        <ele>307.20001220703</ele>
        <time>2024-04-30T17:42:42.000Z</time>
      </trkpt>
      <trkpt lat="45.84859" lon="3.53337">
        <ele>307</ele>
        <time>2024-04-30T17:42:43.000Z</time>
      </trkpt>
      <trkpt lat="45.84858" lon="3.53334">
        <ele>307.20001220703</ele>
        <time>2024-04-30T17:42:44.000Z</time>
      </trkpt>
      <trkpt lat="45.84856" lon="3.53329">
        <ele>307</ele>
        <time>2024-04-30T17:42:45.000Z</time>
      </trkpt>
      <trkpt lat="45.84856" lon="3.53326">
        <ele>307</ele>
        <time>2024-04-30T17:42:46.000Z</time>
      </trkpt>
      <trkpt lat="45.84855" lon="3.53323">
        <ele>306.79998779297</ele>
        <time>2024-04-30T17:42:47.000Z</time>
      </trkpt>
      <trkpt lat="45.84854" lon="3.53319">
        <ele>306.79998779297</ele>
        <time>2024-04-30T17:42:48.000Z</time>
      </trkpt>
      <trkpt lat="45.84853" lon="3.53315">
        <ele>306.79998779297</ele>
        <time>2024-04-30T17:42:49.000Z</time>
      </trkpt>
      <trkpt lat="45.84852" lon="3.53312">
        <ele>307</ele>
        <time>2024-04-30T17:42:50.000Z</time>
      </trkpt>
      <trkpt lat="45.84851" lon="3.53308">
        <ele>307.20001220703</ele>
        <time>2024-04-30T17:42:51.000Z</time>
      </trkpt>
      <trkpt lat="45.8485" lon="3.53305">
        <ele>307</ele>
        <time>2024-04-30T17:42:52.000Z</time>
      </trkpt>
      <trkpt lat="45.84849" lon="3.53301">
        <ele>307</ele>
        <time>2024-04-30T17:42:53.000Z</time>
      </trkpt>
      <trkpt lat="45.84848" lon="3.53297">
        <ele>306.79998779297</ele>
        <time>2024-04-30T17:42:54.000Z</time>
      </trkpt>
      <trkpt lat="45.84847" lon="3.53294">
        <ele>306.60000610352</ele>
        <time>2024-04-30T17:42:55.000Z</time>
      </trkpt>
      <trkpt lat="45.84846" lon="3.53293">
        <ele>306.60000610352</ele>
        <time>2024-04-30T17:42:56.000Z</time>
      </trkpt>
      <trkpt lat="45.84845" lon="3.53291">
        <ele>306.60000610352</ele>
        <time>2024-04-30T17:42:57.000Z</time>
      </trkpt>
      <trkpt lat="45.84845" lon="3.53288">
        <ele>306.79998779297</ele>
        <time>2024-04-30T17:42:58.000Z</time>
      </trkpt>
      <trkpt lat="45.84845" lon="3.53286">
        <ele>306.60000610352</ele>
        <time>2024-04-30T17:42:59.000Z</time>
      </trkpt>
      <trkpt lat="45.84844" lon="3.53283">
        <ele>306.60000610352</ele>
        <time>2024-04-30T17:43:00.000Z</time>
      </trkpt>
      <trkpt lat="45.84843" lon="3.53279">
        <ele>306.60000610352</ele>
        <time>2024-04-30T17:43:01.000Z</time>
      </trkpt>
      <trkpt lat="45.84842" lon="3.53275">
        <ele>306.39999389648</ele>
        <time>2024-04-30T17:43:02.000Z</time>
      </trkpt>
      <trkpt lat="45.84841" lon="3.53272">
        <ele>306.60000610352</ele>
        <time>2024-04-30T17:43:03.000Z</time>
      </trkpt>
      <trkpt lat="45.8484" lon="3.53268">
        <ele>306.60000610352</ele>
        <time>2024-04-30T17:43:04.000Z</time>
      </trkpt>
      <trkpt lat="45.84839" lon="3.53265">
        <ele>306.79998779297</ele>
        <time>2024-04-30T17:43:05.000Z</time>
      </trkpt>
      <trkpt lat="45.84838" lon="3.53261">
        <ele>306.79998779297</ele>
        <time>2024-04-30T17:43:06.000Z</time>
      </trkpt>
      <trkpt lat="45.84837" lon="3.53258">
        <ele>306.79998779297</ele>
        <time>2024-04-30T17:43:07.000Z</time>
      </trkpt>
      <trkpt lat="45.84835" lon="3.53253">
        <ele>306.79998779297</ele>
        <time>2024-04-30T17:43:08.000Z</time>
      </trkpt>
      <trkpt lat="45.84834" lon="3.5325">
        <ele>306.79998779297</ele>
        <time>2024-04-30T17:43:09.000Z</time>
      </trkpt>
      <trkpt lat="45.84833" lon="3.53245">
        <ele>306.60000610352</ele>
        <time>2024-04-30T17:43:10.000Z</time>
      </trkpt>
      <trkpt lat="45.84832" lon="3.53242">
        <ele>306.60000610352</ele>
        <time>2024-04-30T17:43:11.000Z</time>
      </trkpt>
      <trkpt lat="45.8483" lon="3.53237">
        <ele>306.60000610352</ele>
        <time>2024-04-30T17:43:12.000Z</time>
      </trkpt>
      <trkpt lat="45.84829" lon="3.53234">
        <ele>307</ele>
        <time>2024-04-30T17:43:13.000Z</time>
      </trkpt>
      <trkpt lat="45.84828" lon="3.5323">
        <ele>307</ele>
        <time>2024-04-30T17:43:14.000Z</time>
      </trkpt>
      <trkpt lat="45.84826" lon="3.53226">
        <ele>306.79998779297</ele>
        <time>2024-04-30T17:43:15.000Z</time>
      </trkpt>
      <trkpt lat="45.84825" lon="3.53222">
        <ele>306.79998779297</ele>
        <time>2024-04-30T17:43:16.000Z</time>
      </trkpt>
      <trkpt lat="45.84824" lon="3.53217">
        <ele>306.79998779297</ele>
        <time>2024-04-30T17:43:17.000Z</time>
      </trkpt>
      <trkpt lat="45.84823" lon="3.53213">
        <ele>306.60000610352</ele>
        <time>2024-04-30T17:43:18.000Z</time>
      </trkpt>
      <trkpt lat="45.84822" lon="3.5321">
        <ele>306.60000610352</ele>
        <time>2024-04-30T17:43:19.000Z</time>
      </trkpt>
      <trkpt lat="45.84821" lon="3.53207">
        <ele>306.60000610352</ele>
        <time>2024-04-30T17:43:20.000Z</time>
      </trkpt>
      <trkpt lat="45.8482" lon="3.53202">
        <ele>307</ele>
        <time>2024-04-30T17:43:21.000Z</time>
      </trkpt>
      <trkpt lat="45.84819" lon="3.53198">
        <ele>307</ele>
        <time>2024-04-30T17:43:22.000Z</time>
      </trkpt>
      <trkpt lat="45.84818" lon="3.53194">
        <ele>307</ele>
        <time>2024-04-30T17:43:23.000Z</time>
      </trkpt>
      <trkpt lat="45.84817" lon="3.53191">
        <ele>307</ele>
        <time>2024-04-30T17:43:24.000Z</time>
      </trkpt>
      <trkpt lat="45.84816" lon="3.53187">
        <ele>306.79998779297</ele>
        <time>2024-04-30T17:43:25.000Z</time>
      </trkpt>
      <trkpt lat="45.84815" lon="3.53183">
        <ele>306.79998779297</ele>
        <time>2024-04-30T17:43:26.000Z</time>
      </trkpt>
      <trkpt lat="45.84813" lon="3.5318">
        <ele>306.79998779297</ele>
        <time>2024-04-30T17:43:27.000Z</time>
      </trkpt>
      <trkpt lat="45.84812" lon="3.53177">
        <ele>306.79998779297</ele>
        <time>2024-04-30T17:43:28.000Z</time>
      </trkpt>
      <trkpt lat="45.84811" lon="3.53174">
        <ele>306.79998779297</ele>
        <time>2024-04-30T17:43:29.000Z</time>
      </trkpt>
      <trkpt lat="45.8481" lon="3.53168">
        <ele>306.79998779297</ele>
        <time>2024-04-30T17:43:30.000Z</time>
      </trkpt>
      <trkpt lat="45.84809" lon="3.53164">
        <ele>306.79998779297</ele>
        <time>2024-04-30T17:43:31.000Z</time>
      </trkpt>
      <trkpt lat="45.84807" lon="3.53159">
        <ele>306.60000610352</ele>
        <time>2024-04-30T17:43:32.000Z</time>
      </trkpt>
      <trkpt lat="45.84806" lon="3.53156">
        <ele>306.79998779297</ele>
        <time>2024-04-30T17:43:33.000Z</time>
      </trkpt>
      <trkpt lat="45.84805" lon="3.53151">
        <ele>307</ele>
        <time>2024-04-30T17:43:34.000Z</time>
      </trkpt>
      <trkpt lat="45.84804" lon="3.53147">
        <ele>307</ele>
        <time>2024-04-30T17:43:35.000Z</time>
      </trkpt>
      <trkpt lat="45.84803" lon="3.53142">
        <ele>306.79998779297</ele>
        <time>2024-04-30T17:43:36.000Z</time>
      </trkpt>
      <trkpt lat="45.84801" lon="3.53139">
        <ele>306.79998779297</ele>
        <time>2024-04-30T17:43:37.000Z</time>
      </trkpt>
      <trkpt lat="45.84801" lon="3.53135">
        <ele>306.79998779297</ele>
        <time>2024-04-30T17:43:38.000Z</time>
      </trkpt>
      <trkpt lat="45.84799" lon="3.53132">
        <ele>306.60000610352</ele>
        <time>2024-04-30T17:43:39.000Z</time>
      </trkpt>
      <trkpt lat="45.84798" lon="3.53127">
        <ele>306.79998779297</ele>
        <time>2024-04-30T17:43:40.000Z</time>
      </trkpt>
      <trkpt lat="45.84797" lon="3.53123">
        <ele>306.60000610352</ele>
        <time>2024-04-30T17:43:41.000Z</time>
      </trkpt>
      <trkpt lat="45.84795" lon="3.53118">
        <ele>306.60000610352</ele>
        <time>2024-04-30T17:43:42.000Z</time>
      </trkpt>
      <trkpt lat="45.84793" lon="3.53113">
        <ele>306.60000610352</ele>
        <time>2024-04-30T17:43:43.000Z</time>
      </trkpt>
      <trkpt lat="45.84792" lon="3.53109">
        <ele>306.60000610352</ele>
        <time>2024-04-30T17:43:44.000Z</time>
      </trkpt>
      <trkpt lat="45.84792" lon="3.53105">
        <ele>306.60000610352</ele>
        <time>2024-04-30T17:43:45.000Z</time>
      </trkpt>
      <trkpt lat="45.84791" lon="3.53103">
        <ele>306.60000610352</ele>
        <time>2024-04-30T17:43:46.000Z</time>
      </trkpt>
      <trkpt lat="45.8479" lon="3.53099">
        <ele>306.79998779297</ele>
        <time>2024-04-30T17:43:47.000Z</time>
      </trkpt>
      <trkpt lat="45.84788" lon="3.53096">
        <ele>306.79998779297</ele>
        <time>2024-04-30T17:43:48.000Z</time>
      </trkpt>
      <trkpt lat="45.84787" lon="3.53092">
        <ele>306.79998779297</ele>
        <time>2024-04-30T17:43:49.000Z</time>
      </trkpt>
      <trkpt lat="45.84786" lon="3.53089">
        <ele>306.79998779297</ele>
        <time>2024-04-30T17:43:50.000Z</time>
      </trkpt>
      <trkpt lat="45.84785" lon="3.53086">
        <ele>306.79998779297</ele>
        <time>2024-04-30T17:43:51.000Z</time>
      </trkpt>
      <trkpt lat="45.84784" lon="3.53082">
        <ele>306.79998779297</ele>
        <time>2024-04-30T17:43:52.000Z</time>
      </trkpt>
      <trkpt lat="45.84783" lon="3.53079">
        <ele>307</ele>
        <time>2024-04-30T17:43:53.000Z</time>
      </trkpt>
      <trkpt lat="45.84782" lon="3.53076">
        <ele>307</ele>
        <time>2024-04-30T17:43:54.000Z</time>
      </trkpt>
      <trkpt lat="45.84781" lon="3.53073">
        <ele>307</ele>
        <time>2024-04-30T17:43:55.000Z</time>
      </trkpt>
      <trkpt lat="45.8478" lon="3.5307">
        <ele>306.79998779297</ele>
        <time>2024-04-30T17:43:56.000Z</time>
      </trkpt>
      <trkpt lat="45.84779" lon="3.53066">
        <ele>306.79998779297</ele>
        <time>2024-04-30T17:43:57.000Z</time>
      </trkpt>
      <trkpt lat="45.84778" lon="3.53063">
        <ele>306.60000610352</ele>
        <time>2024-04-30T17:43:58.000Z</time>
      </trkpt>
      <trkpt lat="45.84777" lon="3.5306">
        <ele>306.79998779297</ele>
        <time>2024-04-30T17:43:59.000Z</time>
      </trkpt>
      <trkpt lat="45.84776" lon="3.53057">
        <ele>306.79998779297</ele>
        <time>2024-04-30T17:44:00.000Z</time>
      </trkpt>
      <trkpt lat="45.84775" lon="3.53054">
        <ele>306.79998779297</ele>
        <time>2024-04-30T17:44:01.000Z</time>
      </trkpt>
      <trkpt lat="45.84775" lon="3.53052">
        <ele>306.79998779297</ele>
        <time>2024-04-30T17:44:02.000Z</time>
      </trkpt>
      <trkpt lat="45.84774" lon="3.53049">
        <ele>306.79998779297</ele>
        <time>2024-04-30T17:44:03.000Z</time>
      </trkpt>
      <trkpt lat="45.84774" lon="3.53047">
        <ele>306.60000610352</ele>
        <time>2024-04-30T17:44:04.000Z</time>
      </trkpt>
      <trkpt lat="45.84773" lon="3.53043">
        <ele>306.79998779297</ele>
        <time>2024-04-30T17:44:05.000Z</time>
      </trkpt>
      <trkpt lat="45.84772" lon="3.5304">
        <ele>306.79998779297</ele>
        <time>2024-04-30T17:44:06.000Z</time>
      </trkpt>
      <trkpt lat="45.84771" lon="3.53037">
        <ele>306.79998779297</ele>
        <time>2024-04-30T17:44:07.000Z</time>
      </trkpt>
      <trkpt lat="45.84769" lon="3.53033">
        <ele>306.60000610352</ele>
        <time>2024-04-30T17:44:08.000Z</time>
      </trkpt>
      <trkpt lat="45.84768" lon="3.53029">
        <ele>306.60000610352</ele>
        <time>2024-04-30T17:44:09.000Z</time>
      </trkpt>
      <trkpt lat="45.84767" lon="3.53025">
        <ele>306.39999389648</ele>
        <time>2024-04-30T17:44:10.000Z</time>
      </trkpt>
      <trkpt lat="45.84766" lon="3.53021">
        <ele>306.60000610352</ele>
        <time>2024-04-30T17:44:11.000Z</time>
      </trkpt>
      <trkpt lat="45.84765" lon="3.53017">
        <ele>306.60000610352</ele>
        <time>2024-04-30T17:44:12.000Z</time>
      </trkpt>
      <trkpt lat="45.84764" lon="3.53014">
        <ele>306.79998779297</ele>
        <time>2024-04-30T17:44:13.000Z</time>
      </trkpt>
      <trkpt lat="45.84763" lon="3.5301">
        <ele>306.79998779297</ele>
        <time>2024-04-30T17:44:14.000Z</time>
      </trkpt>
      <trkpt lat="45.84762" lon="3.53006">
        <ele>306.60000610352</ele>
        <time>2024-04-30T17:44:15.000Z</time>
      </trkpt>
      <trkpt lat="45.8476" lon="3.53002">
        <ele>306.60000610352</ele>
        <time>2024-04-30T17:44:16.000Z</time>
      </trkpt>
      <trkpt lat="45.84759" lon="3.52998">
        <ele>306.60000610352</ele>
        <time>2024-04-30T17:44:17.000Z</time>
      </trkpt>
      <trkpt lat="45.84757" lon="3.52994">
        <ele>306.60000610352</ele>
        <time>2024-04-30T17:44:18.000Z</time>
      </trkpt>
      <trkpt lat="45.84756" lon="3.5299">
        <ele>306.60000610352</ele>
        <time>2024-04-30T17:44:19.000Z</time>
      </trkpt>
      <trkpt lat="45.84755" lon="3.52987">
        <ele>306.60000610352</ele>
        <time>2024-04-30T17:44:20.000Z</time>
      </trkpt>
      <trkpt lat="45.84754" lon="3.52983">
        <ele>306.60000610352</ele>
        <time>2024-04-30T17:44:21.000Z</time>
      </trkpt>
      <trkpt lat="45.84754" lon="3.5298">
        <ele>306.60000610352</ele>
        <time>2024-04-30T17:44:22.000Z</time>
      </trkpt>
      <trkpt lat="45.84753" lon="3.52976">
        <ele>306.39999389648</ele>
        <time>2024-04-30T17:44:23.000Z</time>
      </trkpt>
      <trkpt lat="45.84752" lon="3.52973">
        <ele>306.39999389648</ele>
        <time>2024-04-30T17:44:24.000Z</time>
      </trkpt>
      <trkpt lat="45.84751" lon="3.52969">
        <ele>306.39999389648</ele>
        <time>2024-04-30T17:44:25.000Z</time>
      </trkpt>
      <trkpt lat="45.8475" lon="3.52965">
        <ele>306.39999389648</ele>
        <time>2024-04-30T17:44:26.000Z</time>
      </trkpt>
      <trkpt lat="45.84748" lon="3.52961">
        <ele>306.20001220703</ele>
        <time>2024-04-30T17:44:27.000Z</time>
      </trkpt>
      <trkpt lat="45.84747" lon="3.52957">
        <ele>306.20001220703</ele>
        <time>2024-04-30T17:44:28.000Z</time>
      </trkpt>
      <trkpt lat="45.84746" lon="3.52953">
        <ele>306</ele>
        <time>2024-04-30T17:44:29.000Z</time>
      </trkpt>
      <trkpt lat="45.84744" lon="3.52948">
        <ele>306</ele>
        <time>2024-04-30T17:44:30.000Z</time>
      </trkpt>
      <trkpt lat="45.84743" lon="3.52944">
        <ele>305.79998779297</ele>
        <time>2024-04-30T17:44:31.000Z</time>
      </trkpt>
      <trkpt lat="45.84741" lon="3.52939">
        <ele>305.79998779297</ele>
        <time>2024-04-30T17:44:32.000Z</time>
      </trkpt>
      <trkpt lat="45.8474" lon="3.52935">
        <ele>306</ele>
        <time>2024-04-30T17:44:33.000Z</time>
      </trkpt>
      <trkpt lat="45.84738" lon="3.52932">
        <ele>306</ele>
        <time>2024-04-30T17:44:34.000Z</time>
      </trkpt>
      <trkpt lat="45.84737" lon="3.52928">
        <ele>306.20001220703</ele>
        <time>2024-04-30T17:44:35.000Z</time>
      </trkpt>
      <trkpt lat="45.84736" lon="3.52925">
        <ele>306.39999389648</ele>
        <time>2024-04-30T17:44:36.000Z</time>
      </trkpt>
      <trkpt lat="45.84735" lon="3.52922">
        <ele>306.20001220703</ele>
        <time>2024-04-30T17:44:37.000Z</time>
      </trkpt>
      <trkpt lat="45.84734" lon="3.52918">
        <ele>306.20001220703</ele>
        <time>2024-04-30T17:44:38.000Z</time>
      </trkpt>
      <trkpt lat="45.84734" lon="3.52914">
        <ele>306.20001220703</ele>
        <time>2024-04-30T17:44:39.000Z</time>
      </trkpt>
      <trkpt lat="45.84733" lon="3.52909">
        <ele>306.20001220703</ele>
        <time>2024-04-30T17:44:40.000Z</time>
      </trkpt>
      <trkpt lat="45.84732" lon="3.52905">
        <ele>306</ele>
        <time>2024-04-30T17:44:41.000Z</time>
      </trkpt>
      <trkpt lat="45.84731" lon="3.52901">
        <ele>306</ele>
        <time>2024-04-30T17:44:42.000Z</time>
      </trkpt>
      <trkpt lat="45.84729" lon="3.52897">
        <ele>306.20001220703</ele>
        <time>2024-04-30T17:44:43.000Z</time>
      </trkpt>
      <trkpt lat="45.84728" lon="3.52894">
        <ele>306.20001220703</ele>
        <time>2024-04-30T17:44:44.000Z</time>
      </trkpt>
      <trkpt lat="45.84726" lon="3.5289">
        <ele>306.20001220703</ele>
        <time>2024-04-30T17:44:45.000Z</time>
      </trkpt>
      <trkpt lat="45.84725" lon="3.52887">
        <ele>306.20001220703</ele>
        <time>2024-04-30T17:44:46.000Z</time>
      </trkpt>
      <trkpt lat="45.84723" lon="3.52884">
        <ele>306</ele>
        <time>2024-04-30T17:44:47.000Z</time>
      </trkpt>
      <trkpt lat="45.84722" lon="3.5288">
        <ele>305.79998779297</ele>
        <time>2024-04-30T17:44:48.000Z</time>
      </trkpt>
      <trkpt lat="45.84721" lon="3.52877">
        <ele>305.79998779297</ele>
        <time>2024-04-30T17:44:49.000Z</time>
      </trkpt>
      <trkpt lat="45.84721" lon="3.52874">
        <ele>306</ele>
        <time>2024-04-30T17:44:50.000Z</time>
      </trkpt>
      <trkpt lat="45.8472" lon="3.5287">
        <ele>306</ele>
        <time>2024-04-30T17:44:51.000Z</time>
      </trkpt>
      <trkpt lat="45.84719" lon="3.52867">
        <ele>306.20001220703</ele>
        <time>2024-04-30T17:44:52.000Z</time>
      </trkpt>
      <trkpt lat="45.84718" lon="3.52863">
        <ele>306.20001220703</ele>
        <time>2024-04-30T17:44:53.000Z</time>
      </trkpt>
      <trkpt lat="45.84716" lon="3.52859">
        <ele>306.20001220703</ele>
        <time>2024-04-30T17:44:54.000Z</time>
      </trkpt>
      <trkpt lat="45.84715" lon="3.52855">
        <ele>306</ele>
        <time>2024-04-30T17:44:55.000Z</time>
      </trkpt>
      <trkpt lat="45.84714" lon="3.52851">
        <ele>306</ele>
        <time>2024-04-30T17:44:56.000Z</time>
      </trkpt>
      <trkpt lat="45.84713" lon="3.52848">
        <ele>306</ele>
        <time>2024-04-30T17:44:57.000Z</time>
      </trkpt>
      <trkpt lat="45.84712" lon="3.52846">
        <ele>306.20001220703</ele>
        <time>2024-04-30T17:44:58.000Z</time>
      </trkpt>
      <trkpt lat="45.8471" lon="3.52842">
        <ele>306.39999389648</ele>
        <time>2024-04-30T17:44:59.000Z</time>
      </trkpt>
      <trkpt lat="45.84708" lon="3.52838">
        <ele>306.20001220703</ele>
        <time>2024-04-30T17:45:00.000Z</time>
      </trkpt>
      <trkpt lat="45.84707" lon="3.52834">
        <ele>306.20001220703</ele>
        <time>2024-04-30T17:45:01.000Z</time>
      </trkpt>
      <trkpt lat="45.84706" lon="3.52832">
        <ele>306</ele>
        <time>2024-04-30T17:45:02.000Z</time>
      </trkpt>
      <trkpt lat="45.84705" lon="3.52829">
        <ele>306</ele>
        <time>2024-04-30T17:45:03.000Z</time>
      </trkpt>
      <trkpt lat="45.84704" lon="3.52825">
        <ele>306</ele>
        <time>2024-04-30T17:45:04.000Z</time>
      </trkpt>
      <trkpt lat="45.84702" lon="3.5282">
        <ele>306.39999389648</ele>
        <time>2024-04-30T17:45:05.000Z</time>
      </trkpt>
      <trkpt lat="45.84701" lon="3.52816">
        <ele>306.39999389648</ele>
        <time>2024-04-30T17:45:06.000Z</time>
      </trkpt>
      <trkpt lat="45.847" lon="3.52813">
        <ele>306.39999389648</ele>
        <time>2024-04-30T17:45:07.000Z</time>
      </trkpt>
      <trkpt lat="45.847" lon="3.52809">
        <ele>306.20001220703</ele>
        <time>2024-04-30T17:45:08.000Z</time>
      </trkpt>
      <trkpt lat="45.84698" lon="3.52805">
        <ele>306.20001220703</ele>
        <time>2024-04-30T17:45:09.000Z</time>
      </trkpt>
      <trkpt lat="45.84697" lon="3.52801">
        <ele>306</ele>
        <time>2024-04-30T17:45:10.000Z</time>
      </trkpt>
      <trkpt lat="45.84696" lon="3.52797">
        <ele>306</ele>
        <time>2024-04-30T17:45:11.000Z</time>
      </trkpt>
      <trkpt lat="45.84694" lon="3.52793">
        <ele>306.20001220703</ele>
        <time>2024-04-30T17:45:12.000Z</time>
      </trkpt>
      <trkpt lat="45.84693" lon="3.52789">
        <ele>306.20001220703</ele>
        <time>2024-04-30T17:45:13.000Z</time>
      </trkpt>
      <trkpt lat="45.84692" lon="3.52785">
        <ele>306.20001220703</ele>
        <time>2024-04-30T17:45:14.000Z</time>
      </trkpt>
      <trkpt lat="45.84691" lon="3.5278">
        <ele>306.20001220703</ele>
        <time>2024-04-30T17:45:15.000Z</time>
      </trkpt>
      <trkpt lat="45.8469" lon="3.52777">
        <ele>306</ele>
        <time>2024-04-30T17:45:16.000Z</time>
      </trkpt>
      <trkpt lat="45.84689" lon="3.52772">
        <ele>305.79998779297</ele>
        <time>2024-04-30T17:45:17.000Z</time>
      </trkpt>
      <trkpt lat="45.84688" lon="3.52768">
        <ele>306.20001220703</ele>
        <time>2024-04-30T17:45:18.000Z</time>
      </trkpt>
      <trkpt lat="45.84687" lon="3.52764">
        <ele>306.20001220703</ele>
        <time>2024-04-30T17:45:19.000Z</time>
      </trkpt>
      <trkpt lat="45.84685" lon="3.52759">
        <ele>306.20001220703</ele>
        <time>2024-04-30T17:45:20.000Z</time>
      </trkpt>
      <trkpt lat="45.84684" lon="3.52755">
        <ele>306</ele>
        <time>2024-04-30T17:45:21.000Z</time>
      </trkpt>
      <trkpt lat="45.84682" lon="3.52751">
        <ele>306</ele>
        <time>2024-04-30T17:45:22.000Z</time>
      </trkpt>
      <trkpt lat="45.84681" lon="3.52748">
        <ele>306</ele>
        <time>2024-04-30T17:45:23.000Z</time>
      </trkpt>
      <trkpt lat="45.8468" lon="3.52744">
        <ele>305.79998779297</ele>
        <time>2024-04-30T17:45:24.000Z</time>
      </trkpt>
      <trkpt lat="45.84678" lon="3.5274">
        <ele>305.79998779297</ele>
        <time>2024-04-30T17:45:25.000Z</time>
      </trkpt>
      <trkpt lat="45.84677" lon="3.52736">
        <ele>305.79998779297</ele>
        <time>2024-04-30T17:45:26.000Z</time>
      </trkpt>
      <trkpt lat="45.84676" lon="3.52732">
        <ele>306</ele>
        <time>2024-04-30T17:45:27.000Z</time>
      </trkpt>
      <trkpt lat="45.84675" lon="3.52728">
        <ele>306</ele>
        <time>2024-04-30T17:45:28.000Z</time>
      </trkpt>
      <trkpt lat="45.84673" lon="3.52724">
        <ele>305.79998779297</ele>
        <time>2024-04-30T17:45:29.000Z</time>
      </trkpt>
      <trkpt lat="45.84673" lon="3.52721">
        <ele>305.79998779297</ele>
        <time>2024-04-30T17:45:30.000Z</time>
      </trkpt>
      <trkpt lat="45.84672" lon="3.52718">
        <ele>305.79998779297</ele>
        <time>2024-04-30T17:45:31.000Z</time>
      </trkpt>
      <trkpt lat="45.84671" lon="3.52714">
        <ele>305.60000610352</ele>
        <time>2024-04-30T17:45:32.000Z</time>
      </trkpt>
      <trkpt lat="45.8467" lon="3.52712">
        <ele>305.79998779297</ele>
        <time>2024-04-30T17:45:33.000Z</time>
      </trkpt>
      <trkpt lat="45.84669" lon="3.52709">
        <ele>305.79998779297</ele>
        <time>2024-04-30T17:45:34.000Z</time>
      </trkpt>
      <trkpt lat="45.84667" lon="3.52704">
        <ele>305.79998779297</ele>
        <time>2024-04-30T17:45:35.000Z</time>
      </trkpt>
      <trkpt lat="45.84665" lon="3.527">
        <ele>305.60000610352</ele>
        <time>2024-04-30T17:45:36.000Z</time>
      </trkpt>
      <trkpt lat="45.84663" lon="3.52697">
        <ele>305.60000610352</ele>
        <time>2024-04-30T17:45:37.000Z</time>
      </trkpt>
      <trkpt lat="45.84662" lon="3.52693">
        <ele>305.39999389648</ele>
        <time>2024-04-30T17:45:38.000Z</time>
      </trkpt>
      <trkpt lat="45.84662" lon="3.5269">
        <ele>305.39999389648</ele>
        <time>2024-04-30T17:45:39.000Z</time>
      </trkpt>
      <trkpt lat="45.84661" lon="3.52685">
        <ele>305.60000610352</ele>
        <time>2024-04-30T17:45:40.000Z</time>
      </trkpt>
      <trkpt lat="45.84659" lon="3.52681">
        <ele>305.60000610352</ele>
        <time>2024-04-30T17:45:41.000Z</time>
      </trkpt>
      <trkpt lat="45.84658" lon="3.52678">
        <ele>305.39999389648</ele>
        <time>2024-04-30T17:45:42.000Z</time>
      </trkpt>
      <trkpt lat="45.84657" lon="3.52674">
        <ele>305.39999389648</ele>
        <time>2024-04-30T17:45:43.000Z</time>
      </trkpt>
      <trkpt lat="45.84656" lon="3.5267">
        <ele>305.39999389648</ele>
        <time>2024-04-30T17:45:44.000Z</time>
      </trkpt>
      <trkpt lat="45.84654" lon="3.52666">
        <ele>305.20001220703</ele>
        <time>2024-04-30T17:45:45.000Z</time>
      </trkpt>
      <trkpt lat="45.84653" lon="3.52661">
        <ele>305</ele>
        <time>2024-04-30T17:45:46.000Z</time>
      </trkpt>
      <trkpt lat="45.84652" lon="3.52657">
        <ele>305.20001220703</ele>
        <time>2024-04-30T17:45:47.000Z</time>
      </trkpt>
      <trkpt lat="45.8465" lon="3.52652">
        <ele>305.20001220703</ele>
        <time>2024-04-30T17:45:48.000Z</time>
      </trkpt>
      <trkpt lat="45.84648" lon="3.52646">
        <ele>305.20001220703</ele>
        <time>2024-04-30T17:45:49.000Z</time>
      </trkpt>
      <trkpt lat="45.84647" lon="3.52641">
        <ele>305</ele>
        <time>2024-04-30T17:45:50.000Z</time>
      </trkpt>
      <trkpt lat="45.84645" lon="3.52637">
        <ele>305</ele>
        <time>2024-04-30T17:45:51.000Z</time>
      </trkpt>
      <trkpt lat="45.84644" lon="3.52633">
        <ele>304.79998779297</ele>
        <time>2024-04-30T17:45:52.000Z</time>
      </trkpt>
      <trkpt lat="45.84643" lon="3.52628">
        <ele>304.60000610352</ele>
        <time>2024-04-30T17:45:53.000Z</time>
      </trkpt>
      <trkpt lat="45.84641" lon="3.52624">
        <ele>304.60000610352</ele>
        <time>2024-04-30T17:45:54.000Z</time>
      </trkpt>
      <trkpt lat="45.8464" lon="3.5262">
        <ele>304.79998779297</ele>
        <time>2024-04-30T17:45:55.000Z</time>
      </trkpt>
      <trkpt lat="45.84639" lon="3.52616">
        <ele>305</ele>
        <time>2024-04-30T17:45:56.000Z</time>
      </trkpt>
      <trkpt lat="45.84637" lon="3.52612">
        <ele>304.79998779297</ele>
        <time>2024-04-30T17:45:57.000Z</time>
      </trkpt>
      <trkpt lat="45.84636" lon="3.52608">
        <ele>304.79998779297</ele>
        <time>2024-04-30T17:45:58.000Z</time>
      </trkpt>
      <trkpt lat="45.84635" lon="3.52604">
        <ele>304.79998779297</ele>
        <time>2024-04-30T17:45:59.000Z</time>
      </trkpt>
      <trkpt lat="45.84634" lon="3.526">
        <ele>304.60000610352</ele>
        <time>2024-04-30T17:46:00.000Z</time>
      </trkpt>
      <trkpt lat="45.84632" lon="3.52596">
        <ele>304.39999389648</ele>
        <time>2024-04-30T17:46:01.000Z</time>
      </trkpt>
      <trkpt lat="45.84631" lon="3.52591">
        <ele>304.39999389648</ele>
        <time>2024-04-30T17:46:02.000Z</time>
      </trkpt>
      <trkpt lat="45.84629" lon="3.52587">
        <ele>304.60000610352</ele>
        <time>2024-04-30T17:46:03.000Z</time>
      </trkpt>
      <trkpt lat="45.84628" lon="3.52584">
        <ele>304.60000610352</ele>
        <time>2024-04-30T17:46:04.000Z</time>
      </trkpt>
      <trkpt lat="45.84626" lon="3.5258">
        <ele>304.60000610352</ele>
        <time>2024-04-30T17:46:05.000Z</time>
      </trkpt>
      <trkpt lat="45.84626" lon="3.52577">
        <ele>304.39999389648</ele>
        <time>2024-04-30T17:46:06.000Z</time>
      </trkpt>
      <trkpt lat="45.84624" lon="3.52572">
        <ele>304.20001220703</ele>
        <time>2024-04-30T17:46:07.000Z</time>
      </trkpt>
      <trkpt lat="45.84623" lon="3.52568">
        <ele>304</ele>
        <time>2024-04-30T17:46:08.000Z</time>
      </trkpt>
      <trkpt lat="45.84622" lon="3.52564">
        <ele>304</ele>
        <time>2024-04-30T17:46:09.000Z</time>
      </trkpt>
      <trkpt lat="45.84621" lon="3.5256">
        <ele>304</ele>
        <time>2024-04-30T17:46:10.000Z</time>
      </trkpt>
      <trkpt lat="45.84619" lon="3.52556">
        <ele>304.20001220703</ele>
        <time>2024-04-30T17:46:11.000Z</time>
      </trkpt>
      <trkpt lat="45.84618" lon="3.52552">
        <ele>304.20001220703</ele>
        <time>2024-04-30T17:46:12.000Z</time>
      </trkpt>
      <trkpt lat="45.84617" lon="3.52549">
        <ele>304</ele>
        <time>2024-04-30T17:46:13.000Z</time>
      </trkpt>
      <trkpt lat="45.84615" lon="3.52544">
        <ele>304</ele>
        <time>2024-04-30T17:46:14.000Z</time>
      </trkpt>
      <trkpt lat="45.84614" lon="3.52541">
        <ele>303.79998779297</ele>
        <time>2024-04-30T17:46:15.000Z</time>
      </trkpt>
      <trkpt lat="45.84613" lon="3.52537">
        <ele>303.60000610352</ele>
        <time>2024-04-30T17:46:16.000Z</time>
      </trkpt>
      <trkpt lat="45.84612" lon="3.52534">
        <ele>303.79998779297</ele>
        <time>2024-04-30T17:46:17.000Z</time>
      </trkpt>
      <trkpt lat="45.84611" lon="3.5253">
        <ele>304</ele>
        <time>2024-04-30T17:46:18.000Z</time>
      </trkpt>
      <trkpt lat="45.8461" lon="3.52527">
        <ele>303.79998779297</ele>
        <time>2024-04-30T17:46:19.000Z</time>
      </trkpt>
      <trkpt lat="45.84609" lon="3.52523">
        <ele>303.79998779297</ele>
        <time>2024-04-30T17:46:20.000Z</time>
      </trkpt>
      <trkpt lat="45.84608" lon="3.5252">
        <ele>303.60000610352</ele>
        <time>2024-04-30T17:46:21.000Z</time>
      </trkpt>
      <trkpt lat="45.84607" lon="3.52516">
        <ele>303.60000610352</ele>
        <time>2024-04-30T17:46:22.000Z</time>
      </trkpt>
      <trkpt lat="45.84606" lon="3.52512">
        <ele>303.39999389648</ele>
        <time>2024-04-30T17:46:23.000Z</time>
      </trkpt>
      <trkpt lat="45.84605" lon="3.52509">
        <ele>303.60000610352</ele>
        <time>2024-04-30T17:46:24.000Z</time>
      </trkpt>
      <trkpt lat="45.84603" lon="3.52505">
        <ele>303.60000610352</ele>
        <time>2024-04-30T17:46:25.000Z</time>
      </trkpt>
      <trkpt lat="45.84603" lon="3.52501">
        <ele>304</ele>
        <time>2024-04-30T17:46:26.000Z</time>
      </trkpt>
      <trkpt lat="45.84601" lon="3.52498">
        <ele>304</ele>
        <time>2024-04-30T17:46:27.000Z</time>
      </trkpt>
      <trkpt lat="45.846" lon="3.52494">
        <ele>304</ele>
        <time>2024-04-30T17:46:28.000Z</time>
      </trkpt>
      <trkpt lat="45.84599" lon="3.52491">
        <ele>303.79998779297</ele>
        <time>2024-04-30T17:46:29.000Z</time>
      </trkpt>
      <trkpt lat="45.84598" lon="3.52488">
        <ele>303.79998779297</ele>
        <time>2024-04-30T17:46:30.000Z</time>
      </trkpt>
      <trkpt lat="45.84596" lon="3.52482">
        <ele>303.39999389648</ele>
        <time>2024-04-30T17:46:31.000Z</time>
      </trkpt>
      <trkpt lat="45.84595" lon="3.52478">
        <ele>303.60000610352</ele>
        <time>2024-04-30T17:46:32.000Z</time>
      </trkpt>
      <trkpt lat="45.84594" lon="3.52474">
        <ele>303.60000610352</ele>
        <time>2024-04-30T17:46:33.000Z</time>
      </trkpt>
      <trkpt lat="45.84593" lon="3.52471">
        <ele>303.79998779297</ele>
        <time>2024-04-30T17:46:34.000Z</time>
      </trkpt>
      <trkpt lat="45.84591" lon="3.52467">
        <ele>304</ele>
        <time>2024-04-30T17:46:35.000Z</time>
      </trkpt>
      <trkpt lat="45.84589" lon="3.52464">
        <ele>304</ele>
        <time>2024-04-30T17:46:36.000Z</time>
      </trkpt>
      <trkpt lat="45.84588" lon="3.52461">
        <ele>304</ele>
        <time>2024-04-30T17:46:37.000Z</time>
      </trkpt>
      <trkpt lat="45.84586" lon="3.52457">
        <ele>303.79998779297</ele>
        <time>2024-04-30T17:46:38.000Z</time>
      </trkpt>
      <trkpt lat="45.84585" lon="3.52453">
        <ele>303.79998779297</ele>
        <time>2024-04-30T17:46:39.000Z</time>
      </trkpt>
      <trkpt lat="45.84584" lon="3.52449">
        <ele>303.60000610352</ele>
        <time>2024-04-30T17:46:40.000Z</time>
      </trkpt>
      <trkpt lat="45.84583" lon="3.52444">
        <ele>303.60000610352</ele>
        <time>2024-04-30T17:46:41.000Z</time>
      </trkpt>
      <trkpt lat="45.84582" lon="3.52441">
        <ele>303.79998779297</ele>
        <time>2024-04-30T17:46:42.000Z</time>
      </trkpt>
      <trkpt lat="45.8458" lon="3.52437">
        <ele>304</ele>
        <time>2024-04-30T17:46:43.000Z</time>
      </trkpt>
      <trkpt lat="45.84579" lon="3.52433">
        <ele>303.79998779297</ele>
        <time>2024-04-30T17:46:44.000Z</time>
      </trkpt>
      <trkpt lat="45.84576" lon="3.52429">
        <ele>303.79998779297</ele>
        <time>2024-04-30T17:46:45.000Z</time>
      </trkpt>
      <trkpt lat="45.84575" lon="3.52426">
        <ele>303.60000610352</ele>
        <time>2024-04-30T17:46:46.000Z</time>
      </trkpt>
      <trkpt lat="45.84574" lon="3.52423">
        <ele>303.60000610352</ele>
        <time>2024-04-30T17:46:47.000Z</time>
      </trkpt>
      <trkpt lat="45.84574" lon="3.52419">
        <ele>303.39999389648</ele>
        <time>2024-04-30T17:46:48.000Z</time>
      </trkpt>
      <trkpt lat="45.84572" lon="3.52414">
        <ele>303.60000610352</ele>
        <time>2024-04-30T17:46:49.000Z</time>
      </trkpt>
      <trkpt lat="45.84571" lon="3.52409">
        <ele>303.79998779297</ele>
        <time>2024-04-30T17:46:50.000Z</time>
      </trkpt>
      <trkpt lat="45.8457" lon="3.52405">
        <ele>303.79998779297</ele>
        <time>2024-04-30T17:46:51.000Z</time>
      </trkpt>
      <trkpt lat="45.84568" lon="3.52401">
        <ele>304</ele>
        <time>2024-04-30T17:46:52.000Z</time>
      </trkpt>
      <trkpt lat="45.84567" lon="3.52397">
        <ele>304</ele>
        <time>2024-04-30T17:46:53.000Z</time>
      </trkpt>
      <trkpt lat="45.84566" lon="3.52394">
        <ele>303.79998779297</ele>
        <time>2024-04-30T17:46:54.000Z</time>
      </trkpt>
      <trkpt lat="45.84565" lon="3.52389">
        <ele>303.79998779297</ele>
        <time>2024-04-30T17:46:55.000Z</time>
      </trkpt>
      <trkpt lat="45.84563" lon="3.52386">
        <ele>303.60000610352</ele>
        <time>2024-04-30T17:46:56.000Z</time>
      </trkpt>
      <trkpt lat="45.84562" lon="3.52382">
        <ele>303.39999389648</ele>
        <time>2024-04-30T17:46:57.000Z</time>
      </trkpt>
      <trkpt lat="45.84561" lon="3.52379">
        <ele>303.60000610352</ele>
        <time>2024-04-30T17:46:58.000Z</time>
      </trkpt>
      <trkpt lat="45.8456" lon="3.52375">
        <ele>303.60000610352</ele>
        <time>2024-04-30T17:46:59.000Z</time>
      </trkpt>
      <trkpt lat="45.84559" lon="3.52371">
        <ele>303.60000610352</ele>
        <time>2024-04-30T17:47:00.000Z</time>
      </trkpt>
      <trkpt lat="45.84559" lon="3.52369">
        <ele>303.79998779297</ele>
        <time>2024-04-30T17:47:01.000Z</time>
      </trkpt>
      <trkpt lat="45.84558" lon="3.52366">
        <ele>304</ele>
        <time>2024-04-30T17:47:02.000Z</time>
      </trkpt>
      <trkpt lat="45.84557" lon="3.52364">
        <ele>304</ele>
        <time>2024-04-30T17:47:03.000Z</time>
      </trkpt>
      <trkpt lat="45.84556" lon="3.52361">
        <ele>304</ele>
        <time>2024-04-30T17:47:04.000Z</time>
      </trkpt>
      <trkpt lat="45.84554" lon="3.52357">
        <ele>304</ele>
        <time>2024-04-30T17:47:05.000Z</time>
      </trkpt>
      <trkpt lat="45.84553" lon="3.52354">
        <ele>303.79998779297</ele>
        <time>2024-04-30T17:47:06.000Z</time>
      </trkpt>
      <trkpt lat="45.84551" lon="3.5235">
        <ele>303.60000610352</ele>
        <time>2024-04-30T17:47:07.000Z</time>
      </trkpt>
      <trkpt lat="45.8455" lon="3.52348">
        <ele>303.60000610352</ele>
        <time>2024-04-30T17:47:08.000Z</time>
      </trkpt>
      <trkpt lat="45.84549" lon="3.52345">
        <ele>303.79998779297</ele>
        <time>2024-04-30T17:47:09.000Z</time>
      </trkpt>
      <trkpt lat="45.84548" lon="3.52342">
        <ele>303.79998779297</ele>
        <time>2024-04-30T17:47:10.000Z</time>
      </trkpt>
      <trkpt lat="45.84548" lon="3.52339">
        <ele>303.79998779297</ele>
        <time>2024-04-30T17:47:11.000Z</time>
      </trkpt>
      <trkpt lat="45.84547" lon="3.52337">
        <ele>303.79998779297</ele>
        <time>2024-04-30T17:47:12.000Z</time>
      </trkpt>
      <trkpt lat="45.84547" lon="3.52333">
        <ele>303.79998779297</ele>
        <time>2024-04-30T17:47:13.000Z</time>
      </trkpt>
      <trkpt lat="45.84547" lon="3.5233">
        <ele>303.60000610352</ele>
        <time>2024-04-30T17:47:14.000Z</time>
      </trkpt>
      <trkpt lat="45.84546" lon="3.52326">
        <ele>303.39999389648</ele>
        <time>2024-04-30T17:47:15.000Z</time>
      </trkpt>
      <trkpt lat="45.84546" lon="3.52323">
        <ele>303.39999389648</ele>
        <time>2024-04-30T17:47:16.000Z</time>
      </trkpt>
      <trkpt lat="45.84545" lon="3.52319">
        <ele>303.60000610352</ele>
        <time>2024-04-30T17:47:17.000Z</time>
      </trkpt>
      <trkpt lat="45.84544" lon="3.52314">
        <ele>303.79998779297</ele>
        <time>2024-04-30T17:47:18.000Z</time>
      </trkpt>
      <trkpt lat="45.84542" lon="3.5231">
        <ele>303.79998779297</ele>
        <time>2024-04-30T17:47:19.000Z</time>
      </trkpt>
      <trkpt lat="45.8454" lon="3.52305">
        <ele>303.79998779297</ele>
        <time>2024-04-30T17:47:20.000Z</time>
      </trkpt>
      <trkpt lat="45.84538" lon="3.52301">
        <ele>303.60000610352</ele>
        <time>2024-04-30T17:47:21.000Z</time>
      </trkpt>
      <trkpt lat="45.84537" lon="3.52297">
        <ele>303.39999389648</ele>
        <time>2024-04-30T17:47:22.000Z</time>
      </trkpt>
      <trkpt lat="45.84536" lon="3.52292">
        <ele>303.20001220703</ele>
        <time>2024-04-30T17:47:23.000Z</time>
      </trkpt>
      <trkpt lat="45.84534" lon="3.52289">
        <ele>303.20001220703</ele>
        <time>2024-04-30T17:47:24.000Z</time>
      </trkpt>
      <trkpt lat="45.84534" lon="3.52285">
        <ele>303</ele>
        <time>2024-04-30T17:47:25.000Z</time>
      </trkpt>
      <trkpt lat="45.84532" lon="3.52281">
        <ele>303</ele>
        <time>2024-04-30T17:47:26.000Z</time>
      </trkpt>
      <trkpt lat="45.84531" lon="3.52277">
        <ele>303.20001220703</ele>
        <time>2024-04-30T17:47:27.000Z</time>
      </trkpt>
      <trkpt lat="45.8453" lon="3.52273">
        <ele>303.39999389648</ele>
        <time>2024-04-30T17:47:28.000Z</time>
      </trkpt>
      <trkpt lat="45.84528" lon="3.52269">
        <ele>303.20001220703</ele>
        <time>2024-04-30T17:47:29.000Z</time>
      </trkpt>
      <trkpt lat="45.84526" lon="3.52265">
        <ele>303</ele>
        <time>2024-04-30T17:47:30.000Z</time>
      </trkpt>
      <trkpt lat="45.84525" lon="3.52261">
        <ele>303</ele>
        <time>2024-04-30T17:47:31.000Z</time>
      </trkpt>
      <trkpt lat="45.84524" lon="3.52258">
        <ele>302.79998779297</ele>
        <time>2024-04-30T17:47:32.000Z</time>
      </trkpt>
      <trkpt lat="45.84524" lon="3.52254">
        <ele>302.79998779297</ele>
        <time>2024-04-30T17:47:33.000Z</time>
      </trkpt>
      <trkpt lat="45.84523" lon="3.52252">
        <ele>303</ele>
        <time>2024-04-30T17:47:34.000Z</time>
      </trkpt>
      <trkpt lat="45.84521" lon="3.52246">
        <ele>303</ele>
        <time>2024-04-30T17:47:35.000Z</time>
      </trkpt>
      <trkpt lat="45.84519" lon="3.5224">
        <ele>303</ele>
        <time>2024-04-30T17:47:36.000Z</time>
      </trkpt>
      <trkpt lat="45.84518" lon="3.52236">
        <ele>302.79998779297</ele>
        <time>2024-04-30T17:47:37.000Z</time>
      </trkpt>
      <trkpt lat="45.84517" lon="3.52232">
        <ele>302.60000610352</ele>
        <time>2024-04-30T17:47:38.000Z</time>
      </trkpt>
      <trkpt lat="45.84516" lon="3.52229">
        <ele>302.60000610352</ele>
        <time>2024-04-30T17:47:39.000Z</time>
      </trkpt>
      <trkpt lat="45.84515" lon="3.52225">
        <ele>302.60000610352</ele>
        <time>2024-04-30T17:47:40.000Z</time>
      </trkpt>
      <trkpt lat="45.84515" lon="3.5222">
        <ele>302.60000610352</ele>
        <time>2024-04-30T17:47:41.000Z</time>
      </trkpt>
      <trkpt lat="45.84514" lon="3.52218">
        <ele>302.60000610352</ele>
        <time>2024-04-30T17:47:42.000Z</time>
      </trkpt>
      <trkpt lat="45.84513" lon="3.52214">
        <ele>302.60000610352</ele>
        <time>2024-04-30T17:47:43.000Z</time>
      </trkpt>
      <trkpt lat="45.84512" lon="3.52211">
        <ele>302.60000610352</ele>
        <time>2024-04-30T17:47:44.000Z</time>
      </trkpt>
      <trkpt lat="45.84511" lon="3.52208">
        <ele>302.39999389648</ele>
        <time>2024-04-30T17:47:45.000Z</time>
      </trkpt>
      <trkpt lat="45.8451" lon="3.52206">
        <ele>302.39999389648</ele>
        <time>2024-04-30T17:47:46.000Z</time>
      </trkpt>
      <trkpt lat="45.84508" lon="3.52202">
        <ele>302.39999389648</ele>
        <time>2024-04-30T17:47:47.000Z</time>
      </trkpt>
      <trkpt lat="45.84508" lon="3.52198">
        <ele>302.39999389648</ele>
        <time>2024-04-30T17:47:48.000Z</time>
      </trkpt>
      <trkpt lat="45.8451" lon="3.52196">
        <ele>302.60000610352</ele>
        <time>2024-04-30T17:47:49.000Z</time>
      </trkpt>
      <trkpt lat="45.84513" lon="3.52193">
        <ele>302.60000610352</ele>
        <time>2024-04-30T17:47:50.000Z</time>
      </trkpt>
      <trkpt lat="45.84515" lon="3.5219">
        <ele>302.39999389648</ele>
        <time>2024-04-30T17:47:51.000Z</time>
      </trkpt>
      <trkpt lat="45.84518" lon="3.52188">
        <ele>302.20001220703</ele>
        <time>2024-04-30T17:47:52.000Z</time>
      </trkpt>
      <trkpt lat="45.84521" lon="3.52186">
        <ele>302.20001220703</ele>
        <time>2024-04-30T17:47:53.000Z</time>
      </trkpt>
      <trkpt lat="45.84524" lon="3.52184">
        <ele>302</ele>
        <time>2024-04-30T17:47:54.000Z</time>
      </trkpt>
      <trkpt lat="45.84527" lon="3.52182">
        <ele>302.20001220703</ele>
        <time>2024-04-30T17:47:55.000Z</time>
      </trkpt>
      <trkpt lat="45.8453" lon="3.52179">
        <ele>302.20001220703</ele>
        <time>2024-04-30T17:47:56.000Z</time>
      </trkpt>
      <trkpt lat="45.84533" lon="3.52177">
        <ele>302.20001220703</ele>
        <time>2024-04-30T17:47:57.000Z</time>
      </trkpt>
      <trkpt lat="45.84535" lon="3.52174">
        <ele>302.20001220703</ele>
        <time>2024-04-30T17:47:58.000Z</time>
      </trkpt>
      <trkpt lat="45.84538" lon="3.52172">
        <ele>302</ele>
        <time>2024-04-30T17:47:59.000Z</time>
      </trkpt>
      <trkpt lat="45.84539" lon="3.52168">
        <ele>301.79998779297</ele>
        <time>2024-04-30T17:48:00.000Z</time>
      </trkpt>
      <trkpt lat="45.84542" lon="3.52165">
        <ele>301.79998779297</ele>
        <time>2024-04-30T17:48:01.000Z</time>
      </trkpt>
      <trkpt lat="45.84544" lon="3.52163">
        <ele>302</ele>
        <time>2024-04-30T17:48:02.000Z</time>
      </trkpt>
      <trkpt lat="45.84547" lon="3.52161">
        <ele>302</ele>
        <time>2024-04-30T17:48:03.000Z</time>
      </trkpt>
      <trkpt lat="45.8455" lon="3.52159">
        <ele>301.79998779297</ele>
        <time>2024-04-30T17:48:04.000Z</time>
      </trkpt>
      <trkpt lat="45.84553" lon="3.52157">
        <ele>301.79998779297</ele>
        <time>2024-04-30T17:48:05.000Z</time>
      </trkpt>
      <trkpt lat="45.84555" lon="3.52154">
        <ele>301.60000610352</ele>
        <time>2024-04-30T17:48:06.000Z</time>
      </trkpt>
      <trkpt lat="45.84558" lon="3.52153">
        <ele>301.39999389648</ele>
        <time>2024-04-30T17:48:07.000Z</time>
      </trkpt>
      <trkpt lat="45.8456" lon="3.52151">
        <ele>301.60000610352</ele>
        <time>2024-04-30T17:48:08.000Z</time>
      </trkpt>
      <trkpt lat="45.84561" lon="3.5215">
        <ele>301.60000610352</ele>
        <time>2024-04-30T17:48:09.000Z</time>
      </trkpt>
      <trkpt lat="45.84563" lon="3.52149">
        <ele>301.60000610352</ele>
        <time>2024-04-30T17:48:10.000Z</time>
      </trkpt>
      <trkpt lat="45.84566" lon="3.52148">
        <ele>301.60000610352</ele>
        <time>2024-04-30T17:48:11.000Z</time>
      </trkpt>
      <trkpt lat="45.84569" lon="3.52147">
        <ele>301.39999389648</ele>
        <time>2024-04-30T17:48:12.000Z</time>
      </trkpt>
      <trkpt lat="45.84572" lon="3.52147">
        <ele>301.39999389648</ele>
        <time>2024-04-30T17:48:13.000Z</time>
      </trkpt>
      <trkpt lat="45.84575" lon="3.52146">
        <ele>301.20001220703</ele>
        <time>2024-04-30T17:48:14.000Z</time>
      </trkpt>
      <trkpt lat="45.84578" lon="3.52144">
        <ele>301.20001220703</ele>
        <time>2024-04-30T17:48:15.000Z</time>
      </trkpt>
      <trkpt lat="45.8458" lon="3.52142">
        <ele>301.20001220703</ele>
        <time>2024-04-30T17:48:16.000Z</time>
      </trkpt>
      <trkpt lat="45.84583" lon="3.5214">
        <ele>301.20001220703</ele>
        <time>2024-04-30T17:48:17.000Z</time>
      </trkpt>
      <trkpt lat="45.84585" lon="3.52138">
        <ele>301</ele>
        <time>2024-04-30T17:48:18.000Z</time>
      </trkpt>
      <trkpt lat="45.84587" lon="3.52136">
        <ele>301</ele>
        <time>2024-04-30T17:48:19.000Z</time>
      </trkpt>
      <trkpt lat="45.8459" lon="3.52135">
        <ele>301</ele>
        <time>2024-04-30T17:48:20.000Z</time>
      </trkpt>
      <trkpt lat="45.84591" lon="3.52132">
        <ele>301</ele>
        <time>2024-04-30T17:48:21.000Z</time>
      </trkpt>
      <trkpt lat="45.84593" lon="3.5213">
        <ele>301</ele>
        <time>2024-04-30T17:48:22.000Z</time>
      </trkpt>
      <trkpt lat="45.84596" lon="3.52127">
        <ele>300.79998779297</ele>
        <time>2024-04-30T17:48:23.000Z</time>
      </trkpt>
      <trkpt lat="45.84598" lon="3.52126">
        <ele>301</ele>
        <time>2024-04-30T17:48:24.000Z</time>
      </trkpt>
      <trkpt lat="45.846" lon="3.52124">
        <ele>301</ele>
        <time>2024-04-30T17:48:25.000Z</time>
      </trkpt>
      <trkpt lat="45.84603" lon="3.52123">
        <ele>300.79998779297</ele>
        <time>2024-04-30T17:48:26.000Z</time>
      </trkpt>
      <trkpt lat="45.84605" lon="3.52122">
        <ele>300.79998779297</ele>
        <time>2024-04-30T17:48:27.000Z</time>
      </trkpt>
      <trkpt lat="45.84609" lon="3.52121">
        <ele>300.79998779297</ele>
        <time>2024-04-30T17:48:28.000Z</time>
      </trkpt>
      <trkpt lat="45.84612" lon="3.5212">
        <ele>300.79998779297</ele>
        <time>2024-04-30T17:48:29.000Z</time>
      </trkpt>
      <trkpt lat="45.84615" lon="3.52119">
        <ele>300.79998779297</ele>
        <time>2024-04-30T17:48:30.000Z</time>
      </trkpt>
      <trkpt lat="45.84617" lon="3.52117">
        <ele>300.79998779297</ele>
        <time>2024-04-30T17:48:31.000Z</time>
      </trkpt>
      <trkpt lat="45.84619" lon="3.52115">
        <ele>300.79998779297</ele>
        <time>2024-04-30T17:48:32.000Z</time>
      </trkpt>
      <trkpt lat="45.84622" lon="3.52115">
        <ele>300.79998779297</ele>
        <time>2024-04-30T17:48:33.000Z</time>
      </trkpt>
      <trkpt lat="45.84625" lon="3.52113">
        <ele>300.79998779297</ele>
        <time>2024-04-30T17:48:34.000Z</time>
      </trkpt>
      <trkpt lat="45.84628" lon="3.52114">
        <ele>300.79998779297</ele>
        <time>2024-04-30T17:48:35.000Z</time>
      </trkpt>
      <trkpt lat="45.8463" lon="3.52112">
        <ele>300.79998779297</ele>
        <time>2024-04-30T17:48:36.000Z</time>
      </trkpt>
      <trkpt lat="45.84633" lon="3.52112">
        <ele>300.79998779297</ele>
        <time>2024-04-30T17:48:37.000Z</time>
      </trkpt>
    </trkseg>
  </trk>
</gpx>